<?xml version="1.0" encoding="UTF-8" standalone="no" ?>
<gpx xmlns="http://www.topografix.com/GPX/1/1" xmlns:xsi="http://www.w3.org/2001/XMLSchema-instance" xsi:schemaLocation="http://www.topografix.com/GPX/1/1 http://www.topografix.com/GPX/1/1/gpx.xsd" version="1.1" creator="VisuGPX - https://www.visugpx.com">
  <metadata>
    <name>6000D</name>
    <desc><![CDATA[Parcours de la 6000D 2012]]></desc>
  </metadata>
  <trk>
    <name><![CDATA[2010-07-24T06:00:17Z]]></name>
    <trkseg>
      <trkpt lat="45.55583" lon="6.65099">
        <ele>676.5</ele>
        <time>2010-07-24T06:00:17Z</time>
      </trkpt>
      <trkpt lat="45.55584" lon="6.65122">
        <ele>682.4</ele>
        <time>2010-07-24T06:00:46Z</time>
      </trkpt>
      <trkpt lat="45.55593" lon="6.65146">
        <ele>682.2</ele>
        <time>2010-07-24T06:00:50Z</time>
      </trkpt>
      <trkpt lat="45.55603" lon="6.65173">
        <ele>681.8</ele>
        <time>2010-07-24T06:00:55Z</time>
      </trkpt>
      <trkpt lat="45.55612" lon="6.65194">
        <ele>681.6</ele>
        <time>2010-07-24T06:00:59Z</time>
      </trkpt>
      <trkpt lat="45.55614" lon="6.652">
        <ele>681.6</ele>
        <time>2010-07-24T06:01:00Z</time>
      </trkpt>
      <trkpt lat="45.5562" lon="6.65216">
        <ele>681.4</ele>
        <time>2010-07-24T06:01:03Z</time>
      </trkpt>
      <trkpt lat="45.55625" lon="6.65226">
        <ele>681.2</ele>
        <time>2010-07-24T06:01:05Z</time>
      </trkpt>
      <trkpt lat="45.55629" lon="6.65235">
        <ele>681.2</ele>
        <time>2010-07-24T06:01:07Z</time>
      </trkpt>
      <trkpt lat="45.55636" lon="6.65248">
        <ele>681</ele>
        <time>2010-07-24T06:01:10Z</time>
      </trkpt>
      <trkpt lat="45.5565" lon="6.65268">
        <ele>680.8</ele>
        <time>2010-07-24T06:01:15Z</time>
      </trkpt>
      <trkpt lat="45.55663" lon="6.65287">
        <ele>680.6</ele>
        <time>2010-07-24T06:01:20Z</time>
      </trkpt>
      <trkpt lat="45.55677" lon="6.65305">
        <ele>680.4</ele>
        <time>2010-07-24T06:01:25Z</time>
      </trkpt>
      <trkpt lat="45.5569" lon="6.65323">
        <ele>680.4</ele>
        <time>2010-07-24T06:01:30Z</time>
      </trkpt>
      <trkpt lat="45.55704" lon="6.65344">
        <ele>680.4</ele>
        <time>2010-07-24T06:01:35Z</time>
      </trkpt>
      <trkpt lat="45.55716" lon="6.65366">
        <ele>680.2</ele>
        <time>2010-07-24T06:01:40Z</time>
      </trkpt>
      <trkpt lat="45.55723" lon="6.65381">
        <ele>680.4</ele>
        <time>2010-07-24T06:01:43Z</time>
      </trkpt>
      <trkpt lat="45.55727" lon="6.65392">
        <ele>680.2</ele>
        <time>2010-07-24T06:01:45Z</time>
      </trkpt>
      <trkpt lat="45.55734" lon="6.65419">
        <ele>680.2</ele>
        <time>2010-07-24T06:01:50Z</time>
      </trkpt>
      <trkpt lat="45.55736" lon="6.6543">
        <ele>680.2</ele>
        <time>2010-07-24T06:01:52Z</time>
      </trkpt>
      <trkpt lat="45.55737" lon="6.65441">
        <ele>680.2</ele>
        <time>2010-07-24T06:01:54Z</time>
      </trkpt>
      <trkpt lat="45.55738" lon="6.65446">
        <ele>680.2</ele>
        <time>2010-07-24T06:01:55Z</time>
      </trkpt>
      <trkpt lat="45.55743" lon="6.65473">
        <ele>680</ele>
        <time>2010-07-24T06:02:00Z</time>
      </trkpt>
      <trkpt lat="45.55745" lon="6.65502">
        <ele>680.2</ele>
        <time>2010-07-24T06:02:05Z</time>
      </trkpt>
      <trkpt lat="45.55747" lon="6.65519">
        <ele>680.6</ele>
        <time>2010-07-24T06:02:08Z</time>
      </trkpt>
      <trkpt lat="45.55745" lon="6.65531">
        <ele>680.6</ele>
        <time>2010-07-24T06:02:10Z</time>
      </trkpt>
      <trkpt lat="45.55744" lon="6.65536">
        <ele>680.6</ele>
        <time>2010-07-24T06:02:11Z</time>
      </trkpt>
      <trkpt lat="45.55739" lon="6.6556">
        <ele>680.8</ele>
        <time>2010-07-24T06:02:15Z</time>
      </trkpt>
      <trkpt lat="45.55737" lon="6.65565">
        <ele>681</ele>
        <time>2010-07-24T06:02:16Z</time>
      </trkpt>
      <trkpt lat="45.5573" lon="6.65588">
        <ele>681</ele>
        <time>2010-07-24T06:02:20Z</time>
      </trkpt>
      <trkpt lat="45.55727" lon="6.65598">
        <ele>681</ele>
        <time>2010-07-24T06:02:22Z</time>
      </trkpt>
      <trkpt lat="45.55726" lon="6.65603">
        <ele>681</ele>
        <time>2010-07-24T06:02:23Z</time>
      </trkpt>
      <trkpt lat="45.55723" lon="6.65614">
        <ele>681.2</ele>
        <time>2010-07-24T06:02:25Z</time>
      </trkpt>
      <trkpt lat="45.55718" lon="6.65629">
        <ele>681.4</ele>
        <time>2010-07-24T06:02:28Z</time>
      </trkpt>
      <trkpt lat="45.55714" lon="6.65639">
        <ele>681.4</ele>
        <time>2010-07-24T06:02:30Z</time>
      </trkpt>
      <trkpt lat="45.55699" lon="6.65658">
        <ele>681.6</ele>
        <time>2010-07-24T06:02:35Z</time>
      </trkpt>
      <trkpt lat="45.55689" lon="6.65668">
        <ele>681.8</ele>
        <time>2010-07-24T06:02:38Z</time>
      </trkpt>
      <trkpt lat="45.55682" lon="6.65676">
        <ele>681.8</ele>
        <time>2010-07-24T06:02:40Z</time>
      </trkpt>
      <trkpt lat="45.55679" lon="6.65681">
        <ele>681.8</ele>
        <time>2010-07-24T06:02:41Z</time>
      </trkpt>
      <trkpt lat="45.55675" lon="6.65691">
        <ele>681.8</ele>
        <time>2010-07-24T06:02:43Z</time>
      </trkpt>
      <trkpt lat="45.55672" lon="6.65703">
        <ele>681.8</ele>
        <time>2010-07-24T06:02:45Z</time>
      </trkpt>
      <trkpt lat="45.55668" lon="6.65725">
        <ele>681.6</ele>
        <time>2010-07-24T06:02:49Z</time>
      </trkpt>
      <trkpt lat="45.55667" lon="6.65731">
        <ele>681.6</ele>
        <time>2010-07-24T06:02:50Z</time>
      </trkpt>
      <trkpt lat="45.55665" lon="6.65755">
        <ele>681.4</ele>
        <time>2010-07-24T06:02:54Z</time>
      </trkpt>
      <trkpt lat="45.55664" lon="6.65761">
        <ele>681.2</ele>
        <time>2010-07-24T06:02:55Z</time>
      </trkpt>
      <trkpt lat="45.55661" lon="6.6578">
        <ele>681.2</ele>
        <time>2010-07-24T06:02:58Z</time>
      </trkpt>
      <trkpt lat="45.5566" lon="6.65787">
        <ele>681.2</ele>
        <time>2010-07-24T06:02:59Z</time>
      </trkpt>
      <trkpt lat="45.55656" lon="6.65817">
        <ele>680.8</ele>
        <time>2010-07-24T06:03:04Z</time>
      </trkpt>
      <trkpt lat="45.55656" lon="6.65822">
        <ele>680.8</ele>
        <time>2010-07-24T06:03:05Z</time>
      </trkpt>
      <trkpt lat="45.55655" lon="6.65828">
        <ele>680.8</ele>
        <time>2010-07-24T06:03:06Z</time>
      </trkpt>
      <trkpt lat="45.55654" lon="6.65846">
        <ele>680.6</ele>
        <time>2010-07-24T06:03:09Z</time>
      </trkpt>
      <trkpt lat="45.55653" lon="6.65876">
        <ele>680</ele>
        <time>2010-07-24T06:03:14Z</time>
      </trkpt>
      <trkpt lat="45.55653" lon="6.65894">
        <ele>679.8</ele>
        <time>2010-07-24T06:03:17Z</time>
      </trkpt>
      <trkpt lat="45.55654" lon="6.65906">
        <ele>679.4</ele>
        <time>2010-07-24T06:03:19Z</time>
      </trkpt>
      <trkpt lat="45.55654" lon="6.65918">
        <ele>679.2</ele>
        <time>2010-07-24T06:03:21Z</time>
      </trkpt>
      <trkpt lat="45.55656" lon="6.65929">
        <ele>679</ele>
        <time>2010-07-24T06:03:23Z</time>
      </trkpt>
      <trkpt lat="45.55656" lon="6.65936">
        <ele>678.8</ele>
        <time>2010-07-24T06:03:24Z</time>
      </trkpt>
      <trkpt lat="45.5565" lon="6.65961">
        <ele>678.2</ele>
        <time>2010-07-24T06:03:28Z</time>
      </trkpt>
      <trkpt lat="45.55647" lon="6.65987">
        <ele>677.4</ele>
        <time>2010-07-24T06:03:32Z</time>
      </trkpt>
      <trkpt lat="45.55636" lon="6.66008">
        <ele>676.8</ele>
        <time>2010-07-24T06:03:37Z</time>
      </trkpt>
      <trkpt lat="45.55625" lon="6.66016">
        <ele>676.4</ele>
        <time>2010-07-24T06:03:40Z</time>
      </trkpt>
      <trkpt lat="45.55617" lon="6.66021">
        <ele>676.2</ele>
        <time>2010-07-24T06:03:42Z</time>
      </trkpt>
      <trkpt lat="45.55601" lon="6.66033">
        <ele>675.6</ele>
        <time>2010-07-24T06:03:46Z</time>
      </trkpt>
      <trkpt lat="45.55591" lon="6.66051">
        <ele>675.2</ele>
        <time>2010-07-24T06:03:50Z</time>
      </trkpt>
      <trkpt lat="45.55589" lon="6.66056">
        <ele>675.2</ele>
        <time>2010-07-24T06:03:51Z</time>
      </trkpt>
      <trkpt lat="45.55581" lon="6.66073">
        <ele>675</ele>
        <time>2010-07-24T06:03:54Z</time>
      </trkpt>
      <trkpt lat="45.55579" lon="6.6608">
        <ele>674.8</ele>
        <time>2010-07-24T06:03:55Z</time>
      </trkpt>
      <trkpt lat="45.55575" lon="6.66092">
        <ele>674.8</ele>
        <time>2010-07-24T06:03:57Z</time>
      </trkpt>
      <trkpt lat="45.5557" lon="6.66103">
        <ele>674.6</ele>
        <time>2010-07-24T06:03:59Z</time>
      </trkpt>
      <trkpt lat="45.55561" lon="6.66131">
        <ele>674.2</ele>
        <time>2010-07-24T06:04:04Z</time>
      </trkpt>
      <trkpt lat="45.55548" lon="6.66152">
        <ele>674</ele>
        <time>2010-07-24T06:04:09Z</time>
      </trkpt>
      <trkpt lat="45.5553" lon="6.66161">
        <ele>673.8</ele>
        <time>2010-07-24T06:04:14Z</time>
      </trkpt>
      <trkpt lat="45.55509" lon="6.66161">
        <ele>673.4</ele>
        <time>2010-07-24T06:04:19Z</time>
      </trkpt>
      <trkpt lat="45.55506" lon="6.66158">
        <ele>673.4</ele>
        <time>2010-07-24T06:04:20Z</time>
      </trkpt>
      <trkpt lat="45.55495" lon="6.66144">
        <ele>673.4</ele>
        <time>2010-07-24T06:04:24Z</time>
      </trkpt>
      <trkpt lat="45.55486" lon="6.66119">
        <ele>673.2</ele>
        <time>2010-07-24T06:04:29Z</time>
      </trkpt>
      <trkpt lat="45.55486" lon="6.66093">
        <ele>673.2</ele>
        <time>2010-07-24T06:04:34Z</time>
      </trkpt>
      <trkpt lat="45.55487" lon="6.66088">
        <ele>673.2</ele>
        <time>2010-07-24T06:04:35Z</time>
      </trkpt>
      <trkpt lat="45.55491" lon="6.66067">
        <ele>673.2</ele>
        <time>2010-07-24T06:04:39Z</time>
      </trkpt>
      <trkpt lat="45.5549" lon="6.66039">
        <ele>673.2</ele>
        <time>2010-07-24T06:04:44Z</time>
      </trkpt>
      <trkpt lat="45.55485" lon="6.6601">
        <ele>673</ele>
        <time>2010-07-24T06:04:49Z</time>
      </trkpt>
      <trkpt lat="45.55484" lon="6.66005">
        <ele>673</ele>
        <time>2010-07-24T06:04:50Z</time>
      </trkpt>
      <trkpt lat="45.55477" lon="6.65984">
        <ele>673</ele>
        <time>2010-07-24T06:04:54Z</time>
      </trkpt>
      <trkpt lat="45.55468" lon="6.65958">
        <ele>672.8</ele>
        <time>2010-07-24T06:04:59Z</time>
      </trkpt>
      <trkpt lat="45.55461" lon="6.65931">
        <ele>672.8</ele>
        <time>2010-07-24T06:05:04Z</time>
      </trkpt>
      <trkpt lat="45.55455" lon="6.65904">
        <ele>672.6</ele>
        <time>2010-07-24T06:05:09Z</time>
      </trkpt>
      <trkpt lat="45.55452" lon="6.65879">
        <ele>672.6</ele>
        <time>2010-07-24T06:05:14Z</time>
      </trkpt>
      <trkpt lat="45.55449" lon="6.65852">
        <ele>672.8</ele>
        <time>2010-07-24T06:05:19Z</time>
      </trkpt>
      <trkpt lat="45.55447" lon="6.65826">
        <ele>673.2</ele>
        <time>2010-07-24T06:05:24Z</time>
      </trkpt>
      <trkpt lat="45.55446" lon="6.65796">
        <ele>673.6</ele>
        <time>2010-07-24T06:05:30Z</time>
      </trkpt>
      <trkpt lat="45.5544" lon="6.65771">
        <ele>673.4</ele>
        <time>2010-07-24T06:05:35Z</time>
      </trkpt>
      <trkpt lat="45.55432" lon="6.65749">
        <ele>673.2</ele>
        <time>2010-07-24T06:05:40Z</time>
      </trkpt>
      <trkpt lat="45.5542" lon="6.65727">
        <ele>673.2</ele>
        <time>2010-07-24T06:05:46Z</time>
      </trkpt>
      <trkpt lat="45.55401" lon="6.65718">
        <ele>673.2</ele>
        <time>2010-07-24T06:05:52Z</time>
      </trkpt>
      <trkpt lat="45.55383" lon="6.65706">
        <ele>673.2</ele>
        <time>2010-07-24T06:05:58Z</time>
      </trkpt>
      <trkpt lat="45.55369" lon="6.65686">
        <ele>673.6</ele>
        <time>2010-07-24T06:06:03Z</time>
      </trkpt>
      <trkpt lat="45.55356" lon="6.65664">
        <ele>674.2</ele>
        <time>2010-07-24T06:06:08Z</time>
      </trkpt>
      <trkpt lat="45.55342" lon="6.65644">
        <ele>675</ele>
        <time>2010-07-24T06:06:13Z</time>
      </trkpt>
      <trkpt lat="45.55328" lon="6.65624">
        <ele>676</ele>
        <time>2010-07-24T06:06:18Z</time>
      </trkpt>
      <trkpt lat="45.55318" lon="6.65613">
        <ele>676.4</ele>
        <time>2010-07-24T06:06:21Z</time>
      </trkpt>
      <trkpt lat="45.55311" lon="6.65606">
        <ele>676.6</ele>
        <time>2010-07-24T06:06:23Z</time>
      </trkpt>
      <trkpt lat="45.55308" lon="6.65603">
        <ele>676.8</ele>
        <time>2010-07-24T06:06:24Z</time>
      </trkpt>
      <trkpt lat="45.55295" lon="6.6559">
        <ele>677</ele>
        <time>2010-07-24T06:06:28Z</time>
      </trkpt>
      <trkpt lat="45.55281" lon="6.6557">
        <ele>677.2</ele>
        <time>2010-07-24T06:06:33Z</time>
      </trkpt>
      <trkpt lat="45.5527" lon="6.65547">
        <ele>677.2</ele>
        <time>2010-07-24T06:06:38Z</time>
      </trkpt>
      <trkpt lat="45.55262" lon="6.65522">
        <ele>677.2</ele>
        <time>2010-07-24T06:06:43Z</time>
      </trkpt>
      <trkpt lat="45.55257" lon="6.65494">
        <ele>677.2</ele>
        <time>2010-07-24T06:06:48Z</time>
      </trkpt>
      <trkpt lat="45.55251" lon="6.65469">
        <ele>677</ele>
        <time>2010-07-24T06:06:53Z</time>
      </trkpt>
      <trkpt lat="45.55242" lon="6.65442">
        <ele>676.8</ele>
        <time>2010-07-24T06:06:58Z</time>
      </trkpt>
      <trkpt lat="45.55229" lon="6.65421">
        <ele>676.8</ele>
        <time>2010-07-24T06:07:03Z</time>
      </trkpt>
      <trkpt lat="45.55213" lon="6.65402">
        <ele>676.6</ele>
        <time>2010-07-24T06:07:08Z</time>
      </trkpt>
      <trkpt lat="45.5521" lon="6.65398">
        <ele>676.6</ele>
        <time>2010-07-24T06:07:09Z</time>
      </trkpt>
      <trkpt lat="45.552" lon="6.65381">
        <ele>676.6</ele>
        <time>2010-07-24T06:07:13Z</time>
      </trkpt>
      <trkpt lat="45.5519" lon="6.65361">
        <ele>676.6</ele>
        <time>2010-07-24T06:07:17Z</time>
      </trkpt>
      <trkpt lat="45.55188" lon="6.65356">
        <ele>676.4</ele>
        <time>2010-07-24T06:07:18Z</time>
      </trkpt>
      <trkpt lat="45.55176" lon="6.6533">
        <ele>676.4</ele>
        <time>2010-07-24T06:07:23Z</time>
      </trkpt>
      <trkpt lat="45.55166" lon="6.65304">
        <ele>676.2</ele>
        <time>2010-07-24T06:07:28Z</time>
      </trkpt>
      <trkpt lat="45.55163" lon="6.65299">
        <ele>676.2</ele>
        <time>2010-07-24T06:07:29Z</time>
      </trkpt>
      <trkpt lat="45.55154" lon="6.65278">
        <ele>676</ele>
        <time>2010-07-24T06:07:33Z</time>
      </trkpt>
      <trkpt lat="45.55146" lon="6.65258">
        <ele>675.8</ele>
        <time>2010-07-24T06:07:37Z</time>
      </trkpt>
      <trkpt lat="45.55144" lon="6.65253">
        <ele>675.6</ele>
        <time>2010-07-24T06:07:38Z</time>
      </trkpt>
      <trkpt lat="45.55139" lon="6.65238">
        <ele>675.4</ele>
        <time>2010-07-24T06:07:41Z</time>
      </trkpt>
      <trkpt lat="45.55138" lon="6.65226">
        <ele>675.4</ele>
        <time>2010-07-24T06:07:43Z</time>
      </trkpt>
      <trkpt lat="45.55141" lon="6.65209">
        <ele>675</ele>
        <time>2010-07-24T06:07:46Z</time>
      </trkpt>
      <trkpt lat="45.55143" lon="6.65196">
        <ele>674.8</ele>
        <time>2010-07-24T06:07:48Z</time>
      </trkpt>
      <trkpt lat="45.55143" lon="6.6519">
        <ele>674.8</ele>
        <time>2010-07-24T06:07:49Z</time>
      </trkpt>
      <trkpt lat="45.55142" lon="6.65168">
        <ele>674.6</ele>
        <time>2010-07-24T06:07:53Z</time>
      </trkpt>
      <trkpt lat="45.55133" lon="6.65158">
        <ele>674.2</ele>
        <time>2010-07-24T06:07:56Z</time>
      </trkpt>
      <trkpt lat="45.55129" lon="6.65155">
        <ele>674.2</ele>
        <time>2010-07-24T06:07:57Z</time>
      </trkpt>
      <trkpt lat="45.55126" lon="6.65152">
        <ele>674</ele>
        <time>2010-07-24T06:07:58Z</time>
      </trkpt>
      <trkpt lat="45.55108" lon="6.65134">
        <ele>673.8</ele>
        <time>2010-07-24T06:08:03Z</time>
      </trkpt>
      <trkpt lat="45.55103" lon="6.65123">
        <ele>673.6</ele>
        <time>2010-07-24T06:08:05Z</time>
      </trkpt>
      <trkpt lat="45.55096" lon="6.65109">
        <ele>673.6</ele>
        <time>2010-07-24T06:08:08Z</time>
      </trkpt>
      <trkpt lat="45.55093" lon="6.65103">
        <ele>673.6</ele>
        <time>2010-07-24T06:08:09Z</time>
      </trkpt>
      <trkpt lat="45.55086" lon="6.65083">
        <ele>673.4</ele>
        <time>2010-07-24T06:08:13Z</time>
      </trkpt>
      <trkpt lat="45.55084" lon="6.65072">
        <ele>673.4</ele>
        <time>2010-07-24T06:08:15Z</time>
      </trkpt>
      <trkpt lat="45.55083" lon="6.65054">
        <ele>673.4</ele>
        <time>2010-07-24T06:08:18Z</time>
      </trkpt>
      <trkpt lat="45.55081" lon="6.65044">
        <ele>673.4</ele>
        <time>2010-07-24T06:08:20Z</time>
      </trkpt>
      <trkpt lat="45.5508" lon="6.65025">
        <ele>673.8</ele>
        <time>2010-07-24T06:08:23Z</time>
      </trkpt>
      <trkpt lat="45.55081" lon="6.65007">
        <ele>673.8</ele>
        <time>2010-07-24T06:08:26Z</time>
      </trkpt>
      <trkpt lat="45.55078" lon="6.64996">
        <ele>673.8</ele>
        <time>2010-07-24T06:08:28Z</time>
      </trkpt>
      <trkpt lat="45.55074" lon="6.64986">
        <ele>674</ele>
        <time>2010-07-24T06:08:30Z</time>
      </trkpt>
      <trkpt lat="45.55064" lon="6.64974">
        <ele>673.8</ele>
        <time>2010-07-24T06:08:33Z</time>
      </trkpt>
      <trkpt lat="45.55061" lon="6.6497">
        <ele>673.8</ele>
        <time>2010-07-24T06:08:34Z</time>
      </trkpt>
      <trkpt lat="45.55047" lon="6.64957">
        <ele>673.6</ele>
        <time>2010-07-24T06:08:38Z</time>
      </trkpt>
      <trkpt lat="45.55037" lon="6.64938">
        <ele>673.6</ele>
        <time>2010-07-24T06:08:42Z</time>
      </trkpt>
      <trkpt lat="45.55034" lon="6.64933">
        <ele>673.6</ele>
        <time>2010-07-24T06:08:43Z</time>
      </trkpt>
      <trkpt lat="45.55029" lon="6.64918">
        <ele>673.4</ele>
        <time>2010-07-24T06:08:46Z</time>
      </trkpt>
      <trkpt lat="45.55026" lon="6.64908">
        <ele>673.4</ele>
        <time>2010-07-24T06:08:48Z</time>
      </trkpt>
      <trkpt lat="45.55019" lon="6.64882">
        <ele>673</ele>
        <time>2010-07-24T06:08:53Z</time>
      </trkpt>
      <trkpt lat="45.5501" lon="6.64858">
        <ele>672.6</ele>
        <time>2010-07-24T06:08:58Z</time>
      </trkpt>
      <trkpt lat="45.55003" lon="6.64832">
        <ele>672.2</ele>
        <time>2010-07-24T06:09:03Z</time>
      </trkpt>
      <trkpt lat="45.54998" lon="6.64804">
        <ele>671.8</ele>
        <time>2010-07-24T06:09:08Z</time>
      </trkpt>
      <trkpt lat="45.54992" lon="6.64776">
        <ele>671.4</ele>
        <time>2010-07-24T06:09:13Z</time>
      </trkpt>
      <trkpt lat="45.54985" lon="6.64749">
        <ele>671.2</ele>
        <time>2010-07-24T06:09:18Z</time>
      </trkpt>
      <trkpt lat="45.5498" lon="6.64723">
        <ele>671.2</ele>
        <time>2010-07-24T06:09:23Z</time>
      </trkpt>
      <trkpt lat="45.54977" lon="6.64691">
        <ele>671</ele>
        <time>2010-07-24T06:09:29Z</time>
      </trkpt>
      <trkpt lat="45.54975" lon="6.64664">
        <ele>671</ele>
        <time>2010-07-24T06:09:34Z</time>
      </trkpt>
      <trkpt lat="45.54973" lon="6.64639">
        <ele>670.8</ele>
        <time>2010-07-24T06:09:38Z</time>
      </trkpt>
      <trkpt lat="45.54974" lon="6.64626">
        <ele>670.6</ele>
        <time>2010-07-24T06:09:40Z</time>
      </trkpt>
      <trkpt lat="45.54975" lon="6.64613">
        <ele>670.6</ele>
        <time>2010-07-24T06:09:42Z</time>
      </trkpt>
      <trkpt lat="45.54975" lon="6.646">
        <ele>670.4</ele>
        <time>2010-07-24T06:09:44Z</time>
      </trkpt>
      <trkpt lat="45.54974" lon="6.64582">
        <ele>670.2</ele>
        <time>2010-07-24T06:09:47Z</time>
      </trkpt>
      <trkpt lat="45.54973" lon="6.6457">
        <ele>670.2</ele>
        <time>2010-07-24T06:09:49Z</time>
      </trkpt>
      <trkpt lat="45.54971" lon="6.64553">
        <ele>670</ele>
        <time>2010-07-24T06:09:52Z</time>
      </trkpt>
      <trkpt lat="45.54968" lon="6.64527">
        <ele>669.8</ele>
        <time>2010-07-24T06:09:57Z</time>
      </trkpt>
      <trkpt lat="45.54963" lon="6.64501">
        <ele>669.4</ele>
        <time>2010-07-24T06:10:02Z</time>
      </trkpt>
      <trkpt lat="45.54961" lon="6.64473">
        <ele>669</ele>
        <time>2010-07-24T06:10:07Z</time>
      </trkpt>
      <trkpt lat="45.54966" lon="6.64444">
        <ele>668.6</ele>
        <time>2010-07-24T06:10:12Z</time>
      </trkpt>
      <trkpt lat="45.54972" lon="6.64423">
        <ele>668.2</ele>
        <time>2010-07-24T06:10:16Z</time>
      </trkpt>
      <trkpt lat="45.54973" lon="6.64418">
        <ele>668.2</ele>
        <time>2010-07-24T06:10:17Z</time>
      </trkpt>
      <trkpt lat="45.54968" lon="6.64391">
        <ele>667.8</ele>
        <time>2010-07-24T06:10:22Z</time>
      </trkpt>
      <trkpt lat="45.54966" lon="6.64364">
        <ele>667.6</ele>
        <time>2010-07-24T06:10:27Z</time>
      </trkpt>
      <trkpt lat="45.54962" lon="6.64336">
        <ele>667.2</ele>
        <time>2010-07-24T06:10:32Z</time>
      </trkpt>
      <trkpt lat="45.54959" lon="6.64308">
        <ele>666.8</ele>
        <time>2010-07-24T06:10:37Z</time>
      </trkpt>
      <trkpt lat="45.54957" lon="6.64289">
        <ele>666.8</ele>
        <time>2010-07-24T06:10:40Z</time>
      </trkpt>
      <trkpt lat="45.54957" lon="6.64277">
        <ele>666.6</ele>
        <time>2010-07-24T06:10:42Z</time>
      </trkpt>
      <trkpt lat="45.54958" lon="6.64265">
        <ele>666.6</ele>
        <time>2010-07-24T06:10:44Z</time>
      </trkpt>
      <trkpt lat="45.54961" lon="6.64248">
        <ele>666.4</ele>
        <time>2010-07-24T06:10:47Z</time>
      </trkpt>
      <trkpt lat="45.54962" lon="6.64241">
        <ele>666.4</ele>
        <time>2010-07-24T06:10:48Z</time>
      </trkpt>
      <trkpt lat="45.54963" lon="6.64225">
        <ele>666.2</ele>
        <time>2010-07-24T06:10:51Z</time>
      </trkpt>
      <trkpt lat="45.54963" lon="6.6422">
        <ele>666.2</ele>
        <time>2010-07-24T06:10:52Z</time>
      </trkpt>
      <trkpt lat="45.5496" lon="6.64192">
        <ele>666.2</ele>
        <time>2010-07-24T06:10:57Z</time>
      </trkpt>
      <trkpt lat="45.54956" lon="6.64163">
        <ele>666</ele>
        <time>2010-07-24T06:11:02Z</time>
      </trkpt>
      <trkpt lat="45.54955" lon="6.64151">
        <ele>666</ele>
        <time>2010-07-24T06:11:04Z</time>
      </trkpt>
      <trkpt lat="45.54951" lon="6.64135">
        <ele>665.8</ele>
        <time>2010-07-24T06:11:07Z</time>
      </trkpt>
      <trkpt lat="45.54951" lon="6.64129">
        <ele>665.8</ele>
        <time>2010-07-24T06:11:08Z</time>
      </trkpt>
      <trkpt lat="45.54951" lon="6.64123">
        <ele>665.8</ele>
        <time>2010-07-24T06:11:09Z</time>
      </trkpt>
      <trkpt lat="45.54952" lon="6.64106">
        <ele>665.8</ele>
        <time>2010-07-24T06:11:12Z</time>
      </trkpt>
      <trkpt lat="45.54954" lon="6.64083">
        <ele>665.8</ele>
        <time>2010-07-24T06:11:16Z</time>
      </trkpt>
      <trkpt lat="45.54956" lon="6.64077">
        <ele>665.8</ele>
        <time>2010-07-24T06:11:17Z</time>
      </trkpt>
      <trkpt lat="45.54962" lon="6.6406">
        <ele>665.8</ele>
        <time>2010-07-24T06:11:20Z</time>
      </trkpt>
      <trkpt lat="45.54965" lon="6.64055">
        <ele>665.8</ele>
        <time>2010-07-24T06:11:21Z</time>
      </trkpt>
      <trkpt lat="45.54974" lon="6.64042">
        <ele>666</ele>
        <time>2010-07-24T06:11:24Z</time>
      </trkpt>
      <trkpt lat="45.54981" lon="6.64031">
        <ele>666</ele>
        <time>2010-07-24T06:11:27Z</time>
      </trkpt>
      <trkpt lat="45.54987" lon="6.6401">
        <ele>666</ele>
        <time>2010-07-24T06:11:32Z</time>
      </trkpt>
      <trkpt lat="45.54989" lon="6.63985">
        <ele>665.8</ele>
        <time>2010-07-24T06:11:37Z</time>
      </trkpt>
      <trkpt lat="45.54985" lon="6.63954">
        <ele>666</ele>
        <time>2010-07-24T06:11:42Z</time>
      </trkpt>
      <trkpt lat="45.54983" lon="6.63943">
        <ele>665.8</ele>
        <time>2010-07-24T06:11:44Z</time>
      </trkpt>
      <trkpt lat="45.54982" lon="6.63926">
        <ele>665.6</ele>
        <time>2010-07-24T06:11:47Z</time>
      </trkpt>
      <trkpt lat="45.5498" lon="6.63903">
        <ele>666</ele>
        <time>2010-07-24T06:11:51Z</time>
      </trkpt>
      <trkpt lat="45.54979" lon="6.63897">
        <ele>666.2</ele>
        <time>2010-07-24T06:11:52Z</time>
      </trkpt>
      <trkpt lat="45.54979" lon="6.63892">
        <ele>666</ele>
        <time>2010-07-24T06:11:53Z</time>
      </trkpt>
      <trkpt lat="45.54979" lon="6.6388">
        <ele>666.2</ele>
        <time>2010-07-24T06:11:55Z</time>
      </trkpt>
      <trkpt lat="45.54978" lon="6.63868">
        <ele>666.4</ele>
        <time>2010-07-24T06:11:57Z</time>
      </trkpt>
      <trkpt lat="45.54978" lon="6.63863">
        <ele>666.6</ele>
        <time>2010-07-24T06:11:58Z</time>
      </trkpt>
      <trkpt lat="45.54973" lon="6.63841">
        <ele>666.8</ele>
        <time>2010-07-24T06:12:02Z</time>
      </trkpt>
      <trkpt lat="45.54968" lon="6.63815">
        <ele>667</ele>
        <time>2010-07-24T06:12:07Z</time>
      </trkpt>
      <trkpt lat="45.54959" lon="6.6379">
        <ele>666.8</ele>
        <time>2010-07-24T06:12:12Z</time>
      </trkpt>
      <trkpt lat="45.54947" lon="6.63768">
        <ele>666.8</ele>
        <time>2010-07-24T06:12:17Z</time>
      </trkpt>
      <trkpt lat="45.54936" lon="6.63746">
        <ele>667.6</ele>
        <time>2010-07-24T06:12:22Z</time>
      </trkpt>
      <trkpt lat="45.54927" lon="6.63724">
        <ele>668</ele>
        <time>2010-07-24T06:12:27Z</time>
      </trkpt>
      <trkpt lat="45.54915" lon="6.637">
        <ele>668.4</ele>
        <time>2010-07-24T06:12:31Z</time>
      </trkpt>
      <trkpt lat="45.54899" lon="6.6368">
        <ele>668.8</ele>
        <time>2010-07-24T06:12:37Z</time>
      </trkpt>
      <trkpt lat="45.54885" lon="6.63663">
        <ele>669.2</ele>
        <time>2010-07-24T06:12:42Z</time>
      </trkpt>
      <trkpt lat="45.54883" lon="6.6366">
        <ele>669</ele>
        <time>2010-07-24T06:12:43Z</time>
      </trkpt>
      <trkpt lat="45.54873" lon="6.63643">
        <ele>668.8</ele>
        <time>2010-07-24T06:12:47Z</time>
      </trkpt>
      <trkpt lat="45.54861" lon="6.63619">
        <ele>668.6</ele>
        <time>2010-07-24T06:12:52Z</time>
      </trkpt>
      <trkpt lat="45.54852" lon="6.63601">
        <ele>668.6</ele>
        <time>2010-07-24T06:12:56Z</time>
      </trkpt>
      <trkpt lat="45.5485" lon="6.63597">
        <ele>668.6</ele>
        <time>2010-07-24T06:12:57Z</time>
      </trkpt>
      <trkpt lat="45.54841" lon="6.63572">
        <ele>668.4</ele>
        <time>2010-07-24T06:13:02Z</time>
      </trkpt>
      <trkpt lat="45.54836" lon="6.63544">
        <ele>668.2</ele>
        <time>2010-07-24T06:13:07Z</time>
      </trkpt>
      <trkpt lat="45.54837" lon="6.63531">
        <ele>668.2</ele>
        <time>2010-07-24T06:13:09Z</time>
      </trkpt>
      <trkpt lat="45.5484" lon="6.63518">
        <ele>668.2</ele>
        <time>2010-07-24T06:13:11Z</time>
      </trkpt>
      <trkpt lat="45.54846" lon="6.63494">
        <ele>668</ele>
        <time>2010-07-24T06:13:15Z</time>
      </trkpt>
      <trkpt lat="45.5485" lon="6.63478">
        <ele>668</ele>
        <time>2010-07-24T06:13:18Z</time>
      </trkpt>
      <trkpt lat="45.54849" lon="6.63469">
        <ele>668</ele>
        <time>2010-07-24T06:13:20Z</time>
      </trkpt>
      <trkpt lat="45.54839" lon="6.63453">
        <ele>667.8</ele>
        <time>2010-07-24T06:13:24Z</time>
      </trkpt>
      <trkpt lat="45.54836" lon="6.63448">
        <ele>667.8</ele>
        <time>2010-07-24T06:13:25Z</time>
      </trkpt>
      <trkpt lat="45.5482" lon="6.6343">
        <ele>667.4</ele>
        <time>2010-07-24T06:13:30Z</time>
      </trkpt>
      <trkpt lat="45.54806" lon="6.63413">
        <ele>667.2</ele>
        <time>2010-07-24T06:13:35Z</time>
      </trkpt>
      <trkpt lat="45.54791" lon="6.63391">
        <ele>667</ele>
        <time>2010-07-24T06:13:41Z</time>
      </trkpt>
      <trkpt lat="45.5478" lon="6.63369">
        <ele>667</ele>
        <time>2010-07-24T06:13:47Z</time>
      </trkpt>
      <trkpt lat="45.54763" lon="6.63353">
        <ele>667</ele>
        <time>2010-07-24T06:13:51Z</time>
      </trkpt>
      <trkpt lat="45.54747" lon="6.6334">
        <ele>667</ele>
        <time>2010-07-24T06:13:56Z</time>
      </trkpt>
      <trkpt lat="45.54732" lon="6.63323">
        <ele>667</ele>
        <time>2010-07-24T06:14:01Z</time>
      </trkpt>
      <trkpt lat="45.54714" lon="6.63312">
        <ele>667</ele>
        <time>2010-07-24T06:14:07Z</time>
      </trkpt>
      <trkpt lat="45.54699" lon="6.63299">
        <ele>668.8</ele>
        <time>2010-07-24T06:14:12Z</time>
      </trkpt>
      <trkpt lat="45.54681" lon="6.63287">
        <ele>669.4</ele>
        <time>2010-07-24T06:14:20Z</time>
      </trkpt>
      <trkpt lat="45.54665" lon="6.63275">
        <ele>670.4</ele>
        <time>2010-07-24T06:14:27Z</time>
      </trkpt>
      <trkpt lat="45.54656" lon="6.63265">
        <ele>671</ele>
        <time>2010-07-24T06:14:30Z</time>
      </trkpt>
      <trkpt lat="45.54651" lon="6.63255">
        <ele>671.6</ele>
        <time>2010-07-24T06:14:33Z</time>
      </trkpt>
      <trkpt lat="45.54642" lon="6.63229">
        <ele>673.2</ele>
        <time>2010-07-24T06:14:39Z</time>
      </trkpt>
      <trkpt lat="45.54628" lon="6.63206">
        <ele>676.2</ele>
        <time>2010-07-24T06:14:48Z</time>
      </trkpt>
      <trkpt lat="45.54618" lon="6.63186">
        <ele>678.6</ele>
        <time>2010-07-24T06:14:54Z</time>
      </trkpt>
      <trkpt lat="45.54611" lon="6.6316">
        <ele>680</ele>
        <time>2010-07-24T06:15:01Z</time>
      </trkpt>
      <trkpt lat="45.54605" lon="6.63131">
        <ele>680.2</ele>
        <time>2010-07-24T06:15:09Z</time>
      </trkpt>
      <trkpt lat="45.54599" lon="6.63104">
        <ele>681</ele>
        <time>2010-07-24T06:15:15Z</time>
      </trkpt>
      <trkpt lat="45.54597" lon="6.63077">
        <ele>681.2</ele>
        <time>2010-07-24T06:15:22Z</time>
      </trkpt>
      <trkpt lat="45.5459" lon="6.63052">
        <ele>682</ele>
        <time>2010-07-24T06:15:28Z</time>
      </trkpt>
      <trkpt lat="45.54584" lon="6.63025">
        <ele>682.6</ele>
        <time>2010-07-24T06:15:35Z</time>
      </trkpt>
      <trkpt lat="45.54578" lon="6.62999">
        <ele>683.2</ele>
        <time>2010-07-24T06:15:42Z</time>
      </trkpt>
      <trkpt lat="45.5457" lon="6.62974">
        <ele>683.8</ele>
        <time>2010-07-24T06:15:49Z</time>
      </trkpt>
      <trkpt lat="45.5456" lon="6.62948">
        <ele>684.2</ele>
        <time>2010-07-24T06:15:56Z</time>
      </trkpt>
      <trkpt lat="45.54557" lon="6.62921">
        <ele>685</ele>
        <time>2010-07-24T06:16:02Z</time>
      </trkpt>
      <trkpt lat="45.54557" lon="6.62918">
        <ele>685.4</ele>
        <time>2010-07-24T06:16:03Z</time>
      </trkpt>
      <trkpt lat="45.54551" lon="6.62903">
        <ele>686.4</ele>
        <time>2010-07-24T06:16:08Z</time>
      </trkpt>
      <trkpt lat="45.5455" lon="6.62899">
        <ele>686.6</ele>
        <time>2010-07-24T06:16:10Z</time>
      </trkpt>
      <trkpt lat="45.54542" lon="6.62874">
        <ele>688.2</ele>
        <time>2010-07-24T06:16:16Z</time>
      </trkpt>
      <trkpt lat="45.54533" lon="6.62849">
        <ele>689.6</ele>
        <time>2010-07-24T06:16:23Z</time>
      </trkpt>
      <trkpt lat="45.54524" lon="6.62828">
        <ele>691</ele>
        <time>2010-07-24T06:16:28Z</time>
      </trkpt>
      <trkpt lat="45.5452" lon="6.6281">
        <ele>691.8</ele>
        <time>2010-07-24T06:16:33Z</time>
      </trkpt>
      <trkpt lat="45.54516" lon="6.62802">
        <ele>692.4</ele>
        <time>2010-07-24T06:16:36Z</time>
      </trkpt>
      <trkpt lat="45.54512" lon="6.62797">
        <ele>692.6</ele>
        <time>2010-07-24T06:16:38Z</time>
      </trkpt>
      <trkpt lat="45.54507" lon="6.62777">
        <ele>693.4</ele>
        <time>2010-07-24T06:16:44Z</time>
      </trkpt>
      <trkpt lat="45.545" lon="6.62752">
        <ele>695</ele>
        <time>2010-07-24T06:16:50Z</time>
      </trkpt>
      <trkpt lat="45.54494" lon="6.62726">
        <ele>696</ele>
        <time>2010-07-24T06:16:57Z</time>
      </trkpt>
      <trkpt lat="45.54488" lon="6.627">
        <ele>697</ele>
        <time>2010-07-24T06:17:05Z</time>
      </trkpt>
      <trkpt lat="45.54484" lon="6.62673">
        <ele>698.8</ele>
        <time>2010-07-24T06:17:11Z</time>
      </trkpt>
      <trkpt lat="45.54475" lon="6.6265">
        <ele>701</ele>
        <time>2010-07-24T06:17:19Z</time>
      </trkpt>
      <trkpt lat="45.54463" lon="6.62634">
        <ele>703.2</ele>
        <time>2010-07-24T06:17:25Z</time>
      </trkpt>
      <trkpt lat="45.54462" lon="6.62631">
        <ele>703.4</ele>
        <time>2010-07-24T06:17:26Z</time>
      </trkpt>
      <trkpt lat="45.54454" lon="6.62606">
        <ele>706.2</ele>
        <time>2010-07-24T06:17:32Z</time>
      </trkpt>
      <trkpt lat="45.54448" lon="6.62578">
        <ele>709.8</ele>
        <time>2010-07-24T06:17:39Z</time>
      </trkpt>
      <trkpt lat="45.54439" lon="6.62555">
        <ele>711.8</ele>
        <time>2010-07-24T06:17:48Z</time>
      </trkpt>
      <trkpt lat="45.54438" lon="6.62551">
        <ele>712.4</ele>
        <time>2010-07-24T06:17:49Z</time>
      </trkpt>
      <trkpt lat="45.54431" lon="6.6253">
        <ele>715.2</ele>
        <time>2010-07-24T06:17:55Z</time>
      </trkpt>
      <trkpt lat="45.54429" lon="6.62525">
        <ele>715.8</ele>
        <time>2010-07-24T06:17:57Z</time>
      </trkpt>
      <trkpt lat="45.54426" lon="6.62512">
        <ele>717.2</ele>
        <time>2010-07-24T06:18:01Z</time>
      </trkpt>
      <trkpt lat="45.54424" lon="6.62507">
        <ele>717.6</ele>
        <time>2010-07-24T06:18:02Z</time>
      </trkpt>
      <trkpt lat="45.54414" lon="6.62485">
        <ele>720.2</ele>
        <time>2010-07-24T06:18:11Z</time>
      </trkpt>
      <trkpt lat="45.54402" lon="6.62466">
        <ele>722.4</ele>
        <time>2010-07-24T06:18:18Z</time>
      </trkpt>
      <trkpt lat="45.54392" lon="6.62445">
        <ele>725</ele>
        <time>2010-07-24T06:18:24Z</time>
      </trkpt>
      <trkpt lat="45.54387" lon="6.62432">
        <ele>726.4</ele>
        <time>2010-07-24T06:18:28Z</time>
      </trkpt>
      <trkpt lat="45.54383" lon="6.62422">
        <ele>727.4</ele>
        <time>2010-07-24T06:18:32Z</time>
      </trkpt>
      <trkpt lat="45.54374" lon="6.624">
        <ele>729.6</ele>
        <time>2010-07-24T06:18:39Z</time>
      </trkpt>
      <trkpt lat="45.54365" lon="6.62375">
        <ele>731</ele>
        <time>2010-07-24T06:18:48Z</time>
      </trkpt>
      <trkpt lat="45.54356" lon="6.6235">
        <ele>732.2</ele>
        <time>2010-07-24T06:18:56Z</time>
      </trkpt>
      <trkpt lat="45.54349" lon="6.62323">
        <ele>733.8</ele>
        <time>2010-07-24T06:19:03Z</time>
      </trkpt>
      <trkpt lat="45.54343" lon="6.62298">
        <ele>735.2</ele>
        <time>2010-07-24T06:19:10Z</time>
      </trkpt>
      <trkpt lat="45.54338" lon="6.62273">
        <ele>736.6</ele>
        <time>2010-07-24T06:19:17Z</time>
      </trkpt>
      <trkpt lat="45.54329" lon="6.62251">
        <ele>737.8</ele>
        <time>2010-07-24T06:19:24Z</time>
      </trkpt>
      <trkpt lat="45.54325" lon="6.62226">
        <ele>739.2</ele>
        <time>2010-07-24T06:19:30Z</time>
      </trkpt>
      <trkpt lat="45.54317" lon="6.62202">
        <ele>741.6</ele>
        <time>2010-07-24T06:19:37Z</time>
      </trkpt>
      <trkpt lat="45.54309" lon="6.62185">
        <ele>744</ele>
        <time>2010-07-24T06:19:43Z</time>
      </trkpt>
      <trkpt lat="45.54305" lon="6.62179">
        <ele>744.8</ele>
        <time>2010-07-24T06:19:45Z</time>
      </trkpt>
      <trkpt lat="45.54298" lon="6.62163">
        <ele>746.8</ele>
        <time>2010-07-24T06:19:50Z</time>
      </trkpt>
      <trkpt lat="45.54295" lon="6.62157">
        <ele>747.4</ele>
        <time>2010-07-24T06:19:52Z</time>
      </trkpt>
      <trkpt lat="45.54286" lon="6.62131">
        <ele>750</ele>
        <time>2010-07-24T06:20:00Z</time>
      </trkpt>
      <trkpt lat="45.54275" lon="6.62107">
        <ele>753</ele>
        <time>2010-07-24T06:20:08Z</time>
      </trkpt>
      <trkpt lat="45.54267" lon="6.62094">
        <ele>754.8</ele>
        <time>2010-07-24T06:20:13Z</time>
      </trkpt>
      <trkpt lat="45.54264" lon="6.62084">
        <ele>756.2</ele>
        <time>2010-07-24T06:20:16Z</time>
      </trkpt>
      <trkpt lat="45.54255" lon="6.62065">
        <ele>759</ele>
        <time>2010-07-24T06:20:22Z</time>
      </trkpt>
      <trkpt lat="45.54253" lon="6.62061">
        <ele>759.4</ele>
        <time>2010-07-24T06:20:23Z</time>
      </trkpt>
      <trkpt lat="45.5424" lon="6.62041">
        <ele>762.2</ele>
        <time>2010-07-24T06:20:30Z</time>
      </trkpt>
      <trkpt lat="45.5423" lon="6.62018">
        <ele>765.6</ele>
        <time>2010-07-24T06:20:36Z</time>
      </trkpt>
      <trkpt lat="45.54218" lon="6.61998">
        <ele>767.8</ele>
        <time>2010-07-24T06:20:44Z</time>
      </trkpt>
      <trkpt lat="45.54211" lon="6.61981">
        <ele>768.4</ele>
        <time>2010-07-24T06:20:50Z</time>
      </trkpt>
      <trkpt lat="45.54209" lon="6.61975">
        <ele>768.6</ele>
        <time>2010-07-24T06:20:52Z</time>
      </trkpt>
      <trkpt lat="45.542" lon="6.61955">
        <ele>769.2</ele>
        <time>2010-07-24T06:21:00Z</time>
      </trkpt>
      <trkpt lat="45.54199" lon="6.61953">
        <ele>769.2</ele>
        <time>2010-07-24T06:21:01Z</time>
      </trkpt>
      <trkpt lat="45.54188" lon="6.61931">
        <ele>770.6</ele>
        <time>2010-07-24T06:21:09Z</time>
      </trkpt>
      <trkpt lat="45.54184" lon="6.61924">
        <ele>771.4</ele>
        <time>2010-07-24T06:21:12Z</time>
      </trkpt>
      <trkpt lat="45.54176" lon="6.6191">
        <ele>772.6</ele>
        <time>2010-07-24T06:21:17Z</time>
      </trkpt>
      <trkpt lat="45.54163" lon="6.61888">
        <ele>775.2</ele>
        <time>2010-07-24T06:21:25Z</time>
      </trkpt>
      <trkpt lat="45.54152" lon="6.61865">
        <ele>778</ele>
        <time>2010-07-24T06:21:34Z</time>
      </trkpt>
      <trkpt lat="45.54142" lon="6.61842">
        <ele>780.6</ele>
        <time>2010-07-24T06:21:42Z</time>
      </trkpt>
      <trkpt lat="45.54134" lon="6.61818">
        <ele>782.4</ele>
        <time>2010-07-24T06:21:51Z</time>
      </trkpt>
      <trkpt lat="45.54132" lon="6.61818">
        <ele>782.6</ele>
        <time>2010-07-24T06:21:52Z</time>
      </trkpt>
      <trkpt lat="45.54129" lon="6.6183">
        <ele>783.6</ele>
        <time>2010-07-24T06:21:57Z</time>
      </trkpt>
      <trkpt lat="45.54135" lon="6.6184">
        <ele>784.8</ele>
        <time>2010-07-24T06:22:00Z</time>
      </trkpt>
      <trkpt lat="45.54142" lon="6.61866">
        <ele>787.4</ele>
        <time>2010-07-24T06:22:07Z</time>
      </trkpt>
      <trkpt lat="45.54144" lon="6.61893">
        <ele>789.8</ele>
        <time>2010-07-24T06:22:16Z</time>
      </trkpt>
      <trkpt lat="45.54152" lon="6.61914">
        <ele>791.6</ele>
        <time>2010-07-24T06:22:23Z</time>
      </trkpt>
      <trkpt lat="45.54153" lon="6.61918">
        <ele>791.8</ele>
        <time>2010-07-24T06:22:24Z</time>
      </trkpt>
      <trkpt lat="45.54142" lon="6.61915">
        <ele>793.4</ele>
        <time>2010-07-24T06:22:30Z</time>
      </trkpt>
      <trkpt lat="45.54141" lon="6.61912">
        <ele>793.8</ele>
        <time>2010-07-24T06:22:31Z</time>
      </trkpt>
      <trkpt lat="45.54129" lon="6.61894">
        <ele>795.2</ele>
        <time>2010-07-24T06:22:37Z</time>
      </trkpt>
      <trkpt lat="45.54117" lon="6.61873">
        <ele>797.6</ele>
        <time>2010-07-24T06:22:44Z</time>
      </trkpt>
      <trkpt lat="45.54107" lon="6.61853">
        <ele>799.8</ele>
        <time>2010-07-24T06:22:50Z</time>
      </trkpt>
      <trkpt lat="45.54098" lon="6.61828">
        <ele>803</ele>
        <time>2010-07-24T06:22:57Z</time>
      </trkpt>
      <trkpt lat="45.54086" lon="6.61806">
        <ele>807</ele>
        <time>2010-07-24T06:23:05Z</time>
      </trkpt>
      <trkpt lat="45.54075" lon="6.61784">
        <ele>809.8</ele>
        <time>2010-07-24T06:23:12Z</time>
      </trkpt>
      <trkpt lat="45.54067" lon="6.6176">
        <ele>812.2</ele>
        <time>2010-07-24T06:23:19Z</time>
      </trkpt>
      <trkpt lat="45.54058" lon="6.61739">
        <ele>813.8</ele>
        <time>2010-07-24T06:23:26Z</time>
      </trkpt>
      <trkpt lat="45.54051" lon="6.61715">
        <ele>815</ele>
        <time>2010-07-24T06:23:32Z</time>
      </trkpt>
      <trkpt lat="45.54044" lon="6.61688">
        <ele>816.2</ele>
        <time>2010-07-24T06:23:39Z</time>
      </trkpt>
      <trkpt lat="45.54037" lon="6.61662">
        <ele>817.2</ele>
        <time>2010-07-24T06:23:46Z</time>
      </trkpt>
      <trkpt lat="45.54029" lon="6.61638">
        <ele>818.4</ele>
        <time>2010-07-24T06:23:53Z</time>
      </trkpt>
      <trkpt lat="45.54022" lon="6.61614">
        <ele>819.6</ele>
        <time>2010-07-24T06:24:00Z</time>
      </trkpt>
      <trkpt lat="45.54009" lon="6.61594">
        <ele>821.2</ele>
        <time>2010-07-24T06:24:08Z</time>
      </trkpt>
      <trkpt lat="45.53997" lon="6.61583">
        <ele>822.6</ele>
        <time>2010-07-24T06:24:14Z</time>
      </trkpt>
      <trkpt lat="45.53993" lon="6.6158">
        <ele>823.2</ele>
        <time>2010-07-24T06:24:16Z</time>
      </trkpt>
      <trkpt lat="45.53987" lon="6.61577">
        <ele>823.8</ele>
        <time>2010-07-24T06:24:18Z</time>
      </trkpt>
      <trkpt lat="45.53973" lon="6.61569">
        <ele>825</ele>
        <time>2010-07-24T06:24:23Z</time>
      </trkpt>
      <trkpt lat="45.53957" lon="6.61555">
        <ele>826.8</ele>
        <time>2010-07-24T06:24:29Z</time>
      </trkpt>
      <trkpt lat="45.53941" lon="6.61538">
        <ele>829.4</ele>
        <time>2010-07-24T06:24:37Z</time>
      </trkpt>
      <trkpt lat="45.53925" lon="6.61522">
        <ele>831.8</ele>
        <time>2010-07-24T06:24:44Z</time>
      </trkpt>
      <trkpt lat="45.53908" lon="6.61507">
        <ele>834.4</ele>
        <time>2010-07-24T06:24:51Z</time>
      </trkpt>
      <trkpt lat="45.53888" lon="6.61501">
        <ele>836.8</ele>
        <time>2010-07-24T06:24:58Z</time>
      </trkpt>
      <trkpt lat="45.53869" lon="6.61497">
        <ele>838.2</ele>
        <time>2010-07-24T06:25:04Z</time>
      </trkpt>
      <trkpt lat="45.53853" lon="6.6148">
        <ele>840</ele>
        <time>2010-07-24T06:25:11Z</time>
      </trkpt>
      <trkpt lat="45.5384" lon="6.61462">
        <ele>841.8</ele>
        <time>2010-07-24T06:25:18Z</time>
      </trkpt>
      <trkpt lat="45.53827" lon="6.61443">
        <ele>843.8</ele>
        <time>2010-07-24T06:25:26Z</time>
      </trkpt>
      <trkpt lat="45.53815" lon="6.61429">
        <ele>845.4</ele>
        <time>2010-07-24T06:25:33Z</time>
      </trkpt>
      <trkpt lat="45.53814" lon="6.61431">
        <ele>845.6</ele>
        <time>2010-07-24T06:25:34Z</time>
      </trkpt>
      <trkpt lat="45.5381" lon="6.6145">
        <ele>847.2</ele>
        <time>2010-07-24T06:25:41Z</time>
      </trkpt>
      <trkpt lat="45.53809" lon="6.61457">
        <ele>848</ele>
        <time>2010-07-24T06:25:44Z</time>
      </trkpt>
      <trkpt lat="45.53815" lon="6.61477">
        <ele>851.6</ele>
        <time>2010-07-24T06:25:54Z</time>
      </trkpt>
      <trkpt lat="45.53816" lon="6.61479">
        <ele>852</ele>
        <time>2010-07-24T06:25:55Z</time>
      </trkpt>
      <trkpt lat="45.53817" lon="6.61482">
        <ele>852.8</ele>
        <time>2010-07-24T06:25:57Z</time>
      </trkpt>
      <trkpt lat="45.53822" lon="6.61493">
        <ele>855.6</ele>
        <time>2010-07-24T06:26:02Z</time>
      </trkpt>
      <trkpt lat="45.53822" lon="6.61496">
        <ele>856.8</ele>
        <time>2010-07-24T06:26:04Z</time>
      </trkpt>
      <trkpt lat="45.53819" lon="6.61504">
        <ele>858.6</ele>
        <time>2010-07-24T06:26:09Z</time>
      </trkpt>
      <trkpt lat="45.53828" lon="6.61529">
        <ele>864</ele>
        <time>2010-07-24T06:26:24Z</time>
      </trkpt>
      <trkpt lat="45.53834" lon="6.61546">
        <ele>866.4</ele>
        <time>2010-07-24T06:26:32Z</time>
      </trkpt>
      <trkpt lat="45.53837" lon="6.61552">
        <ele>867.6</ele>
        <time>2010-07-24T06:26:35Z</time>
      </trkpt>
      <trkpt lat="45.5384" lon="6.61565">
        <ele>869.4</ele>
        <time>2010-07-24T06:26:40Z</time>
      </trkpt>
      <trkpt lat="45.53845" lon="6.61576">
        <ele>870.8</ele>
        <time>2010-07-24T06:26:45Z</time>
      </trkpt>
      <trkpt lat="45.53853" lon="6.61599">
        <ele>874.8</ele>
        <time>2010-07-24T06:26:55Z</time>
      </trkpt>
      <trkpt lat="45.53861" lon="6.61622">
        <ele>879.2</ele>
        <time>2010-07-24T06:27:07Z</time>
      </trkpt>
      <trkpt lat="45.53868" lon="6.61638">
        <ele>881.4</ele>
        <time>2010-07-24T06:27:15Z</time>
      </trkpt>
      <trkpt lat="45.53871" lon="6.61643">
        <ele>882.4</ele>
        <time>2010-07-24T06:27:18Z</time>
      </trkpt>
      <trkpt lat="45.53871" lon="6.61645">
        <ele>882.6</ele>
        <time>2010-07-24T06:27:19Z</time>
      </trkpt>
      <trkpt lat="45.53877" lon="6.61654">
        <ele>883.8</ele>
        <time>2010-07-24T06:27:24Z</time>
      </trkpt>
      <trkpt lat="45.53879" lon="6.61668">
        <ele>885.4</ele>
        <time>2010-07-24T06:27:31Z</time>
      </trkpt>
      <trkpt lat="45.53874" lon="6.6167">
        <ele>886.8</ele>
        <time>2010-07-24T06:27:36Z</time>
      </trkpt>
      <trkpt lat="45.53871" lon="6.61665">
        <ele>888.4</ele>
        <time>2010-07-24T06:27:40Z</time>
      </trkpt>
      <trkpt lat="45.53866" lon="6.61663">
        <ele>890.2</ele>
        <time>2010-07-24T06:27:44Z</time>
      </trkpt>
      <trkpt lat="45.53863" lon="6.61665">
        <ele>891.4</ele>
        <time>2010-07-24T06:27:47Z</time>
      </trkpt>
      <trkpt lat="45.53862" lon="6.61663">
        <ele>892.4</ele>
        <time>2010-07-24T06:27:49Z</time>
      </trkpt>
      <trkpt lat="45.53853" lon="6.61652">
        <ele>896.4</ele>
        <time>2010-07-24T06:27:57Z</time>
      </trkpt>
      <trkpt lat="45.5385" lon="6.61647">
        <ele>898</ele>
        <time>2010-07-24T06:28:00Z</time>
      </trkpt>
      <trkpt lat="45.53848" lon="6.61645">
        <ele>898.8</ele>
        <time>2010-07-24T06:28:01Z</time>
      </trkpt>
      <trkpt lat="45.53847" lon="6.61641">
        <ele>899.8</ele>
        <time>2010-07-24T06:28:03Z</time>
      </trkpt>
      <trkpt lat="45.53845" lon="6.61636">
        <ele>902</ele>
        <time>2010-07-24T06:28:08Z</time>
      </trkpt>
      <trkpt lat="45.53844" lon="6.61635">
        <ele>902.4</ele>
        <time>2010-07-24T06:28:09Z</time>
      </trkpt>
      <trkpt lat="45.53836" lon="6.61631">
        <ele>904.4</ele>
        <time>2010-07-24T06:28:15Z</time>
      </trkpt>
      <trkpt lat="45.53835" lon="6.6163">
        <ele>905</ele>
        <time>2010-07-24T06:28:16Z</time>
      </trkpt>
      <trkpt lat="45.53829" lon="6.61628">
        <ele>906.6</ele>
        <time>2010-07-24T06:28:20Z</time>
      </trkpt>
      <trkpt lat="45.53826" lon="6.61627">
        <ele>907.6</ele>
        <time>2010-07-24T06:28:23Z</time>
      </trkpt>
      <trkpt lat="45.53825" lon="6.61627">
        <ele>908.4</ele>
        <time>2010-07-24T06:28:25Z</time>
      </trkpt>
      <trkpt lat="45.53819" lon="6.61624">
        <ele>910</ele>
        <time>2010-07-24T06:28:29Z</time>
      </trkpt>
      <trkpt lat="45.53814" lon="6.61612">
        <ele>912.2</ele>
        <time>2010-07-24T06:28:35Z</time>
      </trkpt>
      <trkpt lat="45.53813" lon="6.6161">
        <ele>912.6</ele>
        <time>2010-07-24T06:28:36Z</time>
      </trkpt>
      <trkpt lat="45.53809" lon="6.61604">
        <ele>913.8</ele>
        <time>2010-07-24T06:28:40Z</time>
      </trkpt>
      <trkpt lat="45.53805" lon="6.61597">
        <ele>915.2</ele>
        <time>2010-07-24T06:28:44Z</time>
      </trkpt>
      <trkpt lat="45.53802" lon="6.61592">
        <ele>916.4</ele>
        <time>2010-07-24T06:28:48Z</time>
      </trkpt>
      <trkpt lat="45.53795" lon="6.61587">
        <ele>918</ele>
        <time>2010-07-24T06:28:54Z</time>
      </trkpt>
      <trkpt lat="45.5379" lon="6.61584">
        <ele>919.2</ele>
        <time>2010-07-24T06:28:59Z</time>
      </trkpt>
      <trkpt lat="45.53781" lon="6.61585">
        <ele>921.2</ele>
        <time>2010-07-24T06:29:06Z</time>
      </trkpt>
      <trkpt lat="45.53776" lon="6.61588">
        <ele>922.8</ele>
        <time>2010-07-24T06:29:10Z</time>
      </trkpt>
      <trkpt lat="45.53767" lon="6.61591">
        <ele>924.6</ele>
        <time>2010-07-24T06:29:15Z</time>
      </trkpt>
      <trkpt lat="45.53766" lon="6.6159">
        <ele>925</ele>
        <time>2010-07-24T06:29:16Z</time>
      </trkpt>
      <trkpt lat="45.53759" lon="6.61589">
        <ele>927</ele>
        <time>2010-07-24T06:29:21Z</time>
      </trkpt>
      <trkpt lat="45.53758" lon="6.6159">
        <ele>927.4</ele>
        <time>2010-07-24T06:29:22Z</time>
      </trkpt>
      <trkpt lat="45.53757" lon="6.6159">
        <ele>927.6</ele>
        <time>2010-07-24T06:29:23Z</time>
      </trkpt>
      <trkpt lat="45.53754" lon="6.61591">
        <ele>928.4</ele>
        <time>2010-07-24T06:29:26Z</time>
      </trkpt>
      <trkpt lat="45.5375" lon="6.61598">
        <ele>929.8</ele>
        <time>2010-07-24T06:29:30Z</time>
      </trkpt>
      <trkpt lat="45.53747" lon="6.61598">
        <ele>931.2</ele>
        <time>2010-07-24T06:29:33Z</time>
      </trkpt>
      <trkpt lat="45.53741" lon="6.61596">
        <ele>932.2</ele>
        <time>2010-07-24T06:29:36Z</time>
      </trkpt>
      <trkpt lat="45.53722" lon="6.61592">
        <ele>936.6</ele>
        <time>2010-07-24T06:29:47Z</time>
      </trkpt>
      <trkpt lat="45.53709" lon="6.61584">
        <ele>940.6</ele>
        <time>2010-07-24T06:29:57Z</time>
      </trkpt>
      <trkpt lat="45.53704" lon="6.61585">
        <ele>941.8</ele>
        <time>2010-07-24T06:30:00Z</time>
      </trkpt>
      <trkpt lat="45.537" lon="6.61584">
        <ele>943</ele>
        <time>2010-07-24T06:30:02Z</time>
      </trkpt>
      <trkpt lat="45.53695" lon="6.61585">
        <ele>943.8</ele>
        <time>2010-07-24T06:30:04Z</time>
      </trkpt>
      <trkpt lat="45.53687" lon="6.61579">
        <ele>947.8</ele>
        <time>2010-07-24T06:30:10Z</time>
      </trkpt>
      <trkpt lat="45.53674" lon="6.61578">
        <ele>952.2</ele>
        <time>2010-07-24T06:30:16Z</time>
      </trkpt>
      <trkpt lat="45.5367" lon="6.61577">
        <ele>955.8</ele>
        <time>2010-07-24T06:30:20Z</time>
      </trkpt>
      <trkpt lat="45.53664" lon="6.61577">
        <ele>958.4</ele>
        <time>2010-07-24T06:30:23Z</time>
      </trkpt>
      <trkpt lat="45.53657" lon="6.6158">
        <ele>964</ele>
        <time>2010-07-24T06:30:29Z</time>
      </trkpt>
      <trkpt lat="45.53654" lon="6.61579">
        <ele>966.6</ele>
        <time>2010-07-24T06:30:32Z</time>
      </trkpt>
      <trkpt lat="45.53652" lon="6.6158">
        <ele>968.2</ele>
        <time>2010-07-24T06:30:34Z</time>
      </trkpt>
      <trkpt lat="45.5365" lon="6.6158">
        <ele>969</ele>
        <time>2010-07-24T06:30:35Z</time>
      </trkpt>
      <trkpt lat="45.53632" lon="6.61578">
        <ele>976.2</ele>
        <time>2010-07-24T06:30:46Z</time>
      </trkpt>
      <trkpt lat="45.53631" lon="6.61575">
        <ele>976.4</ele>
        <time>2010-07-24T06:30:47Z</time>
      </trkpt>
      <trkpt lat="45.53622" lon="6.61569">
        <ele>978.8</ele>
        <time>2010-07-24T06:30:53Z</time>
      </trkpt>
      <trkpt lat="45.53617" lon="6.61565">
        <ele>980.4</ele>
        <time>2010-07-24T06:30:56Z</time>
      </trkpt>
      <trkpt lat="45.53608" lon="6.61565">
        <ele>981.8</ele>
        <time>2010-07-24T06:31:02Z</time>
      </trkpt>
      <trkpt lat="45.53607" lon="6.61569">
        <ele>981.8</ele>
        <time>2010-07-24T06:31:04Z</time>
      </trkpt>
      <trkpt lat="45.53613" lon="6.61576">
        <ele>981.8</ele>
        <time>2010-07-24T06:31:10Z</time>
      </trkpt>
      <trkpt lat="45.53624" lon="6.61599">
        <ele>981.6</ele>
        <time>2010-07-24T06:31:21Z</time>
      </trkpt>
      <trkpt lat="45.53637" lon="6.61616">
        <ele>981.8</ele>
        <time>2010-07-24T06:31:30Z</time>
      </trkpt>
      <trkpt lat="45.53639" lon="6.61617">
        <ele>982</ele>
        <time>2010-07-24T06:31:31Z</time>
      </trkpt>
      <trkpt lat="45.53655" lon="6.61634">
        <ele>985</ele>
        <time>2010-07-24T06:31:43Z</time>
      </trkpt>
      <trkpt lat="45.53671" lon="6.61649">
        <ele>987</ele>
        <time>2010-07-24T06:31:53Z</time>
      </trkpt>
      <trkpt lat="45.5368" lon="6.61655">
        <ele>989.2</ele>
        <time>2010-07-24T06:32:00Z</time>
      </trkpt>
      <trkpt lat="45.53685" lon="6.61658">
        <ele>990</ele>
        <time>2010-07-24T06:32:03Z</time>
      </trkpt>
      <trkpt lat="45.53687" lon="6.61663">
        <ele>990.2</ele>
        <time>2010-07-24T06:32:05Z</time>
      </trkpt>
      <trkpt lat="45.53698" lon="6.61684">
        <ele>992.2</ele>
        <time>2010-07-24T06:32:15Z</time>
      </trkpt>
      <trkpt lat="45.53697" lon="6.61687">
        <ele>992.4</ele>
        <time>2010-07-24T06:32:16Z</time>
      </trkpt>
      <trkpt lat="45.53694" lon="6.61694">
        <ele>994.4</ele>
        <time>2010-07-24T06:32:20Z</time>
      </trkpt>
      <trkpt lat="45.5369" lon="6.61701">
        <ele>996</ele>
        <time>2010-07-24T06:32:25Z</time>
      </trkpt>
      <trkpt lat="45.53686" lon="6.61706">
        <ele>997.2</ele>
        <time>2010-07-24T06:32:28Z</time>
      </trkpt>
      <trkpt lat="45.53685" lon="6.6171">
        <ele>999.8</ele>
        <time>2010-07-24T06:32:33Z</time>
      </trkpt>
      <trkpt lat="45.53686" lon="6.61711">
        <ele>1000</ele>
        <time>2010-07-24T06:32:34Z</time>
      </trkpt>
      <trkpt lat="45.53692" lon="6.61714">
        <ele>1002</ele>
        <time>2010-07-24T06:32:39Z</time>
      </trkpt>
      <trkpt lat="45.53694" lon="6.61718">
        <ele>1002.4</ele>
        <time>2010-07-24T06:32:41Z</time>
      </trkpt>
      <trkpt lat="45.53694" lon="6.61722">
        <ele>1003</ele>
        <time>2010-07-24T06:32:43Z</time>
      </trkpt>
      <trkpt lat="45.53694" lon="6.61725">
        <ele>1003.2</ele>
        <time>2010-07-24T06:32:44Z</time>
      </trkpt>
      <trkpt lat="45.53703" lon="6.61741">
        <ele>1004.6</ele>
        <time>2010-07-24T06:32:53Z</time>
      </trkpt>
      <trkpt lat="45.53705" lon="6.61742">
        <ele>1004.8</ele>
        <time>2010-07-24T06:32:54Z</time>
      </trkpt>
      <trkpt lat="45.53706" lon="6.61745">
        <ele>1005</ele>
        <time>2010-07-24T06:32:55Z</time>
      </trkpt>
      <trkpt lat="45.53712" lon="6.61756">
        <ele>1007.8</ele>
        <time>2010-07-24T06:33:02Z</time>
      </trkpt>
      <trkpt lat="45.53717" lon="6.61761">
        <ele>1009.4</ele>
        <time>2010-07-24T06:33:06Z</time>
      </trkpt>
      <trkpt lat="45.53719" lon="6.61763">
        <ele>1009.8</ele>
        <time>2010-07-24T06:33:07Z</time>
      </trkpt>
      <trkpt lat="45.53721" lon="6.61768">
        <ele>1010.4</ele>
        <time>2010-07-24T06:33:09Z</time>
      </trkpt>
      <trkpt lat="45.53716" lon="6.61777">
        <ele>1012.6</ele>
        <time>2010-07-24T06:33:14Z</time>
      </trkpt>
      <trkpt lat="45.53713" lon="6.61778">
        <ele>1013.2</ele>
        <time>2010-07-24T06:33:15Z</time>
      </trkpt>
      <trkpt lat="45.5371" lon="6.61777">
        <ele>1014.8</ele>
        <time>2010-07-24T06:33:18Z</time>
      </trkpt>
      <trkpt lat="45.53698" lon="6.61779">
        <ele>1018.8</ele>
        <time>2010-07-24T06:33:26Z</time>
      </trkpt>
      <trkpt lat="45.53692" lon="6.61781">
        <ele>1020.8</ele>
        <time>2010-07-24T06:33:29Z</time>
      </trkpt>
      <trkpt lat="45.53684" lon="6.6178">
        <ele>1023.4</ele>
        <time>2010-07-24T06:33:33Z</time>
      </trkpt>
      <trkpt lat="45.53681" lon="6.61781">
        <ele>1024.8</ele>
        <time>2010-07-24T06:33:36Z</time>
      </trkpt>
      <trkpt lat="45.53681" lon="6.61785">
        <ele>1029</ele>
        <time>2010-07-24T06:33:44Z</time>
      </trkpt>
      <trkpt lat="45.53686" lon="6.61793">
        <ele>1031.2</ele>
        <time>2010-07-24T06:33:49Z</time>
      </trkpt>
      <trkpt lat="45.53689" lon="6.61796">
        <ele>1033</ele>
        <time>2010-07-24T06:33:53Z</time>
      </trkpt>
      <trkpt lat="45.53698" lon="6.61804">
        <ele>1036</ele>
        <time>2010-07-24T06:34:00Z</time>
      </trkpt>
      <trkpt lat="45.53711" lon="6.61822">
        <ele>1038.8</ele>
        <time>2010-07-24T06:34:11Z</time>
      </trkpt>
      <trkpt lat="45.53712" lon="6.61824">
        <ele>1038.8</ele>
        <time>2010-07-24T06:34:12Z</time>
      </trkpt>
      <trkpt lat="45.53713" lon="6.61827">
        <ele>1038.8</ele>
        <time>2010-07-24T06:34:13Z</time>
      </trkpt>
      <trkpt lat="45.53721" lon="6.61848">
        <ele>1039.2</ele>
        <time>2010-07-24T06:34:23Z</time>
      </trkpt>
      <trkpt lat="45.53721" lon="6.61849">
        <ele>1039.4</ele>
        <time>2010-07-24T06:34:24Z</time>
      </trkpt>
      <trkpt lat="45.53727" lon="6.61858">
        <ele>1040</ele>
        <time>2010-07-24T06:34:31Z</time>
      </trkpt>
      <trkpt lat="45.53731" lon="6.61873">
        <ele>1040.4</ele>
        <time>2010-07-24T06:34:39Z</time>
      </trkpt>
      <trkpt lat="45.53732" lon="6.61881">
        <ele>1040.4</ele>
        <time>2010-07-24T06:34:42Z</time>
      </trkpt>
      <trkpt lat="45.5374" lon="6.61898">
        <ele>1043</ele>
        <time>2010-07-24T06:34:50Z</time>
      </trkpt>
      <trkpt lat="45.53747" lon="6.61918">
        <ele>1048</ele>
        <time>2010-07-24T06:35:00Z</time>
      </trkpt>
      <trkpt lat="45.53747" lon="6.61923">
        <ele>1051</ele>
        <time>2010-07-24T06:35:05Z</time>
      </trkpt>
      <trkpt lat="45.53749" lon="6.61926">
        <ele>1052.2</ele>
        <time>2010-07-24T06:35:07Z</time>
      </trkpt>
      <trkpt lat="45.5375" lon="6.61928">
        <ele>1053.8</ele>
        <time>2010-07-24T06:35:10Z</time>
      </trkpt>
      <trkpt lat="45.53761" lon="6.61936">
        <ele>1057</ele>
        <time>2010-07-24T06:35:18Z</time>
      </trkpt>
      <trkpt lat="45.53761" lon="6.61939">
        <ele>1057.2</ele>
        <time>2010-07-24T06:35:19Z</time>
      </trkpt>
      <trkpt lat="45.53772" lon="6.61966">
        <ele>1061.2</ele>
        <time>2010-07-24T06:35:32Z</time>
      </trkpt>
      <trkpt lat="45.53773" lon="6.6197">
        <ele>1062.4</ele>
        <time>2010-07-24T06:35:35Z</time>
      </trkpt>
      <trkpt lat="45.53776" lon="6.61973">
        <ele>1063.6</ele>
        <time>2010-07-24T06:35:37Z</time>
      </trkpt>
      <trkpt lat="45.53775" lon="6.61989">
        <ele>1067.4</ele>
        <time>2010-07-24T06:35:44Z</time>
      </trkpt>
      <trkpt lat="45.53782" lon="6.62011">
        <ele>1077.4</ele>
        <time>2010-07-24T06:35:57Z</time>
      </trkpt>
      <trkpt lat="45.53783" lon="6.62014">
        <ele>1078.2</ele>
        <time>2010-07-24T06:35:58Z</time>
      </trkpt>
      <trkpt lat="45.53784" lon="6.62017">
        <ele>1078.8</ele>
        <time>2010-07-24T06:35:59Z</time>
      </trkpt>
      <trkpt lat="45.53789" lon="6.62024">
        <ele>1081</ele>
        <time>2010-07-24T06:36:03Z</time>
      </trkpt>
      <trkpt lat="45.53789" lon="6.62025">
        <ele>1081.4</ele>
        <time>2010-07-24T06:36:04Z</time>
      </trkpt>
      <trkpt lat="45.53795" lon="6.62034">
        <ele>1088.2</ele>
        <time>2010-07-24T06:36:15Z</time>
      </trkpt>
      <trkpt lat="45.53799" lon="6.62041">
        <ele>1090.2</ele>
        <time>2010-07-24T06:36:19Z</time>
      </trkpt>
      <trkpt lat="45.53807" lon="6.62046">
        <ele>1094.4</ele>
        <time>2010-07-24T06:36:25Z</time>
      </trkpt>
      <trkpt lat="45.5381" lon="6.62052">
        <ele>1095</ele>
        <time>2010-07-24T06:36:27Z</time>
      </trkpt>
      <trkpt lat="45.53811" lon="6.62054">
        <ele>1095.4</ele>
        <time>2010-07-24T06:36:29Z</time>
      </trkpt>
      <trkpt lat="45.53811" lon="6.62059">
        <ele>1096</ele>
        <time>2010-07-24T06:36:33Z</time>
      </trkpt>
      <trkpt lat="45.53815" lon="6.62072">
        <ele>1097.2</ele>
        <time>2010-07-24T06:36:42Z</time>
      </trkpt>
      <trkpt lat="45.53816" lon="6.62075">
        <ele>1097.4</ele>
        <time>2010-07-24T06:36:44Z</time>
      </trkpt>
      <trkpt lat="45.53817" lon="6.62079">
        <ele>1097.4</ele>
        <time>2010-07-24T06:36:46Z</time>
      </trkpt>
      <trkpt lat="45.53823" lon="6.62085">
        <ele>1097.6</ele>
        <time>2010-07-24T06:36:52Z</time>
      </trkpt>
      <trkpt lat="45.53828" lon="6.62095">
        <ele>1098.2</ele>
        <time>2010-07-24T06:36:59Z</time>
      </trkpt>
      <trkpt lat="45.53832" lon="6.62121">
        <ele>1099</ele>
        <time>2010-07-24T06:37:13Z</time>
      </trkpt>
      <trkpt lat="45.53833" lon="6.62125">
        <ele>1099.4</ele>
        <time>2010-07-24T06:37:15Z</time>
      </trkpt>
      <trkpt lat="45.53835" lon="6.62138">
        <ele>1100.6</ele>
        <time>2010-07-24T06:37:21Z</time>
      </trkpt>
      <trkpt lat="45.53839" lon="6.62148">
        <ele>1101.6</ele>
        <time>2010-07-24T06:37:25Z</time>
      </trkpt>
      <trkpt lat="45.53842" lon="6.62157">
        <ele>1102.2</ele>
        <time>2010-07-24T06:37:28Z</time>
      </trkpt>
      <trkpt lat="45.53847" lon="6.62174">
        <ele>1105</ele>
        <time>2010-07-24T06:37:35Z</time>
      </trkpt>
      <trkpt lat="45.5385" lon="6.62182">
        <ele>1106.6</ele>
        <time>2010-07-24T06:37:38Z</time>
      </trkpt>
      <trkpt lat="45.53848" lon="6.62193">
        <ele>1108.6</ele>
        <time>2010-07-24T06:37:43Z</time>
      </trkpt>
      <trkpt lat="45.53848" lon="6.62199">
        <ele>1110.6</ele>
        <time>2010-07-24T06:37:47Z</time>
      </trkpt>
      <trkpt lat="45.53844" lon="6.62223">
        <ele>1117.8</ele>
        <time>2010-07-24T06:37:59Z</time>
      </trkpt>
      <trkpt lat="45.53842" lon="6.62228">
        <ele>1118.4</ele>
        <time>2010-07-24T06:38:01Z</time>
      </trkpt>
      <trkpt lat="45.53842" lon="6.62229">
        <ele>1118.8</ele>
        <time>2010-07-24T06:38:02Z</time>
      </trkpt>
      <trkpt lat="45.53845" lon="6.6225">
        <ele>1121.6</ele>
        <time>2010-07-24T06:38:12Z</time>
      </trkpt>
      <trkpt lat="45.53845" lon="6.62251">
        <ele>1121.8</ele>
        <time>2010-07-24T06:38:13Z</time>
      </trkpt>
      <trkpt lat="45.53844" lon="6.62276">
        <ele>1123.6</ele>
        <time>2010-07-24T06:38:25Z</time>
      </trkpt>
      <trkpt lat="45.53844" lon="6.6228">
        <ele>1124</ele>
        <time>2010-07-24T06:38:27Z</time>
      </trkpt>
      <trkpt lat="45.53853" lon="6.623">
        <ele>1126</ele>
        <time>2010-07-24T06:38:35Z</time>
      </trkpt>
      <trkpt lat="45.53856" lon="6.62306">
        <ele>1126.4</ele>
        <time>2010-07-24T06:38:37Z</time>
      </trkpt>
      <trkpt lat="45.53864" lon="6.62322">
        <ele>1127.2</ele>
        <time>2010-07-24T06:38:43Z</time>
      </trkpt>
      <trkpt lat="45.53874" lon="6.62345">
        <ele>1128.4</ele>
        <time>2010-07-24T06:38:52Z</time>
      </trkpt>
      <trkpt lat="45.53879" lon="6.62358">
        <ele>1129</ele>
        <time>2010-07-24T06:38:56Z</time>
      </trkpt>
      <trkpt lat="45.53882" lon="6.62368">
        <ele>1129.4</ele>
        <time>2010-07-24T06:39:00Z</time>
      </trkpt>
      <trkpt lat="45.53896" lon="6.62388">
        <ele>1131.8</ele>
        <time>2010-07-24T06:39:08Z</time>
      </trkpt>
      <trkpt lat="45.53896" lon="6.62391">
        <ele>1132</ele>
        <time>2010-07-24T06:39:09Z</time>
      </trkpt>
      <trkpt lat="45.53903" lon="6.62414">
        <ele>1134</ele>
        <time>2010-07-24T06:39:16Z</time>
      </trkpt>
      <trkpt lat="45.53904" lon="6.62419">
        <ele>1134.6</ele>
        <time>2010-07-24T06:39:18Z</time>
      </trkpt>
      <trkpt lat="45.53903" lon="6.62442">
        <ele>1137</ele>
        <time>2010-07-24T06:39:26Z</time>
      </trkpt>
      <trkpt lat="45.53904" lon="6.62468">
        <ele>1140.4</ele>
        <time>2010-07-24T06:39:36Z</time>
      </trkpt>
      <trkpt lat="45.53904" lon="6.62477">
        <ele>1141.4</ele>
        <time>2010-07-24T06:39:39Z</time>
      </trkpt>
      <trkpt lat="45.53903" lon="6.62495">
        <ele>1143.4</ele>
        <time>2010-07-24T06:39:45Z</time>
      </trkpt>
      <trkpt lat="45.53901" lon="6.62514">
        <ele>1146</ele>
        <time>2010-07-24T06:39:52Z</time>
      </trkpt>
      <trkpt lat="45.53902" lon="6.62522">
        <ele>1147</ele>
        <time>2010-07-24T06:39:55Z</time>
      </trkpt>
      <trkpt lat="45.53903" lon="6.62548">
        <ele>1150</ele>
        <time>2010-07-24T06:40:03Z</time>
      </trkpt>
      <trkpt lat="45.53902" lon="6.62551">
        <ele>1150.4</ele>
        <time>2010-07-24T06:40:04Z</time>
      </trkpt>
      <trkpt lat="45.53893" lon="6.62571">
        <ele>1152.8</ele>
        <time>2010-07-24T06:40:11Z</time>
      </trkpt>
      <trkpt lat="45.53883" lon="6.62595">
        <ele>1155.8</ele>
        <time>2010-07-24T06:40:20Z</time>
      </trkpt>
      <trkpt lat="45.53877" lon="6.62606">
        <ele>1157.8</ele>
        <time>2010-07-24T06:40:25Z</time>
      </trkpt>
      <trkpt lat="45.53872" lon="6.626">
        <ele>1158.8</ele>
        <time>2010-07-24T06:40:28Z</time>
      </trkpt>
      <trkpt lat="45.53872" lon="6.62596">
        <ele>1159</ele>
        <time>2010-07-24T06:40:29Z</time>
      </trkpt>
      <trkpt lat="45.53869" lon="6.62572">
        <ele>1160.6</ele>
        <time>2010-07-24T06:40:35Z</time>
      </trkpt>
      <trkpt lat="45.53864" lon="6.62559">
        <ele>1161.6</ele>
        <time>2010-07-24T06:40:39Z</time>
      </trkpt>
      <trkpt lat="45.53855" lon="6.62559">
        <ele>1162.6</ele>
        <time>2010-07-24T06:40:43Z</time>
      </trkpt>
      <trkpt lat="45.53848" lon="6.62583">
        <ele>1164.4</ele>
        <time>2010-07-24T06:40:50Z</time>
      </trkpt>
      <trkpt lat="45.53848" lon="6.62608">
        <ele>1166.2</ele>
        <time>2010-07-24T06:40:56Z</time>
      </trkpt>
      <trkpt lat="45.53848" lon="6.62611">
        <ele>1166.6</ele>
        <time>2010-07-24T06:40:57Z</time>
      </trkpt>
      <trkpt lat="45.53843" lon="6.62639">
        <ele>1168.8</ele>
        <time>2010-07-24T06:41:04Z</time>
      </trkpt>
      <trkpt lat="45.5383" lon="6.62657">
        <ele>1171.6</ele>
        <time>2010-07-24T06:41:12Z</time>
      </trkpt>
      <trkpt lat="45.53811" lon="6.6267">
        <ele>1174.4</ele>
        <time>2010-07-24T06:41:20Z</time>
      </trkpt>
      <trkpt lat="45.53794" lon="6.62677">
        <ele>1176.8</ele>
        <time>2010-07-24T06:41:26Z</time>
      </trkpt>
      <trkpt lat="45.53777" lon="6.62685">
        <ele>1178.8</ele>
        <time>2010-07-24T06:41:32Z</time>
      </trkpt>
      <trkpt lat="45.53759" lon="6.62693">
        <ele>1180.2</ele>
        <time>2010-07-24T06:41:38Z</time>
      </trkpt>
      <trkpt lat="45.53741" lon="6.62701">
        <ele>1181</ele>
        <time>2010-07-24T06:41:44Z</time>
      </trkpt>
      <trkpt lat="45.53728" lon="6.62721">
        <ele>1181.2</ele>
        <time>2010-07-24T06:41:49Z</time>
      </trkpt>
      <trkpt lat="45.53714" lon="6.62743">
        <ele>1181.8</ele>
        <time>2010-07-24T06:41:55Z</time>
      </trkpt>
      <trkpt lat="45.53714" lon="6.62763">
        <ele>1181.6</ele>
        <time>2010-07-24T06:41:59Z</time>
      </trkpt>
      <trkpt lat="45.53716" lon="6.62767">
        <ele>1181.6</ele>
        <time>2010-07-24T06:42:00Z</time>
      </trkpt>
      <trkpt lat="45.53724" lon="6.62793">
        <ele>1181.4</ele>
        <time>2010-07-24T06:42:06Z</time>
      </trkpt>
      <trkpt lat="45.53724" lon="6.62797">
        <ele>1181.4</ele>
        <time>2010-07-24T06:42:07Z</time>
      </trkpt>
      <trkpt lat="45.5371" lon="6.62809">
        <ele>1181.4</ele>
        <time>2010-07-24T06:42:14Z</time>
      </trkpt>
      <trkpt lat="45.53693" lon="6.62817">
        <ele>1181.2</ele>
        <time>2010-07-24T06:42:21Z</time>
      </trkpt>
      <trkpt lat="45.5369" lon="6.62818">
        <ele>1181.2</ele>
        <time>2010-07-24T06:42:22Z</time>
      </trkpt>
      <trkpt lat="45.53672" lon="6.6281">
        <ele>1181.6</ele>
        <time>2010-07-24T06:42:28Z</time>
      </trkpt>
      <trkpt lat="45.53653" lon="6.62808">
        <ele>1182.2</ele>
        <time>2010-07-24T06:42:35Z</time>
      </trkpt>
      <trkpt lat="45.53635" lon="6.62817">
        <ele>1183.6</ele>
        <time>2010-07-24T06:42:41Z</time>
      </trkpt>
      <trkpt lat="45.5363" lon="6.6282">
        <ele>1184</ele>
        <time>2010-07-24T06:42:43Z</time>
      </trkpt>
      <trkpt lat="45.53632" lon="6.62837">
        <ele>1185.4</ele>
        <time>2010-07-24T06:42:49Z</time>
      </trkpt>
      <trkpt lat="45.53632" lon="6.6284">
        <ele>1185.6</ele>
        <time>2010-07-24T06:42:50Z</time>
      </trkpt>
      <trkpt lat="45.53637" lon="6.62861">
        <ele>1186.8</ele>
        <time>2010-07-24T06:42:56Z</time>
      </trkpt>
      <trkpt lat="45.53642" lon="6.62887">
        <ele>1188.4</ele>
        <time>2010-07-24T06:43:04Z</time>
      </trkpt>
      <trkpt lat="45.53647" lon="6.62914">
        <ele>1190.2</ele>
        <time>2010-07-24T06:43:13Z</time>
      </trkpt>
      <trkpt lat="45.53649" lon="6.62928">
        <ele>1191.4</ele>
        <time>2010-07-24T06:43:18Z</time>
      </trkpt>
      <trkpt lat="45.5365" lon="6.6294">
        <ele>1192.4</ele>
        <time>2010-07-24T06:43:22Z</time>
      </trkpt>
      <trkpt lat="45.53652" lon="6.62952">
        <ele>1193.4</ele>
        <time>2010-07-24T06:43:26Z</time>
      </trkpt>
      <trkpt lat="45.53654" lon="6.62964">
        <ele>1194.6</ele>
        <time>2010-07-24T06:43:30Z</time>
      </trkpt>
      <trkpt lat="45.53654" lon="6.62967">
        <ele>1194.8</ele>
        <time>2010-07-24T06:43:31Z</time>
      </trkpt>
      <trkpt lat="45.53659" lon="6.62995">
        <ele>1197.6</ele>
        <time>2010-07-24T06:43:40Z</time>
      </trkpt>
      <trkpt lat="45.5366" lon="6.62998">
        <ele>1198</ele>
        <time>2010-07-24T06:43:41Z</time>
      </trkpt>
      <trkpt lat="45.53663" lon="6.63011">
        <ele>1199.6</ele>
        <time>2010-07-24T06:43:45Z</time>
      </trkpt>
      <trkpt lat="45.53665" lon="6.63021">
        <ele>1200.6</ele>
        <time>2010-07-24T06:43:48Z</time>
      </trkpt>
      <trkpt lat="45.53667" lon="6.63028">
        <ele>1201.2</ele>
        <time>2010-07-24T06:43:50Z</time>
      </trkpt>
      <trkpt lat="45.5367" lon="6.63047">
        <ele>1203.2</ele>
        <time>2010-07-24T06:43:56Z</time>
      </trkpt>
      <trkpt lat="45.53677" lon="6.63073">
        <ele>1205.8</ele>
        <time>2010-07-24T06:44:05Z</time>
      </trkpt>
      <trkpt lat="45.53681" lon="6.63091">
        <ele>1207.6</ele>
        <time>2010-07-24T06:44:11Z</time>
      </trkpt>
      <trkpt lat="45.53684" lon="6.63097">
        <ele>1208.4</ele>
        <time>2010-07-24T06:44:13Z</time>
      </trkpt>
      <trkpt lat="45.53685" lon="6.63103">
        <ele>1209</ele>
        <time>2010-07-24T06:44:15Z</time>
      </trkpt>
      <trkpt lat="45.53687" lon="6.63123">
        <ele>1211</ele>
        <time>2010-07-24T06:44:22Z</time>
      </trkpt>
      <trkpt lat="45.53688" lon="6.63129">
        <ele>1211.6</ele>
        <time>2010-07-24T06:44:24Z</time>
      </trkpt>
      <trkpt lat="45.53692" lon="6.63144">
        <ele>1213</ele>
        <time>2010-07-24T06:44:29Z</time>
      </trkpt>
      <trkpt lat="45.53693" lon="6.6315">
        <ele>1213.6</ele>
        <time>2010-07-24T06:44:31Z</time>
      </trkpt>
      <trkpt lat="45.53699" lon="6.63176">
        <ele>1215.6</ele>
        <time>2010-07-24T06:44:39Z</time>
      </trkpt>
      <trkpt lat="45.53703" lon="6.63201">
        <ele>1218</ele>
        <time>2010-07-24T06:44:47Z</time>
      </trkpt>
      <trkpt lat="45.53704" lon="6.63203">
        <ele>1218.4</ele>
        <time>2010-07-24T06:44:48Z</time>
      </trkpt>
      <trkpt lat="45.53707" lon="6.63228">
        <ele>1220.8</ele>
        <time>2010-07-24T06:44:56Z</time>
      </trkpt>
      <trkpt lat="45.53716" lon="6.63253">
        <ele>1223.2</ele>
        <time>2010-07-24T06:45:04Z</time>
      </trkpt>
      <trkpt lat="45.53721" lon="6.63279">
        <ele>1226.8</ele>
        <time>2010-07-24T06:45:11Z</time>
      </trkpt>
      <trkpt lat="45.53718" lon="6.63306">
        <ele>1230.6</ele>
        <time>2010-07-24T06:45:19Z</time>
      </trkpt>
      <trkpt lat="45.53722" lon="6.63332">
        <ele>1234</ele>
        <time>2010-07-24T06:45:26Z</time>
      </trkpt>
      <trkpt lat="45.5372" lon="6.63339">
        <ele>1234.6</ele>
        <time>2010-07-24T06:45:28Z</time>
      </trkpt>
      <trkpt lat="45.53709" lon="6.63337">
        <ele>1236</ele>
        <time>2010-07-24T06:45:33Z</time>
      </trkpt>
      <trkpt lat="45.53707" lon="6.63334">
        <ele>1236.4</ele>
        <time>2010-07-24T06:45:34Z</time>
      </trkpt>
      <trkpt lat="45.53702" lon="6.63313">
        <ele>1237.2</ele>
        <time>2010-07-24T06:45:40Z</time>
      </trkpt>
      <trkpt lat="45.537" lon="6.6331">
        <ele>1237.4</ele>
        <time>2010-07-24T06:45:41Z</time>
      </trkpt>
      <trkpt lat="45.53695" lon="6.63296">
        <ele>1237.6</ele>
        <time>2010-07-24T06:45:46Z</time>
      </trkpt>
      <trkpt lat="45.53694" lon="6.63289">
        <ele>1237.8</ele>
        <time>2010-07-24T06:45:48Z</time>
      </trkpt>
      <trkpt lat="45.53688" lon="6.63264">
        <ele>1238.4</ele>
        <time>2010-07-24T06:45:56Z</time>
      </trkpt>
      <trkpt lat="45.53674" lon="6.63243">
        <ele>1239.8</ele>
        <time>2010-07-24T06:46:04Z</time>
      </trkpt>
      <trkpt lat="45.53659" lon="6.63228">
        <ele>1241.8</ele>
        <time>2010-07-24T06:46:13Z</time>
      </trkpt>
      <trkpt lat="45.53643" lon="6.63212">
        <ele>1245</ele>
        <time>2010-07-24T06:46:23Z</time>
      </trkpt>
      <trkpt lat="45.53636" lon="6.63205">
        <ele>1246.6</ele>
        <time>2010-07-24T06:46:28Z</time>
      </trkpt>
      <trkpt lat="45.53632" lon="6.63217">
        <ele>1249</ele>
        <time>2010-07-24T06:46:35Z</time>
      </trkpt>
      <trkpt lat="45.53629" lon="6.63235">
        <ele>1251.4</ele>
        <time>2010-07-24T06:46:44Z</time>
      </trkpt>
      <trkpt lat="45.53628" lon="6.63243">
        <ele>1252.2</ele>
        <time>2010-07-24T06:46:48Z</time>
      </trkpt>
      <trkpt lat="45.53628" lon="6.63255">
        <ele>1254</ele>
        <time>2010-07-24T06:46:55Z</time>
      </trkpt>
      <trkpt lat="45.53625" lon="6.63267">
        <ele>1255.4</ele>
        <time>2010-07-24T06:47:01Z</time>
      </trkpt>
      <trkpt lat="45.53626" lon="6.63267">
        <ele>1256</ele>
        <time>2010-07-24T06:47:02Z</time>
      </trkpt>
      <trkpt lat="45.53622" lon="6.6328">
        <ele>1257</ele>
        <time>2010-07-24T06:47:07Z</time>
      </trkpt>
      <trkpt lat="45.53615" lon="6.63285">
        <ele>1258.2</ele>
        <time>2010-07-24T06:47:12Z</time>
      </trkpt>
      <trkpt lat="45.53613" lon="6.63286">
        <ele>1258.6</ele>
        <time>2010-07-24T06:47:13Z</time>
      </trkpt>
      <trkpt lat="45.53613" lon="6.63287">
        <ele>1258.8</ele>
        <time>2010-07-24T06:47:14Z</time>
      </trkpt>
      <trkpt lat="45.53607" lon="6.63302">
        <ele>1262.4</ele>
        <time>2010-07-24T06:47:25Z</time>
      </trkpt>
      <trkpt lat="45.53606" lon="6.63309">
        <ele>1265.4</ele>
        <time>2010-07-24T06:47:33Z</time>
      </trkpt>
      <trkpt lat="45.53605" lon="6.63313">
        <ele>1266.2</ele>
        <time>2010-07-24T06:47:35Z</time>
      </trkpt>
      <trkpt lat="45.53604" lon="6.63324">
        <ele>1267.4</ele>
        <time>2010-07-24T06:47:40Z</time>
      </trkpt>
      <trkpt lat="45.53603" lon="6.63335">
        <ele>1268.8</ele>
        <time>2010-07-24T06:47:45Z</time>
      </trkpt>
      <trkpt lat="45.53598" lon="6.63347">
        <ele>1270.6</ele>
        <time>2010-07-24T06:47:51Z</time>
      </trkpt>
      <trkpt lat="45.53593" lon="6.63356">
        <ele>1272.8</ele>
        <time>2010-07-24T06:47:56Z</time>
      </trkpt>
      <trkpt lat="45.53591" lon="6.63361">
        <ele>1274.2</ele>
        <time>2010-07-24T06:48:00Z</time>
      </trkpt>
      <trkpt lat="45.53592" lon="6.63371">
        <ele>1276.6</ele>
        <time>2010-07-24T06:48:06Z</time>
      </trkpt>
      <trkpt lat="45.53591" lon="6.63377">
        <ele>1277.6</ele>
        <time>2010-07-24T06:48:09Z</time>
      </trkpt>
      <trkpt lat="45.53591" lon="6.63382">
        <ele>1278.4</ele>
        <time>2010-07-24T06:48:11Z</time>
      </trkpt>
      <trkpt lat="45.53592" lon="6.63388">
        <ele>1279.2</ele>
        <time>2010-07-24T06:48:13Z</time>
      </trkpt>
      <trkpt lat="45.53594" lon="6.63409">
        <ele>1281.4</ele>
        <time>2010-07-24T06:48:20Z</time>
      </trkpt>
      <trkpt lat="45.53597" lon="6.63434">
        <ele>1284.4</ele>
        <time>2010-07-24T06:48:29Z</time>
      </trkpt>
      <trkpt lat="45.53599" lon="6.63462">
        <ele>1287.4</ele>
        <time>2010-07-24T06:48:38Z</time>
      </trkpt>
      <trkpt lat="45.53602" lon="6.63488">
        <ele>1289.8</ele>
        <time>2010-07-24T06:48:46Z</time>
      </trkpt>
      <trkpt lat="45.53604" lon="6.63497">
        <ele>1291</ele>
        <time>2010-07-24T06:48:49Z</time>
      </trkpt>
      <trkpt lat="45.53608" lon="6.63511">
        <ele>1292.4</ele>
        <time>2010-07-24T06:48:54Z</time>
      </trkpt>
      <trkpt lat="45.53617" lon="6.63537">
        <ele>1295.2</ele>
        <time>2010-07-24T06:49:02Z</time>
      </trkpt>
      <trkpt lat="45.53621" lon="6.63565">
        <ele>1298.2</ele>
        <time>2010-07-24T06:49:08Z</time>
      </trkpt>
      <trkpt lat="45.53624" lon="6.63592">
        <ele>1299.8</ele>
        <time>2010-07-24T06:49:15Z</time>
      </trkpt>
      <trkpt lat="45.5363" lon="6.6362">
        <ele>1300.6</ele>
        <time>2010-07-24T06:49:23Z</time>
      </trkpt>
      <trkpt lat="45.53634" lon="6.63646">
        <ele>1301.4</ele>
        <time>2010-07-24T06:49:29Z</time>
      </trkpt>
      <trkpt lat="45.5364" lon="6.63675">
        <ele>1302</ele>
        <time>2010-07-24T06:49:36Z</time>
      </trkpt>
      <trkpt lat="45.53645" lon="6.63701">
        <ele>1303.8</ele>
        <time>2010-07-24T06:49:42Z</time>
      </trkpt>
      <trkpt lat="45.5364" lon="6.6373">
        <ele>1306.2</ele>
        <time>2010-07-24T06:49:51Z</time>
      </trkpt>
      <trkpt lat="45.53645" lon="6.63757">
        <ele>1307.6</ele>
        <time>2010-07-24T06:49:58Z</time>
      </trkpt>
      <trkpt lat="45.53654" lon="6.6378">
        <ele>1309.4</ele>
        <time>2010-07-24T06:50:04Z</time>
      </trkpt>
      <trkpt lat="45.53654" lon="6.63807">
        <ele>1310</ele>
        <time>2010-07-24T06:50:11Z</time>
      </trkpt>
      <trkpt lat="45.53656" lon="6.63836">
        <ele>1310.8</ele>
        <time>2010-07-24T06:50:18Z</time>
      </trkpt>
      <trkpt lat="45.53657" lon="6.63864">
        <ele>1311.6</ele>
        <time>2010-07-24T06:50:25Z</time>
      </trkpt>
      <trkpt lat="45.53656" lon="6.63893">
        <ele>1312.8</ele>
        <time>2010-07-24T06:50:32Z</time>
      </trkpt>
      <trkpt lat="45.53656" lon="6.63919">
        <ele>1314</ele>
        <time>2010-07-24T06:50:39Z</time>
      </trkpt>
      <trkpt lat="45.53653" lon="6.63942">
        <ele>1314.6</ele>
        <time>2010-07-24T06:50:44Z</time>
      </trkpt>
      <trkpt lat="45.53652" lon="6.63946">
        <ele>1314.6</ele>
        <time>2010-07-24T06:50:45Z</time>
      </trkpt>
      <trkpt lat="45.53641" lon="6.63948">
        <ele>1315.6</ele>
        <time>2010-07-24T06:50:52Z</time>
      </trkpt>
      <trkpt lat="45.53637" lon="6.63942">
        <ele>1315.8</ele>
        <time>2010-07-24T06:50:55Z</time>
      </trkpt>
      <trkpt lat="45.53627" lon="6.63917">
        <ele>1316.8</ele>
        <time>2010-07-24T06:51:04Z</time>
      </trkpt>
      <trkpt lat="45.53618" lon="6.63894">
        <ele>1318</ele>
        <time>2010-07-24T06:51:12Z</time>
      </trkpt>
      <trkpt lat="45.5361" lon="6.63868">
        <ele>1319.8</ele>
        <time>2010-07-24T06:51:21Z</time>
      </trkpt>
      <trkpt lat="45.53603" lon="6.63842">
        <ele>1321.8</ele>
        <time>2010-07-24T06:51:30Z</time>
      </trkpt>
      <trkpt lat="45.53595" lon="6.63818">
        <ele>1324</ele>
        <time>2010-07-24T06:51:39Z</time>
      </trkpt>
      <trkpt lat="45.5359" lon="6.63792">
        <ele>1326</ele>
        <time>2010-07-24T06:51:48Z</time>
      </trkpt>
      <trkpt lat="45.53582" lon="6.63767">
        <ele>1326.8</ele>
        <time>2010-07-24T06:51:55Z</time>
      </trkpt>
      <trkpt lat="45.53578" lon="6.63739">
        <ele>1327.2</ele>
        <time>2010-07-24T06:52:02Z</time>
      </trkpt>
      <trkpt lat="45.53576" lon="6.63713">
        <ele>1327.4</ele>
        <time>2010-07-24T06:52:08Z</time>
      </trkpt>
      <trkpt lat="45.53573" lon="6.63685">
        <ele>1327.2</ele>
        <time>2010-07-24T06:52:14Z</time>
      </trkpt>
      <trkpt lat="45.53572" lon="6.63681">
        <ele>1327.2</ele>
        <time>2010-07-24T06:52:15Z</time>
      </trkpt>
      <trkpt lat="45.53569" lon="6.6366">
        <ele>1327</ele>
        <time>2010-07-24T06:52:20Z</time>
      </trkpt>
      <trkpt lat="45.53568" lon="6.63652">
        <ele>1326.8</ele>
        <time>2010-07-24T06:52:22Z</time>
      </trkpt>
      <trkpt lat="45.53566" lon="6.63645">
        <ele>1326.8</ele>
        <time>2010-07-24T06:52:24Z</time>
      </trkpt>
      <trkpt lat="45.53561" lon="6.63637">
        <ele>1326.6</ele>
        <time>2010-07-24T06:52:27Z</time>
      </trkpt>
      <trkpt lat="45.53558" lon="6.6363">
        <ele>1326.6</ele>
        <time>2010-07-24T06:52:29Z</time>
      </trkpt>
      <trkpt lat="45.5355" lon="6.63612">
        <ele>1326.6</ele>
        <time>2010-07-24T06:52:34Z</time>
      </trkpt>
      <trkpt lat="45.53536" lon="6.63596">
        <ele>1327.8</ele>
        <time>2010-07-24T06:52:41Z</time>
      </trkpt>
      <trkpt lat="45.53535" lon="6.63598">
        <ele>1328</ele>
        <time>2010-07-24T06:52:42Z</time>
      </trkpt>
      <trkpt lat="45.53535" lon="6.63624">
        <ele>1329.8</ele>
        <time>2010-07-24T06:52:49Z</time>
      </trkpt>
      <trkpt lat="45.53526" lon="6.63625">
        <ele>1331.2</ele>
        <time>2010-07-24T06:52:54Z</time>
      </trkpt>
      <trkpt lat="45.53521" lon="6.63616">
        <ele>1332.2</ele>
        <time>2010-07-24T06:52:57Z</time>
      </trkpt>
      <trkpt lat="45.53511" lon="6.63593">
        <ele>1334.4</ele>
        <time>2010-07-24T06:53:05Z</time>
      </trkpt>
      <trkpt lat="45.53498" lon="6.63576">
        <ele>1337</ele>
        <time>2010-07-24T06:53:12Z</time>
      </trkpt>
      <trkpt lat="45.53488" lon="6.63573">
        <ele>1339.8</ele>
        <time>2010-07-24T06:53:18Z</time>
      </trkpt>
      <trkpt lat="45.53489" lon="6.63585">
        <ele>1341.2</ele>
        <time>2010-07-24T06:53:21Z</time>
      </trkpt>
      <trkpt lat="45.53495" lon="6.63612">
        <ele>1343.8</ele>
        <time>2010-07-24T06:53:27Z</time>
      </trkpt>
      <trkpt lat="45.53505" lon="6.63638">
        <ele>1345.6</ele>
        <time>2010-07-24T06:53:33Z</time>
      </trkpt>
      <trkpt lat="45.53508" lon="6.63666">
        <ele>1346.8</ele>
        <time>2010-07-24T06:53:39Z</time>
      </trkpt>
      <trkpt lat="45.53508" lon="6.6367">
        <ele>1347.2</ele>
        <time>2010-07-24T06:53:40Z</time>
      </trkpt>
      <trkpt lat="45.53501" lon="6.63691">
        <ele>1348.4</ele>
        <time>2010-07-24T06:53:48Z</time>
      </trkpt>
      <trkpt lat="45.53497" lon="6.63701">
        <ele>1349</ele>
        <time>2010-07-24T06:53:51Z</time>
      </trkpt>
      <trkpt lat="45.5349" lon="6.63714">
        <ele>1349.8</ele>
        <time>2010-07-24T06:53:56Z</time>
      </trkpt>
      <trkpt lat="45.53486" lon="6.63726">
        <ele>1350.6</ele>
        <time>2010-07-24T06:54:01Z</time>
      </trkpt>
      <trkpt lat="45.5348" lon="6.63737">
        <ele>1352</ele>
        <time>2010-07-24T06:54:06Z</time>
      </trkpt>
      <trkpt lat="45.53469" lon="6.63751">
        <ele>1354</ele>
        <time>2010-07-24T06:54:15Z</time>
      </trkpt>
      <trkpt lat="45.53466" lon="6.63755">
        <ele>1354.6</ele>
        <time>2010-07-24T06:54:17Z</time>
      </trkpt>
      <trkpt lat="45.5346" lon="6.63763">
        <ele>1355.8</ele>
        <time>2010-07-24T06:54:22Z</time>
      </trkpt>
      <trkpt lat="45.53452" lon="6.63776">
        <ele>1358.2</ele>
        <time>2010-07-24T06:54:30Z</time>
      </trkpt>
      <trkpt lat="45.53451" lon="6.63778">
        <ele>1358.4</ele>
        <time>2010-07-24T06:54:31Z</time>
      </trkpt>
      <trkpt lat="45.5344" lon="6.63797">
        <ele>1361</ele>
        <time>2010-07-24T06:54:40Z</time>
      </trkpt>
      <trkpt lat="45.53424" lon="6.6381">
        <ele>1364.6</ele>
        <time>2010-07-24T06:54:50Z</time>
      </trkpt>
      <trkpt lat="45.53409" lon="6.63824">
        <ele>1368.4</ele>
        <time>2010-07-24T06:55:00Z</time>
      </trkpt>
      <trkpt lat="45.53393" lon="6.63838">
        <ele>1374</ele>
        <time>2010-07-24T06:55:15Z</time>
      </trkpt>
      <trkpt lat="45.53377" lon="6.63853">
        <ele>1378</ele>
        <time>2010-07-24T06:55:25Z</time>
      </trkpt>
      <trkpt lat="45.53362" lon="6.63869">
        <ele>1382</ele>
        <time>2010-07-24T06:55:36Z</time>
      </trkpt>
      <trkpt lat="45.53356" lon="6.63893">
        <ele>1385.6</ele>
        <time>2010-07-24T06:55:45Z</time>
      </trkpt>
      <trkpt lat="45.53353" lon="6.63901">
        <ele>1386.6</ele>
        <time>2010-07-24T06:55:48Z</time>
      </trkpt>
      <trkpt lat="45.53347" lon="6.63917">
        <ele>1388.6</ele>
        <time>2010-07-24T06:55:54Z</time>
      </trkpt>
      <trkpt lat="45.53339" lon="6.63941">
        <ele>1391.8</ele>
        <time>2010-07-24T06:56:03Z</time>
      </trkpt>
      <trkpt lat="45.5333" lon="6.63966">
        <ele>1394.4</ele>
        <time>2010-07-24T06:56:12Z</time>
      </trkpt>
      <trkpt lat="45.5332" lon="6.63987">
        <ele>1396.8</ele>
        <time>2010-07-24T06:56:20Z</time>
      </trkpt>
      <trkpt lat="45.5331" lon="6.64012">
        <ele>1399.2</ele>
        <time>2010-07-24T06:56:28Z</time>
      </trkpt>
      <trkpt lat="45.53309" lon="6.64014">
        <ele>1399.4</ele>
        <time>2010-07-24T06:56:29Z</time>
      </trkpt>
      <trkpt lat="45.53297" lon="6.64031">
        <ele>1401.4</ele>
        <time>2010-07-24T06:56:37Z</time>
      </trkpt>
      <trkpt lat="45.53293" lon="6.64058">
        <ele>1404.2</ele>
        <time>2010-07-24T06:56:45Z</time>
      </trkpt>
      <trkpt lat="45.53292" lon="6.64084">
        <ele>1406</ele>
        <time>2010-07-24T06:56:51Z</time>
      </trkpt>
      <trkpt lat="45.53289" lon="6.64112">
        <ele>1408.2</ele>
        <time>2010-07-24T06:56:58Z</time>
      </trkpt>
      <trkpt lat="45.53283" lon="6.64139">
        <ele>1410.2</ele>
        <time>2010-07-24T06:57:05Z</time>
      </trkpt>
      <trkpt lat="45.53277" lon="6.64166">
        <ele>1412.2</ele>
        <time>2010-07-24T06:57:12Z</time>
      </trkpt>
      <trkpt lat="45.5327" lon="6.64191">
        <ele>1413.6</ele>
        <time>2010-07-24T06:57:18Z</time>
      </trkpt>
      <trkpt lat="45.5327" lon="6.6422">
        <ele>1415</ele>
        <time>2010-07-24T06:57:25Z</time>
      </trkpt>
      <trkpt lat="45.53271" lon="6.64249">
        <ele>1416.2</ele>
        <time>2010-07-24T06:57:31Z</time>
      </trkpt>
      <trkpt lat="45.53265" lon="6.64277">
        <ele>1417</ele>
        <time>2010-07-24T06:57:38Z</time>
      </trkpt>
      <trkpt lat="45.53255" lon="6.64298">
        <ele>1418</ele>
        <time>2010-07-24T06:57:45Z</time>
      </trkpt>
      <trkpt lat="45.53242" lon="6.64318">
        <ele>1419.8</ele>
        <time>2010-07-24T06:57:53Z</time>
      </trkpt>
      <trkpt lat="45.5323" lon="6.64338">
        <ele>1424</ele>
        <time>2010-07-24T06:58:02Z</time>
      </trkpt>
      <trkpt lat="45.53215" lon="6.64354">
        <ele>1426.4</ele>
        <time>2010-07-24T06:58:10Z</time>
      </trkpt>
      <trkpt lat="45.53214" lon="6.6436">
        <ele>1427.4</ele>
        <time>2010-07-24T06:58:12Z</time>
      </trkpt>
      <trkpt lat="45.53205" lon="6.64376">
        <ele>1430.2</ele>
        <time>2010-07-24T06:58:18Z</time>
      </trkpt>
      <trkpt lat="45.53195" lon="6.644">
        <ele>1433.4</ele>
        <time>2010-07-24T06:58:24Z</time>
      </trkpt>
      <trkpt lat="45.5319" lon="6.64427">
        <ele>1437</ele>
        <time>2010-07-24T06:58:31Z</time>
      </trkpt>
      <trkpt lat="45.53182" lon="6.64454">
        <ele>1440</ele>
        <time>2010-07-24T06:58:40Z</time>
      </trkpt>
      <trkpt lat="45.53175" lon="6.64466">
        <ele>1440.8</ele>
        <time>2010-07-24T06:58:45Z</time>
      </trkpt>
      <trkpt lat="45.53168" lon="6.64473">
        <ele>1441.4</ele>
        <time>2010-07-24T06:58:48Z</time>
      </trkpt>
      <trkpt lat="45.53151" lon="6.64487">
        <ele>1443.6</ele>
        <time>2010-07-24T06:58:55Z</time>
      </trkpt>
      <trkpt lat="45.53134" lon="6.64498">
        <ele>1445.2</ele>
        <time>2010-07-24T06:59:02Z</time>
      </trkpt>
      <trkpt lat="45.53117" lon="6.64512">
        <ele>1447.2</ele>
        <time>2010-07-24T06:59:09Z</time>
      </trkpt>
      <trkpt lat="45.53101" lon="6.64523">
        <ele>1449.4</ele>
        <time>2010-07-24T06:59:17Z</time>
      </trkpt>
      <trkpt lat="45.5309" lon="6.64542">
        <ele>1450.8</ele>
        <time>2010-07-24T06:59:24Z</time>
      </trkpt>
      <trkpt lat="45.53083" lon="6.64569">
        <ele>1452.4</ele>
        <time>2010-07-24T06:59:32Z</time>
      </trkpt>
      <trkpt lat="45.53074" lon="6.64594">
        <ele>1454.6</ele>
        <time>2010-07-24T06:59:39Z</time>
      </trkpt>
      <trkpt lat="45.53066" lon="6.64616">
        <ele>1458.2</ele>
        <time>2010-07-24T06:59:46Z</time>
      </trkpt>
      <trkpt lat="45.53061" lon="6.64641">
        <ele>1461.8</ele>
        <time>2010-07-24T06:59:53Z</time>
      </trkpt>
      <trkpt lat="45.53057" lon="6.64669">
        <ele>1462.6</ele>
        <time>2010-07-24T07:00:00Z</time>
      </trkpt>
      <trkpt lat="45.53051" lon="6.64695">
        <ele>1462.6</ele>
        <time>2010-07-24T07:00:06Z</time>
      </trkpt>
      <trkpt lat="45.53042" lon="6.64718">
        <ele>1462.4</ele>
        <time>2010-07-24T07:00:13Z</time>
      </trkpt>
      <trkpt lat="45.53031" lon="6.64742">
        <ele>1463.2</ele>
        <time>2010-07-24T07:00:20Z</time>
      </trkpt>
      <trkpt lat="45.53025" lon="6.64769">
        <ele>1464.8</ele>
        <time>2010-07-24T07:00:26Z</time>
      </trkpt>
      <trkpt lat="45.53024" lon="6.64796">
        <ele>1467.2</ele>
        <time>2010-07-24T07:00:32Z</time>
      </trkpt>
      <trkpt lat="45.53018" lon="6.64824">
        <ele>1468</ele>
        <time>2010-07-24T07:00:38Z</time>
      </trkpt>
      <trkpt lat="45.53017" lon="6.64843">
        <ele>1468</ele>
        <time>2010-07-24T07:00:42Z</time>
      </trkpt>
      <trkpt lat="45.53015" lon="6.64854">
        <ele>1467.8</ele>
        <time>2010-07-24T07:00:44Z</time>
      </trkpt>
      <trkpt lat="45.53012" lon="6.6488">
        <ele>1467.4</ele>
        <time>2010-07-24T07:00:49Z</time>
      </trkpt>
      <trkpt lat="45.53006" lon="6.64907">
        <ele>1467</ele>
        <time>2010-07-24T07:00:54Z</time>
      </trkpt>
      <trkpt lat="45.52995" lon="6.64927">
        <ele>1466.4</ele>
        <time>2010-07-24T07:00:59Z</time>
      </trkpt>
      <trkpt lat="45.52993" lon="6.64929">
        <ele>1466.2</ele>
        <time>2010-07-24T07:01:00Z</time>
      </trkpt>
      <trkpt lat="45.52986" lon="6.64935">
        <ele>1465.8</ele>
        <time>2010-07-24T07:01:03Z</time>
      </trkpt>
      <trkpt lat="45.52977" lon="6.6494">
        <ele>1465.4</ele>
        <time>2010-07-24T07:01:06Z</time>
      </trkpt>
      <trkpt lat="45.52957" lon="6.64948">
        <ele>1465.2</ele>
        <time>2010-07-24T07:01:10Z</time>
      </trkpt>
      <trkpt lat="45.52938" lon="6.64953">
        <ele>1464.6</ele>
        <time>2010-07-24T07:01:15Z</time>
      </trkpt>
      <trkpt lat="45.52937" lon="6.64954">
        <ele>1464.4</ele>
        <time>2010-07-24T07:01:16Z</time>
      </trkpt>
      <trkpt lat="45.52923" lon="6.64972">
        <ele>1463.6</ele>
        <time>2010-07-24T07:01:23Z</time>
      </trkpt>
      <trkpt lat="45.52934" lon="6.64994">
        <ele>1463.4</ele>
        <time>2010-07-24T07:01:30Z</time>
      </trkpt>
      <trkpt lat="45.52937" lon="6.64996">
        <ele>1463.4</ele>
        <time>2010-07-24T07:01:31Z</time>
      </trkpt>
      <trkpt lat="45.5295" lon="6.65006">
        <ele>1464.6</ele>
        <time>2010-07-24T07:01:35Z</time>
      </trkpt>
      <trkpt lat="45.52962" lon="6.65026">
        <ele>1465</ele>
        <time>2010-07-24T07:01:42Z</time>
      </trkpt>
      <trkpt lat="45.52961" lon="6.65053">
        <ele>1465</ele>
        <time>2010-07-24T07:01:48Z</time>
      </trkpt>
      <trkpt lat="45.52951" lon="6.65074">
        <ele>1465</ele>
        <time>2010-07-24T07:01:54Z</time>
      </trkpt>
      <trkpt lat="45.52949" lon="6.65077">
        <ele>1465.2</ele>
        <time>2010-07-24T07:01:55Z</time>
      </trkpt>
      <trkpt lat="45.52935" lon="6.65091">
        <ele>1465.4</ele>
        <time>2010-07-24T07:02:01Z</time>
      </trkpt>
      <trkpt lat="45.52923" lon="6.65113">
        <ele>1466</ele>
        <time>2010-07-24T07:02:08Z</time>
      </trkpt>
      <trkpt lat="45.52909" lon="6.6513">
        <ele>1466.8</ele>
        <time>2010-07-24T07:02:14Z</time>
      </trkpt>
      <trkpt lat="45.52892" lon="6.65143">
        <ele>1467.4</ele>
        <time>2010-07-24T07:02:20Z</time>
      </trkpt>
      <trkpt lat="45.52878" lon="6.65158">
        <ele>1468</ele>
        <time>2010-07-24T07:02:26Z</time>
      </trkpt>
      <trkpt lat="45.52874" lon="6.65185">
        <ele>1468.8</ele>
        <time>2010-07-24T07:02:32Z</time>
      </trkpt>
      <trkpt lat="45.52879" lon="6.65197">
        <ele>1470</ele>
        <time>2010-07-24T07:02:35Z</time>
      </trkpt>
      <trkpt lat="45.52885" lon="6.65206">
        <ele>1472</ele>
        <time>2010-07-24T07:02:38Z</time>
      </trkpt>
      <trkpt lat="45.52887" lon="6.65208">
        <ele>1472.8</ele>
        <time>2010-07-24T07:02:39Z</time>
      </trkpt>
      <trkpt lat="45.52897" lon="6.65225">
        <ele>1476</ele>
        <time>2010-07-24T07:02:45Z</time>
      </trkpt>
      <trkpt lat="45.52899" lon="6.65238">
        <ele>1477.2</ele>
        <time>2010-07-24T07:02:49Z</time>
      </trkpt>
      <trkpt lat="45.52904" lon="6.65252">
        <ele>1478.6</ele>
        <time>2010-07-24T07:02:54Z</time>
      </trkpt>
      <trkpt lat="45.52912" lon="6.65277">
        <ele>1480.6</ele>
        <time>2010-07-24T07:03:03Z</time>
      </trkpt>
      <trkpt lat="45.52921" lon="6.65302">
        <ele>1481.6</ele>
        <time>2010-07-24T07:03:12Z</time>
      </trkpt>
      <trkpt lat="45.52925" lon="6.65328">
        <ele>1482.8</ele>
        <time>2010-07-24T07:03:20Z</time>
      </trkpt>
      <trkpt lat="45.52925" lon="6.65331">
        <ele>1483</ele>
        <time>2010-07-24T07:03:21Z</time>
      </trkpt>
      <trkpt lat="45.52916" lon="6.6534">
        <ele>1484.4</ele>
        <time>2010-07-24T07:03:27Z</time>
      </trkpt>
      <trkpt lat="45.52912" lon="6.65342">
        <ele>1485</ele>
        <time>2010-07-24T07:03:29Z</time>
      </trkpt>
      <trkpt lat="45.52906" lon="6.65346">
        <ele>1486.4</ele>
        <time>2010-07-24T07:03:33Z</time>
      </trkpt>
      <trkpt lat="45.52901" lon="6.65347">
        <ele>1487.8</ele>
        <time>2010-07-24T07:03:36Z</time>
      </trkpt>
      <trkpt lat="45.52893" lon="6.65351">
        <ele>1489</ele>
        <time>2010-07-24T07:03:39Z</time>
      </trkpt>
      <trkpt lat="45.52886" lon="6.6537">
        <ele>1492.8</ele>
        <time>2010-07-24T07:03:49Z</time>
      </trkpt>
      <trkpt lat="45.52888" lon="6.65378">
        <ele>1494</ele>
        <time>2010-07-24T07:03:52Z</time>
      </trkpt>
      <trkpt lat="45.52894" lon="6.65393">
        <ele>1495.2</ele>
        <time>2010-07-24T07:04:00Z</time>
      </trkpt>
      <trkpt lat="45.52897" lon="6.65401">
        <ele>1495.2</ele>
        <time>2010-07-24T07:04:04Z</time>
      </trkpt>
      <trkpt lat="45.52899" lon="6.65405">
        <ele>1495.2</ele>
        <time>2010-07-24T07:04:06Z</time>
      </trkpt>
      <trkpt lat="45.52901" lon="6.65417">
        <ele>1495.4</ele>
        <time>2010-07-24T07:04:11Z</time>
      </trkpt>
      <trkpt lat="45.52901" lon="6.6542">
        <ele>1495.6</ele>
        <time>2010-07-24T07:04:12Z</time>
      </trkpt>
      <trkpt lat="45.52901" lon="6.65425">
        <ele>1496</ele>
        <time>2010-07-24T07:04:14Z</time>
      </trkpt>
      <trkpt lat="45.52894" lon="6.65439">
        <ele>1497.8</ele>
        <time>2010-07-24T07:04:20Z</time>
      </trkpt>
      <trkpt lat="45.52879" lon="6.65459">
        <ele>1502.2</ele>
        <time>2010-07-24T07:04:29Z</time>
      </trkpt>
      <trkpt lat="45.52869" lon="6.65482">
        <ele>1506.4</ele>
        <time>2010-07-24T07:04:38Z</time>
      </trkpt>
      <trkpt lat="45.52858" lon="6.65504">
        <ele>1510.2</ele>
        <time>2010-07-24T07:04:46Z</time>
      </trkpt>
      <trkpt lat="45.52851" lon="6.6553">
        <ele>1514</ele>
        <time>2010-07-24T07:04:55Z</time>
      </trkpt>
      <trkpt lat="45.52848" lon="6.6554">
        <ele>1515.8</ele>
        <time>2010-07-24T07:04:59Z</time>
      </trkpt>
      <trkpt lat="45.52842" lon="6.65555">
        <ele>1518.2</ele>
        <time>2010-07-24T07:05:05Z</time>
      </trkpt>
      <trkpt lat="45.52839" lon="6.65566">
        <ele>1519.8</ele>
        <time>2010-07-24T07:05:09Z</time>
      </trkpt>
      <trkpt lat="45.52839" lon="6.65568">
        <ele>1520.2</ele>
        <time>2010-07-24T07:05:10Z</time>
      </trkpt>
      <trkpt lat="45.52842" lon="6.65575">
        <ele>1520.8</ele>
        <time>2010-07-24T07:05:14Z</time>
      </trkpt>
      <trkpt lat="45.52841" lon="6.6558">
        <ele>1521.4</ele>
        <time>2010-07-24T07:05:16Z</time>
      </trkpt>
      <trkpt lat="45.52837" lon="6.65589">
        <ele>1522</ele>
        <time>2010-07-24T07:05:19Z</time>
      </trkpt>
      <trkpt lat="45.52835" lon="6.65606">
        <ele>1523.4</ele>
        <time>2010-07-24T07:05:25Z</time>
      </trkpt>
      <trkpt lat="45.5283" lon="6.65631">
        <ele>1524.6</ele>
        <time>2010-07-24T07:05:33Z</time>
      </trkpt>
      <trkpt lat="45.52828" lon="6.65644">
        <ele>1525.4</ele>
        <time>2010-07-24T07:05:37Z</time>
      </trkpt>
      <trkpt lat="45.52826" lon="6.65657">
        <ele>1526.2</ele>
        <time>2010-07-24T07:05:42Z</time>
      </trkpt>
      <trkpt lat="45.52825" lon="6.65662">
        <ele>1526.8</ele>
        <time>2010-07-24T07:05:44Z</time>
      </trkpt>
      <trkpt lat="45.52818" lon="6.65682">
        <ele>1528.8</ele>
        <time>2010-07-24T07:05:52Z</time>
      </trkpt>
      <trkpt lat="45.52813" lon="6.65709">
        <ele>1532</ele>
        <time>2010-07-24T07:06:02Z</time>
      </trkpt>
      <trkpt lat="45.52812" lon="6.65724">
        <ele>1533.4</ele>
        <time>2010-07-24T07:06:07Z</time>
      </trkpt>
      <trkpt lat="45.5281" lon="6.65735">
        <ele>1534.2</ele>
        <time>2010-07-24T07:06:11Z</time>
      </trkpt>
      <trkpt lat="45.52805" lon="6.6576">
        <ele>1536.2</ele>
        <time>2010-07-24T07:06:20Z</time>
      </trkpt>
      <trkpt lat="45.52805" lon="6.65775">
        <ele>1537.8</ele>
        <time>2010-07-24T07:06:26Z</time>
      </trkpt>
      <trkpt lat="45.52805" lon="6.6578">
        <ele>1538.4</ele>
        <time>2010-07-24T07:06:28Z</time>
      </trkpt>
      <trkpt lat="45.52805" lon="6.65785">
        <ele>1538.8</ele>
        <time>2010-07-24T07:06:30Z</time>
      </trkpt>
      <trkpt lat="45.52801" lon="6.65798">
        <ele>1540</ele>
        <time>2010-07-24T07:06:35Z</time>
      </trkpt>
      <trkpt lat="45.52798" lon="6.65805">
        <ele>1540.8</ele>
        <time>2010-07-24T07:06:38Z</time>
      </trkpt>
      <trkpt lat="45.52797" lon="6.65808">
        <ele>1541</ele>
        <time>2010-07-24T07:06:39Z</time>
      </trkpt>
      <trkpt lat="45.52786" lon="6.65829">
        <ele>1544.2</ele>
        <time>2010-07-24T07:06:48Z</time>
      </trkpt>
      <trkpt lat="45.52774" lon="6.65847">
        <ele>1547</ele>
        <time>2010-07-24T07:06:56Z</time>
      </trkpt>
      <trkpt lat="45.52758" lon="6.65862">
        <ele>1550.4</ele>
        <time>2010-07-24T07:07:06Z</time>
      </trkpt>
      <trkpt lat="45.52747" lon="6.65878">
        <ele>1552.4</ele>
        <time>2010-07-24T07:07:14Z</time>
      </trkpt>
      <trkpt lat="45.52744" lon="6.65881">
        <ele>1553.2</ele>
        <time>2010-07-24T07:07:16Z</time>
      </trkpt>
      <trkpt lat="45.52737" lon="6.65895">
        <ele>1555.2</ele>
        <time>2010-07-24T07:07:22Z</time>
      </trkpt>
      <trkpt lat="45.52733" lon="6.65902">
        <ele>1556.6</ele>
        <time>2010-07-24T07:07:25Z</time>
      </trkpt>
      <trkpt lat="45.52725" lon="6.65915">
        <ele>1558.8</ele>
        <time>2010-07-24T07:07:31Z</time>
      </trkpt>
      <trkpt lat="45.52721" lon="6.65923">
        <ele>1559.8</ele>
        <time>2010-07-24T07:07:35Z</time>
      </trkpt>
      <trkpt lat="45.52708" lon="6.65944">
        <ele>1562</ele>
        <time>2010-07-24T07:07:44Z</time>
      </trkpt>
      <trkpt lat="45.52699" lon="6.65966">
        <ele>1565</ele>
        <time>2010-07-24T07:07:53Z</time>
      </trkpt>
      <trkpt lat="45.52698" lon="6.65971">
        <ele>1565.6</ele>
        <time>2010-07-24T07:07:55Z</time>
      </trkpt>
      <trkpt lat="45.52688" lon="6.65988">
        <ele>1568.8</ele>
        <time>2010-07-24T07:08:03Z</time>
      </trkpt>
      <trkpt lat="45.52685" lon="6.65992">
        <ele>1569.6</ele>
        <time>2010-07-24T07:08:05Z</time>
      </trkpt>
      <trkpt lat="45.52675" lon="6.66008">
        <ele>1573</ele>
        <time>2010-07-24T07:08:12Z</time>
      </trkpt>
      <trkpt lat="45.52671" lon="6.66012">
        <ele>1574</ele>
        <time>2010-07-24T07:08:14Z</time>
      </trkpt>
      <trkpt lat="45.52667" lon="6.66015">
        <ele>1575</ele>
        <time>2010-07-24T07:08:16Z</time>
      </trkpt>
      <trkpt lat="45.52661" lon="6.66023">
        <ele>1577.2</ele>
        <time>2010-07-24T07:08:22Z</time>
      </trkpt>
      <trkpt lat="45.5265" lon="6.66045">
        <ele>1579.8</ele>
        <time>2010-07-24T07:08:33Z</time>
      </trkpt>
      <trkpt lat="45.52646" lon="6.66055">
        <ele>1580.4</ele>
        <time>2010-07-24T07:08:38Z</time>
      </trkpt>
      <trkpt lat="45.5264" lon="6.66068">
        <ele>1582</ele>
        <time>2010-07-24T07:08:43Z</time>
      </trkpt>
      <trkpt lat="45.52632" lon="6.66082">
        <ele>1583.8</ele>
        <time>2010-07-24T07:08:49Z</time>
      </trkpt>
      <trkpt lat="45.52629" lon="6.66088">
        <ele>1585</ele>
        <time>2010-07-24T07:08:52Z</time>
      </trkpt>
      <trkpt lat="45.52623" lon="6.66107">
        <ele>1588.2</ele>
        <time>2010-07-24T07:08:59Z</time>
      </trkpt>
      <trkpt lat="45.52621" lon="6.66113">
        <ele>1589.2</ele>
        <time>2010-07-24T07:09:01Z</time>
      </trkpt>
      <trkpt lat="45.52609" lon="6.66134">
        <ele>1593.6</ele>
        <time>2010-07-24T07:09:10Z</time>
      </trkpt>
      <trkpt lat="45.52605" lon="6.66145">
        <ele>1596</ele>
        <time>2010-07-24T07:09:14Z</time>
      </trkpt>
      <trkpt lat="45.52597" lon="6.66156">
        <ele>1599.4</ele>
        <time>2010-07-24T07:09:20Z</time>
      </trkpt>
      <trkpt lat="45.52589" lon="6.6618">
        <ele>1604.6</ele>
        <time>2010-07-24T07:09:29Z</time>
      </trkpt>
      <trkpt lat="45.5258" lon="6.66203">
        <ele>1609.2</ele>
        <time>2010-07-24T07:09:39Z</time>
      </trkpt>
      <trkpt lat="45.52577" lon="6.66206">
        <ele>1610</ele>
        <time>2010-07-24T07:09:41Z</time>
      </trkpt>
      <trkpt lat="45.52575" lon="6.66207">
        <ele>1610.4</ele>
        <time>2010-07-24T07:09:42Z</time>
      </trkpt>
      <trkpt lat="45.52564" lon="6.66218">
        <ele>1612.8</ele>
        <time>2010-07-24T07:09:48Z</time>
      </trkpt>
      <trkpt lat="45.52554" lon="6.66237">
        <ele>1614.8</ele>
        <time>2010-07-24T07:09:56Z</time>
      </trkpt>
      <trkpt lat="45.52554" lon="6.66239">
        <ele>1614.8</ele>
        <time>2010-07-24T07:09:57Z</time>
      </trkpt>
      <trkpt lat="45.52552" lon="6.66258">
        <ele>1617.6</ele>
        <time>2010-07-24T07:10:03Z</time>
      </trkpt>
      <trkpt lat="45.5255" lon="6.66268">
        <ele>1619.2</ele>
        <time>2010-07-24T07:10:07Z</time>
      </trkpt>
      <trkpt lat="45.52546" lon="6.66281">
        <ele>1622</ele>
        <time>2010-07-24T07:10:13Z</time>
      </trkpt>
      <trkpt lat="45.5254" lon="6.66288">
        <ele>1623.6</ele>
        <time>2010-07-24T07:10:17Z</time>
      </trkpt>
      <trkpt lat="45.52539" lon="6.6629">
        <ele>1623.8</ele>
        <time>2010-07-24T07:10:18Z</time>
      </trkpt>
      <trkpt lat="45.5253" lon="6.66307">
        <ele>1626.6</ele>
        <time>2010-07-24T07:10:25Z</time>
      </trkpt>
      <trkpt lat="45.52528" lon="6.66309">
        <ele>1626.8</ele>
        <time>2010-07-24T07:10:26Z</time>
      </trkpt>
      <trkpt lat="45.52519" lon="6.66318">
        <ele>1628.6</ele>
        <time>2010-07-24T07:10:30Z</time>
      </trkpt>
      <trkpt lat="45.52512" lon="6.66325">
        <ele>1629.8</ele>
        <time>2010-07-24T07:10:33Z</time>
      </trkpt>
      <trkpt lat="45.5251" lon="6.66327">
        <ele>1630.2</ele>
        <time>2010-07-24T07:10:34Z</time>
      </trkpt>
      <trkpt lat="45.52504" lon="6.66335">
        <ele>1631.6</ele>
        <time>2010-07-24T07:10:38Z</time>
      </trkpt>
      <trkpt lat="45.52503" lon="6.66336">
        <ele>1631.8</ele>
        <time>2010-07-24T07:10:39Z</time>
      </trkpt>
      <trkpt lat="45.52498" lon="6.66343">
        <ele>1632.4</ele>
        <time>2010-07-24T07:10:42Z</time>
      </trkpt>
      <trkpt lat="45.52484" lon="6.66357">
        <ele>1633.4</ele>
        <time>2010-07-24T07:10:48Z</time>
      </trkpt>
      <trkpt lat="45.52475" lon="6.66361">
        <ele>1633.8</ele>
        <time>2010-07-24T07:10:51Z</time>
      </trkpt>
      <trkpt lat="45.52464" lon="6.66368">
        <ele>1634.4</ele>
        <time>2010-07-24T07:10:55Z</time>
      </trkpt>
      <trkpt lat="45.52446" lon="6.66374">
        <ele>1634.6</ele>
        <time>2010-07-24T07:11:03Z</time>
      </trkpt>
      <trkpt lat="45.52444" lon="6.66374">
        <ele>1634.6</ele>
        <time>2010-07-24T07:11:04Z</time>
      </trkpt>
      <trkpt lat="45.52424" lon="6.66385">
        <ele>1635.4</ele>
        <time>2010-07-24T07:11:13Z</time>
      </trkpt>
      <trkpt lat="45.52407" lon="6.6639">
        <ele>1637.8</ele>
        <time>2010-07-24T07:11:22Z</time>
      </trkpt>
      <trkpt lat="45.52386" lon="6.6639">
        <ele>1639.8</ele>
        <time>2010-07-24T07:11:29Z</time>
      </trkpt>
      <trkpt lat="45.52366" lon="6.6639">
        <ele>1643</ele>
        <time>2010-07-24T07:11:41Z</time>
      </trkpt>
      <trkpt lat="45.52355" lon="6.6639">
        <ele>1645.4</ele>
        <time>2010-07-24T07:11:48Z</time>
      </trkpt>
      <trkpt lat="45.52348" lon="6.66392">
        <ele>1646.8</ele>
        <time>2010-07-24T07:11:52Z</time>
      </trkpt>
      <trkpt lat="45.52347" lon="6.6639">
        <ele>1647</ele>
        <time>2010-07-24T07:11:53Z</time>
      </trkpt>
      <trkpt lat="45.5234" lon="6.66393">
        <ele>1648.4</ele>
        <time>2010-07-24T07:11:57Z</time>
      </trkpt>
      <trkpt lat="45.52332" lon="6.66394">
        <ele>1650.2</ele>
        <time>2010-07-24T07:12:02Z</time>
      </trkpt>
      <trkpt lat="45.52328" lon="6.66396">
        <ele>1650.8</ele>
        <time>2010-07-24T07:12:04Z</time>
      </trkpt>
      <trkpt lat="45.52319" lon="6.664">
        <ele>1653.4</ele>
        <time>2010-07-24T07:12:11Z</time>
      </trkpt>
      <trkpt lat="45.5231" lon="6.66401">
        <ele>1654.8</ele>
        <time>2010-07-24T07:12:16Z</time>
      </trkpt>
      <trkpt lat="45.52307" lon="6.664">
        <ele>1655.4</ele>
        <time>2010-07-24T07:12:19Z</time>
      </trkpt>
      <trkpt lat="45.52305" lon="6.66401">
        <ele>1655.6</ele>
        <time>2010-07-24T07:12:20Z</time>
      </trkpt>
      <trkpt lat="45.52292" lon="6.66405">
        <ele>1657</ele>
        <time>2010-07-24T07:12:27Z</time>
      </trkpt>
      <trkpt lat="45.52287" lon="6.66409">
        <ele>1657.8</ele>
        <time>2010-07-24T07:12:29Z</time>
      </trkpt>
      <trkpt lat="45.52274" lon="6.66411">
        <ele>1659.8</ele>
        <time>2010-07-24T07:12:35Z</time>
      </trkpt>
      <trkpt lat="45.52258" lon="6.66408">
        <ele>1663.4</ele>
        <time>2010-07-24T07:12:44Z</time>
      </trkpt>
      <trkpt lat="45.52255" lon="6.66409">
        <ele>1664</ele>
        <time>2010-07-24T07:12:45Z</time>
      </trkpt>
      <trkpt lat="45.52252" lon="6.66406">
        <ele>1664.8</ele>
        <time>2010-07-24T07:12:48Z</time>
      </trkpt>
      <trkpt lat="45.52237" lon="6.66397">
        <ele>1667.8</ele>
        <time>2010-07-24T07:12:59Z</time>
      </trkpt>
      <trkpt lat="45.52235" lon="6.66396">
        <ele>1668</ele>
        <time>2010-07-24T07:13:01Z</time>
      </trkpt>
      <trkpt lat="45.52231" lon="6.66394">
        <ele>1668.4</ele>
        <time>2010-07-24T07:13:05Z</time>
      </trkpt>
      <trkpt lat="45.52227" lon="6.66391">
        <ele>1668.2</ele>
        <time>2010-07-24T07:13:08Z</time>
      </trkpt>
      <trkpt lat="45.5222" lon="6.66389">
        <ele>1670.4</ele>
        <time>2010-07-24T07:13:18Z</time>
      </trkpt>
      <trkpt lat="45.52214" lon="6.66384">
        <ele>1675.8</ele>
        <time>2010-07-24T07:13:32Z</time>
      </trkpt>
      <trkpt lat="45.52209" lon="6.6638">
        <ele>1677.8</ele>
        <time>2010-07-24T07:13:36Z</time>
      </trkpt>
      <trkpt lat="45.52203" lon="6.66377">
        <ele>1680.8</ele>
        <time>2010-07-24T07:13:43Z</time>
      </trkpt>
      <trkpt lat="45.52185" lon="6.66373">
        <ele>1686.6</ele>
        <time>2010-07-24T07:13:56Z</time>
      </trkpt>
      <trkpt lat="45.52167" lon="6.66372">
        <ele>1688.4</ele>
        <time>2010-07-24T07:14:02Z</time>
      </trkpt>
      <trkpt lat="45.52147" lon="6.66366">
        <ele>1690.6</ele>
        <time>2010-07-24T07:14:09Z</time>
      </trkpt>
      <trkpt lat="45.52132" lon="6.6638">
        <ele>1693.4</ele>
        <time>2010-07-24T07:14:20Z</time>
      </trkpt>
      <trkpt lat="45.52119" lon="6.66373">
        <ele>1694.2</ele>
        <time>2010-07-24T07:14:29Z</time>
      </trkpt>
      <trkpt lat="45.52115" lon="6.66368">
        <ele>1694.2</ele>
        <time>2010-07-24T07:14:32Z</time>
      </trkpt>
      <trkpt lat="45.52099" lon="6.66365">
        <ele>1695.4</ele>
        <time>2010-07-24T07:14:44Z</time>
      </trkpt>
      <trkpt lat="45.52091" lon="6.66368">
        <ele>1697.2</ele>
        <time>2010-07-24T07:14:50Z</time>
      </trkpt>
      <trkpt lat="45.52081" lon="6.66371">
        <ele>1702.2</ele>
        <time>2010-07-24T07:15:00Z</time>
      </trkpt>
      <trkpt lat="45.52074" lon="6.66377">
        <ele>1706.6</ele>
        <time>2010-07-24T07:15:06Z</time>
      </trkpt>
      <trkpt lat="45.52066" lon="6.66373">
        <ele>1716.2</ele>
        <time>2010-07-24T07:15:16Z</time>
      </trkpt>
      <trkpt lat="45.52065" lon="6.66372">
        <ele>1717</ele>
        <time>2010-07-24T07:15:17Z</time>
      </trkpt>
      <trkpt lat="45.52062" lon="6.6636">
        <ele>1720.6</ele>
        <time>2010-07-24T07:15:21Z</time>
      </trkpt>
      <trkpt lat="45.52054" lon="6.66359">
        <ele>1726</ele>
        <time>2010-07-24T07:15:28Z</time>
      </trkpt>
      <trkpt lat="45.52045" lon="6.66357">
        <ele>1729.2</ele>
        <time>2010-07-24T07:15:33Z</time>
      </trkpt>
      <trkpt lat="45.52039" lon="6.66352">
        <ele>1732.4</ele>
        <time>2010-07-24T07:15:38Z</time>
      </trkpt>
      <trkpt lat="45.52037" lon="6.66348">
        <ele>1733.4</ele>
        <time>2010-07-24T07:15:40Z</time>
      </trkpt>
      <trkpt lat="45.52036" lon="6.66347">
        <ele>1734</ele>
        <time>2010-07-24T07:15:41Z</time>
      </trkpt>
      <trkpt lat="45.52025" lon="6.66343">
        <ele>1737.8</ele>
        <time>2010-07-24T07:15:50Z</time>
      </trkpt>
      <trkpt lat="45.52024" lon="6.66339">
        <ele>1738.6</ele>
        <time>2010-07-24T07:15:52Z</time>
      </trkpt>
      <trkpt lat="45.52016" lon="6.66329">
        <ele>1739</ele>
        <time>2010-07-24T07:15:59Z</time>
      </trkpt>
      <trkpt lat="45.52013" lon="6.66325">
        <ele>1739.4</ele>
        <time>2010-07-24T07:16:02Z</time>
      </trkpt>
      <trkpt lat="45.5201" lon="6.66326">
        <ele>1739.2</ele>
        <time>2010-07-24T07:16:04Z</time>
      </trkpt>
      <trkpt lat="45.52009" lon="6.66325">
        <ele>1739.4</ele>
        <time>2010-07-24T07:16:05Z</time>
      </trkpt>
      <trkpt lat="45.52004" lon="6.66316">
        <ele>1743.2</ele>
        <time>2010-07-24T07:16:14Z</time>
      </trkpt>
      <trkpt lat="45.52" lon="6.66315">
        <ele>1745.2</ele>
        <time>2010-07-24T07:16:17Z</time>
      </trkpt>
      <trkpt lat="45.51993" lon="6.66312">
        <ele>1748.4</ele>
        <time>2010-07-24T07:16:22Z</time>
      </trkpt>
      <trkpt lat="45.51975" lon="6.66308">
        <ele>1760.4</ele>
        <time>2010-07-24T07:16:39Z</time>
      </trkpt>
      <trkpt lat="45.51963" lon="6.66312">
        <ele>1762</ele>
        <time>2010-07-24T07:16:44Z</time>
      </trkpt>
      <trkpt lat="45.51957" lon="6.66313">
        <ele>1762.6</ele>
        <time>2010-07-24T07:16:47Z</time>
      </trkpt>
      <trkpt lat="45.51938" lon="6.66312">
        <ele>1761.6</ele>
        <time>2010-07-24T07:16:58Z</time>
      </trkpt>
      <trkpt lat="45.51923" lon="6.66316">
        <ele>1760.2</ele>
        <time>2010-07-24T07:17:04Z</time>
      </trkpt>
      <trkpt lat="45.5192" lon="6.66317">
        <ele>1759.8</ele>
        <time>2010-07-24T07:17:06Z</time>
      </trkpt>
      <trkpt lat="45.51915" lon="6.66309">
        <ele>1759</ele>
        <time>2010-07-24T07:17:10Z</time>
      </trkpt>
      <trkpt lat="45.51907" lon="6.66295">
        <ele>1758.6</ele>
        <time>2010-07-24T07:17:15Z</time>
      </trkpt>
      <trkpt lat="45.51904" lon="6.66284">
        <ele>1758.2</ele>
        <time>2010-07-24T07:17:19Z</time>
      </trkpt>
      <trkpt lat="45.51897" lon="6.66273">
        <ele>1757.6</ele>
        <time>2010-07-24T07:17:25Z</time>
      </trkpt>
      <trkpt lat="45.51896" lon="6.66269">
        <ele>1757.4</ele>
        <time>2010-07-24T07:17:27Z</time>
      </trkpt>
      <trkpt lat="45.51889" lon="6.66257">
        <ele>1756.8</ele>
        <time>2010-07-24T07:17:35Z</time>
      </trkpt>
      <trkpt lat="45.51887" lon="6.66248">
        <ele>1757</ele>
        <time>2010-07-24T07:17:38Z</time>
      </trkpt>
      <trkpt lat="45.51875" lon="6.66228">
        <ele>1756.8</ele>
        <time>2010-07-24T07:17:52Z</time>
      </trkpt>
      <trkpt lat="45.51873" lon="6.66225">
        <ele>1757</ele>
        <time>2010-07-24T07:17:54Z</time>
      </trkpt>
      <trkpt lat="45.51862" lon="6.66212">
        <ele>1757.6</ele>
        <time>2010-07-24T07:18:02Z</time>
      </trkpt>
      <trkpt lat="45.51861" lon="6.6621">
        <ele>1757.6</ele>
        <time>2010-07-24T07:18:03Z</time>
      </trkpt>
      <trkpt lat="45.5185" lon="6.66189">
        <ele>1759.2</ele>
        <time>2010-07-24T07:18:12Z</time>
      </trkpt>
      <trkpt lat="45.51836" lon="6.66171">
        <ele>1761</ele>
        <time>2010-07-24T07:18:22Z</time>
      </trkpt>
      <trkpt lat="45.51821" lon="6.66154">
        <ele>1763.4</ele>
        <time>2010-07-24T07:18:31Z</time>
      </trkpt>
      <trkpt lat="45.51804" lon="6.66139">
        <ele>1766.4</ele>
        <time>2010-07-24T07:18:42Z</time>
      </trkpt>
      <trkpt lat="45.51791" lon="6.66124">
        <ele>1769</ele>
        <time>2010-07-24T07:18:51Z</time>
      </trkpt>
      <trkpt lat="45.5179" lon="6.66122">
        <ele>1769.4</ele>
        <time>2010-07-24T07:18:52Z</time>
      </trkpt>
      <trkpt lat="45.51783" lon="6.66115">
        <ele>1770.6</ele>
        <time>2010-07-24T07:18:57Z</time>
      </trkpt>
      <trkpt lat="45.51776" lon="6.66107">
        <ele>1771.8</ele>
        <time>2010-07-24T07:19:01Z</time>
      </trkpt>
      <trkpt lat="45.51761" lon="6.66089">
        <ele>1774.4</ele>
        <time>2010-07-24T07:19:10Z</time>
      </trkpt>
      <trkpt lat="45.51743" lon="6.66076">
        <ele>1777.2</ele>
        <time>2010-07-24T07:19:21Z</time>
      </trkpt>
      <trkpt lat="45.51731" lon="6.66055">
        <ele>1780.6</ele>
        <time>2010-07-24T07:19:32Z</time>
      </trkpt>
      <trkpt lat="45.51727" lon="6.66041">
        <ele>1782.6</ele>
        <time>2010-07-24T07:19:37Z</time>
      </trkpt>
      <trkpt lat="45.51725" lon="6.66028">
        <ele>1784.4</ele>
        <time>2010-07-24T07:19:41Z</time>
      </trkpt>
      <trkpt lat="45.51713" lon="6.66008">
        <ele>1787.8</ele>
        <time>2010-07-24T07:19:50Z</time>
      </trkpt>
      <trkpt lat="45.51696" lon="6.65995">
        <ele>1790.8</ele>
        <time>2010-07-24T07:20:00Z</time>
      </trkpt>
      <trkpt lat="45.5169" lon="6.65989">
        <ele>1792.4</ele>
        <time>2010-07-24T07:20:05Z</time>
      </trkpt>
      <trkpt lat="45.51682" lon="6.65978">
        <ele>1794.8</ele>
        <time>2010-07-24T07:20:12Z</time>
      </trkpt>
      <trkpt lat="45.5167" lon="6.65959">
        <ele>1798.6</ele>
        <time>2010-07-24T07:20:23Z</time>
      </trkpt>
      <trkpt lat="45.51653" lon="6.65953">
        <ele>1803.4</ele>
        <time>2010-07-24T07:20:37Z</time>
      </trkpt>
      <trkpt lat="45.51646" lon="6.65958">
        <ele>1805.8</ele>
        <time>2010-07-24T07:20:44Z</time>
      </trkpt>
      <trkpt lat="45.51639" lon="6.65962">
        <ele>1808.2</ele>
        <time>2010-07-24T07:20:50Z</time>
      </trkpt>
      <trkpt lat="45.51636" lon="6.65961">
        <ele>1809.2</ele>
        <time>2010-07-24T07:20:52Z</time>
      </trkpt>
      <trkpt lat="45.5162" lon="6.65971">
        <ele>1812</ele>
        <time>2010-07-24T07:21:04Z</time>
      </trkpt>
      <trkpt lat="45.51611" lon="6.65984">
        <ele>1814</ele>
        <time>2010-07-24T07:21:13Z</time>
      </trkpt>
      <trkpt lat="45.51612" lon="6.6599">
        <ele>1815.2</ele>
        <time>2010-07-24T07:21:17Z</time>
      </trkpt>
      <trkpt lat="45.51612" lon="6.65991">
        <ele>1815.4</ele>
        <time>2010-07-24T07:21:18Z</time>
      </trkpt>
      <trkpt lat="45.51612" lon="6.65992">
        <ele>1815.6</ele>
        <time>2010-07-24T07:21:19Z</time>
      </trkpt>
      <trkpt lat="45.51612" lon="6.66006">
        <ele>1818.2</ele>
        <time>2010-07-24T07:21:27Z</time>
      </trkpt>
      <trkpt lat="45.51613" lon="6.66014">
        <ele>1820.4</ele>
        <time>2010-07-24T07:21:33Z</time>
      </trkpt>
      <trkpt lat="45.51613" lon="6.66018">
        <ele>1821</ele>
        <time>2010-07-24T07:21:35Z</time>
      </trkpt>
      <trkpt lat="45.51612" lon="6.66044">
        <ele>1833</ele>
        <time>2010-07-24T07:21:56Z</time>
      </trkpt>
      <trkpt lat="45.51614" lon="6.66051">
        <ele>1834</ele>
        <time>2010-07-24T07:21:59Z</time>
      </trkpt>
      <trkpt lat="45.51615" lon="6.6607">
        <ele>1837</ele>
        <time>2010-07-24T07:22:09Z</time>
      </trkpt>
      <trkpt lat="45.51615" lon="6.66075">
        <ele>1837.6</ele>
        <time>2010-07-24T07:22:11Z</time>
      </trkpt>
      <trkpt lat="45.51614" lon="6.66084">
        <ele>1839</ele>
        <time>2010-07-24T07:22:15Z</time>
      </trkpt>
      <trkpt lat="45.51613" lon="6.66089">
        <ele>1839.8</ele>
        <time>2010-07-24T07:22:17Z</time>
      </trkpt>
      <trkpt lat="45.51612" lon="6.66096">
        <ele>1841.4</ele>
        <time>2010-07-24T07:22:21Z</time>
      </trkpt>
      <trkpt lat="45.51606" lon="6.66122">
        <ele>1844.8</ele>
        <time>2010-07-24T07:22:35Z</time>
      </trkpt>
      <trkpt lat="45.51605" lon="6.66142">
        <ele>1847.4</ele>
        <time>2010-07-24T07:22:45Z</time>
      </trkpt>
      <trkpt lat="45.51606" lon="6.66149">
        <ele>1848.8</ele>
        <time>2010-07-24T07:22:50Z</time>
      </trkpt>
      <trkpt lat="45.5161" lon="6.66175">
        <ele>1853.8</ele>
        <time>2010-07-24T07:23:06Z</time>
      </trkpt>
      <trkpt lat="45.51614" lon="6.6619">
        <ele>1857.2</ele>
        <time>2010-07-24T07:23:17Z</time>
      </trkpt>
      <trkpt lat="45.51614" lon="6.662">
        <ele>1859.2</ele>
        <time>2010-07-24T07:23:23Z</time>
      </trkpt>
      <trkpt lat="45.51617" lon="6.66209">
        <ele>1861.8</ele>
        <time>2010-07-24T07:23:30Z</time>
      </trkpt>
      <trkpt lat="45.5162" lon="6.66225">
        <ele>1866.4</ele>
        <time>2010-07-24T07:23:42Z</time>
      </trkpt>
      <trkpt lat="45.51621" lon="6.66226">
        <ele>1866.8</ele>
        <time>2010-07-24T07:23:43Z</time>
      </trkpt>
      <trkpt lat="45.51621" lon="6.66228">
        <ele>1867.6</ele>
        <time>2010-07-24T07:23:45Z</time>
      </trkpt>
      <trkpt lat="45.5162" lon="6.66234">
        <ele>1869.4</ele>
        <time>2010-07-24T07:23:49Z</time>
      </trkpt>
      <trkpt lat="45.5162" lon="6.66237">
        <ele>1870.8</ele>
        <time>2010-07-24T07:23:52Z</time>
      </trkpt>
      <trkpt lat="45.5162" lon="6.66241">
        <ele>1872</ele>
        <time>2010-07-24T07:23:55Z</time>
      </trkpt>
      <trkpt lat="45.51618" lon="6.6625">
        <ele>1874</ele>
        <time>2010-07-24T07:24:00Z</time>
      </trkpt>
      <trkpt lat="45.51629" lon="6.66272">
        <ele>1878.8</ele>
        <time>2010-07-24T07:24:11Z</time>
      </trkpt>
      <trkpt lat="45.51635" lon="6.66287">
        <ele>1882.2</ele>
        <time>2010-07-24T07:24:18Z</time>
      </trkpt>
      <trkpt lat="45.51637" lon="6.66296">
        <ele>1884.2</ele>
        <time>2010-07-24T07:24:22Z</time>
      </trkpt>
      <trkpt lat="45.51642" lon="6.6632">
        <ele>1889</ele>
        <time>2010-07-24T07:24:31Z</time>
      </trkpt>
      <trkpt lat="45.51644" lon="6.66345">
        <ele>1892.8</ele>
        <time>2010-07-24T07:24:40Z</time>
      </trkpt>
      <trkpt lat="45.51645" lon="6.66356">
        <ele>1894.4</ele>
        <time>2010-07-24T07:24:44Z</time>
      </trkpt>
      <trkpt lat="45.51646" lon="6.66371">
        <ele>1896.4</ele>
        <time>2010-07-24T07:24:49Z</time>
      </trkpt>
      <trkpt lat="45.51649" lon="6.66397">
        <ele>1899.6</ele>
        <time>2010-07-24T07:24:58Z</time>
      </trkpt>
      <trkpt lat="45.51652" lon="6.66414">
        <ele>1901.6</ele>
        <time>2010-07-24T07:25:04Z</time>
      </trkpt>
      <trkpt lat="45.51654" lon="6.66423">
        <ele>1902.4</ele>
        <time>2010-07-24T07:25:07Z</time>
      </trkpt>
      <trkpt lat="45.51654" lon="6.66426">
        <ele>1902.6</ele>
        <time>2010-07-24T07:25:08Z</time>
      </trkpt>
      <trkpt lat="45.51654" lon="6.66449">
        <ele>1905</ele>
        <time>2010-07-24T07:25:16Z</time>
      </trkpt>
      <trkpt lat="45.51651" lon="6.66476">
        <ele>1907.4</ele>
        <time>2010-07-24T07:25:26Z</time>
      </trkpt>
      <trkpt lat="45.51651" lon="6.66483">
        <ele>1908.2</ele>
        <time>2010-07-24T07:25:29Z</time>
      </trkpt>
      <trkpt lat="45.51652" lon="6.66491">
        <ele>1909.4</ele>
        <time>2010-07-24T07:25:33Z</time>
      </trkpt>
      <trkpt lat="45.51652" lon="6.665">
        <ele>1911</ele>
        <time>2010-07-24T07:25:37Z</time>
      </trkpt>
      <trkpt lat="45.51652" lon="6.66507">
        <ele>1912</ele>
        <time>2010-07-24T07:25:40Z</time>
      </trkpt>
      <trkpt lat="45.51653" lon="6.66525">
        <ele>1914.6</ele>
        <time>2010-07-24T07:25:47Z</time>
      </trkpt>
      <trkpt lat="45.51652" lon="6.66528">
        <ele>1915.2</ele>
        <time>2010-07-24T07:25:48Z</time>
      </trkpt>
      <trkpt lat="45.51653" lon="6.6655">
        <ele>1918.2</ele>
        <time>2010-07-24T07:25:57Z</time>
      </trkpt>
      <trkpt lat="45.51652" lon="6.66556">
        <ele>1918.8</ele>
        <time>2010-07-24T07:25:59Z</time>
      </trkpt>
      <trkpt lat="45.51648" lon="6.66582">
        <ele>1922.4</ele>
        <time>2010-07-24T07:26:10Z</time>
      </trkpt>
      <trkpt lat="45.51643" lon="6.66603">
        <ele>1925.6</ele>
        <time>2010-07-24T07:26:20Z</time>
      </trkpt>
      <trkpt lat="45.5164" lon="6.66606">
        <ele>1926.2</ele>
        <time>2010-07-24T07:26:22Z</time>
      </trkpt>
      <trkpt lat="45.51633" lon="6.6661">
        <ele>1928.8</ele>
        <time>2010-07-24T07:26:29Z</time>
      </trkpt>
      <trkpt lat="45.51629" lon="6.66609">
        <ele>1931.6</ele>
        <time>2010-07-24T07:26:35Z</time>
      </trkpt>
      <trkpt lat="45.51622" lon="6.66609">
        <ele>1932.4</ele>
        <time>2010-07-24T07:26:37Z</time>
      </trkpt>
      <trkpt lat="45.51617" lon="6.66611">
        <ele>1934</ele>
        <time>2010-07-24T07:26:40Z</time>
      </trkpt>
      <trkpt lat="45.51616" lon="6.66612">
        <ele>1935</ele>
        <time>2010-07-24T07:26:42Z</time>
      </trkpt>
      <trkpt lat="45.51616" lon="6.66613">
        <ele>1936.6</ele>
        <time>2010-07-24T07:26:44Z</time>
      </trkpt>
      <trkpt lat="45.51616" lon="6.66616">
        <ele>1938.8</ele>
        <time>2010-07-24T07:26:47Z</time>
      </trkpt>
      <trkpt lat="45.51609" lon="6.66633">
        <ele>1951.2</ele>
        <time>2010-07-24T07:27:04Z</time>
      </trkpt>
      <trkpt lat="45.51595" lon="6.66651">
        <ele>1955</ele>
        <time>2010-07-24T07:27:18Z</time>
      </trkpt>
      <trkpt lat="45.51592" lon="6.66656">
        <ele>1956.4</ele>
        <time>2010-07-24T07:27:23Z</time>
      </trkpt>
      <trkpt lat="45.51583" lon="6.66671">
        <ele>1958.8</ele>
        <time>2010-07-24T07:27:38Z</time>
      </trkpt>
      <trkpt lat="45.51578" lon="6.66678">
        <ele>1960.2</ele>
        <time>2010-07-24T07:27:45Z</time>
      </trkpt>
      <trkpt lat="45.51577" lon="6.66681">
        <ele>1960.6</ele>
        <time>2010-07-24T07:27:47Z</time>
      </trkpt>
      <trkpt lat="45.51575" lon="6.66684">
        <ele>1961.2</ele>
        <time>2010-07-24T07:27:51Z</time>
      </trkpt>
      <trkpt lat="45.51571" lon="6.66691">
        <ele>1962.6</ele>
        <time>2010-07-24T07:27:56Z</time>
      </trkpt>
      <trkpt lat="45.51556" lon="6.66717">
        <ele>1970.8</ele>
        <time>2010-07-24T07:28:23Z</time>
      </trkpt>
      <trkpt lat="45.51552" lon="6.66728">
        <ele>1974.2</ele>
        <time>2010-07-24T07:28:33Z</time>
      </trkpt>
      <trkpt lat="45.51546" lon="6.66739">
        <ele>1978.8</ele>
        <time>2010-07-24T07:28:45Z</time>
      </trkpt>
      <trkpt lat="45.51534" lon="6.66756">
        <ele>1985.8</ele>
        <time>2010-07-24T07:29:07Z</time>
      </trkpt>
      <trkpt lat="45.51525" lon="6.66766">
        <ele>1988.8</ele>
        <time>2010-07-24T07:29:17Z</time>
      </trkpt>
      <trkpt lat="45.51522" lon="6.66777">
        <ele>1991.4</ele>
        <time>2010-07-24T07:29:27Z</time>
      </trkpt>
      <trkpt lat="45.51521" lon="6.66777">
        <ele>1991.6</ele>
        <time>2010-07-24T07:29:28Z</time>
      </trkpt>
      <trkpt lat="45.51519" lon="6.66778">
        <ele>1992.4</ele>
        <time>2010-07-24T07:29:31Z</time>
      </trkpt>
      <trkpt lat="45.51511" lon="6.66774">
        <ele>1994</ele>
        <time>2010-07-24T07:29:37Z</time>
      </trkpt>
      <trkpt lat="45.51506" lon="6.66769">
        <ele>1995</ele>
        <time>2010-07-24T07:29:41Z</time>
      </trkpt>
      <trkpt lat="45.51494" lon="6.66749">
        <ele>1997.8</ele>
        <time>2010-07-24T07:29:51Z</time>
      </trkpt>
      <trkpt lat="45.5148" lon="6.66731">
        <ele>2001.8</ele>
        <time>2010-07-24T07:30:05Z</time>
      </trkpt>
      <trkpt lat="45.51467" lon="6.66713">
        <ele>2007.4</ele>
        <time>2010-07-24T07:30:22Z</time>
      </trkpt>
      <trkpt lat="45.51465" lon="6.6671">
        <ele>2008.4</ele>
        <time>2010-07-24T07:30:25Z</time>
      </trkpt>
      <trkpt lat="45.51455" lon="6.66696">
        <ele>2012.4</ele>
        <time>2010-07-24T07:30:36Z</time>
      </trkpt>
      <trkpt lat="45.51454" lon="6.66695">
        <ele>2012.6</ele>
        <time>2010-07-24T07:30:37Z</time>
      </trkpt>
      <trkpt lat="45.51449" lon="6.66687">
        <ele>2015</ele>
        <time>2010-07-24T07:30:43Z</time>
      </trkpt>
      <trkpt lat="45.51446" lon="6.66674">
        <ele>2018.2</ele>
        <time>2010-07-24T07:30:58Z</time>
      </trkpt>
      <trkpt lat="45.51444" lon="6.6667">
        <ele>2019</ele>
        <time>2010-07-24T07:31:01Z</time>
      </trkpt>
      <trkpt lat="45.51439" lon="6.66665">
        <ele>2020</ele>
        <time>2010-07-24T07:31:06Z</time>
      </trkpt>
      <trkpt lat="45.51433" lon="6.66657">
        <ele>2022</ele>
        <time>2010-07-24T07:31:13Z</time>
      </trkpt>
      <trkpt lat="45.51429" lon="6.66653">
        <ele>2023.4</ele>
        <time>2010-07-24T07:31:17Z</time>
      </trkpt>
      <trkpt lat="45.51421" lon="6.66642">
        <ele>2027</ele>
        <time>2010-07-24T07:31:26Z</time>
      </trkpt>
      <trkpt lat="45.5142" lon="6.6664">
        <ele>2027.8</ele>
        <time>2010-07-24T07:31:28Z</time>
      </trkpt>
      <trkpt lat="45.51414" lon="6.66629">
        <ele>2031</ele>
        <time>2010-07-24T07:31:38Z</time>
      </trkpt>
      <trkpt lat="45.51408" lon="6.6662">
        <ele>2033</ele>
        <time>2010-07-24T07:31:45Z</time>
      </trkpt>
      <trkpt lat="45.51405" lon="6.66616">
        <ele>2033.6</ele>
        <time>2010-07-24T07:31:47Z</time>
      </trkpt>
      <trkpt lat="45.51394" lon="6.666">
        <ele>2037</ele>
        <time>2010-07-24T07:31:56Z</time>
      </trkpt>
      <trkpt lat="45.51382" lon="6.6658">
        <ele>2041.8</ele>
        <time>2010-07-24T07:32:09Z</time>
      </trkpt>
      <trkpt lat="45.51369" lon="6.66562">
        <ele>2047</ele>
        <time>2010-07-24T07:32:22Z</time>
      </trkpt>
      <trkpt lat="45.51356" lon="6.66543">
        <ele>2051.8</ele>
        <time>2010-07-24T07:32:36Z</time>
      </trkpt>
      <trkpt lat="45.51344" lon="6.66525">
        <ele>2055.8</ele>
        <time>2010-07-24T07:32:49Z</time>
      </trkpt>
      <trkpt lat="45.51343" lon="6.66524">
        <ele>2056.2</ele>
        <time>2010-07-24T07:32:50Z</time>
      </trkpt>
      <trkpt lat="45.51339" lon="6.66519">
        <ele>2057.8</ele>
        <time>2010-07-24T07:32:54Z</time>
      </trkpt>
      <trkpt lat="45.51331" lon="6.66506">
        <ele>2061.2</ele>
        <time>2010-07-24T07:33:04Z</time>
      </trkpt>
      <trkpt lat="45.51319" lon="6.66485">
        <ele>2066</ele>
        <time>2010-07-24T07:33:19Z</time>
      </trkpt>
      <trkpt lat="45.51304" lon="6.66472">
        <ele>2070.2</ele>
        <time>2010-07-24T07:33:33Z</time>
      </trkpt>
      <trkpt lat="45.51285" lon="6.66466">
        <ele>2075</ele>
        <time>2010-07-24T07:33:47Z</time>
      </trkpt>
      <trkpt lat="45.51268" lon="6.66456">
        <ele>2078.6</ele>
        <time>2010-07-24T07:34:00Z</time>
      </trkpt>
      <trkpt lat="45.51257" lon="6.6645">
        <ele>2081</ele>
        <time>2010-07-24T07:34:08Z</time>
      </trkpt>
      <trkpt lat="45.51252" lon="6.66447">
        <ele>2081.8</ele>
        <time>2010-07-24T07:34:11Z</time>
      </trkpt>
      <trkpt lat="45.51235" lon="6.66439">
        <ele>2084.8</ele>
        <time>2010-07-24T07:34:20Z</time>
      </trkpt>
      <trkpt lat="45.51217" lon="6.66445">
        <ele>2089</ele>
        <time>2010-07-24T07:34:32Z</time>
      </trkpt>
      <trkpt lat="45.51209" lon="6.66447">
        <ele>2090.8</ele>
        <time>2010-07-24T07:34:37Z</time>
      </trkpt>
      <trkpt lat="45.51201" lon="6.66441">
        <ele>2093</ele>
        <time>2010-07-24T07:34:43Z</time>
      </trkpt>
      <trkpt lat="45.51199" lon="6.6644">
        <ele>2093.4</ele>
        <time>2010-07-24T07:34:44Z</time>
      </trkpt>
      <trkpt lat="45.51197" lon="6.66439">
        <ele>2094.2</ele>
        <time>2010-07-24T07:34:46Z</time>
      </trkpt>
      <trkpt lat="45.51187" lon="6.66436">
        <ele>2097</ele>
        <time>2010-07-24T07:34:54Z</time>
      </trkpt>
      <trkpt lat="45.51186" lon="6.66435">
        <ele>2097.8</ele>
        <time>2010-07-24T07:34:56Z</time>
      </trkpt>
      <trkpt lat="45.51184" lon="6.66433">
        <ele>2098.2</ele>
        <time>2010-07-24T07:34:58Z</time>
      </trkpt>
      <trkpt lat="45.51181" lon="6.66431">
        <ele>2099</ele>
        <time>2010-07-24T07:35:00Z</time>
      </trkpt>
      <trkpt lat="45.51166" lon="6.66432">
        <ele>2102.4</ele>
        <time>2010-07-24T07:35:13Z</time>
      </trkpt>
      <trkpt lat="45.51153" lon="6.6645">
        <ele>2105.4</ele>
        <time>2010-07-24T07:35:25Z</time>
      </trkpt>
      <trkpt lat="45.51138" lon="6.66468">
        <ele>2107.6</ele>
        <time>2010-07-24T07:35:37Z</time>
      </trkpt>
      <trkpt lat="45.51121" lon="6.66481">
        <ele>2110</ele>
        <time>2010-07-24T07:35:49Z</time>
      </trkpt>
      <trkpt lat="45.51102" lon="6.66485">
        <ele>2112.4</ele>
        <time>2010-07-24T07:36:00Z</time>
      </trkpt>
      <trkpt lat="45.51088" lon="6.665">
        <ele>2114</ele>
        <time>2010-07-24T07:36:07Z</time>
      </trkpt>
      <trkpt lat="45.51072" lon="6.66517">
        <ele>2115.4</ele>
        <time>2010-07-24T07:36:14Z</time>
      </trkpt>
      <trkpt lat="45.51056" lon="6.66529">
        <ele>2117</ele>
        <time>2010-07-24T07:36:20Z</time>
      </trkpt>
      <trkpt lat="45.51041" lon="6.66543">
        <ele>2118.4</ele>
        <time>2010-07-24T07:36:26Z</time>
      </trkpt>
      <trkpt lat="45.51029" lon="6.66565">
        <ele>2118.6</ele>
        <time>2010-07-24T07:36:32Z</time>
      </trkpt>
      <trkpt lat="45.51015" lon="6.66585">
        <ele>2119</ele>
        <time>2010-07-24T07:36:38Z</time>
      </trkpt>
      <trkpt lat="45.51002" lon="6.66607">
        <ele>2118.8</ele>
        <time>2010-07-24T07:36:44Z</time>
      </trkpt>
      <trkpt lat="45.50984" lon="6.66625">
        <ele>2118.8</ele>
        <time>2010-07-24T07:36:50Z</time>
      </trkpt>
      <trkpt lat="45.50968" lon="6.66642">
        <ele>2118.4</ele>
        <time>2010-07-24T07:36:56Z</time>
      </trkpt>
      <trkpt lat="45.50953" lon="6.66663">
        <ele>2117.8</ele>
        <time>2010-07-24T07:37:03Z</time>
      </trkpt>
      <trkpt lat="45.50938" lon="6.66683">
        <ele>2116.8</ele>
        <time>2010-07-24T07:37:09Z</time>
      </trkpt>
      <trkpt lat="45.50921" lon="6.66697">
        <ele>2116</ele>
        <time>2010-07-24T07:37:15Z</time>
      </trkpt>
      <trkpt lat="45.50902" lon="6.66708">
        <ele>2115.2</ele>
        <time>2010-07-24T07:37:21Z</time>
      </trkpt>
      <trkpt lat="45.50883" lon="6.66722">
        <ele>2114.2</ele>
        <time>2010-07-24T07:37:27Z</time>
      </trkpt>
      <trkpt lat="45.5087" lon="6.66741">
        <ele>2113.4</ele>
        <time>2010-07-24T07:37:32Z</time>
      </trkpt>
      <trkpt lat="45.50862" lon="6.66767">
        <ele>2112.6</ele>
        <time>2010-07-24T07:37:37Z</time>
      </trkpt>
      <trkpt lat="45.50852" lon="6.66787">
        <ele>2111.8</ele>
        <time>2010-07-24T07:37:42Z</time>
      </trkpt>
      <trkpt lat="45.5084" lon="6.66812">
        <ele>2110.6</ele>
        <time>2010-07-24T07:37:48Z</time>
      </trkpt>
      <trkpt lat="45.50821" lon="6.66824">
        <ele>2109.4</ele>
        <time>2010-07-24T07:37:54Z</time>
      </trkpt>
      <trkpt lat="45.50808" lon="6.66842">
        <ele>2108.4</ele>
        <time>2010-07-24T07:37:59Z</time>
      </trkpt>
      <trkpt lat="45.508" lon="6.6687">
        <ele>2107.2</ele>
        <time>2010-07-24T07:38:05Z</time>
      </trkpt>
      <trkpt lat="45.50794" lon="6.66897">
        <ele>2105.8</ele>
        <time>2010-07-24T07:38:11Z</time>
      </trkpt>
      <trkpt lat="45.50785" lon="6.6692">
        <ele>2104.4</ele>
        <time>2010-07-24T07:38:16Z</time>
      </trkpt>
      <trkpt lat="45.50769" lon="6.66937">
        <ele>2102.8</ele>
        <time>2010-07-24T07:38:21Z</time>
      </trkpt>
      <trkpt lat="45.50753" lon="6.66956">
        <ele>2100.6</ele>
        <time>2010-07-24T07:38:27Z</time>
      </trkpt>
      <trkpt lat="45.50734" lon="6.66965">
        <ele>2098.2</ele>
        <time>2010-07-24T07:38:33Z</time>
      </trkpt>
      <trkpt lat="45.50714" lon="6.66964">
        <ele>2096.4</ele>
        <time>2010-07-24T07:38:38Z</time>
      </trkpt>
      <trkpt lat="45.50694" lon="6.66962">
        <ele>2094.4</ele>
        <time>2010-07-24T07:38:43Z</time>
      </trkpt>
      <trkpt lat="45.50676" lon="6.66963">
        <ele>2092.6</ele>
        <time>2010-07-24T07:38:48Z</time>
      </trkpt>
      <trkpt lat="45.50657" lon="6.6697">
        <ele>2091</ele>
        <time>2010-07-24T07:38:53Z</time>
      </trkpt>
      <trkpt lat="45.50642" lon="6.66986">
        <ele>2089.4</ele>
        <time>2010-07-24T07:38:58Z</time>
      </trkpt>
      <trkpt lat="45.50625" lon="6.66999">
        <ele>2087.6</ele>
        <time>2010-07-24T07:39:03Z</time>
      </trkpt>
      <trkpt lat="45.50607" lon="6.6701">
        <ele>2085.6</ele>
        <time>2010-07-24T07:39:09Z</time>
      </trkpt>
      <trkpt lat="45.50597" lon="6.67032">
        <ele>2083.8</ele>
        <time>2010-07-24T07:39:14Z</time>
      </trkpt>
      <trkpt lat="45.50589" lon="6.67059">
        <ele>2081.4</ele>
        <time>2010-07-24T07:39:20Z</time>
      </trkpt>
      <trkpt lat="45.50582" lon="6.67084">
        <ele>2078.6</ele>
        <time>2010-07-24T07:39:26Z</time>
      </trkpt>
      <trkpt lat="45.50577" lon="6.67109">
        <ele>2076.2</ele>
        <time>2010-07-24T07:39:31Z</time>
      </trkpt>
      <trkpt lat="45.50573" lon="6.67134">
        <ele>2073.8</ele>
        <time>2010-07-24T07:39:36Z</time>
      </trkpt>
      <trkpt lat="45.50571" lon="6.67139">
        <ele>2073.4</ele>
        <time>2010-07-24T07:39:37Z</time>
      </trkpt>
      <trkpt lat="45.50559" lon="6.67156">
        <ele>2071</ele>
        <time>2010-07-24T07:39:42Z</time>
      </trkpt>
      <trkpt lat="45.50546" lon="6.67174">
        <ele>2068.6</ele>
        <time>2010-07-24T07:39:47Z</time>
      </trkpt>
      <trkpt lat="45.50533" lon="6.67194">
        <ele>2066</ele>
        <time>2010-07-24T07:39:52Z</time>
      </trkpt>
      <trkpt lat="45.50521" lon="6.67217">
        <ele>2063.6</ele>
        <time>2010-07-24T07:39:57Z</time>
      </trkpt>
      <trkpt lat="45.50507" lon="6.67238">
        <ele>2060.6</ele>
        <time>2010-07-24T07:40:03Z</time>
      </trkpt>
      <trkpt lat="45.505" lon="6.67265">
        <ele>2057.6</ele>
        <time>2010-07-24T07:40:09Z</time>
      </trkpt>
      <trkpt lat="45.50495" lon="6.67292">
        <ele>2055.2</ele>
        <time>2010-07-24T07:40:14Z</time>
      </trkpt>
      <trkpt lat="45.50491" lon="6.67319">
        <ele>2052.8</ele>
        <time>2010-07-24T07:40:19Z</time>
      </trkpt>
      <trkpt lat="45.50493" lon="6.67346">
        <ele>2050.4</ele>
        <time>2010-07-24T07:40:24Z</time>
      </trkpt>
      <trkpt lat="45.50497" lon="6.67371">
        <ele>2048</ele>
        <time>2010-07-24T07:40:29Z</time>
      </trkpt>
      <trkpt lat="45.505" lon="6.67398">
        <ele>2045.6</ele>
        <time>2010-07-24T07:40:34Z</time>
      </trkpt>
      <trkpt lat="45.50504" lon="6.67424">
        <ele>2043.2</ele>
        <time>2010-07-24T07:40:39Z</time>
      </trkpt>
      <trkpt lat="45.50508" lon="6.67451">
        <ele>2041</ele>
        <time>2010-07-24T07:40:44Z</time>
      </trkpt>
      <trkpt lat="45.50513" lon="6.67478">
        <ele>2038.8</ele>
        <time>2010-07-24T07:40:49Z</time>
      </trkpt>
      <trkpt lat="45.50518" lon="6.67505">
        <ele>2036.8</ele>
        <time>2010-07-24T07:40:54Z</time>
      </trkpt>
      <trkpt lat="45.50528" lon="6.67526">
        <ele>2035</ele>
        <time>2010-07-24T07:40:59Z</time>
      </trkpt>
      <trkpt lat="45.50539" lon="6.67552">
        <ele>2032.8</ele>
        <time>2010-07-24T07:41:05Z</time>
      </trkpt>
      <trkpt lat="45.50547" lon="6.67576">
        <ele>2031</ele>
        <time>2010-07-24T07:41:10Z</time>
      </trkpt>
      <trkpt lat="45.50553" lon="6.67603">
        <ele>2029.2</ele>
        <time>2010-07-24T07:41:15Z</time>
      </trkpt>
      <trkpt lat="45.50557" lon="6.67608">
        <ele>2028.6</ele>
        <time>2010-07-24T07:41:17Z</time>
      </trkpt>
      <trkpt lat="45.50571" lon="6.67608">
        <ele>2026.8</ele>
        <time>2010-07-24T07:41:22Z</time>
      </trkpt>
      <trkpt lat="45.50576" lon="6.67609">
        <ele>2026.2</ele>
        <time>2010-07-24T07:41:24Z</time>
      </trkpt>
      <trkpt lat="45.5059" lon="6.67616">
        <ele>2024.4</ele>
        <time>2010-07-24T07:41:29Z</time>
      </trkpt>
      <trkpt lat="45.50592" lon="6.67619">
        <ele>2023.6</ele>
        <time>2010-07-24T07:41:32Z</time>
      </trkpt>
      <trkpt lat="45.50586" lon="6.67636">
        <ele>2021.2</ele>
        <time>2010-07-24T07:41:39Z</time>
      </trkpt>
      <trkpt lat="45.50585" lon="6.6764">
        <ele>2021</ele>
        <time>2010-07-24T07:41:40Z</time>
      </trkpt>
      <trkpt lat="45.50577" lon="6.67666">
        <ele>2018.8</ele>
        <time>2010-07-24T07:41:47Z</time>
      </trkpt>
      <trkpt lat="45.50574" lon="6.67693">
        <ele>2016.8</ele>
        <time>2010-07-24T07:41:54Z</time>
      </trkpt>
      <trkpt lat="45.50561" lon="6.67713">
        <ele>2014.8</ele>
        <time>2010-07-24T07:42:01Z</time>
      </trkpt>
      <trkpt lat="45.50549" lon="6.67732">
        <ele>2013.4</ele>
        <time>2010-07-24T07:42:08Z</time>
      </trkpt>
      <trkpt lat="45.50539" lon="6.67757">
        <ele>2011.8</ele>
        <time>2010-07-24T07:42:16Z</time>
      </trkpt>
      <trkpt lat="45.50524" lon="6.67777">
        <ele>2010.6</ele>
        <time>2010-07-24T07:42:23Z</time>
      </trkpt>
      <trkpt lat="45.50506" lon="6.67787">
        <ele>2009.6</ele>
        <time>2010-07-24T07:42:31Z</time>
      </trkpt>
      <trkpt lat="45.5049" lon="6.678">
        <ele>2008.8</ele>
        <time>2010-07-24T07:42:39Z</time>
      </trkpt>
      <trkpt lat="45.50472" lon="6.67808">
        <ele>2008</ele>
        <time>2010-07-24T07:42:48Z</time>
      </trkpt>
      <trkpt lat="45.50454" lon="6.67819">
        <ele>2007.6</ele>
        <time>2010-07-24T07:42:56Z</time>
      </trkpt>
      <trkpt lat="45.50436" lon="6.6783">
        <ele>2007.6</ele>
        <time>2010-07-24T07:43:04Z</time>
      </trkpt>
      <trkpt lat="45.50418" lon="6.67834">
        <ele>2008.4</ele>
        <time>2010-07-24T07:43:12Z</time>
      </trkpt>
      <trkpt lat="45.50402" lon="6.67847">
        <ele>2009.2</ele>
        <time>2010-07-24T07:43:21Z</time>
      </trkpt>
      <trkpt lat="45.50389" lon="6.67867">
        <ele>2010.8</ele>
        <time>2010-07-24T07:43:32Z</time>
      </trkpt>
      <trkpt lat="45.50385" lon="6.6788">
        <ele>2012.8</ele>
        <time>2010-07-24T07:43:39Z</time>
      </trkpt>
      <trkpt lat="45.50386" lon="6.67891">
        <ele>2014.2</ele>
        <time>2010-07-24T07:43:44Z</time>
      </trkpt>
      <trkpt lat="45.50384" lon="6.67896">
        <ele>2015.2</ele>
        <time>2010-07-24T07:43:49Z</time>
      </trkpt>
      <trkpt lat="45.50384" lon="6.67898">
        <ele>2015.4</ele>
        <time>2010-07-24T07:43:50Z</time>
      </trkpt>
      <trkpt lat="45.5038" lon="6.67905">
        <ele>2015.8</ele>
        <time>2010-07-24T07:43:56Z</time>
      </trkpt>
      <trkpt lat="45.50383" lon="6.67913">
        <ele>2015.8</ele>
        <time>2010-07-24T07:44:00Z</time>
      </trkpt>
      <trkpt lat="45.50388" lon="6.6792">
        <ele>2015.8</ele>
        <time>2010-07-24T07:44:03Z</time>
      </trkpt>
      <trkpt lat="45.50397" lon="6.6793">
        <ele>2016.4</ele>
        <time>2010-07-24T07:44:09Z</time>
      </trkpt>
      <trkpt lat="45.50403" lon="6.67946">
        <ele>2018.6</ele>
        <time>2010-07-24T07:44:16Z</time>
      </trkpt>
      <trkpt lat="45.50407" lon="6.67949">
        <ele>2019.4</ele>
        <time>2010-07-24T07:44:18Z</time>
      </trkpt>
      <trkpt lat="45.50424" lon="6.67962">
        <ele>2022.8</ele>
        <time>2010-07-24T07:44:26Z</time>
      </trkpt>
      <trkpt lat="45.50438" lon="6.67973">
        <ele>2025.6</ele>
        <time>2010-07-24T07:44:34Z</time>
      </trkpt>
      <trkpt lat="45.50441" lon="6.67976">
        <ele>2026.4</ele>
        <time>2010-07-24T07:44:36Z</time>
      </trkpt>
      <trkpt lat="45.50454" lon="6.67995">
        <ele>2030.4</ele>
        <time>2010-07-24T07:44:46Z</time>
      </trkpt>
      <trkpt lat="45.50459" lon="6.68004">
        <ele>2032</ele>
        <time>2010-07-24T07:44:50Z</time>
      </trkpt>
      <trkpt lat="45.50465" lon="6.68017">
        <ele>2034.6</ele>
        <time>2010-07-24T07:44:56Z</time>
      </trkpt>
      <trkpt lat="45.50466" lon="6.68019">
        <ele>2035.2</ele>
        <time>2010-07-24T07:44:57Z</time>
      </trkpt>
      <trkpt lat="45.50472" lon="6.68041">
        <ele>2038.6</ele>
        <time>2010-07-24T07:45:05Z</time>
      </trkpt>
      <trkpt lat="45.50481" lon="6.68066">
        <ele>2042.8</ele>
        <time>2010-07-24T07:45:14Z</time>
      </trkpt>
      <trkpt lat="45.50489" lon="6.6809">
        <ele>2046.8</ele>
        <time>2010-07-24T07:45:23Z</time>
      </trkpt>
      <trkpt lat="45.50494" lon="6.68117">
        <ele>2051.2</ele>
        <time>2010-07-24T07:45:33Z</time>
      </trkpt>
      <trkpt lat="45.50498" lon="6.68141">
        <ele>2054.2</ele>
        <time>2010-07-24T07:45:41Z</time>
      </trkpt>
      <trkpt lat="45.50499" lon="6.68143">
        <ele>2054.6</ele>
        <time>2010-07-24T07:45:42Z</time>
      </trkpt>
      <trkpt lat="45.50506" lon="6.68157">
        <ele>2056.2</ele>
        <time>2010-07-24T07:45:48Z</time>
      </trkpt>
      <trkpt lat="45.50512" lon="6.68161">
        <ele>2056.8</ele>
        <time>2010-07-24T07:45:51Z</time>
      </trkpt>
      <trkpt lat="45.50522" lon="6.68185">
        <ele>2059</ele>
        <time>2010-07-24T07:46:00Z</time>
      </trkpt>
      <trkpt lat="45.50531" lon="6.68206">
        <ele>2061.4</ele>
        <time>2010-07-24T07:46:08Z</time>
      </trkpt>
      <trkpt lat="45.50542" lon="6.6823">
        <ele>2064</ele>
        <time>2010-07-24T07:46:16Z</time>
      </trkpt>
      <trkpt lat="45.50536" lon="6.68256">
        <ele>2066</ele>
        <time>2010-07-24T07:46:26Z</time>
      </trkpt>
      <trkpt lat="45.50528" lon="6.6828">
        <ele>2068.2</ele>
        <time>2010-07-24T07:46:37Z</time>
      </trkpt>
      <trkpt lat="45.50524" lon="6.68305">
        <ele>2070.8</ele>
        <time>2010-07-24T07:46:46Z</time>
      </trkpt>
      <trkpt lat="45.50517" lon="6.68307">
        <ele>2072.2</ele>
        <time>2010-07-24T07:46:52Z</time>
      </trkpt>
      <trkpt lat="45.50515" lon="6.68307">
        <ele>2072.8</ele>
        <time>2010-07-24T07:46:54Z</time>
      </trkpt>
      <trkpt lat="45.50507" lon="6.68309">
        <ele>2074.2</ele>
        <time>2010-07-24T07:47:01Z</time>
      </trkpt>
      <trkpt lat="45.50505" lon="6.68309">
        <ele>2074.6</ele>
        <time>2010-07-24T07:47:02Z</time>
      </trkpt>
      <trkpt lat="45.50503" lon="6.68308">
        <ele>2074.8</ele>
        <time>2010-07-24T07:47:04Z</time>
      </trkpt>
      <trkpt lat="45.50489" lon="6.68305">
        <ele>2076.8</ele>
        <time>2010-07-24T07:47:14Z</time>
      </trkpt>
      <trkpt lat="45.50488" lon="6.68306">
        <ele>2077</ele>
        <time>2010-07-24T07:47:15Z</time>
      </trkpt>
      <trkpt lat="45.50474" lon="6.68323">
        <ele>2080</ele>
        <time>2010-07-24T07:47:29Z</time>
      </trkpt>
      <trkpt lat="45.50472" lon="6.68326">
        <ele>2080.4</ele>
        <time>2010-07-24T07:47:31Z</time>
      </trkpt>
      <trkpt lat="45.50464" lon="6.68344">
        <ele>2083</ele>
        <time>2010-07-24T07:47:41Z</time>
      </trkpt>
      <trkpt lat="45.50461" lon="6.68355">
        <ele>2084.2</ele>
        <time>2010-07-24T07:47:48Z</time>
      </trkpt>
      <trkpt lat="45.50455" lon="6.68367">
        <ele>2086.2</ele>
        <time>2010-07-24T07:47:56Z</time>
      </trkpt>
      <trkpt lat="45.50451" lon="6.68378">
        <ele>2088.6</ele>
        <time>2010-07-24T07:48:05Z</time>
      </trkpt>
      <trkpt lat="45.50445" lon="6.68387">
        <ele>2090.8</ele>
        <time>2010-07-24T07:48:14Z</time>
      </trkpt>
      <trkpt lat="45.50444" lon="6.68388">
        <ele>2091</ele>
        <time>2010-07-24T07:48:16Z</time>
      </trkpt>
      <trkpt lat="45.50437" lon="6.68394">
        <ele>2093</ele>
        <time>2010-07-24T07:48:25Z</time>
      </trkpt>
      <trkpt lat="45.5043" lon="6.68405">
        <ele>2095.6</ele>
        <time>2010-07-24T07:48:35Z</time>
      </trkpt>
      <trkpt lat="45.50427" lon="6.68408">
        <ele>2096.6</ele>
        <time>2010-07-24T07:48:38Z</time>
      </trkpt>
      <trkpt lat="45.50421" lon="6.68427">
        <ele>2100</ele>
        <time>2010-07-24T07:48:47Z</time>
      </trkpt>
      <trkpt lat="45.50416" lon="6.68454">
        <ele>2103.2</ele>
        <time>2010-07-24T07:48:56Z</time>
      </trkpt>
      <trkpt lat="45.50412" lon="6.68479">
        <ele>2105.4</ele>
        <time>2010-07-24T07:49:04Z</time>
      </trkpt>
      <trkpt lat="45.50405" lon="6.68503">
        <ele>2107.6</ele>
        <time>2010-07-24T07:49:12Z</time>
      </trkpt>
      <trkpt lat="45.50399" lon="6.6853">
        <ele>2109.8</ele>
        <time>2010-07-24T07:49:21Z</time>
      </trkpt>
      <trkpt lat="45.50394" lon="6.68555">
        <ele>2112.2</ele>
        <time>2010-07-24T07:49:31Z</time>
      </trkpt>
      <trkpt lat="45.50383" lon="6.68575">
        <ele>2114.6</ele>
        <time>2010-07-24T07:49:40Z</time>
      </trkpt>
      <trkpt lat="45.50369" lon="6.68593">
        <ele>2116.8</ele>
        <time>2010-07-24T07:49:49Z</time>
      </trkpt>
      <trkpt lat="45.50362" lon="6.68607">
        <ele>2118.4</ele>
        <time>2010-07-24T07:49:55Z</time>
      </trkpt>
      <trkpt lat="45.50361" lon="6.68616">
        <ele>2119.2</ele>
        <time>2010-07-24T07:49:58Z</time>
      </trkpt>
      <trkpt lat="45.50361" lon="6.68625">
        <ele>2120</ele>
        <time>2010-07-24T07:50:01Z</time>
      </trkpt>
      <trkpt lat="45.50362" lon="6.68642">
        <ele>2121.4</ele>
        <time>2010-07-24T07:50:06Z</time>
      </trkpt>
      <trkpt lat="45.50361" lon="6.68669">
        <ele>2124.4</ele>
        <time>2010-07-24T07:50:15Z</time>
      </trkpt>
      <trkpt lat="45.50359" lon="6.68697">
        <ele>2127.6</ele>
        <time>2010-07-24T07:50:25Z</time>
      </trkpt>
      <trkpt lat="45.50354" lon="6.68717">
        <ele>2130.2</ele>
        <time>2010-07-24T07:50:33Z</time>
      </trkpt>
      <trkpt lat="45.50353" lon="6.68721">
        <ele>2130.8</ele>
        <time>2010-07-24T07:50:35Z</time>
      </trkpt>
      <trkpt lat="45.50348" lon="6.68748">
        <ele>2133.4</ele>
        <time>2010-07-24T07:50:45Z</time>
      </trkpt>
      <trkpt lat="45.50345" lon="6.68773">
        <ele>2135.8</ele>
        <time>2010-07-24T07:50:54Z</time>
      </trkpt>
      <trkpt lat="45.50333" lon="6.68796">
        <ele>2137.6</ele>
        <time>2010-07-24T07:51:02Z</time>
      </trkpt>
      <trkpt lat="45.5032" lon="6.68815">
        <ele>2139.6</ele>
        <time>2010-07-24T07:51:10Z</time>
      </trkpt>
      <trkpt lat="45.50308" lon="6.68838">
        <ele>2141.4</ele>
        <time>2010-07-24T07:51:18Z</time>
      </trkpt>
      <trkpt lat="45.50303" lon="6.68866">
        <ele>2143.6</ele>
        <time>2010-07-24T07:51:26Z</time>
      </trkpt>
      <trkpt lat="45.50299" lon="6.68892">
        <ele>2145.2</ele>
        <time>2010-07-24T07:51:33Z</time>
      </trkpt>
      <trkpt lat="45.50297" lon="6.68919">
        <ele>2147.2</ele>
        <time>2010-07-24T07:51:40Z</time>
      </trkpt>
      <trkpt lat="45.50292" lon="6.68947">
        <ele>2148.6</ele>
        <time>2010-07-24T07:51:47Z</time>
      </trkpt>
      <trkpt lat="45.50286" lon="6.68972">
        <ele>2149.8</ele>
        <time>2010-07-24T07:51:53Z</time>
      </trkpt>
      <trkpt lat="45.50284" lon="6.68999">
        <ele>2151.4</ele>
        <time>2010-07-24T07:52:00Z</time>
      </trkpt>
      <trkpt lat="45.50287" lon="6.69028">
        <ele>2152.8</ele>
        <time>2010-07-24T07:52:07Z</time>
      </trkpt>
      <trkpt lat="45.50289" lon="6.69054">
        <ele>2154</ele>
        <time>2010-07-24T07:52:13Z</time>
      </trkpt>
      <trkpt lat="45.50292" lon="6.6908">
        <ele>2154.8</ele>
        <time>2010-07-24T07:52:19Z</time>
      </trkpt>
      <trkpt lat="45.50293" lon="6.69108">
        <ele>2156</ele>
        <time>2010-07-24T07:52:25Z</time>
      </trkpt>
      <trkpt lat="45.50298" lon="6.69133">
        <ele>2156.8</ele>
        <time>2010-07-24T07:52:31Z</time>
      </trkpt>
      <trkpt lat="45.50304" lon="6.69157">
        <ele>2157.6</ele>
        <time>2010-07-24T07:52:37Z</time>
      </trkpt>
      <trkpt lat="45.50309" lon="6.69183">
        <ele>2158.4</ele>
        <time>2010-07-24T07:52:43Z</time>
      </trkpt>
      <trkpt lat="45.50314" lon="6.69209">
        <ele>2159.2</ele>
        <time>2010-07-24T07:52:49Z</time>
      </trkpt>
      <trkpt lat="45.50322" lon="6.69235">
        <ele>2160</ele>
        <time>2010-07-24T07:52:55Z</time>
      </trkpt>
      <trkpt lat="45.50337" lon="6.69252">
        <ele>2160.8</ele>
        <time>2010-07-24T07:53:01Z</time>
      </trkpt>
      <trkpt lat="45.5035" lon="6.69272">
        <ele>2161.6</ele>
        <time>2010-07-24T07:53:07Z</time>
      </trkpt>
      <trkpt lat="45.50356" lon="6.69297">
        <ele>2162</ele>
        <time>2010-07-24T07:53:13Z</time>
      </trkpt>
      <trkpt lat="45.5036" lon="6.69324">
        <ele>2162.2</ele>
        <time>2010-07-24T07:53:19Z</time>
      </trkpt>
      <trkpt lat="45.50357" lon="6.69353">
        <ele>2162</ele>
        <time>2010-07-24T07:53:25Z</time>
      </trkpt>
      <trkpt lat="45.50349" lon="6.6938">
        <ele>2161.8</ele>
        <time>2010-07-24T07:53:31Z</time>
      </trkpt>
      <trkpt lat="45.50332" lon="6.69397">
        <ele>2161.4</ele>
        <time>2010-07-24T07:53:37Z</time>
      </trkpt>
      <trkpt lat="45.50313" lon="6.69408">
        <ele>2161</ele>
        <time>2010-07-24T07:53:43Z</time>
      </trkpt>
      <trkpt lat="45.503" lon="6.69429">
        <ele>2160.6</ele>
        <time>2010-07-24T07:53:49Z</time>
      </trkpt>
      <trkpt lat="45.50288" lon="6.69451">
        <ele>2160.2</ele>
        <time>2010-07-24T07:53:55Z</time>
      </trkpt>
      <trkpt lat="45.50268" lon="6.69458">
        <ele>2159.8</ele>
        <time>2010-07-24T07:54:01Z</time>
      </trkpt>
      <trkpt lat="45.50251" lon="6.69468">
        <ele>2159.4</ele>
        <time>2010-07-24T07:54:07Z</time>
      </trkpt>
      <trkpt lat="45.50232" lon="6.69475">
        <ele>2159</ele>
        <time>2010-07-24T07:54:13Z</time>
      </trkpt>
      <trkpt lat="45.50213" lon="6.69481">
        <ele>2158.8</ele>
        <time>2010-07-24T07:54:19Z</time>
      </trkpt>
      <trkpt lat="45.50195" lon="6.69496">
        <ele>2158.6</ele>
        <time>2010-07-24T07:54:25Z</time>
      </trkpt>
      <trkpt lat="45.50183" lon="6.6952">
        <ele>2158.4</ele>
        <time>2010-07-24T07:54:31Z</time>
      </trkpt>
      <trkpt lat="45.50167" lon="6.69535">
        <ele>2158.2</ele>
        <time>2010-07-24T07:54:37Z</time>
      </trkpt>
      <trkpt lat="45.5015" lon="6.69553">
        <ele>2157.8</ele>
        <time>2010-07-24T07:54:44Z</time>
      </trkpt>
      <trkpt lat="45.50137" lon="6.69576">
        <ele>2157.8</ele>
        <time>2010-07-24T07:54:51Z</time>
      </trkpt>
      <trkpt lat="45.50127" lon="6.69599">
        <ele>2157.8</ele>
        <time>2010-07-24T07:54:57Z</time>
      </trkpt>
      <trkpt lat="45.50117" lon="6.69622">
        <ele>2157.8</ele>
        <time>2010-07-24T07:55:03Z</time>
      </trkpt>
      <trkpt lat="45.50112" lon="6.69648">
        <ele>2158</ele>
        <time>2010-07-24T07:55:09Z</time>
      </trkpt>
      <trkpt lat="45.50109" lon="6.69675">
        <ele>2158.6</ele>
        <time>2010-07-24T07:55:15Z</time>
      </trkpt>
      <trkpt lat="45.50108" lon="6.69704">
        <ele>2159.4</ele>
        <time>2010-07-24T07:55:22Z</time>
      </trkpt>
      <trkpt lat="45.5011" lon="6.69732">
        <ele>2160.6</ele>
        <time>2010-07-24T07:55:29Z</time>
      </trkpt>
      <trkpt lat="45.50108" lon="6.69761">
        <ele>2161.6</ele>
        <time>2010-07-24T07:55:36Z</time>
      </trkpt>
      <trkpt lat="45.501" lon="6.69784">
        <ele>2162.4</ele>
        <time>2010-07-24T07:55:42Z</time>
      </trkpt>
      <trkpt lat="45.50095" lon="6.69809">
        <ele>2163</ele>
        <time>2010-07-24T07:55:48Z</time>
      </trkpt>
      <trkpt lat="45.5009" lon="6.69834">
        <ele>2163.8</ele>
        <time>2010-07-24T07:55:54Z</time>
      </trkpt>
      <trkpt lat="45.50083" lon="6.69862">
        <ele>2164.8</ele>
        <time>2010-07-24T07:56:01Z</time>
      </trkpt>
      <trkpt lat="45.50081" lon="6.6989">
        <ele>2166.2</ele>
        <time>2010-07-24T07:56:08Z</time>
      </trkpt>
      <trkpt lat="45.50077" lon="6.69913">
        <ele>2167.6</ele>
        <time>2010-07-24T07:56:14Z</time>
      </trkpt>
      <trkpt lat="45.50075" lon="6.69915">
        <ele>2167.8</ele>
        <time>2010-07-24T07:56:15Z</time>
      </trkpt>
      <trkpt lat="45.50062" lon="6.69934">
        <ele>2169.4</ele>
        <time>2010-07-24T07:56:22Z</time>
      </trkpt>
      <trkpt lat="45.50044" lon="6.69948">
        <ele>2171.2</ele>
        <time>2010-07-24T07:56:31Z</time>
      </trkpt>
      <trkpt lat="45.50028" lon="6.69962">
        <ele>2173.6</ele>
        <time>2010-07-24T07:56:43Z</time>
      </trkpt>
      <trkpt lat="45.50013" lon="6.69978">
        <ele>2176.2</ele>
        <time>2010-07-24T07:56:55Z</time>
      </trkpt>
      <trkpt lat="45.49999" lon="6.69996">
        <ele>2178.2</ele>
        <time>2010-07-24T07:57:04Z</time>
      </trkpt>
      <trkpt lat="45.49986" lon="6.70015">
        <ele>2180.6</ele>
        <time>2010-07-24T07:57:13Z</time>
      </trkpt>
      <trkpt lat="45.49972" lon="6.70032">
        <ele>2183.6</ele>
        <time>2010-07-24T07:57:25Z</time>
      </trkpt>
      <trkpt lat="45.49959" lon="6.70049">
        <ele>2186.4</ele>
        <time>2010-07-24T07:57:37Z</time>
      </trkpt>
      <trkpt lat="45.49942" lon="6.70061">
        <ele>2188.4</ele>
        <time>2010-07-24T07:57:48Z</time>
      </trkpt>
      <trkpt lat="45.49929" lon="6.70078">
        <ele>2189.8</ele>
        <time>2010-07-24T07:57:59Z</time>
      </trkpt>
      <trkpt lat="45.49915" lon="6.70096">
        <ele>2191.8</ele>
        <time>2010-07-24T07:58:10Z</time>
      </trkpt>
      <trkpt lat="45.49911" lon="6.70112">
        <ele>2193.4</ele>
        <time>2010-07-24T07:58:18Z</time>
      </trkpt>
      <trkpt lat="45.4991" lon="6.70116">
        <ele>2193.6</ele>
        <time>2010-07-24T07:58:20Z</time>
      </trkpt>
      <trkpt lat="45.49909" lon="6.7012">
        <ele>2194</ele>
        <time>2010-07-24T07:58:22Z</time>
      </trkpt>
      <trkpt lat="45.49899" lon="6.70145">
        <ele>2196.2</ele>
        <time>2010-07-24T07:58:32Z</time>
      </trkpt>
      <trkpt lat="45.49889" lon="6.70168">
        <ele>2198.4</ele>
        <time>2010-07-24T07:58:41Z</time>
      </trkpt>
      <trkpt lat="45.49885" lon="6.70187">
        <ele>2200.4</ele>
        <time>2010-07-24T07:58:49Z</time>
      </trkpt>
      <trkpt lat="45.49886" lon="6.70191">
        <ele>2201.2</ele>
        <time>2010-07-24T07:58:51Z</time>
      </trkpt>
      <trkpt lat="45.49886" lon="6.70191">
        <ele>2201.6</ele>
        <time>2010-07-24T07:58:52Z</time>
      </trkpt>
      <trkpt lat="45.49892" lon="6.70214">
        <ele>2205.2</ele>
        <time>2010-07-24T07:59:02Z</time>
      </trkpt>
      <trkpt lat="45.49891" lon="6.70218">
        <ele>2206</ele>
        <time>2010-07-24T07:59:04Z</time>
      </trkpt>
      <trkpt lat="45.49889" lon="6.70228">
        <ele>2207.4</ele>
        <time>2010-07-24T07:59:09Z</time>
      </trkpt>
      <trkpt lat="45.49885" lon="6.70242">
        <ele>2209.4</ele>
        <time>2010-07-24T07:59:16Z</time>
      </trkpt>
      <trkpt lat="45.49878" lon="6.70266">
        <ele>2213.4</ele>
        <time>2010-07-24T07:59:30Z</time>
      </trkpt>
      <trkpt lat="45.49874" lon="6.70289">
        <ele>2216.8</ele>
        <time>2010-07-24T07:59:41Z</time>
      </trkpt>
      <trkpt lat="45.49875" lon="6.7029">
        <ele>2217</ele>
        <time>2010-07-24T07:59:42Z</time>
      </trkpt>
      <trkpt lat="45.49878" lon="6.70306">
        <ele>2219.8</ele>
        <time>2010-07-24T07:59:51Z</time>
      </trkpt>
      <trkpt lat="45.49877" lon="6.70315">
        <ele>2222</ele>
        <time>2010-07-24T07:59:57Z</time>
      </trkpt>
      <trkpt lat="45.49868" lon="6.70335">
        <ele>2225.4</ele>
        <time>2010-07-24T08:00:10Z</time>
      </trkpt>
      <trkpt lat="45.49867" lon="6.70337">
        <ele>2225.8</ele>
        <time>2010-07-24T08:00:12Z</time>
      </trkpt>
      <trkpt lat="45.49866" lon="6.70352">
        <ele>2228</ele>
        <time>2010-07-24T08:00:21Z</time>
      </trkpt>
      <trkpt lat="45.49866" lon="6.70362">
        <ele>2229.4</ele>
        <time>2010-07-24T08:00:27Z</time>
      </trkpt>
      <trkpt lat="45.49866" lon="6.70365">
        <ele>2229.6</ele>
        <time>2010-07-24T08:00:28Z</time>
      </trkpt>
      <trkpt lat="45.49857" lon="6.7039">
        <ele>2231</ele>
        <time>2010-07-24T08:00:35Z</time>
      </trkpt>
      <trkpt lat="45.49845" lon="6.70412">
        <ele>2233</ele>
        <time>2010-07-24T08:00:42Z</time>
      </trkpt>
      <trkpt lat="45.4983" lon="6.70431">
        <ele>2235</ele>
        <time>2010-07-24T08:00:49Z</time>
      </trkpt>
      <trkpt lat="45.49817" lon="6.7045">
        <ele>2237.2</ele>
        <time>2010-07-24T08:00:56Z</time>
      </trkpt>
      <trkpt lat="45.49801" lon="6.70467">
        <ele>2239.8</ele>
        <time>2010-07-24T08:01:04Z</time>
      </trkpt>
      <trkpt lat="45.49784" lon="6.70479">
        <ele>2242.2</ele>
        <time>2010-07-24T08:01:11Z</time>
      </trkpt>
      <trkpt lat="45.49769" lon="6.70496">
        <ele>2244.4</ele>
        <time>2010-07-24T08:01:18Z</time>
      </trkpt>
      <trkpt lat="45.4975" lon="6.70507">
        <ele>2246.4</ele>
        <time>2010-07-24T08:01:25Z</time>
      </trkpt>
      <trkpt lat="45.49733" lon="6.70518">
        <ele>2247.8</ele>
        <time>2010-07-24T08:01:32Z</time>
      </trkpt>
      <trkpt lat="45.49716" lon="6.70526">
        <ele>2249</ele>
        <time>2010-07-24T08:01:39Z</time>
      </trkpt>
      <trkpt lat="45.49698" lon="6.70532">
        <ele>2250.4</ele>
        <time>2010-07-24T08:01:46Z</time>
      </trkpt>
      <trkpt lat="45.49679" lon="6.70538">
        <ele>2252.4</ele>
        <time>2010-07-24T08:01:54Z</time>
      </trkpt>
      <trkpt lat="45.49662" lon="6.70547">
        <ele>2254.6</ele>
        <time>2010-07-24T08:02:02Z</time>
      </trkpt>
      <trkpt lat="45.49643" lon="6.70555">
        <ele>2256.8</ele>
        <time>2010-07-24T08:02:10Z</time>
      </trkpt>
      <trkpt lat="45.49623" lon="6.70558">
        <ele>2258.2</ele>
        <time>2010-07-24T08:02:17Z</time>
      </trkpt>
      <trkpt lat="45.49604" lon="6.70561">
        <ele>2259.4</ele>
        <time>2010-07-24T08:02:24Z</time>
      </trkpt>
      <trkpt lat="45.49586" lon="6.70562">
        <ele>2261.4</ele>
        <time>2010-07-24T08:02:33Z</time>
      </trkpt>
      <trkpt lat="45.49584" lon="6.70564">
        <ele>2261.8</ele>
        <time>2010-07-24T08:02:34Z</time>
      </trkpt>
      <trkpt lat="45.49573" lon="6.7058">
        <ele>2263</ele>
        <time>2010-07-24T08:02:39Z</time>
      </trkpt>
      <trkpt lat="45.49572" lon="6.70584">
        <ele>2263.2</ele>
        <time>2010-07-24T08:02:40Z</time>
      </trkpt>
      <trkpt lat="45.49563" lon="6.70602">
        <ele>2264.6</ele>
        <time>2010-07-24T08:02:45Z</time>
      </trkpt>
      <trkpt lat="45.4955" lon="6.70622">
        <ele>2265.8</ele>
        <time>2010-07-24T08:02:51Z</time>
      </trkpt>
      <trkpt lat="45.49535" lon="6.70636">
        <ele>2267.4</ele>
        <time>2010-07-24T08:02:58Z</time>
      </trkpt>
      <trkpt lat="45.49516" lon="6.70649">
        <ele>2269.6</ele>
        <time>2010-07-24T08:03:06Z</time>
      </trkpt>
      <trkpt lat="45.495" lon="6.70663">
        <ele>2271.6</ele>
        <time>2010-07-24T08:03:15Z</time>
      </trkpt>
      <trkpt lat="45.49484" lon="6.70677">
        <ele>2274</ele>
        <time>2010-07-24T08:03:24Z</time>
      </trkpt>
      <trkpt lat="45.49477" lon="6.70683">
        <ele>2275.2</ele>
        <time>2010-07-24T08:03:29Z</time>
      </trkpt>
      <trkpt lat="45.49468" lon="6.70692">
        <ele>2276.8</ele>
        <time>2010-07-24T08:03:37Z</time>
      </trkpt>
      <trkpt lat="45.4945" lon="6.707">
        <ele>2278.2</ele>
        <time>2010-07-24T08:03:52Z</time>
      </trkpt>
      <trkpt lat="45.49443" lon="6.70705">
        <ele>2278.4</ele>
        <time>2010-07-24T08:03:58Z</time>
      </trkpt>
      <trkpt lat="45.49436" lon="6.70717">
        <ele>2278.8</ele>
        <time>2010-07-24T08:04:05Z</time>
      </trkpt>
      <trkpt lat="45.49418" lon="6.70722">
        <ele>2282.2</ele>
        <time>2010-07-24T08:04:20Z</time>
      </trkpt>
      <trkpt lat="45.49416" lon="6.70724">
        <ele>2282.8</ele>
        <time>2010-07-24T08:04:22Z</time>
      </trkpt>
      <trkpt lat="45.49407" lon="6.70726">
        <ele>2284.4</ele>
        <time>2010-07-24T08:04:29Z</time>
      </trkpt>
      <trkpt lat="45.49401" lon="6.70728">
        <ele>2285.4</ele>
        <time>2010-07-24T08:04:34Z</time>
      </trkpt>
      <trkpt lat="45.49394" lon="6.7073">
        <ele>2286.8</ele>
        <time>2010-07-24T08:04:39Z</time>
      </trkpt>
      <trkpt lat="45.49382" lon="6.7073">
        <ele>2289</ele>
        <time>2010-07-24T08:04:48Z</time>
      </trkpt>
      <trkpt lat="45.49378" lon="6.70731">
        <ele>2289.6</ele>
        <time>2010-07-24T08:04:51Z</time>
      </trkpt>
      <trkpt lat="45.49363" lon="6.70733">
        <ele>2292.8</ele>
        <time>2010-07-24T08:05:03Z</time>
      </trkpt>
      <trkpt lat="45.49345" lon="6.70739">
        <ele>2297.2</ele>
        <time>2010-07-24T08:05:17Z</time>
      </trkpt>
      <trkpt lat="45.49341" lon="6.70739">
        <ele>2298</ele>
        <time>2010-07-24T08:05:20Z</time>
      </trkpt>
      <trkpt lat="45.49334" lon="6.7074">
        <ele>2299.4</ele>
        <time>2010-07-24T08:05:25Z</time>
      </trkpt>
      <trkpt lat="45.49326" lon="6.70742">
        <ele>2301.2</ele>
        <time>2010-07-24T08:05:31Z</time>
      </trkpt>
      <trkpt lat="45.49307" lon="6.70744">
        <ele>2304.6</ele>
        <time>2010-07-24T08:05:44Z</time>
      </trkpt>
      <trkpt lat="45.49288" lon="6.70748">
        <ele>2308.4</ele>
        <time>2010-07-24T08:05:56Z</time>
      </trkpt>
      <trkpt lat="45.4927" lon="6.7075">
        <ele>2312.2</ele>
        <time>2010-07-24T08:06:08Z</time>
      </trkpt>
      <trkpt lat="45.49255" lon="6.70765">
        <ele>2317</ele>
        <time>2010-07-24T08:06:22Z</time>
      </trkpt>
      <trkpt lat="45.49252" lon="6.70767">
        <ele>2318</ele>
        <time>2010-07-24T08:06:26Z</time>
      </trkpt>
      <trkpt lat="45.4924" lon="6.7078">
        <ele>2320.4</ele>
        <time>2010-07-24T08:06:38Z</time>
      </trkpt>
      <trkpt lat="45.49227" lon="6.70798">
        <ele>2325.2</ele>
        <time>2010-07-24T08:06:56Z</time>
      </trkpt>
      <trkpt lat="45.49221" lon="6.70823">
        <ele>2331.2</ele>
        <time>2010-07-24T08:07:14Z</time>
      </trkpt>
      <trkpt lat="45.49222" lon="6.70824">
        <ele>2331.6</ele>
        <time>2010-07-24T08:07:15Z</time>
      </trkpt>
      <trkpt lat="45.49222" lon="6.70829">
        <ele>2332.6</ele>
        <time>2010-07-24T08:07:18Z</time>
      </trkpt>
      <trkpt lat="45.49225" lon="6.70841">
        <ele>2336.8</ele>
        <time>2010-07-24T08:07:29Z</time>
      </trkpt>
      <trkpt lat="45.49226" lon="6.70848">
        <ele>2339.8</ele>
        <time>2010-07-24T08:07:37Z</time>
      </trkpt>
      <trkpt lat="45.4923" lon="6.70864">
        <ele>2345</ele>
        <time>2010-07-24T08:07:52Z</time>
      </trkpt>
      <trkpt lat="45.49233" lon="6.70872">
        <ele>2347.8</ele>
        <time>2010-07-24T08:08:00Z</time>
      </trkpt>
      <trkpt lat="45.49233" lon="6.70875">
        <ele>2348.4</ele>
        <time>2010-07-24T08:08:02Z</time>
      </trkpt>
      <trkpt lat="45.49238" lon="6.7089">
        <ele>2352.8</ele>
        <time>2010-07-24T08:08:16Z</time>
      </trkpt>
      <trkpt lat="45.49239" lon="6.70893">
        <ele>2353.4</ele>
        <time>2010-07-24T08:08:18Z</time>
      </trkpt>
      <trkpt lat="45.4924" lon="6.70897">
        <ele>2354.2</ele>
        <time>2010-07-24T08:08:21Z</time>
      </trkpt>
      <trkpt lat="45.4924" lon="6.70899">
        <ele>2354.4</ele>
        <time>2010-07-24T08:08:22Z</time>
      </trkpt>
      <trkpt lat="45.49243" lon="6.70912">
        <ele>2356.6</ele>
        <time>2010-07-24T08:08:29Z</time>
      </trkpt>
      <trkpt lat="45.4924" lon="6.70922">
        <ele>2358.4</ele>
        <time>2010-07-24T08:08:35Z</time>
      </trkpt>
      <trkpt lat="45.49239" lon="6.70924">
        <ele>2358.6</ele>
        <time>2010-07-24T08:08:36Z</time>
      </trkpt>
      <trkpt lat="45.49225" lon="6.70935">
        <ele>2361.6</ele>
        <time>2010-07-24T08:08:45Z</time>
      </trkpt>
      <trkpt lat="45.49207" lon="6.70944">
        <ele>2364.2</ele>
        <time>2010-07-24T08:08:53Z</time>
      </trkpt>
      <trkpt lat="45.49191" lon="6.70963">
        <ele>2367</ele>
        <time>2010-07-24T08:09:02Z</time>
      </trkpt>
      <trkpt lat="45.49177" lon="6.70979">
        <ele>2368.6</ele>
        <time>2010-07-24T08:09:08Z</time>
      </trkpt>
      <trkpt lat="45.49159" lon="6.70988">
        <ele>2369.8</ele>
        <time>2010-07-24T08:09:14Z</time>
      </trkpt>
      <trkpt lat="45.4914" lon="6.70995">
        <ele>2370.8</ele>
        <time>2010-07-24T08:09:20Z</time>
      </trkpt>
      <trkpt lat="45.49122" lon="6.71007">
        <ele>2371.2</ele>
        <time>2010-07-24T08:09:26Z</time>
      </trkpt>
      <trkpt lat="45.49111" lon="6.71016">
        <ele>2371.4</ele>
        <time>2010-07-24T08:09:30Z</time>
      </trkpt>
      <trkpt lat="45.49106" lon="6.71024">
        <ele>2371.4</ele>
        <time>2010-07-24T08:09:32Z</time>
      </trkpt>
      <trkpt lat="45.49101" lon="6.71051">
        <ele>2372</ele>
        <time>2010-07-24T08:09:40Z</time>
      </trkpt>
      <trkpt lat="45.49101" lon="6.71077">
        <ele>2372.6</ele>
        <time>2010-07-24T08:09:47Z</time>
      </trkpt>
      <trkpt lat="45.49097" lon="6.71106">
        <ele>2373</ele>
        <time>2010-07-24T08:09:54Z</time>
      </trkpt>
      <trkpt lat="45.49088" lon="6.7113">
        <ele>2373.6</ele>
        <time>2010-07-24T08:10:00Z</time>
      </trkpt>
      <trkpt lat="45.49087" lon="6.71157">
        <ele>2374</ele>
        <time>2010-07-24T08:10:06Z</time>
      </trkpt>
      <trkpt lat="45.49084" lon="6.71183">
        <ele>2374.4</ele>
        <time>2010-07-24T08:10:12Z</time>
      </trkpt>
      <trkpt lat="45.49082" lon="6.71213">
        <ele>2374.6</ele>
        <time>2010-07-24T08:10:19Z</time>
      </trkpt>
      <trkpt lat="45.49085" lon="6.7124">
        <ele>2374.8</ele>
        <time>2010-07-24T08:10:26Z</time>
      </trkpt>
      <trkpt lat="45.49091" lon="6.71268">
        <ele>2375.4</ele>
        <time>2010-07-24T08:10:34Z</time>
      </trkpt>
      <trkpt lat="45.49094" lon="6.71295">
        <ele>2376.2</ele>
        <time>2010-07-24T08:10:42Z</time>
      </trkpt>
      <trkpt lat="45.49094" lon="6.71297">
        <ele>2376.4</ele>
        <time>2010-07-24T08:10:43Z</time>
      </trkpt>
      <trkpt lat="45.49094" lon="6.71301">
        <ele>2376.6</ele>
        <time>2010-07-24T08:10:45Z</time>
      </trkpt>
      <trkpt lat="45.49094" lon="6.7131">
        <ele>2377.4</ele>
        <time>2010-07-24T08:10:51Z</time>
      </trkpt>
      <trkpt lat="45.49095" lon="6.71321">
        <ele>2378.6</ele>
        <time>2010-07-24T08:10:58Z</time>
      </trkpt>
      <trkpt lat="45.49093" lon="6.71344">
        <ele>2382.2</ele>
        <time>2010-07-24T08:11:15Z</time>
      </trkpt>
      <trkpt lat="45.49093" lon="6.71347">
        <ele>2382.8</ele>
        <time>2010-07-24T08:11:17Z</time>
      </trkpt>
      <trkpt lat="45.49093" lon="6.71361">
        <ele>2384.6</ele>
        <time>2010-07-24T08:11:24Z</time>
      </trkpt>
      <trkpt lat="45.49092" lon="6.71369">
        <ele>2385.8</ele>
        <time>2010-07-24T08:11:28Z</time>
      </trkpt>
      <trkpt lat="45.49092" lon="6.71375">
        <ele>2386.2</ele>
        <time>2010-07-24T08:11:31Z</time>
      </trkpt>
      <trkpt lat="45.49091" lon="6.71387">
        <ele>2387.4</ele>
        <time>2010-07-24T08:11:37Z</time>
      </trkpt>
      <trkpt lat="45.49091" lon="6.714">
        <ele>2388.8</ele>
        <time>2010-07-24T08:11:44Z</time>
      </trkpt>
      <trkpt lat="45.49089" lon="6.71426">
        <ele>2391.4</ele>
        <time>2010-07-24T08:11:57Z</time>
      </trkpt>
      <trkpt lat="45.49091" lon="6.71441">
        <ele>2393.4</ele>
        <time>2010-07-24T08:12:05Z</time>
      </trkpt>
      <trkpt lat="45.49092" lon="6.71453">
        <ele>2394.6</ele>
        <time>2010-07-24T08:12:11Z</time>
      </trkpt>
      <trkpt lat="45.49093" lon="6.71457">
        <ele>2395</ele>
        <time>2010-07-24T08:12:13Z</time>
      </trkpt>
      <trkpt lat="45.491" lon="6.71478">
        <ele>2398</ele>
        <time>2010-07-24T08:12:25Z</time>
      </trkpt>
      <trkpt lat="45.49111" lon="6.71499">
        <ele>2401.4</ele>
        <time>2010-07-24T08:12:38Z</time>
      </trkpt>
      <trkpt lat="45.49122" lon="6.71521">
        <ele>2406.8</ele>
        <time>2010-07-24T08:12:52Z</time>
      </trkpt>
      <trkpt lat="45.49128" lon="6.71533">
        <ele>2410.2</ele>
        <time>2010-07-24T08:13:00Z</time>
      </trkpt>
      <trkpt lat="45.49123" lon="6.7153">
        <ele>2412</ele>
        <time>2010-07-24T08:13:05Z</time>
      </trkpt>
      <trkpt lat="45.49121" lon="6.7153">
        <ele>2412.4</ele>
        <time>2010-07-24T08:13:06Z</time>
      </trkpt>
      <trkpt lat="45.49103" lon="6.71523">
        <ele>2417.8</ele>
        <time>2010-07-24T08:13:22Z</time>
      </trkpt>
      <trkpt lat="45.49095" lon="6.71519">
        <ele>2420.6</ele>
        <time>2010-07-24T08:13:30Z</time>
      </trkpt>
      <trkpt lat="45.49086" lon="6.71517">
        <ele>2423.6</ele>
        <time>2010-07-24T08:13:39Z</time>
      </trkpt>
      <trkpt lat="45.49085" lon="6.71517">
        <ele>2424</ele>
        <time>2010-07-24T08:13:40Z</time>
      </trkpt>
      <trkpt lat="45.49084" lon="6.71517">
        <ele>2424.6</ele>
        <time>2010-07-24T08:13:42Z</time>
      </trkpt>
      <trkpt lat="45.49095" lon="6.71537">
        <ele>2426.8</ele>
        <time>2010-07-24T08:13:51Z</time>
      </trkpt>
      <trkpt lat="45.4911" lon="6.71557">
        <ele>2428.4</ele>
        <time>2010-07-24T08:13:59Z</time>
      </trkpt>
      <trkpt lat="45.49123" lon="6.71574">
        <ele>2429.8</ele>
        <time>2010-07-24T08:14:07Z</time>
      </trkpt>
      <trkpt lat="45.49134" lon="6.71595">
        <ele>2431.2</ele>
        <time>2010-07-24T08:14:15Z</time>
      </trkpt>
      <trkpt lat="45.49141" lon="6.71619">
        <ele>2432.6</ele>
        <time>2010-07-24T08:14:23Z</time>
      </trkpt>
      <trkpt lat="45.49153" lon="6.71641">
        <ele>2434.2</ele>
        <time>2010-07-24T08:14:31Z</time>
      </trkpt>
      <trkpt lat="45.49166" lon="6.71661">
        <ele>2436.2</ele>
        <time>2010-07-24T08:14:38Z</time>
      </trkpt>
      <trkpt lat="45.49178" lon="6.71683">
        <ele>2438.4</ele>
        <time>2010-07-24T08:14:45Z</time>
      </trkpt>
      <trkpt lat="45.49183" lon="6.71711">
        <ele>2440.4</ele>
        <time>2010-07-24T08:14:53Z</time>
      </trkpt>
      <trkpt lat="45.49185" lon="6.7174">
        <ele>2441.6</ele>
        <time>2010-07-24T08:15:00Z</time>
      </trkpt>
      <trkpt lat="45.49186" lon="6.71768">
        <ele>2443</ele>
        <time>2010-07-24T08:15:07Z</time>
      </trkpt>
      <trkpt lat="45.49184" lon="6.71794">
        <ele>2443.8</ele>
        <time>2010-07-24T08:15:13Z</time>
      </trkpt>
      <trkpt lat="45.49193" lon="6.71815">
        <ele>2444.4</ele>
        <time>2010-07-24T08:15:20Z</time>
      </trkpt>
      <trkpt lat="45.49199" lon="6.71835">
        <ele>2444.6</ele>
        <time>2010-07-24T08:15:26Z</time>
      </trkpt>
      <trkpt lat="45.49197" lon="6.71838">
        <ele>2444.6</ele>
        <time>2010-07-24T08:15:27Z</time>
      </trkpt>
      <trkpt lat="45.49181" lon="6.71851">
        <ele>2445</ele>
        <time>2010-07-24T08:15:34Z</time>
      </trkpt>
      <trkpt lat="45.49175" lon="6.71862">
        <ele>2445.6</ele>
        <time>2010-07-24T08:15:38Z</time>
      </trkpt>
      <trkpt lat="45.49179" lon="6.71872">
        <ele>2445.8</ele>
        <time>2010-07-24T08:15:42Z</time>
      </trkpt>
      <trkpt lat="45.49182" lon="6.71876">
        <ele>2446</ele>
        <time>2010-07-24T08:15:44Z</time>
      </trkpt>
      <trkpt lat="45.49191" lon="6.71892">
        <ele>2447</ele>
        <time>2010-07-24T08:15:50Z</time>
      </trkpt>
      <trkpt lat="45.49201" lon="6.71915">
        <ele>2448.2</ele>
        <time>2010-07-24T08:15:58Z</time>
      </trkpt>
      <trkpt lat="45.49212" lon="6.71936">
        <ele>2450.2</ele>
        <time>2010-07-24T08:16:07Z</time>
      </trkpt>
      <trkpt lat="45.49223" lon="6.71959">
        <ele>2451.8</ele>
        <time>2010-07-24T08:16:16Z</time>
      </trkpt>
      <trkpt lat="45.49231" lon="6.71984">
        <ele>2453.6</ele>
        <time>2010-07-24T08:16:25Z</time>
      </trkpt>
      <trkpt lat="45.4924" lon="6.72007">
        <ele>2455</ele>
        <time>2010-07-24T08:16:33Z</time>
      </trkpt>
      <trkpt lat="45.49248" lon="6.72033">
        <ele>2457</ele>
        <time>2010-07-24T08:16:42Z</time>
      </trkpt>
      <trkpt lat="45.49248" lon="6.72061">
        <ele>2459</ele>
        <time>2010-07-24T08:16:51Z</time>
      </trkpt>
      <trkpt lat="45.49246" lon="6.72088">
        <ele>2460.8</ele>
        <time>2010-07-24T08:16:59Z</time>
      </trkpt>
      <trkpt lat="45.49239" lon="6.72114">
        <ele>2464.2</ele>
        <time>2010-07-24T08:17:12Z</time>
      </trkpt>
      <trkpt lat="45.49236" lon="6.72132">
        <ele>2467</ele>
        <time>2010-07-24T08:17:23Z</time>
      </trkpt>
      <trkpt lat="45.49236" lon="6.7214">
        <ele>2468</ele>
        <time>2010-07-24T08:17:27Z</time>
      </trkpt>
      <trkpt lat="45.49236" lon="6.72142">
        <ele>2468.2</ele>
        <time>2010-07-24T08:17:28Z</time>
      </trkpt>
      <trkpt lat="45.49234" lon="6.72152">
        <ele>2469.8</ele>
        <time>2010-07-24T08:17:35Z</time>
      </trkpt>
      <trkpt lat="45.49232" lon="6.72167">
        <ele>2471</ele>
        <time>2010-07-24T08:17:42Z</time>
      </trkpt>
      <trkpt lat="45.49228" lon="6.72193">
        <ele>2472.8</ele>
        <time>2010-07-24T08:17:52Z</time>
      </trkpt>
      <trkpt lat="45.49224" lon="6.72218">
        <ele>2475.6</ele>
        <time>2010-07-24T08:18:05Z</time>
      </trkpt>
      <trkpt lat="45.49218" lon="6.72243">
        <ele>2478</ele>
        <time>2010-07-24T08:18:17Z</time>
      </trkpt>
      <trkpt lat="45.49218" lon="6.72245">
        <ele>2478.4</ele>
        <time>2010-07-24T08:18:18Z</time>
      </trkpt>
      <trkpt lat="45.49214" lon="6.72268">
        <ele>2480.6</ele>
        <time>2010-07-24T08:18:29Z</time>
      </trkpt>
      <trkpt lat="45.49213" lon="6.7227">
        <ele>2480.8</ele>
        <time>2010-07-24T08:18:30Z</time>
      </trkpt>
      <trkpt lat="45.49212" lon="6.72278">
        <ele>2481.6</ele>
        <time>2010-07-24T08:18:34Z</time>
      </trkpt>
      <trkpt lat="45.4921" lon="6.72294">
        <ele>2483</ele>
        <time>2010-07-24T08:18:41Z</time>
      </trkpt>
      <trkpt lat="45.4921" lon="6.72296">
        <ele>2483.2</ele>
        <time>2010-07-24T08:18:42Z</time>
      </trkpt>
      <trkpt lat="45.49197" lon="6.72309">
        <ele>2484.8</ele>
        <time>2010-07-24T08:18:49Z</time>
      </trkpt>
      <trkpt lat="45.49195" lon="6.72311">
        <ele>2485</ele>
        <time>2010-07-24T08:18:50Z</time>
      </trkpt>
      <trkpt lat="45.49181" lon="6.72331">
        <ele>2486.8</ele>
        <time>2010-07-24T08:18:57Z</time>
      </trkpt>
      <trkpt lat="45.4918" lon="6.72358">
        <ele>2489</ele>
        <time>2010-07-24T08:19:04Z</time>
      </trkpt>
      <trkpt lat="45.49184" lon="6.72384">
        <ele>2491</ele>
        <time>2010-07-24T08:19:11Z</time>
      </trkpt>
      <trkpt lat="45.49184" lon="6.7241">
        <ele>2493</ele>
        <time>2010-07-24T08:19:18Z</time>
      </trkpt>
      <trkpt lat="45.49177" lon="6.72436">
        <ele>2494.8</ele>
        <time>2010-07-24T08:19:25Z</time>
      </trkpt>
      <trkpt lat="45.49166" lon="6.72458">
        <ele>2496.8</ele>
        <time>2010-07-24T08:19:32Z</time>
      </trkpt>
      <trkpt lat="45.49153" lon="6.72476">
        <ele>2498.6</ele>
        <time>2010-07-24T08:19:39Z</time>
      </trkpt>
      <trkpt lat="45.49142" lon="6.725">
        <ele>2500.8</ele>
        <time>2010-07-24T08:19:46Z</time>
      </trkpt>
      <trkpt lat="45.49134" lon="6.72524">
        <ele>2502.6</ele>
        <time>2010-07-24T08:19:53Z</time>
      </trkpt>
      <trkpt lat="45.49133" lon="6.72551">
        <ele>2504.2</ele>
        <time>2010-07-24T08:20:00Z</time>
      </trkpt>
      <trkpt lat="45.49136" lon="6.72579">
        <ele>2506</ele>
        <time>2010-07-24T08:20:08Z</time>
      </trkpt>
      <trkpt lat="45.49143" lon="6.72602">
        <ele>2507.4</ele>
        <time>2010-07-24T08:20:15Z</time>
      </trkpt>
      <trkpt lat="45.49153" lon="6.72625">
        <ele>2509.8</ele>
        <time>2010-07-24T08:20:27Z</time>
      </trkpt>
      <trkpt lat="45.49161" lon="6.72648">
        <ele>2513.4</ele>
        <time>2010-07-24T08:20:42Z</time>
      </trkpt>
      <trkpt lat="45.49167" lon="6.72673">
        <ele>2518.4</ele>
        <time>2010-07-24T08:20:57Z</time>
      </trkpt>
      <trkpt lat="45.49168" lon="6.72692">
        <ele>2520.8</ele>
        <time>2010-07-24T08:21:06Z</time>
      </trkpt>
      <trkpt lat="45.49166" lon="6.72699">
        <ele>2521.4</ele>
        <time>2010-07-24T08:21:10Z</time>
      </trkpt>
      <trkpt lat="45.49165" lon="6.72702">
        <ele>2521.8</ele>
        <time>2010-07-24T08:21:12Z</time>
      </trkpt>
      <trkpt lat="45.49164" lon="6.72712">
        <ele>2522.6</ele>
        <time>2010-07-24T08:21:18Z</time>
      </trkpt>
      <trkpt lat="45.49165" lon="6.72724">
        <ele>2523.8</ele>
        <time>2010-07-24T08:21:26Z</time>
      </trkpt>
      <trkpt lat="45.49166" lon="6.72726">
        <ele>2524.2</ele>
        <time>2010-07-24T08:21:28Z</time>
      </trkpt>
      <trkpt lat="45.49169" lon="6.72734">
        <ele>2525.2</ele>
        <time>2010-07-24T08:21:35Z</time>
      </trkpt>
      <trkpt lat="45.49172" lon="6.72748">
        <ele>2526.8</ele>
        <time>2010-07-24T08:21:43Z</time>
      </trkpt>
      <trkpt lat="45.49177" lon="6.72774">
        <ele>2530.2</ele>
        <time>2010-07-24T08:21:57Z</time>
      </trkpt>
      <trkpt lat="45.49175" lon="6.728">
        <ele>2532.6</ele>
        <time>2010-07-24T08:22:10Z</time>
      </trkpt>
      <trkpt lat="45.49175" lon="6.72826">
        <ele>2536.8</ele>
        <time>2010-07-24T08:22:27Z</time>
      </trkpt>
      <trkpt lat="45.49173" lon="6.7284">
        <ele>2538.6</ele>
        <time>2010-07-24T08:22:34Z</time>
      </trkpt>
      <trkpt lat="45.49171" lon="6.72852">
        <ele>2540.6</ele>
        <time>2010-07-24T08:22:41Z</time>
      </trkpt>
      <trkpt lat="45.4917" lon="6.72853">
        <ele>2540.8</ele>
        <time>2010-07-24T08:22:42Z</time>
      </trkpt>
      <trkpt lat="45.49169" lon="6.7286">
        <ele>2541.8</ele>
        <time>2010-07-24T08:22:46Z</time>
      </trkpt>
      <trkpt lat="45.49166" lon="6.72869">
        <ele>2543.6</ele>
        <time>2010-07-24T08:22:52Z</time>
      </trkpt>
      <trkpt lat="45.49162" lon="6.72876">
        <ele>2545</ele>
        <time>2010-07-24T08:22:57Z</time>
      </trkpt>
      <trkpt lat="45.49147" lon="6.72892">
        <ele>2548.4</ele>
        <time>2010-07-24T08:23:07Z</time>
      </trkpt>
      <trkpt lat="45.4914" lon="6.72916">
        <ele>2551.6</ele>
        <time>2010-07-24T08:23:16Z</time>
      </trkpt>
      <trkpt lat="45.49136" lon="6.72941">
        <ele>2554.4</ele>
        <time>2010-07-24T08:23:25Z</time>
      </trkpt>
      <trkpt lat="45.4913" lon="6.72966">
        <ele>2557.4</ele>
        <time>2010-07-24T08:23:34Z</time>
      </trkpt>
      <trkpt lat="45.4913" lon="6.72974">
        <ele>2558.6</ele>
        <time>2010-07-24T08:23:37Z</time>
      </trkpt>
      <trkpt lat="45.49132" lon="6.72985">
        <ele>2560</ele>
        <time>2010-07-24T08:23:41Z</time>
      </trkpt>
      <trkpt lat="45.49134" lon="6.72994">
        <ele>2561</ele>
        <time>2010-07-24T08:23:44Z</time>
      </trkpt>
      <trkpt lat="45.49136" lon="6.73002">
        <ele>2562</ele>
        <time>2010-07-24T08:23:47Z</time>
      </trkpt>
      <trkpt lat="45.49144" lon="6.73016">
        <ele>2563.6</ele>
        <time>2010-07-24T08:23:53Z</time>
      </trkpt>
      <trkpt lat="45.49155" lon="6.73037">
        <ele>2566</ele>
        <time>2010-07-24T08:24:02Z</time>
      </trkpt>
      <trkpt lat="45.4916" lon="6.73063">
        <ele>2568.4</ele>
        <time>2010-07-24T08:24:11Z</time>
      </trkpt>
      <trkpt lat="45.49158" lon="6.73078">
        <ele>2569.6</ele>
        <time>2010-07-24T08:24:16Z</time>
      </trkpt>
      <trkpt lat="45.49157" lon="6.7309">
        <ele>2570.8</ele>
        <time>2010-07-24T08:24:20Z</time>
      </trkpt>
      <trkpt lat="45.49164" lon="6.73115">
        <ele>2574</ele>
        <time>2010-07-24T08:24:31Z</time>
      </trkpt>
      <trkpt lat="45.49179" lon="6.7313">
        <ele>2577.2</ele>
        <time>2010-07-24T08:24:40Z</time>
      </trkpt>
      <trkpt lat="45.49195" lon="6.73142">
        <ele>2580.6</ele>
        <time>2010-07-24T08:24:50Z</time>
      </trkpt>
      <trkpt lat="45.49213" lon="6.73151">
        <ele>2583.8</ele>
        <time>2010-07-24T08:25:00Z</time>
      </trkpt>
      <trkpt lat="45.49231" lon="6.73158">
        <ele>2586.8</ele>
        <time>2010-07-24T08:25:10Z</time>
      </trkpt>
      <trkpt lat="45.4925" lon="6.73156">
        <ele>2589.4</ele>
        <time>2010-07-24T08:25:20Z</time>
      </trkpt>
      <trkpt lat="45.49268" lon="6.73157">
        <ele>2592</ele>
        <time>2010-07-24T08:25:29Z</time>
      </trkpt>
      <trkpt lat="45.49286" lon="6.73159">
        <ele>2594.6</ele>
        <time>2010-07-24T08:25:38Z</time>
      </trkpt>
      <trkpt lat="45.49306" lon="6.73156">
        <ele>2597</ele>
        <time>2010-07-24T08:25:47Z</time>
      </trkpt>
      <trkpt lat="45.49325" lon="6.73152">
        <ele>2599.6</ele>
        <time>2010-07-24T08:25:56Z</time>
      </trkpt>
      <trkpt lat="45.49343" lon="6.73151">
        <ele>2602.2</ele>
        <time>2010-07-24T08:26:05Z</time>
      </trkpt>
      <trkpt lat="45.49361" lon="6.73154">
        <ele>2604.4</ele>
        <time>2010-07-24T08:26:14Z</time>
      </trkpt>
      <trkpt lat="45.4938" lon="6.73155">
        <ele>2607</ele>
        <time>2010-07-24T08:26:23Z</time>
      </trkpt>
      <trkpt lat="45.49398" lon="6.73152">
        <ele>2609.2</ele>
        <time>2010-07-24T08:26:32Z</time>
      </trkpt>
      <trkpt lat="45.49417" lon="6.73158">
        <ele>2611.4</ele>
        <time>2010-07-24T08:26:42Z</time>
      </trkpt>
      <trkpt lat="45.49433" lon="6.7317">
        <ele>2613.4</ele>
        <time>2010-07-24T08:26:51Z</time>
      </trkpt>
      <trkpt lat="45.49449" lon="6.73182">
        <ele>2615.6</ele>
        <time>2010-07-24T08:27:00Z</time>
      </trkpt>
      <trkpt lat="45.49467" lon="6.73193">
        <ele>2617.8</ele>
        <time>2010-07-24T08:27:10Z</time>
      </trkpt>
      <trkpt lat="45.49485" lon="6.73199">
        <ele>2619.8</ele>
        <time>2010-07-24T08:27:19Z</time>
      </trkpt>
      <trkpt lat="45.49504" lon="6.73202">
        <ele>2621.8</ele>
        <time>2010-07-24T08:27:29Z</time>
      </trkpt>
      <trkpt lat="45.49523" lon="6.73206">
        <ele>2624.2</ele>
        <time>2010-07-24T08:27:40Z</time>
      </trkpt>
      <trkpt lat="45.49542" lon="6.7321">
        <ele>2626.8</ele>
        <time>2010-07-24T08:27:50Z</time>
      </trkpt>
      <trkpt lat="45.49551" lon="6.73214">
        <ele>2628</ele>
        <time>2010-07-24T08:27:55Z</time>
      </trkpt>
      <trkpt lat="45.4956" lon="6.73215">
        <ele>2629.4</ele>
        <time>2010-07-24T08:28:00Z</time>
      </trkpt>
      <trkpt lat="45.49578" lon="6.73222">
        <ele>2632</ele>
        <time>2010-07-24T08:28:10Z</time>
      </trkpt>
      <trkpt lat="45.49587" lon="6.73227">
        <ele>2632.8</ele>
        <time>2010-07-24T08:28:14Z</time>
      </trkpt>
      <trkpt lat="45.49596" lon="6.73231">
        <ele>2634</ele>
        <time>2010-07-24T08:28:19Z</time>
      </trkpt>
      <trkpt lat="45.49602" lon="6.73235">
        <ele>2634.6</ele>
        <time>2010-07-24T08:28:22Z</time>
      </trkpt>
      <trkpt lat="45.49613" lon="6.73244">
        <ele>2636.2</ele>
        <time>2010-07-24T08:28:30Z</time>
      </trkpt>
      <trkpt lat="45.49629" lon="6.73259">
        <ele>2639</ele>
        <time>2010-07-24T08:28:45Z</time>
      </trkpt>
      <trkpt lat="45.49632" lon="6.73264">
        <ele>2639.8</ele>
        <time>2010-07-24T08:28:49Z</time>
      </trkpt>
      <trkpt lat="45.49631" lon="6.73271">
        <ele>2640.6</ele>
        <time>2010-07-24T08:28:53Z</time>
      </trkpt>
      <trkpt lat="45.4963" lon="6.73273">
        <ele>2640.8</ele>
        <time>2010-07-24T08:28:54Z</time>
      </trkpt>
      <trkpt lat="45.49623" lon="6.73275">
        <ele>2642</ele>
        <time>2010-07-24T08:29:00Z</time>
      </trkpt>
      <trkpt lat="45.49619" lon="6.73275">
        <ele>2642.6</ele>
        <time>2010-07-24T08:29:02Z</time>
      </trkpt>
      <trkpt lat="45.49604" lon="6.73273">
        <ele>2645</ele>
        <time>2010-07-24T08:29:11Z</time>
      </trkpt>
      <trkpt lat="45.49585" lon="6.73269">
        <ele>2648</ele>
        <time>2010-07-24T08:29:21Z</time>
      </trkpt>
      <trkpt lat="45.49572" lon="6.73268">
        <ele>2649.8</ele>
        <time>2010-07-24T08:29:27Z</time>
      </trkpt>
      <trkpt lat="45.49566" lon="6.73269">
        <ele>2650.8</ele>
        <time>2010-07-24T08:29:30Z</time>
      </trkpt>
      <trkpt lat="45.49547" lon="6.73271">
        <ele>2654.2</ele>
        <time>2010-07-24T08:29:40Z</time>
      </trkpt>
      <trkpt lat="45.49533" lon="6.73273">
        <ele>2657</ele>
        <time>2010-07-24T08:29:47Z</time>
      </trkpt>
      <trkpt lat="45.49527" lon="6.73274">
        <ele>2658.2</ele>
        <time>2010-07-24T08:29:50Z</time>
      </trkpt>
      <trkpt lat="45.49513" lon="6.73277">
        <ele>2660.4</ele>
        <time>2010-07-24T08:29:57Z</time>
      </trkpt>
      <trkpt lat="45.49509" lon="6.73279">
        <ele>2661</ele>
        <time>2010-07-24T08:29:59Z</time>
      </trkpt>
      <trkpt lat="45.49491" lon="6.73286">
        <ele>2663.8</ele>
        <time>2010-07-24T08:30:09Z</time>
      </trkpt>
      <trkpt lat="45.49487" lon="6.73288">
        <ele>2664.2</ele>
        <time>2010-07-24T08:30:11Z</time>
      </trkpt>
      <trkpt lat="45.49473" lon="6.73294">
        <ele>2665.8</ele>
        <time>2010-07-24T08:30:20Z</time>
      </trkpt>
      <trkpt lat="45.49456" lon="6.73305">
        <ele>2667.8</ele>
        <time>2010-07-24T08:30:32Z</time>
      </trkpt>
      <trkpt lat="45.49436" lon="6.7331">
        <ele>2670</ele>
        <time>2010-07-24T08:30:44Z</time>
      </trkpt>
      <trkpt lat="45.49418" lon="6.73314">
        <ele>2671.6</ele>
        <time>2010-07-24T08:30:53Z</time>
      </trkpt>
      <trkpt lat="45.494" lon="6.7332">
        <ele>2672.8</ele>
        <time>2010-07-24T08:31:02Z</time>
      </trkpt>
      <trkpt lat="45.49381" lon="6.73326">
        <ele>2674.4</ele>
        <time>2010-07-24T08:31:12Z</time>
      </trkpt>
      <trkpt lat="45.49363" lon="6.73333">
        <ele>2676.2</ele>
        <time>2010-07-24T08:31:21Z</time>
      </trkpt>
      <trkpt lat="45.49344" lon="6.73338">
        <ele>2678.8</ele>
        <time>2010-07-24T08:31:31Z</time>
      </trkpt>
      <trkpt lat="45.49327" lon="6.73347">
        <ele>2682.2</ele>
        <time>2010-07-24T08:31:42Z</time>
      </trkpt>
      <trkpt lat="45.4931" lon="6.73357">
        <ele>2684.6</ele>
        <time>2010-07-24T08:31:52Z</time>
      </trkpt>
      <trkpt lat="45.49301" lon="6.7336">
        <ele>2686</ele>
        <time>2010-07-24T08:31:57Z</time>
      </trkpt>
      <trkpt lat="45.49291" lon="6.73363">
        <ele>2687.2</ele>
        <time>2010-07-24T08:32:02Z</time>
      </trkpt>
      <trkpt lat="45.4929" lon="6.73364">
        <ele>2687.4</ele>
        <time>2010-07-24T08:32:03Z</time>
      </trkpt>
      <trkpt lat="45.49286" lon="6.73367">
        <ele>2688</ele>
        <time>2010-07-24T08:32:05Z</time>
      </trkpt>
      <trkpt lat="45.49275" lon="6.73376">
        <ele>2689.8</ele>
        <time>2010-07-24T08:32:12Z</time>
      </trkpt>
      <trkpt lat="45.49268" lon="6.73383">
        <ele>2691</ele>
        <time>2010-07-24T08:32:17Z</time>
      </trkpt>
      <trkpt lat="45.49259" lon="6.73391">
        <ele>2693</ele>
        <time>2010-07-24T08:32:23Z</time>
      </trkpt>
      <trkpt lat="45.49257" lon="6.73392">
        <ele>2693.4</ele>
        <time>2010-07-24T08:32:24Z</time>
      </trkpt>
      <trkpt lat="45.49249" lon="6.73397">
        <ele>2695.2</ele>
        <time>2010-07-24T08:32:29Z</time>
      </trkpt>
      <trkpt lat="45.49243" lon="6.73405">
        <ele>2696.6</ele>
        <time>2010-07-24T08:32:34Z</time>
      </trkpt>
      <trkpt lat="45.49233" lon="6.73422">
        <ele>2700.2</ele>
        <time>2010-07-24T08:32:44Z</time>
      </trkpt>
      <trkpt lat="45.49232" lon="6.73427">
        <ele>2700.8</ele>
        <time>2010-07-24T08:32:46Z</time>
      </trkpt>
      <trkpt lat="45.49232" lon="6.73432">
        <ele>2701.4</ele>
        <time>2010-07-24T08:32:48Z</time>
      </trkpt>
      <trkpt lat="45.49232" lon="6.73437">
        <ele>2702</ele>
        <time>2010-07-24T08:32:50Z</time>
      </trkpt>
      <trkpt lat="45.49238" lon="6.73451">
        <ele>2704.2</ele>
        <time>2010-07-24T08:32:57Z</time>
      </trkpt>
      <trkpt lat="45.49249" lon="6.73474">
        <ele>2706.2</ele>
        <time>2010-07-24T08:33:06Z</time>
      </trkpt>
      <trkpt lat="45.4926" lon="6.73497">
        <ele>2707</ele>
        <time>2010-07-24T08:33:12Z</time>
      </trkpt>
      <trkpt lat="45.4926" lon="6.73521">
        <ele>2706.8</ele>
        <time>2010-07-24T08:33:18Z</time>
      </trkpt>
      <trkpt lat="45.49244" lon="6.73511">
        <ele>2706.8</ele>
        <time>2010-07-24T08:33:23Z</time>
      </trkpt>
      <trkpt lat="45.4924" lon="6.73501">
        <ele>2706.6</ele>
        <time>2010-07-24T08:33:25Z</time>
      </trkpt>
      <trkpt lat="45.49233" lon="6.73488">
        <ele>2706.6</ele>
        <time>2010-07-24T08:33:28Z</time>
      </trkpt>
      <trkpt lat="45.49221" lon="6.73466">
        <ele>2706.4</ele>
        <time>2010-07-24T08:33:33Z</time>
      </trkpt>
      <trkpt lat="45.4921" lon="6.73444">
        <ele>2706</ele>
        <time>2010-07-24T08:33:38Z</time>
      </trkpt>
      <trkpt lat="45.49197" lon="6.73421">
        <ele>2705.8</ele>
        <time>2010-07-24T08:33:43Z</time>
      </trkpt>
      <trkpt lat="45.49182" lon="6.73402">
        <ele>2705.4</ele>
        <time>2010-07-24T08:33:48Z</time>
      </trkpt>
      <trkpt lat="45.49166" lon="6.73386">
        <ele>2705</ele>
        <time>2010-07-24T08:33:53Z</time>
      </trkpt>
      <trkpt lat="45.4915" lon="6.73373">
        <ele>2704.6</ele>
        <time>2010-07-24T08:33:58Z</time>
      </trkpt>
      <trkpt lat="45.49133" lon="6.7336">
        <ele>2704</ele>
        <time>2010-07-24T08:34:03Z</time>
      </trkpt>
      <trkpt lat="45.49114" lon="6.73349">
        <ele>2703.2</ele>
        <time>2010-07-24T08:34:08Z</time>
      </trkpt>
      <trkpt lat="45.49096" lon="6.73338">
        <ele>2702.2</ele>
        <time>2010-07-24T08:34:13Z</time>
      </trkpt>
      <trkpt lat="45.49083" lon="6.73326">
        <ele>2701.6</ele>
        <time>2010-07-24T08:34:17Z</time>
      </trkpt>
      <trkpt lat="45.49079" lon="6.73322">
        <ele>2701.4</ele>
        <time>2010-07-24T08:34:18Z</time>
      </trkpt>
      <trkpt lat="45.49061" lon="6.73308">
        <ele>2700.4</ele>
        <time>2010-07-24T08:34:23Z</time>
      </trkpt>
      <trkpt lat="45.49045" lon="6.73297">
        <ele>2699.4</ele>
        <time>2010-07-24T08:34:28Z</time>
      </trkpt>
      <trkpt lat="45.49028" lon="6.73287">
        <ele>2698.4</ele>
        <time>2010-07-24T08:34:33Z</time>
      </trkpt>
      <trkpt lat="45.4902" lon="6.73283">
        <ele>2698</ele>
        <time>2010-07-24T08:34:35Z</time>
      </trkpt>
      <trkpt lat="45.49009" lon="6.73278">
        <ele>2697.4</ele>
        <time>2010-07-24T08:34:38Z</time>
      </trkpt>
      <trkpt lat="45.48991" lon="6.73271">
        <ele>2696.2</ele>
        <time>2010-07-24T08:34:43Z</time>
      </trkpt>
      <trkpt lat="45.48974" lon="6.73264">
        <ele>2694.8</ele>
        <time>2010-07-24T08:34:48Z</time>
      </trkpt>
      <trkpt lat="45.4897" lon="6.73267">
        <ele>2694.2</ele>
        <time>2010-07-24T08:34:50Z</time>
      </trkpt>
      <trkpt lat="45.48979" lon="6.7328">
        <ele>2692.8</ele>
        <time>2010-07-24T08:34:54Z</time>
      </trkpt>
      <trkpt lat="45.48983" lon="6.73282">
        <ele>2692.4</ele>
        <time>2010-07-24T08:34:55Z</time>
      </trkpt>
      <trkpt lat="45.48997" lon="6.73292">
        <ele>2691</ele>
        <time>2010-07-24T08:34:59Z</time>
      </trkpt>
      <trkpt lat="45.49014" lon="6.73305">
        <ele>2689.2</ele>
        <time>2010-07-24T08:35:04Z</time>
      </trkpt>
      <trkpt lat="45.49024" lon="6.73317">
        <ele>2687.6</ele>
        <time>2010-07-24T08:35:08Z</time>
      </trkpt>
      <trkpt lat="45.49021" lon="6.73327">
        <ele>2687</ele>
        <time>2010-07-24T08:35:10Z</time>
      </trkpt>
      <trkpt lat="45.49006" lon="6.73324">
        <ele>2685.4</ele>
        <time>2010-07-24T08:35:14Z</time>
      </trkpt>
      <trkpt lat="45.49003" lon="6.73323">
        <ele>2685.2</ele>
        <time>2010-07-24T08:35:15Z</time>
      </trkpt>
      <trkpt lat="45.48982" lon="6.73316">
        <ele>2682.8</ele>
        <time>2010-07-24T08:35:21Z</time>
      </trkpt>
      <trkpt lat="45.48975" lon="6.73319">
        <ele>2682</ele>
        <time>2010-07-24T08:35:23Z</time>
      </trkpt>
      <trkpt lat="45.48974" lon="6.73332">
        <ele>2680.8</ele>
        <time>2010-07-24T08:35:26Z</time>
      </trkpt>
      <trkpt lat="45.48991" lon="6.73338">
        <ele>2679</ele>
        <time>2010-07-24T08:35:30Z</time>
      </trkpt>
      <trkpt lat="45.49009" lon="6.73351">
        <ele>2676.6</ele>
        <time>2010-07-24T08:35:35Z</time>
      </trkpt>
      <trkpt lat="45.49026" lon="6.73368">
        <ele>2674</ele>
        <time>2010-07-24T08:35:40Z</time>
      </trkpt>
      <trkpt lat="45.49029" lon="6.73371">
        <ele>2673.6</ele>
        <time>2010-07-24T08:35:41Z</time>
      </trkpt>
      <trkpt lat="45.4904" lon="6.73386">
        <ele>2671.6</ele>
        <time>2010-07-24T08:35:45Z</time>
      </trkpt>
      <trkpt lat="45.49047" lon="6.73391">
        <ele>2670.8</ele>
        <time>2010-07-24T08:35:47Z</time>
      </trkpt>
      <trkpt lat="45.49058" lon="6.73397">
        <ele>2669.4</ele>
        <time>2010-07-24T08:35:50Z</time>
      </trkpt>
      <trkpt lat="45.49077" lon="6.73412">
        <ele>2667</ele>
        <time>2010-07-24T08:35:55Z</time>
      </trkpt>
      <trkpt lat="45.49084" lon="6.73418">
        <ele>2666.2</ele>
        <time>2010-07-24T08:35:57Z</time>
      </trkpt>
      <trkpt lat="45.49093" lon="6.73429">
        <ele>2665</ele>
        <time>2010-07-24T08:36:00Z</time>
      </trkpt>
      <trkpt lat="45.49099" lon="6.73435">
        <ele>2664</ele>
        <time>2010-07-24T08:36:02Z</time>
      </trkpt>
      <trkpt lat="45.49107" lon="6.73447">
        <ele>2662.8</ele>
        <time>2010-07-24T08:36:05Z</time>
      </trkpt>
      <trkpt lat="45.49118" lon="6.73467">
        <ele>2660.8</ele>
        <time>2010-07-24T08:36:10Z</time>
      </trkpt>
      <trkpt lat="45.49126" lon="6.73493">
        <ele>2658.4</ele>
        <time>2010-07-24T08:36:16Z</time>
      </trkpt>
      <trkpt lat="45.49129" lon="6.73522">
        <ele>2656.2</ele>
        <time>2010-07-24T08:36:22Z</time>
      </trkpt>
      <trkpt lat="45.49133" lon="6.73551">
        <ele>2654.2</ele>
        <time>2010-07-24T08:36:28Z</time>
      </trkpt>
      <trkpt lat="45.49138" lon="6.7358">
        <ele>2652.4</ele>
        <time>2010-07-24T08:36:34Z</time>
      </trkpt>
      <trkpt lat="45.49138" lon="6.73608">
        <ele>2650.8</ele>
        <time>2010-07-24T08:36:39Z</time>
      </trkpt>
      <trkpt lat="45.49136" lon="6.73634">
        <ele>2649.4</ele>
        <time>2010-07-24T08:36:44Z</time>
      </trkpt>
      <trkpt lat="45.49131" lon="6.73662">
        <ele>2648</ele>
        <time>2010-07-24T08:36:49Z</time>
      </trkpt>
      <trkpt lat="45.49126" lon="6.73689">
        <ele>2646.6</ele>
        <time>2010-07-24T08:36:54Z</time>
      </trkpt>
      <trkpt lat="45.49119" lon="6.73714">
        <ele>2645</ele>
        <time>2010-07-24T08:36:59Z</time>
      </trkpt>
      <trkpt lat="45.49107" lon="6.73736">
        <ele>2643.6</ele>
        <time>2010-07-24T08:37:04Z</time>
      </trkpt>
      <trkpt lat="45.4909" lon="6.73752">
        <ele>2642</ele>
        <time>2010-07-24T08:37:09Z</time>
      </trkpt>
      <trkpt lat="45.49087" lon="6.73756">
        <ele>2641.6</ele>
        <time>2010-07-24T08:37:10Z</time>
      </trkpt>
      <trkpt lat="45.49074" lon="6.73768">
        <ele>2640.2</ele>
        <time>2010-07-24T08:37:14Z</time>
      </trkpt>
      <trkpt lat="45.49059" lon="6.73785">
        <ele>2638.6</ele>
        <time>2010-07-24T08:37:19Z</time>
      </trkpt>
      <trkpt lat="45.49041" lon="6.73799">
        <ele>2637.2</ele>
        <time>2010-07-24T08:37:24Z</time>
      </trkpt>
      <trkpt lat="45.49023" lon="6.73811">
        <ele>2635.4</ele>
        <time>2010-07-24T08:37:30Z</time>
      </trkpt>
      <trkpt lat="45.49006" lon="6.73823">
        <ele>2633.8</ele>
        <time>2010-07-24T08:37:35Z</time>
      </trkpt>
      <trkpt lat="45.48988" lon="6.73826">
        <ele>2632.4</ele>
        <time>2010-07-24T08:37:40Z</time>
      </trkpt>
      <trkpt lat="45.48968" lon="6.73821">
        <ele>2631</ele>
        <time>2010-07-24T08:37:45Z</time>
      </trkpt>
      <trkpt lat="45.48948" lon="6.73817">
        <ele>2629.8</ele>
        <time>2010-07-24T08:37:50Z</time>
      </trkpt>
      <trkpt lat="45.48933" lon="6.73827">
        <ele>2628.8</ele>
        <time>2010-07-24T08:37:54Z</time>
      </trkpt>
      <trkpt lat="45.4893" lon="6.73831">
        <ele>2628.6</ele>
        <time>2010-07-24T08:37:55Z</time>
      </trkpt>
      <trkpt lat="45.48924" lon="6.7384">
        <ele>2628</ele>
        <time>2010-07-24T08:37:57Z</time>
      </trkpt>
      <trkpt lat="45.4892" lon="6.73855">
        <ele>2627.2</ele>
        <time>2010-07-24T08:38:00Z</time>
      </trkpt>
      <trkpt lat="45.4892" lon="6.7386">
        <ele>2626.8</ele>
        <time>2010-07-24T08:38:01Z</time>
      </trkpt>
      <trkpt lat="45.4892" lon="6.73882">
        <ele>2625.6</ele>
        <time>2010-07-24T08:38:05Z</time>
      </trkpt>
      <trkpt lat="45.48914" lon="6.7391">
        <ele>2623.8</ele>
        <time>2010-07-24T08:38:10Z</time>
      </trkpt>
      <trkpt lat="45.48911" lon="6.73927">
        <ele>2622.8</ele>
        <time>2010-07-24T08:38:13Z</time>
      </trkpt>
      <trkpt lat="45.48909" lon="6.73936">
        <ele>2622</ele>
        <time>2010-07-24T08:38:15Z</time>
      </trkpt>
      <trkpt lat="45.48905" lon="6.73963">
        <ele>2620</ele>
        <time>2010-07-24T08:38:20Z</time>
      </trkpt>
      <trkpt lat="45.489" lon="6.7399">
        <ele>2618</ele>
        <time>2010-07-24T08:38:25Z</time>
      </trkpt>
      <trkpt lat="45.48899" lon="6.74018">
        <ele>2616</ele>
        <time>2010-07-24T08:38:30Z</time>
      </trkpt>
      <trkpt lat="45.48893" lon="6.74042">
        <ele>2614</ele>
        <time>2010-07-24T08:38:35Z</time>
      </trkpt>
      <trkpt lat="45.4888" lon="6.74063">
        <ele>2611.8</ele>
        <time>2010-07-24T08:38:40Z</time>
      </trkpt>
      <trkpt lat="45.48865" lon="6.74081">
        <ele>2609.4</ele>
        <time>2010-07-24T08:38:45Z</time>
      </trkpt>
      <trkpt lat="45.48848" lon="6.74098">
        <ele>2607.2</ele>
        <time>2010-07-24T08:38:50Z</time>
      </trkpt>
      <trkpt lat="45.48832" lon="6.74109">
        <ele>2605.4</ele>
        <time>2010-07-24T08:38:54Z</time>
      </trkpt>
      <trkpt lat="45.48827" lon="6.74111">
        <ele>2604.8</ele>
        <time>2010-07-24T08:38:55Z</time>
      </trkpt>
      <trkpt lat="45.48819" lon="6.74115">
        <ele>2604</ele>
        <time>2010-07-24T08:38:57Z</time>
      </trkpt>
      <trkpt lat="45.4881" lon="6.74117">
        <ele>2603.2</ele>
        <time>2010-07-24T08:38:59Z</time>
      </trkpt>
      <trkpt lat="45.48802" lon="6.74121">
        <ele>2602.4</ele>
        <time>2010-07-24T08:39:01Z</time>
      </trkpt>
      <trkpt lat="45.4879" lon="6.74128">
        <ele>2601</ele>
        <time>2010-07-24T08:39:04Z</time>
      </trkpt>
      <trkpt lat="45.4878" lon="6.74135">
        <ele>2599.8</ele>
        <time>2010-07-24T08:39:07Z</time>
      </trkpt>
      <trkpt lat="45.48774" lon="6.74143">
        <ele>2599</ele>
        <time>2010-07-24T08:39:09Z</time>
      </trkpt>
      <trkpt lat="45.48759" lon="6.74161">
        <ele>2597.2</ele>
        <time>2010-07-24T08:39:14Z</time>
      </trkpt>
      <trkpt lat="45.48742" lon="6.74175">
        <ele>2595.2</ele>
        <time>2010-07-24T08:39:19Z</time>
      </trkpt>
      <trkpt lat="45.48727" lon="6.74184">
        <ele>2593.8</ele>
        <time>2010-07-24T08:39:23Z</time>
      </trkpt>
      <trkpt lat="45.48724" lon="6.74187">
        <ele>2593.4</ele>
        <time>2010-07-24T08:39:24Z</time>
      </trkpt>
      <trkpt lat="45.4871" lon="6.74199">
        <ele>2592</ele>
        <time>2010-07-24T08:39:28Z</time>
      </trkpt>
      <trkpt lat="45.48707" lon="6.74202">
        <ele>2591.6</ele>
        <time>2010-07-24T08:39:29Z</time>
      </trkpt>
      <trkpt lat="45.48692" lon="6.74211">
        <ele>2590.2</ele>
        <time>2010-07-24T08:39:33Z</time>
      </trkpt>
      <trkpt lat="45.48688" lon="6.74212">
        <ele>2589.8</ele>
        <time>2010-07-24T08:39:34Z</time>
      </trkpt>
      <trkpt lat="45.48669" lon="6.74224">
        <ele>2587.8</ele>
        <time>2010-07-24T08:39:40Z</time>
      </trkpt>
      <trkpt lat="45.48654" lon="6.74242">
        <ele>2586.2</ele>
        <time>2010-07-24T08:39:45Z</time>
      </trkpt>
      <trkpt lat="45.48636" lon="6.74254">
        <ele>2584</ele>
        <time>2010-07-24T08:39:51Z</time>
      </trkpt>
      <trkpt lat="45.48616" lon="6.74263">
        <ele>2581.8</ele>
        <time>2010-07-24T08:39:57Z</time>
      </trkpt>
      <trkpt lat="45.48598" lon="6.74269">
        <ele>2580</ele>
        <time>2010-07-24T08:40:02Z</time>
      </trkpt>
      <trkpt lat="45.48588" lon="6.74291">
        <ele>2577.8</ele>
        <time>2010-07-24T08:40:07Z</time>
      </trkpt>
      <trkpt lat="45.48601" lon="6.7431">
        <ele>2575.8</ele>
        <time>2010-07-24T08:40:12Z</time>
      </trkpt>
      <trkpt lat="45.4862" lon="6.74314">
        <ele>2573.6</ele>
        <time>2010-07-24T08:40:17Z</time>
      </trkpt>
      <trkpt lat="45.4864" lon="6.7432">
        <ele>2571.4</ele>
        <time>2010-07-24T08:40:22Z</time>
      </trkpt>
      <trkpt lat="45.48659" lon="6.74323">
        <ele>2569.2</ele>
        <time>2010-07-24T08:40:27Z</time>
      </trkpt>
      <trkpt lat="45.48668" lon="6.74322">
        <ele>2568.4</ele>
        <time>2010-07-24T08:40:29Z</time>
      </trkpt>
      <trkpt lat="45.48679" lon="6.74324">
        <ele>2567.2</ele>
        <time>2010-07-24T08:40:32Z</time>
      </trkpt>
      <trkpt lat="45.48699" lon="6.74323">
        <ele>2565</ele>
        <time>2010-07-24T08:40:37Z</time>
      </trkpt>
      <trkpt lat="45.48717" lon="6.74314">
        <ele>2562.8</ele>
        <time>2010-07-24T08:40:42Z</time>
      </trkpt>
      <trkpt lat="45.48734" lon="6.74306">
        <ele>2560.6</ele>
        <time>2010-07-24T08:40:47Z</time>
      </trkpt>
      <trkpt lat="45.48754" lon="6.74301">
        <ele>2558.6</ele>
        <time>2010-07-24T08:40:52Z</time>
      </trkpt>
      <trkpt lat="45.48773" lon="6.74297">
        <ele>2556.4</ele>
        <time>2010-07-24T08:40:57Z</time>
      </trkpt>
      <trkpt lat="45.48788" lon="6.74283">
        <ele>2554.2</ele>
        <time>2010-07-24T08:41:03Z</time>
      </trkpt>
      <trkpt lat="45.48791" lon="6.74281">
        <ele>2554</ele>
        <time>2010-07-24T08:41:04Z</time>
      </trkpt>
      <trkpt lat="45.48805" lon="6.74272">
        <ele>2552.2</ele>
        <time>2010-07-24T08:41:09Z</time>
      </trkpt>
      <trkpt lat="45.48825" lon="6.7426">
        <ele>2550.2</ele>
        <time>2010-07-24T08:41:15Z</time>
      </trkpt>
      <trkpt lat="45.48831" lon="6.74257">
        <ele>2549.6</ele>
        <time>2010-07-24T08:41:17Z</time>
      </trkpt>
      <trkpt lat="45.48845" lon="6.7426">
        <ele>2548.4</ele>
        <time>2010-07-24T08:41:21Z</time>
      </trkpt>
      <trkpt lat="45.48866" lon="6.74265">
        <ele>2546.6</ele>
        <time>2010-07-24T08:41:27Z</time>
      </trkpt>
      <trkpt lat="45.48886" lon="6.74271">
        <ele>2545</ele>
        <time>2010-07-24T08:41:33Z</time>
      </trkpt>
      <trkpt lat="45.48891" lon="6.74278">
        <ele>2544.4</ele>
        <time>2010-07-24T08:41:35Z</time>
      </trkpt>
      <trkpt lat="45.4889" lon="6.74298">
        <ele>2543.4</ele>
        <time>2010-07-24T08:41:39Z</time>
      </trkpt>
      <trkpt lat="45.48887" lon="6.74308">
        <ele>2542.8</ele>
        <time>2010-07-24T08:41:41Z</time>
      </trkpt>
      <trkpt lat="45.48887" lon="6.74325">
        <ele>2541.8</ele>
        <time>2010-07-24T08:41:45Z</time>
      </trkpt>
      <trkpt lat="45.48897" lon="6.74335">
        <ele>2540.8</ele>
        <time>2010-07-24T08:41:49Z</time>
      </trkpt>
      <trkpt lat="45.48903" lon="6.74338">
        <ele>2540.4</ele>
        <time>2010-07-24T08:41:51Z</time>
      </trkpt>
      <trkpt lat="45.48922" lon="6.74344">
        <ele>2538.8</ele>
        <time>2010-07-24T08:41:57Z</time>
      </trkpt>
      <trkpt lat="45.48941" lon="6.74345">
        <ele>2537.6</ele>
        <time>2010-07-24T08:42:03Z</time>
      </trkpt>
      <trkpt lat="45.48954" lon="6.7435">
        <ele>2536.6</ele>
        <time>2010-07-24T08:42:07Z</time>
      </trkpt>
      <trkpt lat="45.48957" lon="6.74356">
        <ele>2536.2</ele>
        <time>2010-07-24T08:42:09Z</time>
      </trkpt>
      <trkpt lat="45.48962" lon="6.74375">
        <ele>2535.2</ele>
        <time>2010-07-24T08:42:14Z</time>
      </trkpt>
      <trkpt lat="45.48965" lon="6.74383">
        <ele>2534.8</ele>
        <time>2010-07-24T08:42:16Z</time>
      </trkpt>
      <trkpt lat="45.48974" lon="6.74405">
        <ele>2533.6</ele>
        <time>2010-07-24T08:42:22Z</time>
      </trkpt>
      <trkpt lat="45.4899" lon="6.74422">
        <ele>2532.4</ele>
        <time>2010-07-24T08:42:28Z</time>
      </trkpt>
      <trkpt lat="45.49007" lon="6.74433">
        <ele>2531.4</ele>
        <time>2010-07-24T08:42:34Z</time>
      </trkpt>
      <trkpt lat="45.49024" lon="6.74447">
        <ele>2530.4</ele>
        <time>2010-07-24T08:42:40Z</time>
      </trkpt>
      <trkpt lat="45.4904" lon="6.74465">
        <ele>2529.6</ele>
        <time>2010-07-24T08:42:46Z</time>
      </trkpt>
      <trkpt lat="45.49056" lon="6.74483">
        <ele>2528.8</ele>
        <time>2010-07-24T08:42:52Z</time>
      </trkpt>
      <trkpt lat="45.49075" lon="6.74495">
        <ele>2528</ele>
        <time>2010-07-24T08:42:58Z</time>
      </trkpt>
      <trkpt lat="45.49092" lon="6.74512">
        <ele>2527.4</ele>
        <time>2010-07-24T08:43:04Z</time>
      </trkpt>
      <trkpt lat="45.49102" lon="6.74535">
        <ele>2526.8</ele>
        <time>2010-07-24T08:43:10Z</time>
      </trkpt>
      <trkpt lat="45.49111" lon="6.74561">
        <ele>2526.2</ele>
        <time>2010-07-24T08:43:16Z</time>
      </trkpt>
      <trkpt lat="45.49121" lon="6.74585">
        <ele>2525.8</ele>
        <time>2010-07-24T08:43:22Z</time>
      </trkpt>
      <trkpt lat="45.49131" lon="6.74609">
        <ele>2525.4</ele>
        <time>2010-07-24T08:43:28Z</time>
      </trkpt>
      <trkpt lat="45.49143" lon="6.74632">
        <ele>2524.8</ele>
        <time>2010-07-24T08:43:34Z</time>
      </trkpt>
      <trkpt lat="45.49152" lon="6.74655">
        <ele>2524.4</ele>
        <time>2010-07-24T08:43:40Z</time>
      </trkpt>
      <trkpt lat="45.49149" lon="6.74681">
        <ele>2523.8</ele>
        <time>2010-07-24T08:43:47Z</time>
      </trkpt>
      <trkpt lat="45.49139" lon="6.74705">
        <ele>2523</ele>
        <time>2010-07-24T08:43:55Z</time>
      </trkpt>
      <trkpt lat="45.49132" lon="6.7473">
        <ele>2522.6</ele>
        <time>2010-07-24T08:44:04Z</time>
      </trkpt>
      <trkpt lat="45.49129" lon="6.74756">
        <ele>2522.8</ele>
        <time>2010-07-24T08:44:14Z</time>
      </trkpt>
      <trkpt lat="45.49128" lon="6.74784">
        <ele>2523.2</ele>
        <time>2010-07-24T08:44:24Z</time>
      </trkpt>
      <trkpt lat="45.49123" lon="6.74809">
        <ele>2523.2</ele>
        <time>2010-07-24T08:44:37Z</time>
      </trkpt>
      <trkpt lat="45.49115" lon="6.74834">
        <ele>2523.8</ele>
        <time>2010-07-24T08:44:52Z</time>
      </trkpt>
      <trkpt lat="45.49107" lon="6.74859">
        <ele>2524</ele>
        <time>2010-07-24T08:45:06Z</time>
      </trkpt>
      <trkpt lat="45.49106" lon="6.74878">
        <ele>2524.6</ele>
        <time>2010-07-24T08:45:16Z</time>
      </trkpt>
      <trkpt lat="45.49106" lon="6.74884">
        <ele>2524.8</ele>
        <time>2010-07-24T08:45:19Z</time>
      </trkpt>
      <trkpt lat="45.49111" lon="6.7491">
        <ele>2526.2</ele>
        <time>2010-07-24T08:45:32Z</time>
      </trkpt>
      <trkpt lat="45.49118" lon="6.74936">
        <ele>2527.8</ele>
        <time>2010-07-24T08:45:45Z</time>
      </trkpt>
      <trkpt lat="45.49126" lon="6.7496">
        <ele>2528.8</ele>
        <time>2010-07-24T08:45:57Z</time>
      </trkpt>
      <trkpt lat="45.49138" lon="6.7498">
        <ele>2530.2</ele>
        <time>2010-07-24T08:46:09Z</time>
      </trkpt>
      <trkpt lat="45.49151" lon="6.74999">
        <ele>2531.6</ele>
        <time>2010-07-24T08:46:21Z</time>
      </trkpt>
      <trkpt lat="45.49158" lon="6.75023">
        <ele>2533.8</ele>
        <time>2010-07-24T08:46:35Z</time>
      </trkpt>
      <trkpt lat="45.49159" lon="6.75024">
        <ele>2534</ele>
        <time>2010-07-24T08:46:36Z</time>
      </trkpt>
      <trkpt lat="45.49159" lon="6.75032">
        <ele>2534.8</ele>
        <time>2010-07-24T08:46:40Z</time>
      </trkpt>
      <trkpt lat="45.49159" lon="6.75049">
        <ele>2537.4</ele>
        <time>2010-07-24T08:46:50Z</time>
      </trkpt>
      <trkpt lat="45.4916" lon="6.75068">
        <ele>2539.2</ele>
        <time>2010-07-24T08:47:00Z</time>
      </trkpt>
      <trkpt lat="45.49161" lon="6.75076">
        <ele>2540</ele>
        <time>2010-07-24T08:47:04Z</time>
      </trkpt>
      <trkpt lat="45.49162" lon="6.75102">
        <ele>2541.6</ele>
        <time>2010-07-24T08:47:16Z</time>
      </trkpt>
      <trkpt lat="45.49164" lon="6.75127">
        <ele>2543</ele>
        <time>2010-07-24T08:47:28Z</time>
      </trkpt>
      <trkpt lat="45.49165" lon="6.75144">
        <ele>2544.2</ele>
        <time>2010-07-24T08:47:36Z</time>
      </trkpt>
      <trkpt lat="45.49165" lon="6.75153">
        <ele>2545</ele>
        <time>2010-07-24T08:47:41Z</time>
      </trkpt>
      <trkpt lat="45.4916" lon="6.75178">
        <ele>2549.2</ele>
        <time>2010-07-24T08:47:56Z</time>
      </trkpt>
      <trkpt lat="45.49159" lon="6.75188">
        <ele>2551.6</ele>
        <time>2010-07-24T08:48:03Z</time>
      </trkpt>
      <trkpt lat="45.49157" lon="6.75204">
        <ele>2554.6</ele>
        <time>2010-07-24T08:48:14Z</time>
      </trkpt>
      <trkpt lat="45.49157" lon="6.75207">
        <ele>2555.4</ele>
        <time>2010-07-24T08:48:17Z</time>
      </trkpt>
      <trkpt lat="45.49156" lon="6.75208">
        <ele>2555.8</ele>
        <time>2010-07-24T08:48:18Z</time>
      </trkpt>
      <trkpt lat="45.49154" lon="6.75217">
        <ele>2558.4</ele>
        <time>2010-07-24T08:48:25Z</time>
      </trkpt>
      <trkpt lat="45.49152" lon="6.75225">
        <ele>2560</ele>
        <time>2010-07-24T08:48:30Z</time>
      </trkpt>
      <trkpt lat="45.49151" lon="6.75228">
        <ele>2560.6</ele>
        <time>2010-07-24T08:48:32Z</time>
      </trkpt>
      <trkpt lat="45.49147" lon="6.75254">
        <ele>2566.2</ele>
        <time>2010-07-24T08:48:48Z</time>
      </trkpt>
      <trkpt lat="45.49145" lon="6.75279">
        <ele>2570.8</ele>
        <time>2010-07-24T08:49:01Z</time>
      </trkpt>
      <trkpt lat="45.49145" lon="6.75305">
        <ele>2574.6</ele>
        <time>2010-07-24T08:49:14Z</time>
      </trkpt>
      <trkpt lat="45.49144" lon="6.75333">
        <ele>2577.2</ele>
        <time>2010-07-24T08:49:27Z</time>
      </trkpt>
      <trkpt lat="45.49146" lon="6.75357">
        <ele>2579</ele>
        <time>2010-07-24T08:49:35Z</time>
      </trkpt>
      <trkpt lat="45.49147" lon="6.7536">
        <ele>2579.2</ele>
        <time>2010-07-24T08:49:36Z</time>
      </trkpt>
      <trkpt lat="45.49147" lon="6.75387">
        <ele>2581.8</ele>
        <time>2010-07-24T08:49:46Z</time>
      </trkpt>
      <trkpt lat="45.4915" lon="6.75414">
        <ele>2585</ele>
        <time>2010-07-24T08:49:56Z</time>
      </trkpt>
      <trkpt lat="45.49157" lon="6.75439">
        <ele>2588.4</ele>
        <time>2010-07-24T08:50:06Z</time>
      </trkpt>
      <trkpt lat="45.49167" lon="6.75461">
        <ele>2591.8</ele>
        <time>2010-07-24T08:50:16Z</time>
      </trkpt>
      <trkpt lat="45.49171" lon="6.75488">
        <ele>2595</ele>
        <time>2010-07-24T08:50:26Z</time>
      </trkpt>
      <trkpt lat="45.49171" lon="6.75514">
        <ele>2598.4</ele>
        <time>2010-07-24T08:50:38Z</time>
      </trkpt>
      <trkpt lat="45.49171" lon="6.75519">
        <ele>2599</ele>
        <time>2010-07-24T08:50:41Z</time>
      </trkpt>
      <trkpt lat="45.49174" lon="6.75535">
        <ele>2602.2</ele>
        <time>2010-07-24T08:50:54Z</time>
      </trkpt>
      <trkpt lat="45.49175" lon="6.75539">
        <ele>2602.8</ele>
        <time>2010-07-24T08:50:57Z</time>
      </trkpt>
      <trkpt lat="45.49176" lon="6.75543">
        <ele>2603.6</ele>
        <time>2010-07-24T08:51:00Z</time>
      </trkpt>
      <trkpt lat="45.49177" lon="6.75563">
        <ele>2609</ele>
        <time>2010-07-24T08:51:15Z</time>
      </trkpt>
      <trkpt lat="45.49178" lon="6.75564">
        <ele>2609.4</ele>
        <time>2010-07-24T08:51:16Z</time>
      </trkpt>
      <trkpt lat="45.49178" lon="6.75569">
        <ele>2610.8</ele>
        <time>2010-07-24T08:51:20Z</time>
      </trkpt>
      <trkpt lat="45.4918" lon="6.75581">
        <ele>2613.8</ele>
        <time>2010-07-24T08:51:29Z</time>
      </trkpt>
      <trkpt lat="45.49182" lon="6.75589">
        <ele>2614.8</ele>
        <time>2010-07-24T08:51:33Z</time>
      </trkpt>
      <trkpt lat="45.49185" lon="6.75601">
        <ele>2616</ele>
        <time>2010-07-24T08:51:40Z</time>
      </trkpt>
      <trkpt lat="45.49188" lon="6.75614">
        <ele>2617</ele>
        <time>2010-07-24T08:51:49Z</time>
      </trkpt>
      <trkpt lat="45.49191" lon="6.75632">
        <ele>2618.2</ele>
        <time>2010-07-24T08:52:02Z</time>
      </trkpt>
      <trkpt lat="45.49193" lon="6.75639">
        <ele>2619</ele>
        <time>2010-07-24T08:52:08Z</time>
      </trkpt>
      <trkpt lat="45.49195" lon="6.75652">
        <ele>2619.8</ele>
        <time>2010-07-24T08:52:17Z</time>
      </trkpt>
      <trkpt lat="45.49196" lon="6.75658">
        <ele>2620.2</ele>
        <time>2010-07-24T08:52:21Z</time>
      </trkpt>
      <trkpt lat="45.49196" lon="6.75662">
        <ele>2620.6</ele>
        <time>2010-07-24T08:52:24Z</time>
      </trkpt>
      <trkpt lat="45.49196" lon="6.75665">
        <ele>2621.2</ele>
        <time>2010-07-24T08:52:26Z</time>
      </trkpt>
      <trkpt lat="45.49196" lon="6.75672">
        <ele>2621.8</ele>
        <time>2010-07-24T08:52:30Z</time>
      </trkpt>
      <trkpt lat="45.49196" lon="6.75681">
        <ele>2622.8</ele>
        <time>2010-07-24T08:52:34Z</time>
      </trkpt>
      <trkpt lat="45.49196" lon="6.75691">
        <ele>2624</ele>
        <time>2010-07-24T08:52:38Z</time>
      </trkpt>
      <trkpt lat="45.49194" lon="6.75718">
        <ele>2626.6</ele>
        <time>2010-07-24T08:52:47Z</time>
      </trkpt>
      <trkpt lat="45.49192" lon="6.75731">
        <ele>2627.6</ele>
        <time>2010-07-24T08:52:51Z</time>
      </trkpt>
      <trkpt lat="45.49188" lon="6.75744">
        <ele>2628.4</ele>
        <time>2010-07-24T08:52:55Z</time>
      </trkpt>
      <trkpt lat="45.49183" lon="6.75769">
        <ele>2630.4</ele>
        <time>2010-07-24T08:53:03Z</time>
      </trkpt>
      <trkpt lat="45.49181" lon="6.75772">
        <ele>2630.6</ele>
        <time>2010-07-24T08:53:04Z</time>
      </trkpt>
      <trkpt lat="45.49175" lon="6.75793">
        <ele>2632.6</ele>
        <time>2010-07-24T08:53:11Z</time>
      </trkpt>
      <trkpt lat="45.49166" lon="6.75815">
        <ele>2633.8</ele>
        <time>2010-07-24T08:53:17Z</time>
      </trkpt>
      <trkpt lat="45.49164" lon="6.75841">
        <ele>2634.6</ele>
        <time>2010-07-24T08:53:24Z</time>
      </trkpt>
      <trkpt lat="45.49168" lon="6.75866">
        <ele>2635</ele>
        <time>2010-07-24T08:53:31Z</time>
      </trkpt>
      <trkpt lat="45.49174" lon="6.75891">
        <ele>2635.8</ele>
        <time>2010-07-24T08:53:40Z</time>
      </trkpt>
      <trkpt lat="45.49178" lon="6.75902">
        <ele>2636</ele>
        <time>2010-07-24T08:53:45Z</time>
      </trkpt>
      <trkpt lat="45.49185" lon="6.75915">
        <ele>2636.4</ele>
        <time>2010-07-24T08:53:50Z</time>
      </trkpt>
      <trkpt lat="45.49191" lon="6.75941">
        <ele>2637.8</ele>
        <time>2010-07-24T08:53:59Z</time>
      </trkpt>
      <trkpt lat="45.49197" lon="6.75967">
        <ele>2639.2</ele>
        <time>2010-07-24T08:54:07Z</time>
      </trkpt>
      <trkpt lat="45.49199" lon="6.7599">
        <ele>2641.6</ele>
        <time>2010-07-24T08:54:16Z</time>
      </trkpt>
      <trkpt lat="45.49201" lon="6.75994">
        <ele>2642</ele>
        <time>2010-07-24T08:54:18Z</time>
      </trkpt>
      <trkpt lat="45.49204" lon="6.76004">
        <ele>2643.6</ele>
        <time>2010-07-24T08:54:24Z</time>
      </trkpt>
      <trkpt lat="45.49206" lon="6.76011">
        <ele>2644.4</ele>
        <time>2010-07-24T08:54:28Z</time>
      </trkpt>
      <trkpt lat="45.49205" lon="6.76019">
        <ele>2646</ele>
        <time>2010-07-24T08:54:34Z</time>
      </trkpt>
      <trkpt lat="45.49208" lon="6.76045">
        <ele>2649.8</ele>
        <time>2010-07-24T08:54:51Z</time>
      </trkpt>
      <trkpt lat="45.49203" lon="6.7607">
        <ele>2653.2</ele>
        <time>2010-07-24T08:55:09Z</time>
      </trkpt>
      <trkpt lat="45.49199" lon="6.76077">
        <ele>2655.2</ele>
        <time>2010-07-24T08:55:16Z</time>
      </trkpt>
      <trkpt lat="45.49192" lon="6.76091">
        <ele>2661.8</ele>
        <time>2010-07-24T08:55:34Z</time>
      </trkpt>
      <trkpt lat="45.49166" lon="6.76178">
        <ele>2690.4</ele>
        <time>2010-07-24T08:57:01Z</time>
      </trkpt>
      <trkpt lat="45.49163" lon="6.76184">
        <ele>2691.6</ele>
        <time>2010-07-24T08:57:05Z</time>
      </trkpt>
      <trkpt lat="45.49161" lon="6.7619">
        <ele>2692.8</ele>
        <time>2010-07-24T08:57:09Z</time>
      </trkpt>
      <trkpt lat="45.49157" lon="6.76201">
        <ele>2694.8</ele>
        <time>2010-07-24T08:57:17Z</time>
      </trkpt>
      <trkpt lat="45.49151" lon="6.76221">
        <ele>2699</ele>
        <time>2010-07-24T08:57:32Z</time>
      </trkpt>
      <trkpt lat="45.4915" lon="6.76226">
        <ele>2700.2</ele>
        <time>2010-07-24T08:57:36Z</time>
      </trkpt>
      <trkpt lat="45.49147" lon="6.76235">
        <ele>2702.2</ele>
        <time>2010-07-24T08:57:43Z</time>
      </trkpt>
      <trkpt lat="45.49141" lon="6.76243">
        <ele>2704.4</ele>
        <time>2010-07-24T08:57:50Z</time>
      </trkpt>
      <trkpt lat="45.49138" lon="6.76245">
        <ele>2705.4</ele>
        <time>2010-07-24T08:57:53Z</time>
      </trkpt>
      <trkpt lat="45.49137" lon="6.76246">
        <ele>2705.6</ele>
        <time>2010-07-24T08:57:54Z</time>
      </trkpt>
      <trkpt lat="45.49134" lon="6.7625">
        <ele>2707</ele>
        <time>2010-07-24T08:57:58Z</time>
      </trkpt>
      <trkpt lat="45.49123" lon="6.76258">
        <ele>2710</ele>
        <time>2010-07-24T08:58:08Z</time>
      </trkpt>
      <trkpt lat="45.49114" lon="6.76264">
        <ele>2712</ele>
        <time>2010-07-24T08:58:16Z</time>
      </trkpt>
      <trkpt lat="45.49109" lon="6.76268">
        <ele>2713.6</ele>
        <time>2010-07-24T08:58:21Z</time>
      </trkpt>
      <trkpt lat="45.49106" lon="6.7627">
        <ele>2714.2</ele>
        <time>2010-07-24T08:58:24Z</time>
      </trkpt>
      <trkpt lat="45.49089" lon="6.7628">
        <ele>2718.4</ele>
        <time>2010-07-24T08:58:40Z</time>
      </trkpt>
      <trkpt lat="45.49082" lon="6.76284">
        <ele>2719.8</ele>
        <time>2010-07-24T08:58:46Z</time>
      </trkpt>
      <trkpt lat="45.4908" lon="6.76289">
        <ele>2720.6</ele>
        <time>2010-07-24T08:58:49Z</time>
      </trkpt>
      <trkpt lat="45.49076" lon="6.76293">
        <ele>2721.8</ele>
        <time>2010-07-24T08:58:53Z</time>
      </trkpt>
      <trkpt lat="45.49075" lon="6.76295">
        <ele>2722.4</ele>
        <time>2010-07-24T08:58:55Z</time>
      </trkpt>
      <trkpt lat="45.49069" lon="6.76317">
        <ele>2727</ele>
        <time>2010-07-24T08:59:12Z</time>
      </trkpt>
      <trkpt lat="45.49068" lon="6.7632">
        <ele>2727.6</ele>
        <time>2010-07-24T08:59:14Z</time>
      </trkpt>
      <trkpt lat="45.49067" lon="6.76326">
        <ele>2728.6</ele>
        <time>2010-07-24T08:59:18Z</time>
      </trkpt>
      <trkpt lat="45.49065" lon="6.76346">
        <ele>2731.4</ele>
        <time>2010-07-24T08:59:29Z</time>
      </trkpt>
      <trkpt lat="45.49065" lon="6.76348">
        <ele>2731.6</ele>
        <time>2010-07-24T08:59:30Z</time>
      </trkpt>
      <trkpt lat="45.49065" lon="6.76356">
        <ele>2732.2</ele>
        <time>2010-07-24T08:59:34Z</time>
      </trkpt>
      <trkpt lat="45.4906" lon="6.76371">
        <ele>2733.4</ele>
        <time>2010-07-24T08:59:40Z</time>
      </trkpt>
      <trkpt lat="45.49043" lon="6.76385">
        <ele>2735.4</ele>
        <time>2010-07-24T08:59:48Z</time>
      </trkpt>
      <trkpt lat="45.49027" lon="6.76398">
        <ele>2737.4</ele>
        <time>2010-07-24T08:59:56Z</time>
      </trkpt>
      <trkpt lat="45.49011" lon="6.76412">
        <ele>2739.8</ele>
        <time>2010-07-24T09:00:05Z</time>
      </trkpt>
      <trkpt lat="45.48996" lon="6.76427">
        <ele>2742</ele>
        <time>2010-07-24T09:00:15Z</time>
      </trkpt>
      <trkpt lat="45.48982" lon="6.76445">
        <ele>2744.6</ele>
        <time>2010-07-24T09:00:29Z</time>
      </trkpt>
      <trkpt lat="45.48973" lon="6.76467">
        <ele>2748.2</ele>
        <time>2010-07-24T09:00:45Z</time>
      </trkpt>
      <trkpt lat="45.48972" lon="6.76468">
        <ele>2748.4</ele>
        <time>2010-07-24T09:00:47Z</time>
      </trkpt>
      <trkpt lat="45.48966" lon="6.76473">
        <ele>2749.4</ele>
        <time>2010-07-24T09:00:51Z</time>
      </trkpt>
      <trkpt lat="45.48958" lon="6.76481">
        <ele>2750.6</ele>
        <time>2010-07-24T09:00:56Z</time>
      </trkpt>
      <trkpt lat="45.48944" lon="6.76498">
        <ele>2752.6</ele>
        <time>2010-07-24T09:01:06Z</time>
      </trkpt>
      <trkpt lat="45.48927" lon="6.76507">
        <ele>2755.2</ele>
        <time>2010-07-24T09:01:19Z</time>
      </trkpt>
      <trkpt lat="45.48909" lon="6.76511">
        <ele>2758.6</ele>
        <time>2010-07-24T09:01:34Z</time>
      </trkpt>
      <trkpt lat="45.48892" lon="6.76523">
        <ele>2762.2</ele>
        <time>2010-07-24T09:01:49Z</time>
      </trkpt>
      <trkpt lat="45.48876" lon="6.76535">
        <ele>2765.6</ele>
        <time>2010-07-24T09:02:03Z</time>
      </trkpt>
      <trkpt lat="45.48861" lon="6.7655">
        <ele>2769.8</ele>
        <time>2010-07-24T09:02:19Z</time>
      </trkpt>
      <trkpt lat="45.48858" lon="6.76555">
        <ele>2770.8</ele>
        <time>2010-07-24T09:02:24Z</time>
      </trkpt>
      <trkpt lat="45.48856" lon="6.76574">
        <ele>2773.8</ele>
        <time>2010-07-24T09:02:39Z</time>
      </trkpt>
      <trkpt lat="45.48854" lon="6.7658">
        <ele>2775</ele>
        <time>2010-07-24T09:02:45Z</time>
      </trkpt>
      <trkpt lat="45.48853" lon="6.76586">
        <ele>2775.8</ele>
        <time>2010-07-24T09:02:50Z</time>
      </trkpt>
      <trkpt lat="45.48851" lon="6.76598">
        <ele>2779.6</ele>
        <time>2010-07-24T09:03:07Z</time>
      </trkpt>
      <trkpt lat="45.48874" lon="6.77093">
        <ele>2984.2</ele>
        <time>2010-07-24T09:16:42Z</time>
      </trkpt>
      <trkpt lat="45.48886" lon="6.77094">
        <ele>2986.8</ele>
        <time>2010-07-24T09:16:54Z</time>
      </trkpt>
      <trkpt lat="45.48892" lon="6.77095">
        <ele>2987.8</ele>
        <time>2010-07-24T09:16:59Z</time>
      </trkpt>
      <trkpt lat="45.48895" lon="6.77095">
        <ele>2988.2</ele>
        <time>2010-07-24T09:17:01Z</time>
      </trkpt>
      <trkpt lat="45.489" lon="6.77095">
        <ele>2989.2</ele>
        <time>2010-07-24T09:17:06Z</time>
      </trkpt>
      <trkpt lat="45.48906" lon="6.77094">
        <ele>2990.4</ele>
        <time>2010-07-24T09:17:12Z</time>
      </trkpt>
      <trkpt lat="45.4891" lon="6.77093">
        <ele>2991.2</ele>
        <time>2010-07-24T09:17:16Z</time>
      </trkpt>
      <trkpt lat="45.48928" lon="6.77086">
        <ele>2993.8</ele>
        <time>2010-07-24T09:17:32Z</time>
      </trkpt>
      <trkpt lat="45.48931" lon="6.77086">
        <ele>2994.2</ele>
        <time>2010-07-24T09:17:35Z</time>
      </trkpt>
      <trkpt lat="45.48937" lon="6.77086">
        <ele>2995</ele>
        <time>2010-07-24T09:17:39Z</time>
      </trkpt>
      <trkpt lat="45.48947" lon="6.77088">
        <ele>2996</ele>
        <time>2010-07-24T09:17:45Z</time>
      </trkpt>
      <trkpt lat="45.48966" lon="6.77094">
        <ele>2997.6</ele>
        <time>2010-07-24T09:17:54Z</time>
      </trkpt>
      <trkpt lat="45.4897" lon="6.77097">
        <ele>2997.8</ele>
        <time>2010-07-24T09:17:56Z</time>
      </trkpt>
      <trkpt lat="45.48979" lon="6.77111">
        <ele>3000</ele>
        <time>2010-07-24T09:18:13Z</time>
      </trkpt>
      <trkpt lat="45.48992" lon="6.77129">
        <ele>3001</ele>
        <time>2010-07-24T09:18:25Z</time>
      </trkpt>
      <trkpt lat="45.49006" lon="6.77149">
        <ele>3001</ele>
        <time>2010-07-24T09:18:35Z</time>
      </trkpt>
      <trkpt lat="45.49021" lon="6.77165">
        <ele>3001.2</ele>
        <time>2010-07-24T09:18:44Z</time>
      </trkpt>
      <trkpt lat="45.49029" lon="6.77175">
        <ele>3001.2</ele>
        <time>2010-07-24T09:18:50Z</time>
      </trkpt>
      <trkpt lat="45.49032" lon="6.77181">
        <ele>3001.6</ele>
        <time>2010-07-24T09:18:54Z</time>
      </trkpt>
      <trkpt lat="45.49034" lon="6.77183">
        <ele>3001.6</ele>
        <time>2010-07-24T09:18:55Z</time>
      </trkpt>
      <trkpt lat="45.49046" lon="6.77202">
        <ele>3002.6</ele>
        <time>2010-07-24T09:19:05Z</time>
      </trkpt>
      <trkpt lat="45.4905" lon="6.7721">
        <ele>3003</ele>
        <time>2010-07-24T09:19:09Z</time>
      </trkpt>
      <trkpt lat="45.49058" lon="6.77216">
        <ele>3003.2</ele>
        <time>2010-07-24T09:19:16Z</time>
      </trkpt>
      <trkpt lat="45.49061" lon="6.77219">
        <ele>3003.4</ele>
        <time>2010-07-24T09:19:19Z</time>
      </trkpt>
      <trkpt lat="45.49072" lon="6.77232">
        <ele>3003.4</ele>
        <time>2010-07-24T09:19:27Z</time>
      </trkpt>
      <trkpt lat="45.49076" lon="6.77236">
        <ele>3003.4</ele>
        <time>2010-07-24T09:19:31Z</time>
      </trkpt>
      <trkpt lat="45.49085" lon="6.77246">
        <ele>3003.2</ele>
        <time>2010-07-24T09:19:38Z</time>
      </trkpt>
      <trkpt lat="45.49092" lon="6.7725">
        <ele>3003.2</ele>
        <time>2010-07-24T09:19:43Z</time>
      </trkpt>
      <trkpt lat="45.49098" lon="6.77253">
        <ele>3003.6</ele>
        <time>2010-07-24T09:19:47Z</time>
      </trkpt>
      <trkpt lat="45.491" lon="6.77253">
        <ele>3003.6</ele>
        <time>2010-07-24T09:19:49Z</time>
      </trkpt>
      <trkpt lat="45.49109" lon="6.77259">
        <ele>3004.4</ele>
        <time>2010-07-24T09:19:56Z</time>
      </trkpt>
      <trkpt lat="45.49116" lon="6.7726">
        <ele>3004.8</ele>
        <time>2010-07-24T09:20:01Z</time>
      </trkpt>
      <trkpt lat="45.49122" lon="6.77262">
        <ele>3005.6</ele>
        <time>2010-07-24T09:20:07Z</time>
      </trkpt>
      <trkpt lat="45.49124" lon="6.77262">
        <ele>3005.8</ele>
        <time>2010-07-24T09:20:09Z</time>
      </trkpt>
      <trkpt lat="45.49127" lon="6.77262">
        <ele>3006.2</ele>
        <time>2010-07-24T09:20:12Z</time>
      </trkpt>
      <trkpt lat="45.49132" lon="6.77268">
        <ele>3007</ele>
        <time>2010-07-24T09:20:17Z</time>
      </trkpt>
      <trkpt lat="45.49134" lon="6.7727">
        <ele>3007</ele>
        <time>2010-07-24T09:20:19Z</time>
      </trkpt>
      <trkpt lat="45.49142" lon="6.77278">
        <ele>3008</ele>
        <time>2010-07-24T09:20:30Z</time>
      </trkpt>
      <trkpt lat="45.49144" lon="6.77284">
        <ele>3008.2</ele>
        <time>2010-07-24T09:20:34Z</time>
      </trkpt>
      <trkpt lat="45.49146" lon="6.77287">
        <ele>3008.4</ele>
        <time>2010-07-24T09:20:36Z</time>
      </trkpt>
      <trkpt lat="45.49148" lon="6.77295">
        <ele>3008.6</ele>
        <time>2010-07-24T09:20:42Z</time>
      </trkpt>
      <trkpt lat="45.49148" lon="6.77296">
        <ele>3008.6</ele>
        <time>2010-07-24T09:20:43Z</time>
      </trkpt>
      <trkpt lat="45.49149" lon="6.77302">
        <ele>3009</ele>
        <time>2010-07-24T09:20:47Z</time>
      </trkpt>
      <trkpt lat="45.49151" lon="6.77311">
        <ele>3009.6</ele>
        <time>2010-07-24T09:20:53Z</time>
      </trkpt>
      <trkpt lat="45.49154" lon="6.77326">
        <ele>3010.8</ele>
        <time>2010-07-24T09:21:03Z</time>
      </trkpt>
      <trkpt lat="45.49155" lon="6.77329">
        <ele>3011</ele>
        <time>2010-07-24T09:21:05Z</time>
      </trkpt>
      <trkpt lat="45.49155" lon="6.77332">
        <ele>3011.4</ele>
        <time>2010-07-24T09:21:07Z</time>
      </trkpt>
      <trkpt lat="45.49158" lon="6.77336">
        <ele>3012</ele>
        <time>2010-07-24T09:21:11Z</time>
      </trkpt>
      <trkpt lat="45.49164" lon="6.77348">
        <ele>3014.4</ele>
        <time>2010-07-24T09:21:25Z</time>
      </trkpt>
      <trkpt lat="45.49217" lon="6.77378">
        <ele>3043.4</ele>
        <time>2010-07-24T09:23:31Z</time>
      </trkpt>
      <trkpt lat="45.49219" lon="6.77402">
        <ele>3047.8</ele>
        <time>2010-07-24T09:23:45Z</time>
      </trkpt>
      <trkpt lat="45.4922" lon="6.77404">
        <ele>3048.6</ele>
        <time>2010-07-24T09:23:47Z</time>
      </trkpt>
      <trkpt lat="45.49221" lon="6.77407">
        <ele>3049.2</ele>
        <time>2010-07-24T09:23:49Z</time>
      </trkpt>
      <trkpt lat="45.49224" lon="6.7741">
        <ele>3050.4</ele>
        <time>2010-07-24T09:23:53Z</time>
      </trkpt>
      <trkpt lat="45.49233" lon="6.77378">
        <ele>3058.8</ele>
        <time>2010-07-24T09:24:21Z</time>
      </trkpt>
      <trkpt lat="45.49233" lon="6.77351">
        <ele>3064.2</ele>
        <time>2010-07-24T09:24:37Z</time>
      </trkpt>
      <trkpt lat="45.49229" lon="6.77326">
        <ele>3069.4</ele>
        <time>2010-07-24T09:24:51Z</time>
      </trkpt>
      <trkpt lat="45.4923" lon="6.7732">
        <ele>3070</ele>
        <time>2010-07-24T09:24:54Z</time>
      </trkpt>
      <trkpt lat="45.49234" lon="6.77308">
        <ele>3071.6</ele>
        <time>2010-07-24T09:25:01Z</time>
      </trkpt>
      <trkpt lat="45.49238" lon="6.77307">
        <ele>3072</ele>
        <time>2010-07-24T09:25:04Z</time>
      </trkpt>
      <trkpt lat="45.49244" lon="6.77306">
        <ele>3072.2</ele>
        <time>2010-07-24T09:25:08Z</time>
      </trkpt>
      <trkpt lat="45.49249" lon="6.77306">
        <ele>3072.6</ele>
        <time>2010-07-24T09:25:12Z</time>
      </trkpt>
      <trkpt lat="45.49257" lon="6.77313">
        <ele>3072.6</ele>
        <time>2010-07-24T09:25:16Z</time>
      </trkpt>
      <trkpt lat="45.49265" lon="6.7732">
        <ele>3072.8</ele>
        <time>2010-07-24T09:25:20Z</time>
      </trkpt>
      <trkpt lat="45.49273" lon="6.77321">
        <ele>3073</ele>
        <time>2010-07-24T09:25:23Z</time>
      </trkpt>
      <trkpt lat="45.49294" lon="6.77326">
        <ele>3073</ele>
        <time>2010-07-24T09:25:31Z</time>
      </trkpt>
      <trkpt lat="45.49313" lon="6.77327">
        <ele>3072.8</ele>
        <time>2010-07-24T09:25:38Z</time>
      </trkpt>
      <trkpt lat="45.49332" lon="6.77328">
        <ele>3072.6</ele>
        <time>2010-07-24T09:25:45Z</time>
      </trkpt>
      <trkpt lat="45.49351" lon="6.77327">
        <ele>3072.2</ele>
        <time>2010-07-24T09:25:52Z</time>
      </trkpt>
      <trkpt lat="45.49371" lon="6.77325">
        <ele>3071.6</ele>
        <time>2010-07-24T09:25:59Z</time>
      </trkpt>
      <trkpt lat="45.49389" lon="6.77317">
        <ele>3071</ele>
        <time>2010-07-24T09:26:06Z</time>
      </trkpt>
      <trkpt lat="45.49407" lon="6.77304">
        <ele>3070.2</ele>
        <time>2010-07-24T09:26:12Z</time>
      </trkpt>
      <trkpt lat="45.49425" lon="6.77297">
        <ele>3069.4</ele>
        <time>2010-07-24T09:26:18Z</time>
      </trkpt>
      <trkpt lat="45.49441" lon="6.77286">
        <ele>3068.4</ele>
        <time>2010-07-24T09:26:24Z</time>
      </trkpt>
      <trkpt lat="45.4946" lon="6.77274">
        <ele>3067.6</ele>
        <time>2010-07-24T09:26:29Z</time>
      </trkpt>
      <trkpt lat="45.49468" lon="6.77272">
        <ele>3067</ele>
        <time>2010-07-24T09:26:32Z</time>
      </trkpt>
      <trkpt lat="45.49479" lon="6.77267">
        <ele>3066.2</ele>
        <time>2010-07-24T09:26:36Z</time>
      </trkpt>
      <trkpt lat="45.49498" lon="6.77257">
        <ele>3064.6</ele>
        <time>2010-07-24T09:26:43Z</time>
      </trkpt>
      <trkpt lat="45.49517" lon="6.77244">
        <ele>3063</ele>
        <time>2010-07-24T09:26:50Z</time>
      </trkpt>
      <trkpt lat="45.49519" lon="6.77242">
        <ele>3062.8</ele>
        <time>2010-07-24T09:26:51Z</time>
      </trkpt>
      <trkpt lat="45.49521" lon="6.77218">
        <ele>3060.4</ele>
        <time>2010-07-24T09:27:00Z</time>
      </trkpt>
      <trkpt lat="45.49522" lon="6.77212">
        <ele>3060</ele>
        <time>2010-07-24T09:27:02Z</time>
      </trkpt>
      <trkpt lat="45.49524" lon="6.77201">
        <ele>3058.8</ele>
        <time>2010-07-24T09:27:06Z</time>
      </trkpt>
      <trkpt lat="45.49527" lon="6.77192">
        <ele>3057.8</ele>
        <time>2010-07-24T09:27:09Z</time>
      </trkpt>
      <trkpt lat="45.49533" lon="6.77166">
        <ele>3054.8</ele>
        <time>2010-07-24T09:27:18Z</time>
      </trkpt>
      <trkpt lat="45.49533" lon="6.77159">
        <ele>3053.8</ele>
        <time>2010-07-24T09:27:21Z</time>
      </trkpt>
      <trkpt lat="45.4953" lon="6.77141">
        <ele>3051.2</ele>
        <time>2010-07-24T09:27:28Z</time>
      </trkpt>
      <trkpt lat="45.4953" lon="6.77138">
        <ele>3050.8</ele>
        <time>2010-07-24T09:27:29Z</time>
      </trkpt>
      <trkpt lat="45.49528" lon="6.77129">
        <ele>3048.6</ele>
        <time>2010-07-24T09:27:34Z</time>
      </trkpt>
      <trkpt lat="45.4953" lon="6.77117">
        <ele>3046.6</ele>
        <time>2010-07-24T09:27:39Z</time>
      </trkpt>
      <trkpt lat="45.4953" lon="6.77114">
        <ele>3046.2</ele>
        <time>2010-07-24T09:27:40Z</time>
      </trkpt>
      <trkpt lat="45.49535" lon="6.77095">
        <ele>3041.4</ele>
        <time>2010-07-24T09:27:50Z</time>
      </trkpt>
      <trkpt lat="45.49535" lon="6.77092">
        <ele>3040.4</ele>
        <time>2010-07-24T09:27:52Z</time>
      </trkpt>
      <trkpt lat="45.49532" lon="6.7708">
        <ele>3034.8</ele>
        <time>2010-07-24T09:28:03Z</time>
      </trkpt>
      <trkpt lat="45.49529" lon="6.77072">
        <ele>3030.8</ele>
        <time>2010-07-24T09:28:11Z</time>
      </trkpt>
      <trkpt lat="45.49528" lon="6.77072">
        <ele>3029.8</ele>
        <time>2010-07-24T09:28:13Z</time>
      </trkpt>
      <trkpt lat="45.49523" lon="6.77074">
        <ele>3027.8</ele>
        <time>2010-07-24T09:28:17Z</time>
      </trkpt>
      <trkpt lat="45.49511" lon="6.77077">
        <ele>3025</ele>
        <time>2010-07-24T09:28:23Z</time>
      </trkpt>
      <trkpt lat="45.49492" lon="6.77079">
        <ele>3021.2</ele>
        <time>2010-07-24T09:28:31Z</time>
      </trkpt>
      <trkpt lat="45.49472" lon="6.77084">
        <ele>3018.2</ele>
        <time>2010-07-24T09:28:38Z</time>
      </trkpt>
      <trkpt lat="45.49455" lon="6.77091">
        <ele>3015.4</ele>
        <time>2010-07-24T09:28:44Z</time>
      </trkpt>
      <trkpt lat="45.49436" lon="6.77101">
        <ele>3012.8</ele>
        <time>2010-07-24T09:28:50Z</time>
      </trkpt>
      <trkpt lat="45.49417" lon="6.77111">
        <ele>3010.4</ele>
        <time>2010-07-24T09:28:56Z</time>
      </trkpt>
      <trkpt lat="45.49398" lon="6.77124">
        <ele>3008</ele>
        <time>2010-07-24T09:29:02Z</time>
      </trkpt>
      <trkpt lat="45.4938" lon="6.77137">
        <ele>3005.8</ele>
        <time>2010-07-24T09:29:08Z</time>
      </trkpt>
      <trkpt lat="45.49363" lon="6.77149">
        <ele>3003.4</ele>
        <time>2010-07-24T09:29:14Z</time>
      </trkpt>
      <trkpt lat="45.49346" lon="6.77151">
        <ele>3000.6</ele>
        <time>2010-07-24T09:29:21Z</time>
      </trkpt>
      <trkpt lat="45.49346" lon="6.77149">
        <ele>3000</ele>
        <time>2010-07-24T09:29:22Z</time>
      </trkpt>
      <trkpt lat="45.49352" lon="6.77139">
        <ele>2997.8</ele>
        <time>2010-07-24T09:29:27Z</time>
      </trkpt>
      <trkpt lat="45.49353" lon="6.77134">
        <ele>2996.4</ele>
        <time>2010-07-24T09:29:30Z</time>
      </trkpt>
      <trkpt lat="45.4935" lon="6.77128">
        <ele>2994</ele>
        <time>2010-07-24T09:29:35Z</time>
      </trkpt>
      <trkpt lat="45.49348" lon="6.77125">
        <ele>2993</ele>
        <time>2010-07-24T09:29:37Z</time>
      </trkpt>
      <trkpt lat="45.4935" lon="6.77118">
        <ele>2990.4</ele>
        <time>2010-07-24T09:29:42Z</time>
      </trkpt>
      <trkpt lat="45.49349" lon="6.77116">
        <ele>2989.4</ele>
        <time>2010-07-24T09:29:44Z</time>
      </trkpt>
      <trkpt lat="45.49346" lon="6.77108">
        <ele>2987</ele>
        <time>2010-07-24T09:29:49Z</time>
      </trkpt>
      <trkpt lat="45.49345" lon="6.77104">
        <ele>2986</ele>
        <time>2010-07-24T09:29:51Z</time>
      </trkpt>
      <trkpt lat="45.49345" lon="6.77101">
        <ele>2985.4</ele>
        <time>2010-07-24T09:29:52Z</time>
      </trkpt>
      <trkpt lat="45.49346" lon="6.77097">
        <ele>2983</ele>
        <time>2010-07-24T09:29:57Z</time>
      </trkpt>
      <trkpt lat="45.49344" lon="6.77091">
        <ele>2981</ele>
        <time>2010-07-24T09:30:01Z</time>
      </trkpt>
      <trkpt lat="45.49349" lon="6.77085">
        <ele>2979</ele>
        <time>2010-07-24T09:30:05Z</time>
      </trkpt>
      <trkpt lat="45.49349" lon="6.77081">
        <ele>2978</ele>
        <time>2010-07-24T09:30:07Z</time>
      </trkpt>
      <trkpt lat="45.49349" lon="6.77061">
        <ele>2971.4</ele>
        <time>2010-07-24T09:30:20Z</time>
      </trkpt>
      <trkpt lat="45.49348" lon="6.77055">
        <ele>2970</ele>
        <time>2010-07-24T09:30:23Z</time>
      </trkpt>
      <trkpt lat="45.49348" lon="6.77027">
        <ele>2963.8</ele>
        <time>2010-07-24T09:30:35Z</time>
      </trkpt>
      <trkpt lat="45.49349" lon="6.77019">
        <ele>2961.6</ele>
        <time>2010-07-24T09:30:39Z</time>
      </trkpt>
      <trkpt lat="45.49344" lon="6.77006">
        <ele>2956</ele>
        <time>2010-07-24T09:30:50Z</time>
      </trkpt>
      <trkpt lat="45.49343" lon="6.77004">
        <ele>2954.8</ele>
        <time>2010-07-24T09:30:52Z</time>
      </trkpt>
      <trkpt lat="45.49344" lon="6.76977">
        <ele>2949</ele>
        <time>2010-07-24T09:31:03Z</time>
      </trkpt>
      <trkpt lat="45.49346" lon="6.76965">
        <ele>2946.4</ele>
        <time>2010-07-24T09:31:08Z</time>
      </trkpt>
      <trkpt lat="45.49345" lon="6.76954">
        <ele>2943.2</ele>
        <time>2010-07-24T09:31:14Z</time>
      </trkpt>
      <trkpt lat="45.49344" lon="6.76951">
        <ele>2942</ele>
        <time>2010-07-24T09:31:16Z</time>
      </trkpt>
      <trkpt lat="45.49343" lon="6.7695">
        <ele>2941.6</ele>
        <time>2010-07-24T09:31:17Z</time>
      </trkpt>
      <trkpt lat="45.49339" lon="6.76945">
        <ele>2939.2</ele>
        <time>2010-07-24T09:31:21Z</time>
      </trkpt>
      <trkpt lat="45.49334" lon="6.7693">
        <ele>2936</ele>
        <time>2010-07-24T09:31:27Z</time>
      </trkpt>
      <trkpt lat="45.49333" lon="6.76903">
        <ele>2931.4</ele>
        <time>2010-07-24T09:31:35Z</time>
      </trkpt>
      <trkpt lat="45.49335" lon="6.76883">
        <ele>2928.6</ele>
        <time>2010-07-24T09:31:40Z</time>
      </trkpt>
      <trkpt lat="45.49337" lon="6.76876">
        <ele>2927.4</ele>
        <time>2010-07-24T09:31:42Z</time>
      </trkpt>
      <trkpt lat="45.49342" lon="6.7685">
        <ele>2923</ele>
        <time>2010-07-24T09:31:50Z</time>
      </trkpt>
      <trkpt lat="45.49343" lon="6.76824">
        <ele>2919.8</ele>
        <time>2010-07-24T09:31:56Z</time>
      </trkpt>
      <trkpt lat="45.49342" lon="6.76796">
        <ele>2915.6</ele>
        <time>2010-07-24T09:32:04Z</time>
      </trkpt>
      <trkpt lat="45.49342" lon="6.76794">
        <ele>2915</ele>
        <time>2010-07-24T09:32:05Z</time>
      </trkpt>
      <trkpt lat="45.4934" lon="6.76773">
        <ele>2910.8</ele>
        <time>2010-07-24T09:32:13Z</time>
      </trkpt>
      <trkpt lat="45.49341" lon="6.7677">
        <ele>2910.2</ele>
        <time>2010-07-24T09:32:14Z</time>
      </trkpt>
      <trkpt lat="45.49347" lon="6.7675">
        <ele>2907.2</ele>
        <time>2010-07-24T09:32:20Z</time>
      </trkpt>
      <trkpt lat="45.49347" lon="6.76746">
        <ele>2906.8</ele>
        <time>2010-07-24T09:32:21Z</time>
      </trkpt>
      <trkpt lat="45.49346" lon="6.7672">
        <ele>2903.8</ele>
        <time>2010-07-24T09:32:27Z</time>
      </trkpt>
      <trkpt lat="45.49344" lon="6.76692">
        <ele>2900.8</ele>
        <time>2010-07-24T09:32:33Z</time>
      </trkpt>
      <trkpt lat="45.49339" lon="6.76668">
        <ele>2898.2</ele>
        <time>2010-07-24T09:32:38Z</time>
      </trkpt>
      <trkpt lat="45.4933" lon="6.76645">
        <ele>2895.4</ele>
        <time>2010-07-24T09:32:43Z</time>
      </trkpt>
      <trkpt lat="45.49324" lon="6.76628">
        <ele>2892.8</ele>
        <time>2010-07-24T09:32:48Z</time>
      </trkpt>
      <trkpt lat="45.49327" lon="6.7662">
        <ele>2890.2</ele>
        <time>2010-07-24T09:32:53Z</time>
      </trkpt>
      <trkpt lat="45.49337" lon="6.766">
        <ele>2881.8</ele>
        <time>2010-07-24T09:33:08Z</time>
      </trkpt>
      <trkpt lat="45.49337" lon="6.76597">
        <ele>2881.2</ele>
        <time>2010-07-24T09:33:09Z</time>
      </trkpt>
      <trkpt lat="45.49337" lon="6.76589">
        <ele>2879.6</ele>
        <time>2010-07-24T09:33:12Z</time>
      </trkpt>
      <trkpt lat="45.49339" lon="6.76574">
        <ele>2876.6</ele>
        <time>2010-07-24T09:33:17Z</time>
      </trkpt>
      <trkpt lat="45.49341" lon="6.76566">
        <ele>2874.8</ele>
        <time>2010-07-24T09:33:20Z</time>
      </trkpt>
      <trkpt lat="45.49344" lon="6.76554">
        <ele>2871.2</ele>
        <time>2010-07-24T09:33:26Z</time>
      </trkpt>
      <trkpt lat="45.49344" lon="6.76552">
        <ele>2870.6</ele>
        <time>2010-07-24T09:33:27Z</time>
      </trkpt>
      <trkpt lat="45.49343" lon="6.76551">
        <ele>2870</ele>
        <time>2010-07-24T09:33:28Z</time>
      </trkpt>
      <trkpt lat="45.49338" lon="6.76543">
        <ele>2866.4</ele>
        <time>2010-07-24T09:33:34Z</time>
      </trkpt>
      <trkpt lat="45.49333" lon="6.76535">
        <ele>2864</ele>
        <time>2010-07-24T09:33:38Z</time>
      </trkpt>
      <trkpt lat="45.4933" lon="6.76531">
        <ele>2862.2</ele>
        <time>2010-07-24T09:33:41Z</time>
      </trkpt>
      <trkpt lat="45.49317" lon="6.76511">
        <ele>2857.4</ele>
        <time>2010-07-24T09:33:49Z</time>
      </trkpt>
      <trkpt lat="45.49299" lon="6.76498">
        <ele>2854</ele>
        <time>2010-07-24T09:33:55Z</time>
      </trkpt>
      <trkpt lat="45.49279" lon="6.76491">
        <ele>2850.6</ele>
        <time>2010-07-24T09:34:01Z</time>
      </trkpt>
      <trkpt lat="45.49273" lon="6.76488">
        <ele>2849.4</ele>
        <time>2010-07-24T09:34:03Z</time>
      </trkpt>
      <trkpt lat="45.49262" lon="6.76482">
        <ele>2847.2</ele>
        <time>2010-07-24T09:34:07Z</time>
      </trkpt>
      <trkpt lat="45.4925" lon="6.76463">
        <ele>2843.6</ele>
        <time>2010-07-24T09:34:13Z</time>
      </trkpt>
      <trkpt lat="45.49236" lon="6.76445">
        <ele>2839.4</ele>
        <time>2010-07-24T09:34:20Z</time>
      </trkpt>
      <trkpt lat="45.49224" lon="6.76424">
        <ele>2835.2</ele>
        <time>2010-07-24T09:34:27Z</time>
      </trkpt>
      <trkpt lat="45.49212" lon="6.76403">
        <ele>2829.8</ele>
        <time>2010-07-24T09:34:36Z</time>
      </trkpt>
      <trkpt lat="45.49214" lon="6.76376">
        <ele>2825.6</ele>
        <time>2010-07-24T09:34:43Z</time>
      </trkpt>
      <trkpt lat="45.49211" lon="6.76365">
        <ele>2823.8</ele>
        <time>2010-07-24T09:34:46Z</time>
      </trkpt>
      <trkpt lat="45.49206" lon="6.76352">
        <ele>2822</ele>
        <time>2010-07-24T09:34:49Z</time>
      </trkpt>
      <trkpt lat="45.49205" lon="6.76348">
        <ele>2821.4</ele>
        <time>2010-07-24T09:34:50Z</time>
      </trkpt>
      <trkpt lat="45.49202" lon="6.76323">
        <ele>2817.6</ele>
        <time>2010-07-24T09:34:56Z</time>
      </trkpt>
      <trkpt lat="45.49194" lon="6.76296">
        <ele>2813.2</ele>
        <time>2010-07-24T09:35:03Z</time>
      </trkpt>
      <trkpt lat="45.49187" lon="6.76283">
        <ele>2810.2</ele>
        <time>2010-07-24T09:35:08Z</time>
      </trkpt>
      <trkpt lat="45.49189" lon="6.76275">
        <ele>2808.2</ele>
        <time>2010-07-24T09:35:11Z</time>
      </trkpt>
      <trkpt lat="45.49187" lon="6.76261">
        <ele>2805.6</ele>
        <time>2010-07-24T09:35:15Z</time>
      </trkpt>
      <trkpt lat="45.4918" lon="6.76253">
        <ele>2803.6</ele>
        <time>2010-07-24T09:35:18Z</time>
      </trkpt>
      <trkpt lat="45.49172" lon="6.76236">
        <ele>2799.4</ele>
        <time>2010-07-24T09:35:24Z</time>
      </trkpt>
      <trkpt lat="45.49175" lon="6.76231">
        <ele>2798</ele>
        <time>2010-07-24T09:35:26Z</time>
      </trkpt>
      <trkpt lat="45.49165" lon="6.7622">
        <ele>2790.4</ele>
        <time>2010-07-24T09:35:37Z</time>
      </trkpt>
      <trkpt lat="45.49169" lon="6.76199">
        <ele>2782.6</ele>
        <time>2010-07-24T09:35:48Z</time>
      </trkpt>
      <trkpt lat="45.49168" lon="6.76184">
        <ele>2777.6</ele>
        <time>2010-07-24T09:35:55Z</time>
      </trkpt>
      <trkpt lat="45.49169" lon="6.7618">
        <ele>2776.2</ele>
        <time>2010-07-24T09:35:57Z</time>
      </trkpt>
      <trkpt lat="45.4917" lon="6.76173">
        <ele>2774</ele>
        <time>2010-07-24T09:36:00Z</time>
      </trkpt>
      <trkpt lat="45.49172" lon="6.76158">
        <ele>2769.8</ele>
        <time>2010-07-24T09:36:06Z</time>
      </trkpt>
      <trkpt lat="45.49173" lon="6.76148">
        <ele>2767.6</ele>
        <time>2010-07-24T09:36:09Z</time>
      </trkpt>
      <trkpt lat="45.49182" lon="6.76124">
        <ele>2762</ele>
        <time>2010-07-24T09:36:17Z</time>
      </trkpt>
      <trkpt lat="45.49189" lon="6.76098">
        <ele>2756.4</ele>
        <time>2010-07-24T09:36:25Z</time>
      </trkpt>
      <trkpt lat="45.49197" lon="6.76074">
        <ele>2750.4</ele>
        <time>2010-07-24T09:36:33Z</time>
      </trkpt>
      <trkpt lat="45.49203" lon="6.76058">
        <ele>2746.6</ele>
        <time>2010-07-24T09:36:38Z</time>
      </trkpt>
      <trkpt lat="45.49204" lon="6.7605">
        <ele>2745</ele>
        <time>2010-07-24T09:36:40Z</time>
      </trkpt>
      <trkpt lat="45.49203" lon="6.76023">
        <ele>2740.6</ele>
        <time>2010-07-24T09:36:46Z</time>
      </trkpt>
      <trkpt lat="45.49196" lon="6.75997">
        <ele>2736</ele>
        <time>2010-07-24T09:36:52Z</time>
      </trkpt>
      <trkpt lat="45.49192" lon="6.7597">
        <ele>2732.2</ele>
        <time>2010-07-24T09:36:57Z</time>
      </trkpt>
      <trkpt lat="45.49188" lon="6.75945">
        <ele>2728.6</ele>
        <time>2010-07-24T09:37:02Z</time>
      </trkpt>
      <trkpt lat="45.49181" lon="6.75921">
        <ele>2725</ele>
        <time>2010-07-24T09:37:07Z</time>
      </trkpt>
      <trkpt lat="45.49171" lon="6.75895">
        <ele>2721</ele>
        <time>2010-07-24T09:37:13Z</time>
      </trkpt>
      <trkpt lat="45.49162" lon="6.7587">
        <ele>2717.2</ele>
        <time>2010-07-24T09:37:19Z</time>
      </trkpt>
      <trkpt lat="45.49157" lon="6.75843">
        <ele>2713.2</ele>
        <time>2010-07-24T09:37:25Z</time>
      </trkpt>
      <trkpt lat="45.49154" lon="6.75815">
        <ele>2709.4</ele>
        <time>2010-07-24T09:37:31Z</time>
      </trkpt>
      <trkpt lat="45.49161" lon="6.75791">
        <ele>2706.2</ele>
        <time>2010-07-24T09:37:37Z</time>
      </trkpt>
      <trkpt lat="45.4917" lon="6.75767">
        <ele>2702.4</ele>
        <time>2010-07-24T09:37:44Z</time>
      </trkpt>
      <trkpt lat="45.49176" lon="6.7574">
        <ele>2699</ele>
        <time>2010-07-24T09:37:51Z</time>
      </trkpt>
      <trkpt lat="45.49182" lon="6.75714">
        <ele>2695.6</ele>
        <time>2010-07-24T09:37:58Z</time>
      </trkpt>
      <trkpt lat="45.49185" lon="6.75687">
        <ele>2692.6</ele>
        <time>2010-07-24T09:38:05Z</time>
      </trkpt>
      <trkpt lat="45.49186" lon="6.75661">
        <ele>2689.2</ele>
        <time>2010-07-24T09:38:12Z</time>
      </trkpt>
      <trkpt lat="45.49184" lon="6.75634">
        <ele>2686</ele>
        <time>2010-07-24T09:38:19Z</time>
      </trkpt>
      <trkpt lat="45.4918" lon="6.75606">
        <ele>2681.8</ele>
        <time>2010-07-24T09:38:27Z</time>
      </trkpt>
      <trkpt lat="45.49175" lon="6.75577">
        <ele>2678.6</ele>
        <time>2010-07-24T09:38:33Z</time>
      </trkpt>
      <trkpt lat="45.49169" lon="6.7555">
        <ele>2675.2</ele>
        <time>2010-07-24T09:38:39Z</time>
      </trkpt>
      <trkpt lat="45.49165" lon="6.75524">
        <ele>2671.2</ele>
        <time>2010-07-24T09:38:46Z</time>
      </trkpt>
      <trkpt lat="45.49164" lon="6.75497">
        <ele>2667.6</ele>
        <time>2010-07-24T09:38:52Z</time>
      </trkpt>
      <trkpt lat="45.49163" lon="6.75471">
        <ele>2664.8</ele>
        <time>2010-07-24T09:38:57Z</time>
      </trkpt>
      <trkpt lat="45.49155" lon="6.75443">
        <ele>2661.4</ele>
        <time>2010-07-24T09:39:03Z</time>
      </trkpt>
      <trkpt lat="45.49144" lon="6.75417">
        <ele>2658</ele>
        <time>2010-07-24T09:39:09Z</time>
      </trkpt>
      <trkpt lat="45.49139" lon="6.75388">
        <ele>2654.8</ele>
        <time>2010-07-24T09:39:15Z</time>
      </trkpt>
      <trkpt lat="45.49137" lon="6.75358">
        <ele>2651.4</ele>
        <time>2010-07-24T09:39:21Z</time>
      </trkpt>
      <trkpt lat="45.49136" lon="6.75329">
        <ele>2648.2</ele>
        <time>2010-07-24T09:39:27Z</time>
      </trkpt>
      <trkpt lat="45.49138" lon="6.753">
        <ele>2644.4</ele>
        <time>2010-07-24T09:39:34Z</time>
      </trkpt>
      <trkpt lat="45.4914" lon="6.75273">
        <ele>2641.4</ele>
        <time>2010-07-24T09:39:40Z</time>
      </trkpt>
      <trkpt lat="45.49143" lon="6.75244">
        <ele>2637.6</ele>
        <time>2010-07-24T09:39:47Z</time>
      </trkpt>
      <trkpt lat="45.49148" lon="6.75218">
        <ele>2633.8</ele>
        <time>2010-07-24T09:39:54Z</time>
      </trkpt>
      <trkpt lat="45.49153" lon="6.75194">
        <ele>2629.8</ele>
        <time>2010-07-24T09:40:01Z</time>
      </trkpt>
      <trkpt lat="45.49159" lon="6.75166">
        <ele>2625.8</ele>
        <time>2010-07-24T09:40:08Z</time>
      </trkpt>
      <trkpt lat="45.4916" lon="6.75139">
        <ele>2622.2</ele>
        <time>2010-07-24T09:40:14Z</time>
      </trkpt>
      <trkpt lat="45.4916" lon="6.75109">
        <ele>2618.4</ele>
        <time>2010-07-24T09:40:20Z</time>
      </trkpt>
      <trkpt lat="45.49157" lon="6.75082">
        <ele>2614.8</ele>
        <time>2010-07-24T09:40:26Z</time>
      </trkpt>
      <trkpt lat="45.49154" lon="6.75053">
        <ele>2610.6</ele>
        <time>2010-07-24T09:40:33Z</time>
      </trkpt>
      <trkpt lat="45.49154" lon="6.75027">
        <ele>2607.2</ele>
        <time>2010-07-24T09:40:39Z</time>
      </trkpt>
      <trkpt lat="45.4915" lon="6.74999">
        <ele>2603</ele>
        <time>2010-07-24T09:40:46Z</time>
      </trkpt>
      <trkpt lat="45.49136" lon="6.74981">
        <ele>2599.6</ele>
        <time>2010-07-24T09:40:52Z</time>
      </trkpt>
      <trkpt lat="45.49122" lon="6.74961">
        <ele>2596.4</ele>
        <time>2010-07-24T09:40:58Z</time>
      </trkpt>
      <trkpt lat="45.49113" lon="6.74935">
        <ele>2593</ele>
        <time>2010-07-24T09:41:04Z</time>
      </trkpt>
      <trkpt lat="45.49106" lon="6.74909">
        <ele>2589.8</ele>
        <time>2010-07-24T09:41:10Z</time>
      </trkpt>
      <trkpt lat="45.491" lon="6.74884">
        <ele>2586</ele>
        <time>2010-07-24T09:41:17Z</time>
      </trkpt>
      <trkpt lat="45.49102" lon="6.74856">
        <ele>2581.6</ele>
        <time>2010-07-24T09:41:25Z</time>
      </trkpt>
      <trkpt lat="45.4911" lon="6.74832">
        <ele>2578</ele>
        <time>2010-07-24T09:41:32Z</time>
      </trkpt>
      <trkpt lat="45.49118" lon="6.74807">
        <ele>2574.4</ele>
        <time>2010-07-24T09:41:39Z</time>
      </trkpt>
      <trkpt lat="45.49126" lon="6.74779">
        <ele>2570.8</ele>
        <time>2010-07-24T09:41:46Z</time>
      </trkpt>
      <trkpt lat="45.49126" lon="6.74753">
        <ele>2566.6</ele>
        <time>2010-07-24T09:41:54Z</time>
      </trkpt>
      <trkpt lat="45.49127" lon="6.74725">
        <ele>2562</ele>
        <time>2010-07-24T09:42:03Z</time>
      </trkpt>
      <trkpt lat="45.49133" lon="6.747">
        <ele>2559.2</ele>
        <time>2010-07-24T09:42:09Z</time>
      </trkpt>
      <trkpt lat="45.49144" lon="6.74674">
        <ele>2555.8</ele>
        <time>2010-07-24T09:42:16Z</time>
      </trkpt>
      <trkpt lat="45.49155" lon="6.74652">
        <ele>2552.6</ele>
        <time>2010-07-24T09:42:23Z</time>
      </trkpt>
      <trkpt lat="45.49168" lon="6.74637">
        <ele>2539.8</ele>
        <time>2010-07-24T09:42:54Z</time>
      </trkpt>
      <trkpt lat="45.49184" lon="6.74618">
        <ele>2537.4</ele>
        <time>2010-07-24T09:43:00Z</time>
      </trkpt>
      <trkpt lat="45.49194" lon="6.74597">
        <ele>2535.2</ele>
        <time>2010-07-24T09:43:05Z</time>
      </trkpt>
      <trkpt lat="45.49207" lon="6.74574">
        <ele>2533</ele>
        <time>2010-07-24T09:43:10Z</time>
      </trkpt>
      <trkpt lat="45.49219" lon="6.74552">
        <ele>2530.6</ele>
        <time>2010-07-24T09:43:15Z</time>
      </trkpt>
      <trkpt lat="45.49226" lon="6.74536">
        <ele>2529.2</ele>
        <time>2010-07-24T09:43:18Z</time>
      </trkpt>
      <trkpt lat="45.49232" lon="6.74528">
        <ele>2528.2</ele>
        <time>2010-07-24T09:43:20Z</time>
      </trkpt>
      <trkpt lat="45.49244" lon="6.74513">
        <ele>2526.2</ele>
        <time>2010-07-24T09:43:24Z</time>
      </trkpt>
      <trkpt lat="45.49247" lon="6.7451">
        <ele>2525.8</ele>
        <time>2010-07-24T09:43:25Z</time>
      </trkpt>
      <trkpt lat="45.49251" lon="6.74507">
        <ele>2525.2</ele>
        <time>2010-07-24T09:43:26Z</time>
      </trkpt>
      <trkpt lat="45.49264" lon="6.74491">
        <ele>2523.2</ele>
        <time>2010-07-24T09:43:30Z</time>
      </trkpt>
      <trkpt lat="45.49267" lon="6.74487">
        <ele>2522.6</ele>
        <time>2010-07-24T09:43:31Z</time>
      </trkpt>
      <trkpt lat="45.49277" lon="6.74477">
        <ele>2521</ele>
        <time>2010-07-24T09:43:34Z</time>
      </trkpt>
      <trkpt lat="45.49281" lon="6.74474">
        <ele>2520.4</ele>
        <time>2010-07-24T09:43:35Z</time>
      </trkpt>
      <trkpt lat="45.49296" lon="6.74456">
        <ele>2517.6</ele>
        <time>2010-07-24T09:43:40Z</time>
      </trkpt>
      <trkpt lat="45.49302" lon="6.74448">
        <ele>2516.6</ele>
        <time>2010-07-24T09:43:42Z</time>
      </trkpt>
      <trkpt lat="45.49311" lon="6.74436">
        <ele>2514.8</ele>
        <time>2010-07-24T09:43:45Z</time>
      </trkpt>
      <trkpt lat="45.49313" lon="6.74431">
        <ele>2514.2</ele>
        <time>2010-07-24T09:43:46Z</time>
      </trkpt>
      <trkpt lat="45.49324" lon="6.74415">
        <ele>2512</ele>
        <time>2010-07-24T09:43:50Z</time>
      </trkpt>
      <trkpt lat="45.49333" lon="6.74405">
        <ele>2510.2</ele>
        <time>2010-07-24T09:43:53Z</time>
      </trkpt>
      <trkpt lat="45.4934" lon="6.74399">
        <ele>2509</ele>
        <time>2010-07-24T09:43:55Z</time>
      </trkpt>
      <trkpt lat="45.49358" lon="6.74388">
        <ele>2506.2</ele>
        <time>2010-07-24T09:44:00Z</time>
      </trkpt>
      <trkpt lat="45.49374" lon="6.74373">
        <ele>2503.2</ele>
        <time>2010-07-24T09:44:05Z</time>
      </trkpt>
      <trkpt lat="45.4939" lon="6.74356">
        <ele>2500.4</ele>
        <time>2010-07-24T09:44:10Z</time>
      </trkpt>
      <trkpt lat="45.49407" lon="6.74341">
        <ele>2497.6</ele>
        <time>2010-07-24T09:44:15Z</time>
      </trkpt>
      <trkpt lat="45.49424" lon="6.74325">
        <ele>2494.6</ele>
        <time>2010-07-24T09:44:20Z</time>
      </trkpt>
      <trkpt lat="45.49432" lon="6.7432">
        <ele>2493.4</ele>
        <time>2010-07-24T09:44:22Z</time>
      </trkpt>
      <trkpt lat="45.49444" lon="6.74312">
        <ele>2491.8</ele>
        <time>2010-07-24T09:44:25Z</time>
      </trkpt>
      <trkpt lat="45.49452" lon="6.74307">
        <ele>2490.6</ele>
        <time>2010-07-24T09:44:27Z</time>
      </trkpt>
      <trkpt lat="45.49463" lon="6.74298">
        <ele>2488.8</ele>
        <time>2010-07-24T09:44:30Z</time>
      </trkpt>
      <trkpt lat="45.49466" lon="6.74296">
        <ele>2488.2</ele>
        <time>2010-07-24T09:44:31Z</time>
      </trkpt>
      <trkpt lat="45.49481" lon="6.74286">
        <ele>2485.6</ele>
        <time>2010-07-24T09:44:35Z</time>
      </trkpt>
      <trkpt lat="45.49498" lon="6.74276">
        <ele>2482</ele>
        <time>2010-07-24T09:44:41Z</time>
      </trkpt>
      <trkpt lat="45.49486" lon="6.74257">
        <ele>2478</ele>
        <time>2010-07-24T09:44:47Z</time>
      </trkpt>
      <trkpt lat="45.49469" lon="6.74244">
        <ele>2475</ele>
        <time>2010-07-24T09:44:52Z</time>
      </trkpt>
      <trkpt lat="45.49453" lon="6.74231">
        <ele>2471.8</ele>
        <time>2010-07-24T09:44:57Z</time>
      </trkpt>
      <trkpt lat="45.49448" lon="6.74226">
        <ele>2470.6</ele>
        <time>2010-07-24T09:44:59Z</time>
      </trkpt>
      <trkpt lat="45.49454" lon="6.74213">
        <ele>2468.2</ele>
        <time>2010-07-24T09:45:03Z</time>
      </trkpt>
      <trkpt lat="45.49462" lon="6.74211">
        <ele>2466.8</ele>
        <time>2010-07-24T09:45:05Z</time>
      </trkpt>
      <trkpt lat="45.49472" lon="6.74208">
        <ele>2465</ele>
        <time>2010-07-24T09:45:08Z</time>
      </trkpt>
      <trkpt lat="45.49491" lon="6.74204">
        <ele>2461.6</ele>
        <time>2010-07-24T09:45:13Z</time>
      </trkpt>
      <trkpt lat="45.49511" lon="6.74197">
        <ele>2458.4</ele>
        <time>2010-07-24T09:45:18Z</time>
      </trkpt>
      <trkpt lat="45.49528" lon="6.74187">
        <ele>2455</ele>
        <time>2010-07-24T09:45:23Z</time>
      </trkpt>
      <trkpt lat="45.49546" lon="6.74175">
        <ele>2451.4</ele>
        <time>2010-07-24T09:45:28Z</time>
      </trkpt>
      <trkpt lat="45.49567" lon="6.74173">
        <ele>2447.8</ele>
        <time>2010-07-24T09:45:33Z</time>
      </trkpt>
      <trkpt lat="45.49579" lon="6.7417">
        <ele>2445.6</ele>
        <time>2010-07-24T09:45:36Z</time>
      </trkpt>
      <trkpt lat="45.49587" lon="6.74168">
        <ele>2444.2</ele>
        <time>2010-07-24T09:45:38Z</time>
      </trkpt>
      <trkpt lat="45.49606" lon="6.74166">
        <ele>2440.4</ele>
        <time>2010-07-24T09:45:43Z</time>
      </trkpt>
      <trkpt lat="45.49611" lon="6.74166">
        <ele>2439.6</ele>
        <time>2010-07-24T09:45:44Z</time>
      </trkpt>
      <trkpt lat="45.49615" lon="6.74165">
        <ele>2439</ele>
        <time>2010-07-24T09:45:45Z</time>
      </trkpt>
      <trkpt lat="45.49624" lon="6.74162">
        <ele>2437.4</ele>
        <time>2010-07-24T09:45:47Z</time>
      </trkpt>
      <trkpt lat="45.49642" lon="6.74158">
        <ele>2434.4</ele>
        <time>2010-07-24T09:45:51Z</time>
      </trkpt>
      <trkpt lat="45.49646" lon="6.74158">
        <ele>2433.8</ele>
        <time>2010-07-24T09:45:52Z</time>
      </trkpt>
      <trkpt lat="45.49668" lon="6.74156">
        <ele>2430</ele>
        <time>2010-07-24T09:45:57Z</time>
      </trkpt>
      <trkpt lat="45.49671" lon="6.74155">
        <ele>2429.2</ele>
        <time>2010-07-24T09:45:58Z</time>
      </trkpt>
      <trkpt lat="45.49687" lon="6.74149">
        <ele>2426.2</ele>
        <time>2010-07-24T09:46:02Z</time>
      </trkpt>
      <trkpt lat="45.49691" lon="6.74148">
        <ele>2425.6</ele>
        <time>2010-07-24T09:46:03Z</time>
      </trkpt>
      <trkpt lat="45.49707" lon="6.74147">
        <ele>2422.6</ele>
        <time>2010-07-24T09:46:07Z</time>
      </trkpt>
      <trkpt lat="45.49726" lon="6.74149">
        <ele>2419.2</ele>
        <time>2010-07-24T09:46:12Z</time>
      </trkpt>
      <trkpt lat="45.49744" lon="6.74158">
        <ele>2415.6</ele>
        <time>2010-07-24T09:46:17Z</time>
      </trkpt>
      <trkpt lat="45.49764" lon="6.74162">
        <ele>2411.2</ele>
        <time>2010-07-24T09:46:23Z</time>
      </trkpt>
      <trkpt lat="45.49766" lon="6.74162">
        <ele>2410.6</ele>
        <time>2010-07-24T09:46:24Z</time>
      </trkpt>
      <trkpt lat="45.49781" lon="6.74167">
        <ele>2406.2</ele>
        <time>2010-07-24T09:46:30Z</time>
      </trkpt>
      <trkpt lat="45.49793" lon="6.74172">
        <ele>2403.2</ele>
        <time>2010-07-24T09:46:34Z</time>
      </trkpt>
      <trkpt lat="45.49799" lon="6.74175">
        <ele>2401.8</ele>
        <time>2010-07-24T09:46:36Z</time>
      </trkpt>
      <trkpt lat="45.49817" lon="6.74187">
        <ele>2397.2</ele>
        <time>2010-07-24T09:46:42Z</time>
      </trkpt>
      <trkpt lat="45.49834" lon="6.74197">
        <ele>2392.6</ele>
        <time>2010-07-24T09:46:48Z</time>
      </trkpt>
      <trkpt lat="45.49854" lon="6.74202">
        <ele>2386</ele>
        <time>2010-07-24T09:46:56Z</time>
      </trkpt>
      <trkpt lat="45.49871" lon="6.74191">
        <ele>2381.8</ele>
        <time>2010-07-24T09:47:01Z</time>
      </trkpt>
      <trkpt lat="45.49889" lon="6.74175">
        <ele>2376.8</ele>
        <time>2010-07-24T09:47:07Z</time>
      </trkpt>
      <trkpt lat="45.49902" lon="6.74153">
        <ele>2372.6</ele>
        <time>2010-07-24T09:47:12Z</time>
      </trkpt>
      <trkpt lat="45.49908" lon="6.74126">
        <ele>2367.8</ele>
        <time>2010-07-24T09:47:18Z</time>
      </trkpt>
      <trkpt lat="45.4991" lon="6.74121">
        <ele>2367</ele>
        <time>2010-07-24T09:47:19Z</time>
      </trkpt>
      <trkpt lat="45.49924" lon="6.74111">
        <ele>2363.2</ele>
        <time>2010-07-24T09:47:24Z</time>
      </trkpt>
      <trkpt lat="45.49943" lon="6.74103">
        <ele>2359.6</ele>
        <time>2010-07-24T09:47:29Z</time>
      </trkpt>
      <trkpt lat="45.49959" lon="6.74092">
        <ele>2356.2</ele>
        <time>2010-07-24T09:47:34Z</time>
      </trkpt>
      <trkpt lat="45.49976" lon="6.7408">
        <ele>2352.8</ele>
        <time>2010-07-24T09:47:39Z</time>
      </trkpt>
      <trkpt lat="45.49992" lon="6.7407">
        <ele>2349.4</ele>
        <time>2010-07-24T09:47:44Z</time>
      </trkpt>
      <trkpt lat="45.50009" lon="6.74058">
        <ele>2346</ele>
        <time>2010-07-24T09:47:49Z</time>
      </trkpt>
      <trkpt lat="45.50017" lon="6.74042">
        <ele>2342.8</ele>
        <time>2010-07-24T09:47:54Z</time>
      </trkpt>
      <trkpt lat="45.50022" lon="6.74037">
        <ele>2340.8</ele>
        <time>2010-07-24T09:47:57Z</time>
      </trkpt>
      <trkpt lat="45.50032" lon="6.7404">
        <ele>2338</ele>
        <time>2010-07-24T09:48:01Z</time>
      </trkpt>
      <trkpt lat="45.50041" lon="6.74039">
        <ele>2336</ele>
        <time>2010-07-24T09:48:04Z</time>
      </trkpt>
      <trkpt lat="45.5006" lon="6.74035">
        <ele>2332.8</ele>
        <time>2010-07-24T09:48:09Z</time>
      </trkpt>
      <trkpt lat="45.50079" lon="6.74032">
        <ele>2328.8</ele>
        <time>2010-07-24T09:48:15Z</time>
      </trkpt>
      <trkpt lat="45.50089" lon="6.7403">
        <ele>2326.2</ele>
        <time>2010-07-24T09:48:19Z</time>
      </trkpt>
      <trkpt lat="45.50098" lon="6.74025">
        <ele>2323.6</ele>
        <time>2010-07-24T09:48:23Z</time>
      </trkpt>
      <trkpt lat="45.50107" lon="6.74021">
        <ele>2321.6</ele>
        <time>2010-07-24T09:48:26Z</time>
      </trkpt>
      <trkpt lat="45.50117" lon="6.74015">
        <ele>2319.6</ele>
        <time>2010-07-24T09:48:29Z</time>
      </trkpt>
      <trkpt lat="45.5013" lon="6.74005">
        <ele>2316.8</ele>
        <time>2010-07-24T09:48:33Z</time>
      </trkpt>
      <trkpt lat="45.50132" lon="6.74001">
        <ele>2316</ele>
        <time>2010-07-24T09:48:34Z</time>
      </trkpt>
      <trkpt lat="45.5014" lon="6.73982">
        <ele>2312.6</ele>
        <time>2010-07-24T09:48:39Z</time>
      </trkpt>
      <trkpt lat="45.50143" lon="6.73978">
        <ele>2311.8</ele>
        <time>2010-07-24T09:48:40Z</time>
      </trkpt>
      <trkpt lat="45.50158" lon="6.73962">
        <ele>2307.6</ele>
        <time>2010-07-24T09:48:46Z</time>
      </trkpt>
      <trkpt lat="45.50176" lon="6.73959">
        <ele>2304</ele>
        <time>2010-07-24T09:48:51Z</time>
      </trkpt>
      <trkpt lat="45.50195" lon="6.73958">
        <ele>2300.4</ele>
        <time>2010-07-24T09:48:56Z</time>
      </trkpt>
      <trkpt lat="45.50201" lon="6.73958">
        <ele>2298.8</ele>
        <time>2010-07-24T09:48:58Z</time>
      </trkpt>
      <trkpt lat="45.50212" lon="6.73958">
        <ele>2296</ele>
        <time>2010-07-24T09:49:02Z</time>
      </trkpt>
      <trkpt lat="45.5023" lon="6.73957">
        <ele>2291.8</ele>
        <time>2010-07-24T09:49:08Z</time>
      </trkpt>
      <trkpt lat="45.50246" lon="6.73944">
        <ele>2287.6</ele>
        <time>2010-07-24T09:49:14Z</time>
      </trkpt>
      <trkpt lat="45.50259" lon="6.73939">
        <ele>2284.2</ele>
        <time>2010-07-24T09:49:19Z</time>
      </trkpt>
      <trkpt lat="45.50265" lon="6.73963">
        <ele>2280.8</ele>
        <time>2010-07-24T09:49:24Z</time>
      </trkpt>
      <trkpt lat="45.50265" lon="6.73968">
        <ele>2280.2</ele>
        <time>2010-07-24T09:49:25Z</time>
      </trkpt>
      <trkpt lat="45.50265" lon="6.73971">
        <ele>2278.8</ele>
        <time>2010-07-24T09:49:27Z</time>
      </trkpt>
      <trkpt lat="45.50268" lon="6.73994">
        <ele>2275</ele>
        <time>2010-07-24T09:49:33Z</time>
      </trkpt>
      <trkpt lat="45.50281" lon="6.73981">
        <ele>2271.2</ele>
        <time>2010-07-24T09:49:39Z</time>
      </trkpt>
      <trkpt lat="45.50286" lon="6.73974">
        <ele>2269.8</ele>
        <time>2010-07-24T09:49:41Z</time>
      </trkpt>
      <trkpt lat="45.50288" lon="6.73971">
        <ele>2269.2</ele>
        <time>2010-07-24T09:49:42Z</time>
      </trkpt>
      <trkpt lat="45.50293" lon="6.73962">
        <ele>2268</ele>
        <time>2010-07-24T09:49:44Z</time>
      </trkpt>
      <trkpt lat="45.50297" lon="6.73955">
        <ele>2266.6</ele>
        <time>2010-07-24T09:49:46Z</time>
      </trkpt>
      <trkpt lat="45.50304" lon="6.73942">
        <ele>2264</ele>
        <time>2010-07-24T09:49:50Z</time>
      </trkpt>
      <trkpt lat="45.5031" lon="6.73965">
        <ele>2260.8</ele>
        <time>2010-07-24T09:49:55Z</time>
      </trkpt>
      <trkpt lat="45.50309" lon="6.7397">
        <ele>2259.6</ele>
        <time>2010-07-24T09:49:57Z</time>
      </trkpt>
      <trkpt lat="45.50311" lon="6.73972">
        <ele>2258.8</ele>
        <time>2010-07-24T09:49:58Z</time>
      </trkpt>
      <trkpt lat="45.50319" lon="6.73963">
        <ele>2255.6</ele>
        <time>2010-07-24T09:50:03Z</time>
      </trkpt>
      <trkpt lat="45.50329" lon="6.73938">
        <ele>2251</ele>
        <time>2010-07-24T09:50:10Z</time>
      </trkpt>
      <trkpt lat="45.50337" lon="6.7391">
        <ele>2245.8</ele>
        <time>2010-07-24T09:50:18Z</time>
      </trkpt>
      <trkpt lat="45.5034" lon="6.73885">
        <ele>2242.6</ele>
        <time>2010-07-24T09:50:23Z</time>
      </trkpt>
      <trkpt lat="45.50346" lon="6.73864">
        <ele>2239.2</ele>
        <time>2010-07-24T09:50:28Z</time>
      </trkpt>
      <trkpt lat="45.50349" lon="6.73863">
        <ele>2238.4</ele>
        <time>2010-07-24T09:50:29Z</time>
      </trkpt>
      <trkpt lat="45.50368" lon="6.73861">
        <ele>2234.4</ele>
        <time>2010-07-24T09:50:35Z</time>
      </trkpt>
      <trkpt lat="45.50386" lon="6.73874">
        <ele>2229.6</ele>
        <time>2010-07-24T09:50:42Z</time>
      </trkpt>
      <trkpt lat="45.5039" lon="6.73874">
        <ele>2228.8</ele>
        <time>2010-07-24T09:50:43Z</time>
      </trkpt>
      <trkpt lat="45.50406" lon="6.73867">
        <ele>2225.4</ele>
        <time>2010-07-24T09:50:48Z</time>
      </trkpt>
      <trkpt lat="45.50419" lon="6.73861">
        <ele>2222.6</ele>
        <time>2010-07-24T09:50:52Z</time>
      </trkpt>
      <trkpt lat="45.50424" lon="6.73866">
        <ele>2221.2</ele>
        <time>2010-07-24T09:50:54Z</time>
      </trkpt>
      <trkpt lat="45.50425" lon="6.73878">
        <ele>2219.2</ele>
        <time>2010-07-24T09:50:57Z</time>
      </trkpt>
      <trkpt lat="45.50425" lon="6.73887">
        <ele>2216</ele>
        <time>2010-07-24T09:51:02Z</time>
      </trkpt>
      <trkpt lat="45.50435" lon="6.73881">
        <ele>2213.2</ele>
        <time>2010-07-24T09:51:06Z</time>
      </trkpt>
      <trkpt lat="45.5044" lon="6.73878">
        <ele>2211.8</ele>
        <time>2010-07-24T09:51:08Z</time>
      </trkpt>
      <trkpt lat="45.50442" lon="6.73875">
        <ele>2211.2</ele>
        <time>2010-07-24T09:51:09Z</time>
      </trkpt>
      <trkpt lat="45.50456" lon="6.73858">
        <ele>2206.4</ele>
        <time>2010-07-24T09:51:16Z</time>
      </trkpt>
      <trkpt lat="45.5046" lon="6.73854">
        <ele>2205.2</ele>
        <time>2010-07-24T09:51:18Z</time>
      </trkpt>
      <trkpt lat="45.50473" lon="6.73845">
        <ele>2201.8</ele>
        <time>2010-07-24T09:51:23Z</time>
      </trkpt>
      <trkpt lat="45.50481" lon="6.73827">
        <ele>2198.4</ele>
        <time>2010-07-24T09:51:28Z</time>
      </trkpt>
      <trkpt lat="45.50486" lon="6.73831">
        <ele>2197.2</ele>
        <time>2010-07-24T09:51:30Z</time>
      </trkpt>
      <trkpt lat="45.50489" lon="6.73838">
        <ele>2195.8</ele>
        <time>2010-07-24T09:51:32Z</time>
      </trkpt>
      <trkpt lat="45.5049" lon="6.73842">
        <ele>2194.6</ele>
        <time>2010-07-24T09:51:34Z</time>
      </trkpt>
      <trkpt lat="45.50498" lon="6.73835">
        <ele>2192</ele>
        <time>2010-07-24T09:51:38Z</time>
      </trkpt>
      <trkpt lat="45.50504" lon="6.73817">
        <ele>2189.4</ele>
        <time>2010-07-24T09:51:42Z</time>
      </trkpt>
      <trkpt lat="45.50507" lon="6.73809">
        <ele>2188.2</ele>
        <time>2010-07-24T09:51:44Z</time>
      </trkpt>
      <trkpt lat="45.50511" lon="6.73811">
        <ele>2186.8</ele>
        <time>2010-07-24T09:51:46Z</time>
      </trkpt>
      <trkpt lat="45.50519" lon="6.73817">
        <ele>2183.6</ele>
        <time>2010-07-24T09:51:51Z</time>
      </trkpt>
      <trkpt lat="45.50524" lon="6.73824">
        <ele>2181.6</ele>
        <time>2010-07-24T09:51:54Z</time>
      </trkpt>
      <trkpt lat="45.50527" lon="6.73838">
        <ele>2179.8</ele>
        <time>2010-07-24T09:51:57Z</time>
      </trkpt>
      <trkpt lat="45.50534" lon="6.73852">
        <ele>2177.2</ele>
        <time>2010-07-24T09:52:01Z</time>
      </trkpt>
      <trkpt lat="45.5054" lon="6.73849">
        <ele>2175.8</ele>
        <time>2010-07-24T09:52:03Z</time>
      </trkpt>
      <trkpt lat="45.50545" lon="6.73834">
        <ele>2173.2</ele>
        <time>2010-07-24T09:52:07Z</time>
      </trkpt>
      <trkpt lat="45.50548" lon="6.73827">
        <ele>2172</ele>
        <time>2010-07-24T09:52:09Z</time>
      </trkpt>
      <trkpt lat="45.50549" lon="6.73828">
        <ele>2171.4</ele>
        <time>2010-07-24T09:52:10Z</time>
      </trkpt>
      <trkpt lat="45.50561" lon="6.73832">
        <ele>2166.2</ele>
        <time>2010-07-24T09:52:18Z</time>
      </trkpt>
      <trkpt lat="45.50565" lon="6.73835">
        <ele>2165</ele>
        <time>2010-07-24T09:52:20Z</time>
      </trkpt>
      <trkpt lat="45.50576" lon="6.73847">
        <ele>2161.8</ele>
        <time>2010-07-24T09:52:25Z</time>
      </trkpt>
      <trkpt lat="45.50582" lon="6.73853">
        <ele>2159.8</ele>
        <time>2010-07-24T09:52:28Z</time>
      </trkpt>
      <trkpt lat="45.50588" lon="6.73843">
        <ele>2157</ele>
        <time>2010-07-24T09:52:32Z</time>
      </trkpt>
      <trkpt lat="45.50591" lon="6.73824">
        <ele>2154.4</ele>
        <time>2010-07-24T09:52:36Z</time>
      </trkpt>
      <trkpt lat="45.50593" lon="6.73821">
        <ele>2153.6</ele>
        <time>2010-07-24T09:52:37Z</time>
      </trkpt>
      <trkpt lat="45.50597" lon="6.7382">
        <ele>2152.4</ele>
        <time>2010-07-24T09:52:39Z</time>
      </trkpt>
      <trkpt lat="45.50608" lon="6.73839">
        <ele>2148.2</ele>
        <time>2010-07-24T09:52:45Z</time>
      </trkpt>
      <trkpt lat="45.50616" lon="6.73828">
        <ele>2144.8</ele>
        <time>2010-07-24T09:52:50Z</time>
      </trkpt>
      <trkpt lat="45.50619" lon="6.73819">
        <ele>2143.6</ele>
        <time>2010-07-24T09:52:52Z</time>
      </trkpt>
      <trkpt lat="45.50621" lon="6.73807">
        <ele>2141.4</ele>
        <time>2010-07-24T09:52:55Z</time>
      </trkpt>
      <trkpt lat="45.50631" lon="6.73813">
        <ele>2138.8</ele>
        <time>2010-07-24T09:52:59Z</time>
      </trkpt>
      <trkpt lat="45.50643" lon="6.73826">
        <ele>2134.2</ele>
        <time>2010-07-24T09:53:06Z</time>
      </trkpt>
      <trkpt lat="45.50643" lon="6.73804">
        <ele>2130.8</ele>
        <time>2010-07-24T09:53:11Z</time>
      </trkpt>
      <trkpt lat="45.50642" lon="6.738">
        <ele>2130.2</ele>
        <time>2010-07-24T09:53:12Z</time>
      </trkpt>
      <trkpt lat="45.50642" lon="6.73786">
        <ele>2128.2</ele>
        <time>2010-07-24T09:53:15Z</time>
      </trkpt>
      <trkpt lat="45.50646" lon="6.73774">
        <ele>2126.2</ele>
        <time>2010-07-24T09:53:18Z</time>
      </trkpt>
      <trkpt lat="45.50642" lon="6.73761">
        <ele>2124</ele>
        <time>2010-07-24T09:53:21Z</time>
      </trkpt>
      <trkpt lat="45.50636" lon="6.73754">
        <ele>2122.8</ele>
        <time>2010-07-24T09:53:23Z</time>
      </trkpt>
      <trkpt lat="45.50623" lon="6.73736">
        <ele>2119.2</ele>
        <time>2010-07-24T09:53:28Z</time>
      </trkpt>
      <trkpt lat="45.5062" lon="6.73731">
        <ele>2117.8</ele>
        <time>2010-07-24T09:53:30Z</time>
      </trkpt>
      <trkpt lat="45.50616" lon="6.73728">
        <ele>2116</ele>
        <time>2010-07-24T09:53:33Z</time>
      </trkpt>
      <trkpt lat="45.50611" lon="6.73716">
        <ele>2112.4</ele>
        <time>2010-07-24T09:53:38Z</time>
      </trkpt>
      <trkpt lat="45.50611" lon="6.7371">
        <ele>2111.2</ele>
        <time>2010-07-24T09:53:40Z</time>
      </trkpt>
      <trkpt lat="45.50617" lon="6.73699">
        <ele>2106.4</ele>
        <time>2010-07-24T09:53:47Z</time>
      </trkpt>
      <trkpt lat="45.50619" lon="6.73669">
        <ele>2102.4</ele>
        <time>2010-07-24T09:53:53Z</time>
      </trkpt>
      <trkpt lat="45.50622" lon="6.73639">
        <ele>2098.4</ele>
        <time>2010-07-24T09:53:59Z</time>
      </trkpt>
      <trkpt lat="45.50636" lon="6.73618">
        <ele>2095</ele>
        <time>2010-07-24T09:54:04Z</time>
      </trkpt>
      <trkpt lat="45.50642" lon="6.73591">
        <ele>2091</ele>
        <time>2010-07-24T09:54:10Z</time>
      </trkpt>
      <trkpt lat="45.50646" lon="6.73562">
        <ele>2087</ele>
        <time>2010-07-24T09:54:16Z</time>
      </trkpt>
      <trkpt lat="45.50653" lon="6.73538">
        <ele>2083.2</ele>
        <time>2010-07-24T09:54:22Z</time>
      </trkpt>
      <trkpt lat="45.50658" lon="6.73518">
        <ele>2080.4</ele>
        <time>2010-07-24T09:54:27Z</time>
      </trkpt>
      <trkpt lat="45.50659" lon="6.73514">
        <ele>2079.8</ele>
        <time>2010-07-24T09:54:28Z</time>
      </trkpt>
      <trkpt lat="45.5067" lon="6.73492">
        <ele>2077</ele>
        <time>2010-07-24T09:54:33Z</time>
      </trkpt>
      <trkpt lat="45.50683" lon="6.73477">
        <ele>2074.6</ele>
        <time>2010-07-24T09:54:38Z</time>
      </trkpt>
      <trkpt lat="45.50685" lon="6.73474">
        <ele>2074.2</ele>
        <time>2010-07-24T09:54:39Z</time>
      </trkpt>
      <trkpt lat="45.50695" lon="6.73452">
        <ele>2071.4</ele>
        <time>2010-07-24T09:54:45Z</time>
      </trkpt>
      <trkpt lat="45.50706" lon="6.73438">
        <ele>2069.2</ele>
        <time>2010-07-24T09:54:50Z</time>
      </trkpt>
      <trkpt lat="45.50709" lon="6.73438">
        <ele>2068.8</ele>
        <time>2010-07-24T09:54:51Z</time>
      </trkpt>
      <trkpt lat="45.50728" lon="6.73426">
        <ele>2065.8</ele>
        <time>2010-07-24T09:54:58Z</time>
      </trkpt>
      <trkpt lat="45.50742" lon="6.7341">
        <ele>2063.4</ele>
        <time>2010-07-24T09:55:04Z</time>
      </trkpt>
      <trkpt lat="45.50757" lon="6.73389">
        <ele>2060.8</ele>
        <time>2010-07-24T09:55:11Z</time>
      </trkpt>
      <trkpt lat="45.50771" lon="6.73369">
        <ele>2058.2</ele>
        <time>2010-07-24T09:55:18Z</time>
      </trkpt>
      <trkpt lat="45.50781" lon="6.73349">
        <ele>2056.6</ele>
        <time>2010-07-24T09:55:23Z</time>
      </trkpt>
      <trkpt lat="45.50783" lon="6.73346">
        <ele>2056.4</ele>
        <time>2010-07-24T09:55:24Z</time>
      </trkpt>
      <trkpt lat="45.50797" lon="6.73332">
        <ele>2053.6</ele>
        <time>2010-07-24T09:55:34Z</time>
      </trkpt>
      <trkpt lat="45.50811" lon="6.73312">
        <ele>2051.6</ele>
        <time>2010-07-24T09:55:43Z</time>
      </trkpt>
      <trkpt lat="45.50816" lon="6.73303">
        <ele>2051</ele>
        <time>2010-07-24T09:55:46Z</time>
      </trkpt>
      <trkpt lat="45.50823" lon="6.73292">
        <ele>2050</ele>
        <time>2010-07-24T09:55:50Z</time>
      </trkpt>
      <trkpt lat="45.50832" lon="6.73269">
        <ele>2048.8</ele>
        <time>2010-07-24T09:55:57Z</time>
      </trkpt>
      <trkpt lat="45.50846" lon="6.73249">
        <ele>2047.4</ele>
        <time>2010-07-24T09:56:05Z</time>
      </trkpt>
      <trkpt lat="45.50864" lon="6.73237">
        <ele>2046</ele>
        <time>2010-07-24T09:56:14Z</time>
      </trkpt>
      <trkpt lat="45.50882" lon="6.73228">
        <ele>2044.8</ele>
        <time>2010-07-24T09:56:25Z</time>
      </trkpt>
      <trkpt lat="45.50883" lon="6.73227">
        <ele>2044.8</ele>
        <time>2010-07-24T09:56:26Z</time>
      </trkpt>
      <trkpt lat="45.5089" lon="6.73224">
        <ele>2044.4</ele>
        <time>2010-07-24T09:56:30Z</time>
      </trkpt>
      <trkpt lat="45.509" lon="6.73219">
        <ele>2044</ele>
        <time>2010-07-24T09:56:34Z</time>
      </trkpt>
      <trkpt lat="45.50916" lon="6.73207">
        <ele>2043.4</ele>
        <time>2010-07-24T09:56:41Z</time>
      </trkpt>
      <trkpt lat="45.50935" lon="6.73198">
        <ele>2042.8</ele>
        <time>2010-07-24T09:56:47Z</time>
      </trkpt>
      <trkpt lat="45.50955" lon="6.73189">
        <ele>2042.2</ele>
        <time>2010-07-24T09:56:54Z</time>
      </trkpt>
      <trkpt lat="45.50975" lon="6.73186">
        <ele>2041.6</ele>
        <time>2010-07-24T09:57:01Z</time>
      </trkpt>
      <trkpt lat="45.50994" lon="6.7318">
        <ele>2041.2</ele>
        <time>2010-07-24T09:57:08Z</time>
      </trkpt>
      <trkpt lat="45.51011" lon="6.73171">
        <ele>2041</ele>
        <time>2010-07-24T09:57:16Z</time>
      </trkpt>
      <trkpt lat="45.51018" lon="6.73169">
        <ele>2040.8</ele>
        <time>2010-07-24T09:57:20Z</time>
      </trkpt>
      <trkpt lat="45.51019" lon="6.73167">
        <ele>2040.8</ele>
        <time>2010-07-24T09:57:21Z</time>
      </trkpt>
      <trkpt lat="45.51022" lon="6.73163">
        <ele>2040.6</ele>
        <time>2010-07-24T09:57:23Z</time>
      </trkpt>
      <trkpt lat="45.51028" lon="6.73162">
        <ele>2040.6</ele>
        <time>2010-07-24T09:57:25Z</time>
      </trkpt>
      <trkpt lat="45.51046" lon="6.7317">
        <ele>2040.4</ele>
        <time>2010-07-24T09:57:31Z</time>
      </trkpt>
      <trkpt lat="45.51051" lon="6.73169">
        <ele>2040.2</ele>
        <time>2010-07-24T09:57:33Z</time>
      </trkpt>
      <trkpt lat="45.51063" lon="6.73165">
        <ele>2040</ele>
        <time>2010-07-24T09:57:40Z</time>
      </trkpt>
      <trkpt lat="45.51066" lon="6.73167">
        <ele>2040</ele>
        <time>2010-07-24T09:57:42Z</time>
      </trkpt>
      <trkpt lat="45.5107" lon="6.73169">
        <ele>2040</ele>
        <time>2010-07-24T09:57:44Z</time>
      </trkpt>
      <trkpt lat="45.51084" lon="6.73172">
        <ele>2039.8</ele>
        <time>2010-07-24T09:57:49Z</time>
      </trkpt>
      <trkpt lat="45.51102" lon="6.73165">
        <ele>2039.8</ele>
        <time>2010-07-24T09:57:58Z</time>
      </trkpt>
      <trkpt lat="45.51115" lon="6.73153">
        <ele>2039.8</ele>
        <time>2010-07-24T09:58:06Z</time>
      </trkpt>
      <trkpt lat="45.51118" lon="6.73152">
        <ele>2039.8</ele>
        <time>2010-07-24T09:58:08Z</time>
      </trkpt>
      <trkpt lat="45.51136" lon="6.73144">
        <ele>2040</ele>
        <time>2010-07-24T09:58:14Z</time>
      </trkpt>
      <trkpt lat="45.51153" lon="6.73137">
        <ele>2040</ele>
        <time>2010-07-24T09:58:20Z</time>
      </trkpt>
      <trkpt lat="45.51173" lon="6.73128">
        <ele>2039.8</ele>
        <time>2010-07-24T09:58:28Z</time>
      </trkpt>
      <trkpt lat="45.51184" lon="6.73127">
        <ele>2039.6</ele>
        <time>2010-07-24T09:58:35Z</time>
      </trkpt>
      <trkpt lat="45.51187" lon="6.73131">
        <ele>2039.4</ele>
        <time>2010-07-24T09:58:37Z</time>
      </trkpt>
      <trkpt lat="45.51189" lon="6.73131">
        <ele>2039.4</ele>
        <time>2010-07-24T09:58:38Z</time>
      </trkpt>
      <trkpt lat="45.51209" lon="6.73126">
        <ele>2039.2</ele>
        <time>2010-07-24T09:58:44Z</time>
      </trkpt>
      <trkpt lat="45.51219" lon="6.73114">
        <ele>2039</ele>
        <time>2010-07-24T09:58:49Z</time>
      </trkpt>
      <trkpt lat="45.51225" lon="6.73112">
        <ele>2038.8</ele>
        <time>2010-07-24T09:58:51Z</time>
      </trkpt>
      <trkpt lat="45.51244" lon="6.73105">
        <ele>2038.6</ele>
        <time>2010-07-24T09:58:57Z</time>
      </trkpt>
      <trkpt lat="45.51262" lon="6.73103">
        <ele>2038.2</ele>
        <time>2010-07-24T09:59:03Z</time>
      </trkpt>
      <trkpt lat="45.51278" lon="6.73094">
        <ele>2037.8</ele>
        <time>2010-07-24T09:59:09Z</time>
      </trkpt>
      <trkpt lat="45.51286" lon="6.73085">
        <ele>2037.6</ele>
        <time>2010-07-24T09:59:13Z</time>
      </trkpt>
      <trkpt lat="45.51292" lon="6.73079">
        <ele>2037.4</ele>
        <time>2010-07-24T09:59:16Z</time>
      </trkpt>
      <trkpt lat="45.51294" lon="6.73079">
        <ele>2037.4</ele>
        <time>2010-07-24T09:59:17Z</time>
      </trkpt>
      <trkpt lat="45.51313" lon="6.7308">
        <ele>2037</ele>
        <time>2010-07-24T09:59:25Z</time>
      </trkpt>
      <trkpt lat="45.5133" lon="6.73073">
        <ele>2036.8</ele>
        <time>2010-07-24T09:59:33Z</time>
      </trkpt>
      <trkpt lat="45.51341" lon="6.7307">
        <ele>2036.4</ele>
        <time>2010-07-24T09:59:40Z</time>
      </trkpt>
      <trkpt lat="45.51345" lon="6.7308">
        <ele>2036.4</ele>
        <time>2010-07-24T09:59:45Z</time>
      </trkpt>
      <trkpt lat="45.51348" lon="6.73082">
        <ele>2036.2</ele>
        <time>2010-07-24T09:59:48Z</time>
      </trkpt>
      <trkpt lat="45.51355" lon="6.73083">
        <ele>2036</ele>
        <time>2010-07-24T09:59:52Z</time>
      </trkpt>
      <trkpt lat="45.51362" lon="6.73089">
        <ele>2035.8</ele>
        <time>2010-07-24T09:59:56Z</time>
      </trkpt>
      <trkpt lat="45.51376" lon="6.73094">
        <ele>2035.6</ele>
        <time>2010-07-24T10:00:02Z</time>
      </trkpt>
      <trkpt lat="45.51379" lon="6.73095">
        <ele>2035.6</ele>
        <time>2010-07-24T10:00:03Z</time>
      </trkpt>
      <trkpt lat="45.51385" lon="6.73098">
        <ele>2035.6</ele>
        <time>2010-07-24T10:00:06Z</time>
      </trkpt>
      <trkpt lat="45.51395" lon="6.73107">
        <ele>2035.6</ele>
        <time>2010-07-24T10:00:15Z</time>
      </trkpt>
      <trkpt lat="45.51396" lon="6.73108">
        <ele>2035.8</ele>
        <time>2010-07-24T10:00:16Z</time>
      </trkpt>
      <trkpt lat="45.51399" lon="6.7311">
        <ele>2036.2</ele>
        <time>2010-07-24T10:00:20Z</time>
      </trkpt>
      <trkpt lat="45.51401" lon="6.73106">
        <ele>2037</ele>
        <time>2010-07-24T10:00:26Z</time>
      </trkpt>
      <trkpt lat="45.51402" lon="6.73104">
        <ele>2037.2</ele>
        <time>2010-07-24T10:00:28Z</time>
      </trkpt>
      <trkpt lat="45.51404" lon="6.73096">
        <ele>2038.6</ele>
        <time>2010-07-24T10:00:36Z</time>
      </trkpt>
      <trkpt lat="45.51404" lon="6.73094">
        <ele>2039</ele>
        <time>2010-07-24T10:00:38Z</time>
      </trkpt>
      <trkpt lat="45.51422" lon="6.7309">
        <ele>2044.2</ele>
        <time>2010-07-24T10:01:01Z</time>
      </trkpt>
      <trkpt lat="45.51429" lon="6.73088">
        <ele>2046.2</ele>
        <time>2010-07-24T10:01:09Z</time>
      </trkpt>
      <trkpt lat="45.51435" lon="6.73087">
        <ele>2047.6</ele>
        <time>2010-07-24T10:01:15Z</time>
      </trkpt>
      <trkpt lat="45.5144" lon="6.73085">
        <ele>2048.4</ele>
        <time>2010-07-24T10:01:19Z</time>
      </trkpt>
      <trkpt lat="45.51442" lon="6.73086">
        <ele>2048.8</ele>
        <time>2010-07-24T10:01:21Z</time>
      </trkpt>
      <trkpt lat="45.51454" lon="6.7309">
        <ele>2052.4</ele>
        <time>2010-07-24T10:01:34Z</time>
      </trkpt>
      <trkpt lat="45.51457" lon="6.73089">
        <ele>2053</ele>
        <time>2010-07-24T10:01:37Z</time>
      </trkpt>
      <trkpt lat="45.5146" lon="6.73091">
        <ele>2054</ele>
        <time>2010-07-24T10:01:40Z</time>
      </trkpt>
      <trkpt lat="45.51474" lon="6.73097">
        <ele>2056</ele>
        <time>2010-07-24T10:01:48Z</time>
      </trkpt>
      <trkpt lat="45.51489" lon="6.73102">
        <ele>2058</ele>
        <time>2010-07-24T10:01:54Z</time>
      </trkpt>
      <trkpt lat="45.51492" lon="6.73102">
        <ele>2058.2</ele>
        <time>2010-07-24T10:01:55Z</time>
      </trkpt>
      <trkpt lat="45.5151" lon="6.73115">
        <ele>2060.2</ele>
        <time>2010-07-24T10:02:02Z</time>
      </trkpt>
      <trkpt lat="45.51528" lon="6.73118">
        <ele>2061.8</ele>
        <time>2010-07-24T10:02:08Z</time>
      </trkpt>
      <trkpt lat="45.51546" lon="6.73109">
        <ele>2063.2</ele>
        <time>2010-07-24T10:02:15Z</time>
      </trkpt>
      <trkpt lat="45.51565" lon="6.73106">
        <ele>2064.2</ele>
        <time>2010-07-24T10:02:21Z</time>
      </trkpt>
      <trkpt lat="45.51582" lon="6.73116">
        <ele>2065</ele>
        <time>2010-07-24T10:02:29Z</time>
      </trkpt>
      <trkpt lat="45.51597" lon="6.73129">
        <ele>2065.4</ele>
        <time>2010-07-24T10:02:35Z</time>
      </trkpt>
      <trkpt lat="45.51616" lon="6.73137">
        <ele>2065.6</ele>
        <time>2010-07-24T10:02:41Z</time>
      </trkpt>
      <trkpt lat="45.51633" lon="6.73141">
        <ele>2065.6</ele>
        <time>2010-07-24T10:02:48Z</time>
      </trkpt>
      <trkpt lat="45.51651" lon="6.73151">
        <ele>2065.4</ele>
        <time>2010-07-24T10:02:52Z</time>
      </trkpt>
      <trkpt lat="45.51664" lon="6.73167">
        <ele>2065.2</ele>
        <time>2010-07-24T10:02:57Z</time>
      </trkpt>
      <trkpt lat="45.51667" lon="6.73169">
        <ele>2065</ele>
        <time>2010-07-24T10:02:58Z</time>
      </trkpt>
      <trkpt lat="45.51676" lon="6.73175">
        <ele>2064.8</ele>
        <time>2010-07-24T10:03:01Z</time>
      </trkpt>
      <trkpt lat="45.51684" lon="6.73182">
        <ele>2064.6</ele>
        <time>2010-07-24T10:03:05Z</time>
      </trkpt>
      <trkpt lat="45.51702" lon="6.7318">
        <ele>2064.2</ele>
        <time>2010-07-24T10:03:11Z</time>
      </trkpt>
      <trkpt lat="45.51715" lon="6.73174">
        <ele>2063.8</ele>
        <time>2010-07-24T10:03:15Z</time>
      </trkpt>
      <trkpt lat="45.5172" lon="6.73169">
        <ele>2063.6</ele>
        <time>2010-07-24T10:03:17Z</time>
      </trkpt>
      <trkpt lat="45.51738" lon="6.73159">
        <ele>2062.6</ele>
        <time>2010-07-24T10:03:24Z</time>
      </trkpt>
      <trkpt lat="45.51745" lon="6.73158">
        <ele>2062.4</ele>
        <time>2010-07-24T10:03:27Z</time>
      </trkpt>
      <trkpt lat="45.51755" lon="6.73153">
        <ele>2061.6</ele>
        <time>2010-07-24T10:03:31Z</time>
      </trkpt>
      <trkpt lat="45.51757" lon="6.73152">
        <ele>2061.4</ele>
        <time>2010-07-24T10:03:32Z</time>
      </trkpt>
      <trkpt lat="45.51777" lon="6.73148">
        <ele>2060.4</ele>
        <time>2010-07-24T10:03:39Z</time>
      </trkpt>
      <trkpt lat="45.51784" lon="6.73151">
        <ele>2060.2</ele>
        <time>2010-07-24T10:03:42Z</time>
      </trkpt>
      <trkpt lat="45.51796" lon="6.73153">
        <ele>2059.8</ele>
        <time>2010-07-24T10:03:48Z</time>
      </trkpt>
      <trkpt lat="45.51813" lon="6.73151">
        <ele>2059.4</ele>
        <time>2010-07-24T10:03:55Z</time>
      </trkpt>
      <trkpt lat="45.51823" lon="6.73142">
        <ele>2059</ele>
        <time>2010-07-24T10:04:00Z</time>
      </trkpt>
      <trkpt lat="45.5183" lon="6.73143">
        <ele>2058.8</ele>
        <time>2010-07-24T10:04:03Z</time>
      </trkpt>
      <trkpt lat="45.5185" lon="6.73142">
        <ele>2058.4</ele>
        <time>2010-07-24T10:04:10Z</time>
      </trkpt>
      <trkpt lat="45.51868" lon="6.73142">
        <ele>2058</ele>
        <time>2010-07-24T10:04:15Z</time>
      </trkpt>
      <trkpt lat="45.51887" lon="6.73141">
        <ele>2057.6</ele>
        <time>2010-07-24T10:04:22Z</time>
      </trkpt>
      <trkpt lat="45.51903" lon="6.73135">
        <ele>2057.2</ele>
        <time>2010-07-24T10:04:31Z</time>
      </trkpt>
      <trkpt lat="45.51905" lon="6.73136">
        <ele>2057.2</ele>
        <time>2010-07-24T10:04:32Z</time>
      </trkpt>
      <trkpt lat="45.51913" lon="6.73137">
        <ele>2057.2</ele>
        <time>2010-07-24T10:04:37Z</time>
      </trkpt>
      <trkpt lat="45.51923" lon="6.73135">
        <ele>2057</ele>
        <time>2010-07-24T10:04:40Z</time>
      </trkpt>
      <trkpt lat="45.51926" lon="6.73133">
        <ele>2057</ele>
        <time>2010-07-24T10:04:41Z</time>
      </trkpt>
      <trkpt lat="45.51941" lon="6.73123">
        <ele>2056.6</ele>
        <time>2010-07-24T10:04:47Z</time>
      </trkpt>
      <trkpt lat="45.51945" lon="6.73123">
        <ele>2056.6</ele>
        <time>2010-07-24T10:04:48Z</time>
      </trkpt>
      <trkpt lat="45.5196" lon="6.73123">
        <ele>2056.4</ele>
        <time>2010-07-24T10:04:54Z</time>
      </trkpt>
      <trkpt lat="45.51977" lon="6.73119">
        <ele>2056.4</ele>
        <time>2010-07-24T10:05:01Z</time>
      </trkpt>
      <trkpt lat="45.51985" lon="6.73117">
        <ele>2056.2</ele>
        <time>2010-07-24T10:05:04Z</time>
      </trkpt>
      <trkpt lat="45.51995" lon="6.73111">
        <ele>2056.2</ele>
        <time>2010-07-24T10:05:08Z</time>
      </trkpt>
      <trkpt lat="45.52013" lon="6.73105">
        <ele>2056</ele>
        <time>2010-07-24T10:05:13Z</time>
      </trkpt>
      <trkpt lat="45.52032" lon="6.73113">
        <ele>2055.4</ele>
        <time>2010-07-24T10:05:20Z</time>
      </trkpt>
      <trkpt lat="45.52044" lon="6.73111">
        <ele>2055.2</ele>
        <time>2010-07-24T10:05:28Z</time>
      </trkpt>
      <trkpt lat="45.52046" lon="6.73105">
        <ele>2055</ele>
        <time>2010-07-24T10:05:30Z</time>
      </trkpt>
      <trkpt lat="45.52046" lon="6.73103">
        <ele>2055</ele>
        <time>2010-07-24T10:05:31Z</time>
      </trkpt>
      <trkpt lat="45.52048" lon="6.73094">
        <ele>2055</ele>
        <time>2010-07-24T10:05:34Z</time>
      </trkpt>
      <trkpt lat="45.52045" lon="6.73078">
        <ele>2054.8</ele>
        <time>2010-07-24T10:05:40Z</time>
      </trkpt>
      <trkpt lat="45.52045" lon="6.73072">
        <ele>2054.8</ele>
        <time>2010-07-24T10:05:42Z</time>
      </trkpt>
      <trkpt lat="45.52053" lon="6.73054">
        <ele>2054.8</ele>
        <time>2010-07-24T10:05:49Z</time>
      </trkpt>
      <trkpt lat="45.52054" lon="6.73039">
        <ele>2054.8</ele>
        <time>2010-07-24T10:05:55Z</time>
      </trkpt>
      <trkpt lat="45.52056" lon="6.73032">
        <ele>2055</ele>
        <time>2010-07-24T10:06:00Z</time>
      </trkpt>
      <trkpt lat="45.52058" lon="6.73031">
        <ele>2055.2</ele>
        <time>2010-07-24T10:06:03Z</time>
      </trkpt>
      <trkpt lat="45.52071" lon="6.73014">
        <ele>2057.4</ele>
        <time>2010-07-24T10:06:25Z</time>
      </trkpt>
      <trkpt lat="45.52071" lon="6.7301">
        <ele>2058.4</ele>
        <time>2010-07-24T10:06:30Z</time>
      </trkpt>
      <trkpt lat="45.5207" lon="6.73001">
        <ele>2060</ele>
        <time>2010-07-24T10:06:39Z</time>
      </trkpt>
      <trkpt lat="45.52072" lon="6.72998">
        <ele>2061</ele>
        <time>2010-07-24T10:06:43Z</time>
      </trkpt>
      <trkpt lat="45.52073" lon="6.72992">
        <ele>2062</ele>
        <time>2010-07-24T10:06:47Z</time>
      </trkpt>
      <trkpt lat="45.52073" lon="6.72988">
        <ele>2062.4</ele>
        <time>2010-07-24T10:06:49Z</time>
      </trkpt>
      <trkpt lat="45.52081" lon="6.72971">
        <ele>2066</ele>
        <time>2010-07-24T10:06:59Z</time>
      </trkpt>
      <trkpt lat="45.52089" lon="6.72955">
        <ele>2070.6</ele>
        <time>2010-07-24T10:07:16Z</time>
      </trkpt>
      <trkpt lat="45.52091" lon="6.72952">
        <ele>2071</ele>
        <time>2010-07-24T10:07:18Z</time>
      </trkpt>
      <trkpt lat="45.52105" lon="6.72938">
        <ele>2073.2</ele>
        <time>2010-07-24T10:07:30Z</time>
      </trkpt>
      <trkpt lat="45.52114" lon="6.72941">
        <ele>2074.2</ele>
        <time>2010-07-24T10:07:36Z</time>
      </trkpt>
      <trkpt lat="45.52122" lon="6.72938">
        <ele>2075.4</ele>
        <time>2010-07-24T10:07:42Z</time>
      </trkpt>
      <trkpt lat="45.52126" lon="6.72934">
        <ele>2076.4</ele>
        <time>2010-07-24T10:07:47Z</time>
      </trkpt>
      <trkpt lat="45.52135" lon="6.7292">
        <ele>2078.6</ele>
        <time>2010-07-24T10:07:57Z</time>
      </trkpt>
      <trkpt lat="45.52142" lon="6.72901">
        <ele>2080.6</ele>
        <time>2010-07-24T10:08:08Z</time>
      </trkpt>
      <trkpt lat="45.52145" lon="6.72898">
        <ele>2081</ele>
        <time>2010-07-24T10:08:11Z</time>
      </trkpt>
      <trkpt lat="45.52151" lon="6.72894">
        <ele>2081.6</ele>
        <time>2010-07-24T10:08:15Z</time>
      </trkpt>
      <trkpt lat="45.52162" lon="6.7289">
        <ele>2082.8</ele>
        <time>2010-07-24T10:08:20Z</time>
      </trkpt>
      <trkpt lat="45.52173" lon="6.72873">
        <ele>2085.6</ele>
        <time>2010-07-24T10:08:32Z</time>
      </trkpt>
      <trkpt lat="45.52173" lon="6.7287">
        <ele>2086.2</ele>
        <time>2010-07-24T10:08:35Z</time>
      </trkpt>
      <trkpt lat="45.52174" lon="6.72869">
        <ele>2086.6</ele>
        <time>2010-07-24T10:08:36Z</time>
      </trkpt>
      <trkpt lat="45.52174" lon="6.72867">
        <ele>2087</ele>
        <time>2010-07-24T10:08:38Z</time>
      </trkpt>
      <trkpt lat="45.5218" lon="6.72866">
        <ele>2088.6</ele>
        <time>2010-07-24T10:08:45Z</time>
      </trkpt>
      <trkpt lat="45.5218" lon="6.72865">
        <ele>2088.8</ele>
        <time>2010-07-24T10:08:46Z</time>
      </trkpt>
      <trkpt lat="45.52179" lon="6.72857">
        <ele>2090.4</ele>
        <time>2010-07-24T10:08:53Z</time>
      </trkpt>
      <trkpt lat="45.52178" lon="6.72853">
        <ele>2091</ele>
        <time>2010-07-24T10:08:56Z</time>
      </trkpt>
      <trkpt lat="45.52176" lon="6.72846">
        <ele>2092.6</ele>
        <time>2010-07-24T10:09:02Z</time>
      </trkpt>
      <trkpt lat="45.52171" lon="6.72835">
        <ele>2094.4</ele>
        <time>2010-07-24T10:09:09Z</time>
      </trkpt>
      <trkpt lat="45.52171" lon="6.72831">
        <ele>2095</ele>
        <time>2010-07-24T10:09:12Z</time>
      </trkpt>
      <trkpt lat="45.5217" lon="6.72822">
        <ele>2096</ele>
        <time>2010-07-24T10:09:17Z</time>
      </trkpt>
      <trkpt lat="45.52174" lon="6.72809">
        <ele>2098</ele>
        <time>2010-07-24T10:09:26Z</time>
      </trkpt>
      <trkpt lat="45.52175" lon="6.72808">
        <ele>2098.2</ele>
        <time>2010-07-24T10:09:27Z</time>
      </trkpt>
      <trkpt lat="45.5219" lon="6.72791">
        <ele>2100.4</ele>
        <time>2010-07-24T10:09:38Z</time>
      </trkpt>
      <trkpt lat="45.52193" lon="6.72787">
        <ele>2101</ele>
        <time>2010-07-24T10:09:39Z</time>
      </trkpt>
      <trkpt lat="45.52199" lon="6.72782">
        <ele>2101.8</ele>
        <time>2010-07-24T10:09:44Z</time>
      </trkpt>
      <trkpt lat="45.52203" lon="6.72777">
        <ele>2102.6</ele>
        <time>2010-07-24T10:09:48Z</time>
      </trkpt>
      <trkpt lat="45.52204" lon="6.72776">
        <ele>2102.8</ele>
        <time>2010-07-24T10:09:49Z</time>
      </trkpt>
      <trkpt lat="45.52221" lon="6.72767">
        <ele>2105.4</ele>
        <time>2010-07-24T10:10:01Z</time>
      </trkpt>
      <trkpt lat="45.52231" lon="6.72766">
        <ele>2106.8</ele>
        <time>2010-07-24T10:10:08Z</time>
      </trkpt>
      <trkpt lat="45.52238" lon="6.72761">
        <ele>2107.8</ele>
        <time>2010-07-24T10:10:13Z</time>
      </trkpt>
      <trkpt lat="45.5224" lon="6.72759">
        <ele>2108</ele>
        <time>2010-07-24T10:10:14Z</time>
      </trkpt>
      <trkpt lat="45.52245" lon="6.7275">
        <ele>2108.8</ele>
        <time>2010-07-24T10:10:19Z</time>
      </trkpt>
      <trkpt lat="45.52251" lon="6.72741">
        <ele>2109.8</ele>
        <time>2010-07-24T10:10:24Z</time>
      </trkpt>
      <trkpt lat="45.52268" lon="6.72732">
        <ele>2112.6</ele>
        <time>2010-07-24T10:10:36Z</time>
      </trkpt>
      <trkpt lat="45.52286" lon="6.72725">
        <ele>2116.2</ele>
        <time>2010-07-24T10:10:50Z</time>
      </trkpt>
      <trkpt lat="45.52303" lon="6.72714">
        <ele>2119.4</ele>
        <time>2010-07-24T10:11:03Z</time>
      </trkpt>
      <trkpt lat="45.5232" lon="6.72705">
        <ele>2122.8</ele>
        <time>2010-07-24T10:11:18Z</time>
      </trkpt>
      <trkpt lat="45.52337" lon="6.72695">
        <ele>2127.4</ele>
        <time>2010-07-24T10:11:35Z</time>
      </trkpt>
      <trkpt lat="45.52339" lon="6.72694">
        <ele>2127.8</ele>
        <time>2010-07-24T10:11:37Z</time>
      </trkpt>
      <trkpt lat="45.52353" lon="6.72681">
        <ele>2131.8</ele>
        <time>2010-07-24T10:11:52Z</time>
      </trkpt>
      <trkpt lat="45.52358" lon="6.72678">
        <ele>2133.2</ele>
        <time>2010-07-24T10:11:57Z</time>
      </trkpt>
      <trkpt lat="45.52365" lon="6.72674">
        <ele>2136</ele>
        <time>2010-07-24T10:12:04Z</time>
      </trkpt>
      <trkpt lat="45.52368" lon="6.72672">
        <ele>2137.2</ele>
        <time>2010-07-24T10:12:07Z</time>
      </trkpt>
      <trkpt lat="45.52369" lon="6.72671">
        <ele>2137.6</ele>
        <time>2010-07-24T10:12:08Z</time>
      </trkpt>
      <trkpt lat="45.52375" lon="6.7266">
        <ele>2139.8</ele>
        <time>2010-07-24T10:12:15Z</time>
      </trkpt>
      <trkpt lat="45.52377" lon="6.72653">
        <ele>2141</ele>
        <time>2010-07-24T10:12:20Z</time>
      </trkpt>
      <trkpt lat="45.52378" lon="6.72649">
        <ele>2142</ele>
        <time>2010-07-24T10:12:23Z</time>
      </trkpt>
      <trkpt lat="45.52377" lon="6.72642">
        <ele>2143</ele>
        <time>2010-07-24T10:12:27Z</time>
      </trkpt>
      <trkpt lat="45.52374" lon="6.72631">
        <ele>2145</ele>
        <time>2010-07-24T10:12:33Z</time>
      </trkpt>
      <trkpt lat="45.52374" lon="6.72627">
        <ele>2145.6</ele>
        <time>2010-07-24T10:12:35Z</time>
      </trkpt>
      <trkpt lat="45.52374" lon="6.72625">
        <ele>2146</ele>
        <time>2010-07-24T10:12:36Z</time>
      </trkpt>
      <trkpt lat="45.52375" lon="6.72615">
        <ele>2147.8</ele>
        <time>2010-07-24T10:12:42Z</time>
      </trkpt>
      <trkpt lat="45.52375" lon="6.72599">
        <ele>2150.8</ele>
        <time>2010-07-24T10:12:51Z</time>
      </trkpt>
      <trkpt lat="45.52376" lon="6.72571">
        <ele>2154.6</ele>
        <time>2010-07-24T10:13:05Z</time>
      </trkpt>
      <trkpt lat="45.52376" lon="6.72555">
        <ele>2156.6</ele>
        <time>2010-07-24T10:13:15Z</time>
      </trkpt>
      <trkpt lat="45.52375" lon="6.72546">
        <ele>2157.6</ele>
        <time>2010-07-24T10:13:20Z</time>
      </trkpt>
      <trkpt lat="45.52374" lon="6.7254">
        <ele>2158.4</ele>
        <time>2010-07-24T10:13:24Z</time>
      </trkpt>
      <trkpt lat="45.52373" lon="6.7252">
        <ele>2162</ele>
        <time>2010-07-24T10:13:38Z</time>
      </trkpt>
      <trkpt lat="45.52372" lon="6.72511">
        <ele>2163.4</ele>
        <time>2010-07-24T10:13:44Z</time>
      </trkpt>
      <trkpt lat="45.52369" lon="6.72495">
        <ele>2165.6</ele>
        <time>2010-07-24T10:13:54Z</time>
      </trkpt>
      <trkpt lat="45.52367" lon="6.72472">
        <ele>2168.6</ele>
        <time>2010-07-24T10:14:07Z</time>
      </trkpt>
      <trkpt lat="45.52368" lon="6.7247">
        <ele>2168.8</ele>
        <time>2010-07-24T10:14:08Z</time>
      </trkpt>
      <trkpt lat="45.52372" lon="6.72461">
        <ele>2169.6</ele>
        <time>2010-07-24T10:14:13Z</time>
      </trkpt>
      <trkpt lat="45.52383" lon="6.72457">
        <ele>2170.6</ele>
        <time>2010-07-24T10:14:20Z</time>
      </trkpt>
      <trkpt lat="45.52401" lon="6.72449">
        <ele>2172.4</ele>
        <time>2010-07-24T10:14:32Z</time>
      </trkpt>
      <trkpt lat="45.52407" lon="6.72445">
        <ele>2173.2</ele>
        <time>2010-07-24T10:14:36Z</time>
      </trkpt>
      <trkpt lat="45.5241" lon="6.72441">
        <ele>2174</ele>
        <time>2010-07-24T10:14:40Z</time>
      </trkpt>
      <trkpt lat="45.52416" lon="6.72433">
        <ele>2175</ele>
        <time>2010-07-24T10:14:46Z</time>
      </trkpt>
      <trkpt lat="45.52422" lon="6.72426">
        <ele>2176.6</ele>
        <time>2010-07-24T10:14:53Z</time>
      </trkpt>
      <trkpt lat="45.52425" lon="6.72421">
        <ele>2177.6</ele>
        <time>2010-07-24T10:14:58Z</time>
      </trkpt>
      <trkpt lat="45.52427" lon="6.72418">
        <ele>2178.4</ele>
        <time>2010-07-24T10:15:01Z</time>
      </trkpt>
      <trkpt lat="45.52429" lon="6.72415">
        <ele>2178.8</ele>
        <time>2010-07-24T10:15:03Z</time>
      </trkpt>
      <trkpt lat="45.52434" lon="6.72404">
        <ele>2180.6</ele>
        <time>2010-07-24T10:15:11Z</time>
      </trkpt>
      <trkpt lat="45.52437" lon="6.72401">
        <ele>2181.6</ele>
        <time>2010-07-24T10:15:14Z</time>
      </trkpt>
      <trkpt lat="45.5244" lon="6.72395">
        <ele>2183.6</ele>
        <time>2010-07-24T10:15:20Z</time>
      </trkpt>
      <trkpt lat="45.52456" lon="6.72382">
        <ele>2188.6</ele>
        <time>2010-07-24T10:15:36Z</time>
      </trkpt>
      <trkpt lat="45.52472" lon="6.7237">
        <ele>2191.4</ele>
        <time>2010-07-24T10:15:50Z</time>
      </trkpt>
      <trkpt lat="45.52491" lon="6.72361">
        <ele>2194.4</ele>
        <time>2010-07-24T10:16:06Z</time>
      </trkpt>
      <trkpt lat="45.52493" lon="6.72358">
        <ele>2195</ele>
        <time>2010-07-24T10:16:09Z</time>
      </trkpt>
      <trkpt lat="45.52499" lon="6.72353">
        <ele>2195.8</ele>
        <time>2010-07-24T10:16:14Z</time>
      </trkpt>
      <trkpt lat="45.52505" lon="6.72349">
        <ele>2197</ele>
        <time>2010-07-24T10:16:20Z</time>
      </trkpt>
      <trkpt lat="45.52506" lon="6.72347">
        <ele>2197.4</ele>
        <time>2010-07-24T10:16:22Z</time>
      </trkpt>
      <trkpt lat="45.52522" lon="6.72334">
        <ele>2200.4</ele>
        <time>2010-07-24T10:16:36Z</time>
      </trkpt>
      <trkpt lat="45.52527" lon="6.72331">
        <ele>2201.6</ele>
        <time>2010-07-24T10:16:41Z</time>
      </trkpt>
      <trkpt lat="45.52534" lon="6.72326">
        <ele>2203</ele>
        <time>2010-07-24T10:16:47Z</time>
      </trkpt>
      <trkpt lat="45.52538" lon="6.72324">
        <ele>2203.8</ele>
        <time>2010-07-24T10:16:51Z</time>
      </trkpt>
      <trkpt lat="45.52539" lon="6.72324">
        <ele>2204</ele>
        <time>2010-07-24T10:16:52Z</time>
      </trkpt>
      <trkpt lat="45.52554" lon="6.7231">
        <ele>2209.8</ele>
        <time>2010-07-24T10:17:15Z</time>
      </trkpt>
      <trkpt lat="45.52561" lon="6.72269">
        <ele>2227</ele>
        <time>2010-07-24T10:18:13Z</time>
      </trkpt>
      <trkpt lat="45.52558" lon="6.7226">
        <ele>2229.6</ele>
        <time>2010-07-24T10:18:21Z</time>
      </trkpt>
      <trkpt lat="45.52558" lon="6.72253">
        <ele>2231</ele>
        <time>2010-07-24T10:18:27Z</time>
      </trkpt>
      <trkpt lat="45.52557" lon="6.72252">
        <ele>2231.2</ele>
        <time>2010-07-24T10:18:28Z</time>
      </trkpt>
      <trkpt lat="45.52555" lon="6.72246">
        <ele>2232.2</ele>
        <time>2010-07-24T10:18:33Z</time>
      </trkpt>
      <trkpt lat="45.52554" lon="6.72244">
        <ele>2232.4</ele>
        <time>2010-07-24T10:18:34Z</time>
      </trkpt>
      <trkpt lat="45.52551" lon="6.72232">
        <ele>2234.6</ele>
        <time>2010-07-24T10:18:43Z</time>
      </trkpt>
      <trkpt lat="45.5255" lon="6.72221">
        <ele>2236.2</ele>
        <time>2010-07-24T10:18:50Z</time>
      </trkpt>
      <trkpt lat="45.52546" lon="6.72208">
        <ele>2238.4</ele>
        <time>2010-07-24T10:19:00Z</time>
      </trkpt>
      <trkpt lat="45.52543" lon="6.72197">
        <ele>2240.8</ele>
        <time>2010-07-24T10:19:09Z</time>
      </trkpt>
      <trkpt lat="45.52541" lon="6.72192">
        <ele>2241.8</ele>
        <time>2010-07-24T10:19:13Z</time>
      </trkpt>
      <trkpt lat="45.52535" lon="6.72174">
        <ele>2245.6</ele>
        <time>2010-07-24T10:19:24Z</time>
      </trkpt>
      <trkpt lat="45.52532" lon="6.72169">
        <ele>2247</ele>
        <time>2010-07-24T10:19:28Z</time>
      </trkpt>
      <trkpt lat="45.52526" lon="6.72159">
        <ele>2250.6</ele>
        <time>2010-07-24T10:19:37Z</time>
      </trkpt>
      <trkpt lat="45.52523" lon="6.72155">
        <ele>2251.6</ele>
        <time>2010-07-24T10:19:40Z</time>
      </trkpt>
      <trkpt lat="45.5251" lon="6.72135">
        <ele>2256.2</ele>
        <time>2010-07-24T10:19:53Z</time>
      </trkpt>
      <trkpt lat="45.52504" lon="6.7213">
        <ele>2258</ele>
        <time>2010-07-24T10:19:58Z</time>
      </trkpt>
      <trkpt lat="45.52499" lon="6.72121">
        <ele>2260.2</ele>
        <time>2010-07-24T10:20:04Z</time>
      </trkpt>
      <trkpt lat="45.52497" lon="6.72119">
        <ele>2260.4</ele>
        <time>2010-07-24T10:20:05Z</time>
      </trkpt>
      <trkpt lat="45.52484" lon="6.72101">
        <ele>2262.4</ele>
        <time>2010-07-24T10:20:12Z</time>
      </trkpt>
      <trkpt lat="45.52482" lon="6.72095">
        <ele>2263.2</ele>
        <time>2010-07-24T10:20:14Z</time>
      </trkpt>
      <trkpt lat="45.52474" lon="6.72078">
        <ele>2264.8</ele>
        <time>2010-07-24T10:20:21Z</time>
      </trkpt>
      <trkpt lat="45.5247" lon="6.72072">
        <ele>2265.6</ele>
        <time>2010-07-24T10:20:24Z</time>
      </trkpt>
      <trkpt lat="45.52459" lon="6.7206">
        <ele>2266.8</ele>
        <time>2010-07-24T10:20:30Z</time>
      </trkpt>
      <trkpt lat="45.52443" lon="6.72044">
        <ele>2269.2</ele>
        <time>2010-07-24T10:20:40Z</time>
      </trkpt>
      <trkpt lat="45.52442" lon="6.72043">
        <ele>2269.4</ele>
        <time>2010-07-24T10:20:41Z</time>
      </trkpt>
      <trkpt lat="45.52437" lon="6.72038">
        <ele>2271.2</ele>
        <time>2010-07-24T10:20:48Z</time>
      </trkpt>
      <trkpt lat="45.52435" lon="6.72037">
        <ele>2271.6</ele>
        <time>2010-07-24T10:20:50Z</time>
      </trkpt>
      <trkpt lat="45.52432" lon="6.72027">
        <ele>2273.2</ele>
        <time>2010-07-24T10:20:57Z</time>
      </trkpt>
      <trkpt lat="45.52427" lon="6.72019">
        <ele>2274.4</ele>
        <time>2010-07-24T10:21:03Z</time>
      </trkpt>
      <trkpt lat="45.52426" lon="6.72019">
        <ele>2274.8</ele>
        <time>2010-07-24T10:21:05Z</time>
      </trkpt>
      <trkpt lat="45.52421" lon="6.72011">
        <ele>2276.2</ele>
        <time>2010-07-24T10:21:13Z</time>
      </trkpt>
      <trkpt lat="45.52421" lon="6.72008">
        <ele>2276.4</ele>
        <time>2010-07-24T10:21:15Z</time>
      </trkpt>
      <trkpt lat="45.52423" lon="6.72003">
        <ele>2277</ele>
        <time>2010-07-24T10:21:19Z</time>
      </trkpt>
      <trkpt lat="45.52423" lon="6.72002">
        <ele>2277.2</ele>
        <time>2010-07-24T10:21:20Z</time>
      </trkpt>
      <trkpt lat="45.5242" lon="6.71998">
        <ele>2277.8</ele>
        <time>2010-07-24T10:21:24Z</time>
      </trkpt>
      <trkpt lat="45.5242" lon="6.71996">
        <ele>2277.8</ele>
        <time>2010-07-24T10:21:25Z</time>
      </trkpt>
      <trkpt lat="45.5242" lon="6.7199">
        <ele>2278.4</ele>
        <time>2010-07-24T10:21:29Z</time>
      </trkpt>
      <trkpt lat="45.5242" lon="6.71989">
        <ele>2278.6</ele>
        <time>2010-07-24T10:21:30Z</time>
      </trkpt>
      <trkpt lat="45.52417" lon="6.71987">
        <ele>2279.2</ele>
        <time>2010-07-24T10:21:33Z</time>
      </trkpt>
      <trkpt lat="45.52416" lon="6.71985">
        <ele>2279.6</ele>
        <time>2010-07-24T10:21:35Z</time>
      </trkpt>
      <trkpt lat="45.52414" lon="6.71982">
        <ele>2280.4</ele>
        <time>2010-07-24T10:21:38Z</time>
      </trkpt>
      <trkpt lat="45.52412" lon="6.71976">
        <ele>2281.8</ele>
        <time>2010-07-24T10:21:43Z</time>
      </trkpt>
      <trkpt lat="45.52412" lon="6.71974">
        <ele>2282.6</ele>
        <time>2010-07-24T10:21:45Z</time>
      </trkpt>
      <trkpt lat="45.52409" lon="6.71965">
        <ele>2285</ele>
        <time>2010-07-24T10:21:53Z</time>
      </trkpt>
      <trkpt lat="45.52409" lon="6.71963">
        <ele>2285.2</ele>
        <time>2010-07-24T10:21:54Z</time>
      </trkpt>
      <trkpt lat="45.52408" lon="6.71959">
        <ele>2286.6</ele>
        <time>2010-07-24T10:21:58Z</time>
      </trkpt>
      <trkpt lat="45.52402" lon="6.71955">
        <ele>2287.6</ele>
        <time>2010-07-24T10:22:02Z</time>
      </trkpt>
      <trkpt lat="45.52394" lon="6.7195">
        <ele>2289.2</ele>
        <time>2010-07-24T10:22:07Z</time>
      </trkpt>
      <trkpt lat="45.52394" lon="6.71948">
        <ele>2289.6</ele>
        <time>2010-07-24T10:22:08Z</time>
      </trkpt>
      <trkpt lat="45.52381" lon="6.71933">
        <ele>2293</ele>
        <time>2010-07-24T10:22:19Z</time>
      </trkpt>
      <trkpt lat="45.52375" lon="6.71929">
        <ele>2294.6</ele>
        <time>2010-07-24T10:22:24Z</time>
      </trkpt>
      <trkpt lat="45.52377" lon="6.71921">
        <ele>2296</ele>
        <time>2010-07-24T10:22:29Z</time>
      </trkpt>
      <trkpt lat="45.52377" lon="6.71919">
        <ele>2296.4</ele>
        <time>2010-07-24T10:22:31Z</time>
      </trkpt>
      <trkpt lat="45.52378" lon="6.71913">
        <ele>2297.6</ele>
        <time>2010-07-24T10:22:36Z</time>
      </trkpt>
      <trkpt lat="45.52377" lon="6.71912">
        <ele>2298</ele>
        <time>2010-07-24T10:22:38Z</time>
      </trkpt>
      <trkpt lat="45.52376" lon="6.7191">
        <ele>2298.2</ele>
        <time>2010-07-24T10:22:39Z</time>
      </trkpt>
      <trkpt lat="45.52371" lon="6.71903">
        <ele>2299.8</ele>
        <time>2010-07-24T10:22:46Z</time>
      </trkpt>
      <trkpt lat="45.5237" lon="6.71901">
        <ele>2300.4</ele>
        <time>2010-07-24T10:22:50Z</time>
      </trkpt>
      <trkpt lat="45.52375" lon="6.71889">
        <ele>2303.4</ele>
        <time>2010-07-24T10:23:07Z</time>
      </trkpt>
      <trkpt lat="45.52378" lon="6.71874">
        <ele>2306.4</ele>
        <time>2010-07-24T10:23:20Z</time>
      </trkpt>
      <trkpt lat="45.52377" lon="6.71867">
        <ele>2307.4</ele>
        <time>2010-07-24T10:23:24Z</time>
      </trkpt>
      <trkpt lat="45.52378" lon="6.71864">
        <ele>2307.8</ele>
        <time>2010-07-24T10:23:26Z</time>
      </trkpt>
      <trkpt lat="45.52378" lon="6.71838">
        <ele>2311.6</ele>
        <time>2010-07-24T10:23:41Z</time>
      </trkpt>
      <trkpt lat="45.52378" lon="6.71835">
        <ele>2312</ele>
        <time>2010-07-24T10:23:43Z</time>
      </trkpt>
      <trkpt lat="45.52376" lon="6.71827">
        <ele>2312.8</ele>
        <time>2010-07-24T10:23:47Z</time>
      </trkpt>
      <trkpt lat="45.52372" lon="6.71814">
        <ele>2314.8</ele>
        <time>2010-07-24T10:23:55Z</time>
      </trkpt>
      <trkpt lat="45.52363" lon="6.71791">
        <ele>2318</ele>
        <time>2010-07-24T10:24:10Z</time>
      </trkpt>
      <trkpt lat="45.52352" lon="6.71769">
        <ele>2320.6</ele>
        <time>2010-07-24T10:24:27Z</time>
      </trkpt>
      <trkpt lat="45.52345" lon="6.71756">
        <ele>2322.2</ele>
        <time>2010-07-24T10:24:37Z</time>
      </trkpt>
      <trkpt lat="45.52343" lon="6.71748">
        <ele>2323.4</ele>
        <time>2010-07-24T10:24:43Z</time>
      </trkpt>
      <trkpt lat="45.52343" lon="6.71747">
        <ele>2323.6</ele>
        <time>2010-07-24T10:24:44Z</time>
      </trkpt>
      <trkpt lat="45.5234" lon="6.71728">
        <ele>2326.6</ele>
        <time>2010-07-24T10:25:00Z</time>
      </trkpt>
      <trkpt lat="45.52335" lon="6.71725">
        <ele>2327</ele>
        <time>2010-07-24T10:25:03Z</time>
      </trkpt>
      <trkpt lat="45.52333" lon="6.71721">
        <ele>2328</ele>
        <time>2010-07-24T10:25:07Z</time>
      </trkpt>
      <trkpt lat="45.52328" lon="6.71715">
        <ele>2329.2</ele>
        <time>2010-07-24T10:25:13Z</time>
      </trkpt>
      <trkpt lat="45.52326" lon="6.71713">
        <ele>2330</ele>
        <time>2010-07-24T10:25:17Z</time>
      </trkpt>
      <trkpt lat="45.52322" lon="6.71708">
        <ele>2331.8</ele>
        <time>2010-07-24T10:25:25Z</time>
      </trkpt>
      <trkpt lat="45.52319" lon="6.71704">
        <ele>2333.2</ele>
        <time>2010-07-24T10:25:29Z</time>
      </trkpt>
      <trkpt lat="45.52317" lon="6.71701">
        <ele>2334.6</ele>
        <time>2010-07-24T10:25:33Z</time>
      </trkpt>
      <trkpt lat="45.52309" lon="6.71695">
        <ele>2337.4</ele>
        <time>2010-07-24T10:25:42Z</time>
      </trkpt>
      <trkpt lat="45.52307" lon="6.71692">
        <ele>2338.4</ele>
        <time>2010-07-24T10:25:45Z</time>
      </trkpt>
      <trkpt lat="45.52297" lon="6.71689">
        <ele>2340.6</ele>
        <time>2010-07-24T10:25:52Z</time>
      </trkpt>
      <trkpt lat="45.52289" lon="6.71687">
        <ele>2342.2</ele>
        <time>2010-07-24T10:25:58Z</time>
      </trkpt>
      <trkpt lat="45.52288" lon="6.71687">
        <ele>2342.4</ele>
        <time>2010-07-24T10:25:59Z</time>
      </trkpt>
      <trkpt lat="45.52271" lon="6.71683">
        <ele>2345.8</ele>
        <time>2010-07-24T10:26:13Z</time>
      </trkpt>
      <trkpt lat="45.52254" lon="6.7169">
        <ele>2348</ele>
        <time>2010-07-24T10:26:28Z</time>
      </trkpt>
      <trkpt lat="45.52238" lon="6.71673">
        <ele>2348.8</ele>
        <time>2010-07-24T10:26:35Z</time>
      </trkpt>
      <trkpt lat="45.52222" lon="6.71658">
        <ele>2349.6</ele>
        <time>2010-07-24T10:26:41Z</time>
      </trkpt>
      <trkpt lat="45.52207" lon="6.71644">
        <ele>2350</ele>
        <time>2010-07-24T10:26:47Z</time>
      </trkpt>
      <trkpt lat="45.52193" lon="6.71627">
        <ele>2350</ele>
        <time>2010-07-24T10:26:53Z</time>
      </trkpt>
      <trkpt lat="45.52177" lon="6.71616">
        <ele>2349.8</ele>
        <time>2010-07-24T10:26:59Z</time>
      </trkpt>
      <trkpt lat="45.5216" lon="6.716">
        <ele>2349</ele>
        <time>2010-07-24T10:27:06Z</time>
      </trkpt>
      <trkpt lat="45.52142" lon="6.71589">
        <ele>2348</ele>
        <time>2010-07-24T10:27:13Z</time>
      </trkpt>
      <trkpt lat="45.52127" lon="6.71572">
        <ele>2347</ele>
        <time>2010-07-24T10:27:19Z</time>
      </trkpt>
      <trkpt lat="45.52111" lon="6.71555">
        <ele>2345.4</ele>
        <time>2010-07-24T10:27:26Z</time>
      </trkpt>
      <trkpt lat="45.52096" lon="6.71541">
        <ele>2344.2</ele>
        <time>2010-07-24T10:27:32Z</time>
      </trkpt>
      <trkpt lat="45.52081" lon="6.71524">
        <ele>2343</ele>
        <time>2010-07-24T10:27:38Z</time>
      </trkpt>
      <trkpt lat="45.52066" lon="6.71511">
        <ele>2342</ele>
        <time>2010-07-24T10:27:43Z</time>
      </trkpt>
      <trkpt lat="45.52051" lon="6.71497">
        <ele>2341.2</ele>
        <time>2010-07-24T10:27:48Z</time>
      </trkpt>
      <trkpt lat="45.52034" lon="6.71482">
        <ele>2340</ele>
        <time>2010-07-24T10:27:54Z</time>
      </trkpt>
      <trkpt lat="45.52016" lon="6.7147">
        <ele>2338.8</ele>
        <time>2010-07-24T10:28:00Z</time>
      </trkpt>
      <trkpt lat="45.52" lon="6.71451">
        <ele>2337.4</ele>
        <time>2010-07-24T10:28:06Z</time>
      </trkpt>
      <trkpt lat="45.51985" lon="6.71431">
        <ele>2336</ele>
        <time>2010-07-24T10:28:12Z</time>
      </trkpt>
      <trkpt lat="45.51971" lon="6.71412">
        <ele>2334.6</ele>
        <time>2010-07-24T10:28:18Z</time>
      </trkpt>
      <trkpt lat="45.51958" lon="6.71393">
        <ele>2333</ele>
        <time>2010-07-24T10:28:24Z</time>
      </trkpt>
      <trkpt lat="45.51944" lon="6.71373">
        <ele>2331.2</ele>
        <time>2010-07-24T10:28:31Z</time>
      </trkpt>
      <trkpt lat="45.51931" lon="6.71352">
        <ele>2329</ele>
        <time>2010-07-24T10:28:38Z</time>
      </trkpt>
      <trkpt lat="45.51919" lon="6.71333">
        <ele>2327</ele>
        <time>2010-07-24T10:28:43Z</time>
      </trkpt>
      <trkpt lat="45.51913" lon="6.71328">
        <ele>2326.2</ele>
        <time>2010-07-24T10:28:45Z</time>
      </trkpt>
      <trkpt lat="45.519" lon="6.71328">
        <ele>2325.2</ele>
        <time>2010-07-24T10:28:48Z</time>
      </trkpt>
      <trkpt lat="45.51895" lon="6.71324">
        <ele>2324.4</ele>
        <time>2010-07-24T10:28:50Z</time>
      </trkpt>
      <trkpt lat="45.51882" lon="6.71315">
        <ele>2322.6</ele>
        <time>2010-07-24T10:28:55Z</time>
      </trkpt>
      <trkpt lat="45.51879" lon="6.71314">
        <ele>2322.2</ele>
        <time>2010-07-24T10:28:56Z</time>
      </trkpt>
      <trkpt lat="45.51865" lon="6.71305">
        <ele>2320.2</ele>
        <time>2010-07-24T10:29:01Z</time>
      </trkpt>
      <trkpt lat="45.51846" lon="6.71296">
        <ele>2317.8</ele>
        <time>2010-07-24T10:29:07Z</time>
      </trkpt>
      <trkpt lat="45.51826" lon="6.71289">
        <ele>2315.8</ele>
        <time>2010-07-24T10:29:12Z</time>
      </trkpt>
      <trkpt lat="45.51807" lon="6.71287">
        <ele>2313.8</ele>
        <time>2010-07-24T10:29:17Z</time>
      </trkpt>
      <trkpt lat="45.5179" lon="6.71281">
        <ele>2311.2</ele>
        <time>2010-07-24T10:29:23Z</time>
      </trkpt>
      <trkpt lat="45.5177" lon="6.71276">
        <ele>2308.4</ele>
        <time>2010-07-24T10:29:29Z</time>
      </trkpt>
      <trkpt lat="45.5175" lon="6.71273">
        <ele>2306</ele>
        <time>2010-07-24T10:29:34Z</time>
      </trkpt>
      <trkpt lat="45.51734" lon="6.7126">
        <ele>2303.4</ele>
        <time>2010-07-24T10:29:39Z</time>
      </trkpt>
      <trkpt lat="45.5172" lon="6.71236">
        <ele>2300.2</ele>
        <time>2010-07-24T10:29:45Z</time>
      </trkpt>
      <trkpt lat="45.51709" lon="6.71216">
        <ele>2296.8</ele>
        <time>2010-07-24T10:29:51Z</time>
      </trkpt>
      <trkpt lat="45.51699" lon="6.71193">
        <ele>2293.4</ele>
        <time>2010-07-24T10:29:57Z</time>
      </trkpt>
      <trkpt lat="45.51687" lon="6.71172">
        <ele>2289.8</ele>
        <time>2010-07-24T10:30:03Z</time>
      </trkpt>
      <trkpt lat="45.51677" lon="6.71152">
        <ele>2286.8</ele>
        <time>2010-07-24T10:30:08Z</time>
      </trkpt>
      <trkpt lat="45.51665" lon="6.7113">
        <ele>2283.6</ele>
        <time>2010-07-24T10:30:13Z</time>
      </trkpt>
      <trkpt lat="45.51651" lon="6.71106">
        <ele>2280</ele>
        <time>2010-07-24T10:30:19Z</time>
      </trkpt>
      <trkpt lat="45.51644" lon="6.71097">
        <ele>2278.2</ele>
        <time>2010-07-24T10:30:22Z</time>
      </trkpt>
      <trkpt lat="45.51635" lon="6.71091">
        <ele>2276.4</ele>
        <time>2010-07-24T10:30:25Z</time>
      </trkpt>
      <trkpt lat="45.51618" lon="6.71081">
        <ele>2273</ele>
        <time>2010-07-24T10:30:31Z</time>
      </trkpt>
      <trkpt lat="45.51601" lon="6.71071">
        <ele>2269.4</ele>
        <time>2010-07-24T10:30:37Z</time>
      </trkpt>
      <trkpt lat="45.51583" lon="6.71059">
        <ele>2265</ele>
        <time>2010-07-24T10:30:44Z</time>
      </trkpt>
      <trkpt lat="45.51581" lon="6.71057">
        <ele>2264.2</ele>
        <time>2010-07-24T10:30:45Z</time>
      </trkpt>
      <trkpt lat="45.51565" lon="6.71045">
        <ele>2260.2</ele>
        <time>2010-07-24T10:30:51Z</time>
      </trkpt>
      <trkpt lat="45.51547" lon="6.71034">
        <ele>2256.2</ele>
        <time>2010-07-24T10:30:57Z</time>
      </trkpt>
      <trkpt lat="45.51536" lon="6.71025">
        <ele>2253.6</ele>
        <time>2010-07-24T10:31:01Z</time>
      </trkpt>
      <trkpt lat="45.5153" lon="6.71021">
        <ele>2252.4</ele>
        <time>2010-07-24T10:31:03Z</time>
      </trkpt>
      <trkpt lat="45.51514" lon="6.71008">
        <ele>2249</ele>
        <time>2010-07-24T10:31:08Z</time>
      </trkpt>
      <trkpt lat="45.51496" lon="6.70999">
        <ele>2246</ele>
        <time>2010-07-24T10:31:13Z</time>
      </trkpt>
      <trkpt lat="45.51476" lon="6.70991">
        <ele>2242.2</ele>
        <time>2010-07-24T10:31:19Z</time>
      </trkpt>
      <trkpt lat="45.51459" lon="6.70982">
        <ele>2238.6</ele>
        <time>2010-07-24T10:31:25Z</time>
      </trkpt>
      <trkpt lat="45.51441" lon="6.7097">
        <ele>2235</ele>
        <time>2010-07-24T10:31:31Z</time>
      </trkpt>
      <trkpt lat="45.51422" lon="6.70958">
        <ele>2231.6</ele>
        <time>2010-07-24T10:31:37Z</time>
      </trkpt>
      <trkpt lat="45.51408" lon="6.7094">
        <ele>2228.6</ele>
        <time>2010-07-24T10:31:42Z</time>
      </trkpt>
      <trkpt lat="45.51392" lon="6.70926">
        <ele>2225.8</ele>
        <time>2010-07-24T10:31:47Z</time>
      </trkpt>
      <trkpt lat="45.51371" lon="6.70928">
        <ele>2222.4</ele>
        <time>2010-07-24T10:31:53Z</time>
      </trkpt>
      <trkpt lat="45.51352" lon="6.70926">
        <ele>2219.2</ele>
        <time>2010-07-24T10:31:59Z</time>
      </trkpt>
      <trkpt lat="45.51344" lon="6.70899">
        <ele>2216</ele>
        <time>2010-07-24T10:32:05Z</time>
      </trkpt>
      <trkpt lat="45.51334" lon="6.70877">
        <ele>2213.2</ele>
        <time>2010-07-24T10:32:10Z</time>
      </trkpt>
      <trkpt lat="45.51325" lon="6.70854">
        <ele>2210.6</ele>
        <time>2010-07-24T10:32:15Z</time>
      </trkpt>
      <trkpt lat="45.51314" lon="6.70833">
        <ele>2208</ele>
        <time>2010-07-24T10:32:20Z</time>
      </trkpt>
      <trkpt lat="45.51298" lon="6.70815">
        <ele>2205.2</ele>
        <time>2010-07-24T10:32:26Z</time>
      </trkpt>
      <trkpt lat="45.51282" lon="6.70796">
        <ele>2202.4</ele>
        <time>2010-07-24T10:32:32Z</time>
      </trkpt>
      <trkpt lat="45.51265" lon="6.70789">
        <ele>2200.2</ele>
        <time>2010-07-24T10:32:37Z</time>
      </trkpt>
      <trkpt lat="45.51244" lon="6.7079">
        <ele>2197.6</ele>
        <time>2010-07-24T10:32:43Z</time>
      </trkpt>
      <trkpt lat="45.51226" lon="6.70793">
        <ele>2195.4</ele>
        <time>2010-07-24T10:32:48Z</time>
      </trkpt>
      <trkpt lat="45.51208" lon="6.70793">
        <ele>2193.2</ele>
        <time>2010-07-24T10:32:53Z</time>
      </trkpt>
      <trkpt lat="45.51189" lon="6.7079">
        <ele>2191.2</ele>
        <time>2010-07-24T10:32:58Z</time>
      </trkpt>
      <trkpt lat="45.51168" lon="6.70788">
        <ele>2188.8</ele>
        <time>2010-07-24T10:33:04Z</time>
      </trkpt>
      <trkpt lat="45.51146" lon="6.70787">
        <ele>2186.6</ele>
        <time>2010-07-24T10:33:10Z</time>
      </trkpt>
      <trkpt lat="45.51127" lon="6.70787">
        <ele>2184.4</ele>
        <time>2010-07-24T10:33:16Z</time>
      </trkpt>
      <trkpt lat="45.51119" lon="6.70786">
        <ele>2183.2</ele>
        <time>2010-07-24T10:33:19Z</time>
      </trkpt>
      <trkpt lat="45.51107" lon="6.70787">
        <ele>2181.6</ele>
        <time>2010-07-24T10:33:23Z</time>
      </trkpt>
      <trkpt lat="45.51098" lon="6.70787">
        <ele>2180.4</ele>
        <time>2010-07-24T10:33:26Z</time>
      </trkpt>
      <trkpt lat="45.51087" lon="6.7079">
        <ele>2179.2</ele>
        <time>2010-07-24T10:33:29Z</time>
      </trkpt>
      <trkpt lat="45.51072" lon="6.70804">
        <ele>2176.8</ele>
        <time>2010-07-24T10:33:34Z</time>
      </trkpt>
      <trkpt lat="45.51058" lon="6.70825">
        <ele>2174.2</ele>
        <time>2010-07-24T10:33:40Z</time>
      </trkpt>
      <trkpt lat="45.51038" lon="6.70832">
        <ele>2171.6</ele>
        <time>2010-07-24T10:33:46Z</time>
      </trkpt>
      <trkpt lat="45.51017" lon="6.7083">
        <ele>2169.2</ele>
        <time>2010-07-24T10:33:52Z</time>
      </trkpt>
      <trkpt lat="45.50997" lon="6.70825">
        <ele>2166.4</ele>
        <time>2010-07-24T10:33:58Z</time>
      </trkpt>
      <trkpt lat="45.50979" lon="6.70816">
        <ele>2164.2</ele>
        <time>2010-07-24T10:34:03Z</time>
      </trkpt>
      <trkpt lat="45.50958" lon="6.7082">
        <ele>2161.8</ele>
        <time>2010-07-24T10:34:09Z</time>
      </trkpt>
      <trkpt lat="45.50939" lon="6.70821">
        <ele>2159.2</ele>
        <time>2010-07-24T10:34:15Z</time>
      </trkpt>
      <trkpt lat="45.50921" lon="6.70822">
        <ele>2156.8</ele>
        <time>2010-07-24T10:34:21Z</time>
      </trkpt>
      <trkpt lat="45.50902" lon="6.70832">
        <ele>2154.2</ele>
        <time>2010-07-24T10:34:28Z</time>
      </trkpt>
      <trkpt lat="45.50882" lon="6.7084">
        <ele>2152.2</ele>
        <time>2010-07-24T10:34:34Z</time>
      </trkpt>
      <trkpt lat="45.50863" lon="6.70846">
        <ele>2150.2</ele>
        <time>2010-07-24T10:34:40Z</time>
      </trkpt>
      <trkpt lat="45.50845" lon="6.7086">
        <ele>2147.8</ele>
        <time>2010-07-24T10:34:48Z</time>
      </trkpt>
      <trkpt lat="45.50827" lon="6.70867">
        <ele>2146.6</ele>
        <time>2010-07-24T10:34:53Z</time>
      </trkpt>
      <trkpt lat="45.50806" lon="6.70873">
        <ele>2144.8</ele>
        <time>2010-07-24T10:34:59Z</time>
      </trkpt>
      <trkpt lat="45.50786" lon="6.70865">
        <ele>2143</ele>
        <time>2010-07-24T10:35:05Z</time>
      </trkpt>
      <trkpt lat="45.50768" lon="6.70861">
        <ele>2141.4</ele>
        <time>2010-07-24T10:35:10Z</time>
      </trkpt>
      <trkpt lat="45.50747" lon="6.70862">
        <ele>2139</ele>
        <time>2010-07-24T10:35:17Z</time>
      </trkpt>
      <trkpt lat="45.50726" lon="6.70861">
        <ele>2137</ele>
        <time>2010-07-24T10:35:22Z</time>
      </trkpt>
      <trkpt lat="45.50711" lon="6.70872">
        <ele>2134.8</ele>
        <time>2010-07-24T10:35:27Z</time>
      </trkpt>
      <trkpt lat="45.50696" lon="6.70891">
        <ele>2132.2</ele>
        <time>2010-07-24T10:35:33Z</time>
      </trkpt>
      <trkpt lat="45.50676" lon="6.70891">
        <ele>2129.8</ele>
        <time>2010-07-24T10:35:39Z</time>
      </trkpt>
      <trkpt lat="45.50661" lon="6.70874">
        <ele>2127</ele>
        <time>2010-07-24T10:35:46Z</time>
      </trkpt>
      <trkpt lat="45.5066" lon="6.70871">
        <ele>2126.4</ele>
        <time>2010-07-24T10:35:47Z</time>
      </trkpt>
      <trkpt lat="45.50666" lon="6.70855">
        <ele>2124.8</ele>
        <time>2010-07-24T10:35:51Z</time>
      </trkpt>
      <trkpt lat="45.50668" lon="6.70851">
        <ele>2124.4</ele>
        <time>2010-07-24T10:35:52Z</time>
      </trkpt>
      <trkpt lat="45.50681" lon="6.70828">
        <ele>2121.8</ele>
        <time>2010-07-24T10:35:58Z</time>
      </trkpt>
      <trkpt lat="45.50685" lon="6.70806">
        <ele>2119.8</ele>
        <time>2010-07-24T10:36:03Z</time>
      </trkpt>
      <trkpt lat="45.50682" lon="6.70802">
        <ele>2119.4</ele>
        <time>2010-07-24T10:36:04Z</time>
      </trkpt>
      <trkpt lat="45.5067" lon="6.70785">
        <ele>2117.6</ele>
        <time>2010-07-24T10:36:08Z</time>
      </trkpt>
      <trkpt lat="45.50665" lon="6.70775">
        <ele>2116.6</ele>
        <time>2010-07-24T10:36:10Z</time>
      </trkpt>
      <trkpt lat="45.5066" lon="6.70761">
        <ele>2115.2</ele>
        <time>2010-07-24T10:36:13Z</time>
      </trkpt>
      <trkpt lat="45.50657" lon="6.70745">
        <ele>2114</ele>
        <time>2010-07-24T10:36:16Z</time>
      </trkpt>
      <trkpt lat="45.50655" lon="6.70734">
        <ele>2113</ele>
        <time>2010-07-24T10:36:18Z</time>
      </trkpt>
      <trkpt lat="45.50647" lon="6.70706">
        <ele>2110.2</ele>
        <time>2010-07-24T10:36:24Z</time>
      </trkpt>
      <trkpt lat="45.50648" lon="6.70678">
        <ele>2108</ele>
        <time>2010-07-24T10:36:29Z</time>
      </trkpt>
      <trkpt lat="45.50654" lon="6.70651">
        <ele>2105.4</ele>
        <time>2010-07-24T10:36:35Z</time>
      </trkpt>
      <trkpt lat="45.50658" lon="6.70642">
        <ele>2104.4</ele>
        <time>2010-07-24T10:36:37Z</time>
      </trkpt>
      <trkpt lat="45.50662" lon="6.70624">
        <ele>2102.8</ele>
        <time>2010-07-24T10:36:41Z</time>
      </trkpt>
      <trkpt lat="45.50668" lon="6.70596">
        <ele>2100.2</ele>
        <time>2010-07-24T10:36:47Z</time>
      </trkpt>
      <trkpt lat="45.5068" lon="6.70578">
        <ele>2098.2</ele>
        <time>2010-07-24T10:36:52Z</time>
      </trkpt>
      <trkpt lat="45.50698" lon="6.70561">
        <ele>2095.8</ele>
        <time>2010-07-24T10:36:58Z</time>
      </trkpt>
      <trkpt lat="45.50705" lon="6.70543">
        <ele>2094</ele>
        <time>2010-07-24T10:37:02Z</time>
      </trkpt>
      <trkpt lat="45.50707" lon="6.70538">
        <ele>2093.6</ele>
        <time>2010-07-24T10:37:03Z</time>
      </trkpt>
      <trkpt lat="45.50717" lon="6.70511">
        <ele>2091.2</ele>
        <time>2010-07-24T10:37:09Z</time>
      </trkpt>
      <trkpt lat="45.50727" lon="6.70503">
        <ele>2090</ele>
        <time>2010-07-24T10:37:12Z</time>
      </trkpt>
      <trkpt lat="45.50733" lon="6.70505">
        <ele>2089.2</ele>
        <time>2010-07-24T10:37:14Z</time>
      </trkpt>
      <trkpt lat="45.50746" lon="6.70508">
        <ele>2087.6</ele>
        <time>2010-07-24T10:37:18Z</time>
      </trkpt>
      <trkpt lat="45.50752" lon="6.70509">
        <ele>2086.6</ele>
        <time>2010-07-24T10:37:20Z</time>
      </trkpt>
      <trkpt lat="45.5077" lon="6.70509">
        <ele>2084</ele>
        <time>2010-07-24T10:37:26Z</time>
      </trkpt>
      <trkpt lat="45.50787" lon="6.70496">
        <ele>2081.4</ele>
        <time>2010-07-24T10:37:32Z</time>
      </trkpt>
      <trkpt lat="45.50804" lon="6.70483">
        <ele>2078.4</ele>
        <time>2010-07-24T10:37:38Z</time>
      </trkpt>
      <trkpt lat="45.50823" lon="6.70472">
        <ele>2075.6</ele>
        <time>2010-07-24T10:37:44Z</time>
      </trkpt>
      <trkpt lat="45.50839" lon="6.70457">
        <ele>2072.6</ele>
        <time>2010-07-24T10:37:50Z</time>
      </trkpt>
      <trkpt lat="45.50853" lon="6.70442">
        <ele>2069.4</ele>
        <time>2010-07-24T10:37:56Z</time>
      </trkpt>
      <trkpt lat="45.50854" lon="6.70437">
        <ele>2068.8</ele>
        <time>2010-07-24T10:37:57Z</time>
      </trkpt>
      <trkpt lat="45.50861" lon="6.70422">
        <ele>2066.8</ele>
        <time>2010-07-24T10:38:01Z</time>
      </trkpt>
      <trkpt lat="45.50865" lon="6.70414">
        <ele>2065.8</ele>
        <time>2010-07-24T10:38:03Z</time>
      </trkpt>
      <trkpt lat="45.50879" lon="6.70397">
        <ele>2063</ele>
        <time>2010-07-24T10:38:08Z</time>
      </trkpt>
      <trkpt lat="45.50893" lon="6.70376">
        <ele>2059.8</ele>
        <time>2010-07-24T10:38:14Z</time>
      </trkpt>
      <trkpt lat="45.50907" lon="6.70356">
        <ele>2056.4</ele>
        <time>2010-07-24T10:38:20Z</time>
      </trkpt>
      <trkpt lat="45.5092" lon="6.70333">
        <ele>2052.8</ele>
        <time>2010-07-24T10:38:26Z</time>
      </trkpt>
      <trkpt lat="45.50932" lon="6.70313">
        <ele>2050</ele>
        <time>2010-07-24T10:38:31Z</time>
      </trkpt>
      <trkpt lat="45.50948" lon="6.70294">
        <ele>2047</ele>
        <time>2010-07-24T10:38:36Z</time>
      </trkpt>
      <trkpt lat="45.50961" lon="6.70274">
        <ele>2044.2</ele>
        <time>2010-07-24T10:38:41Z</time>
      </trkpt>
      <trkpt lat="45.50974" lon="6.70255">
        <ele>2041.4</ele>
        <time>2010-07-24T10:38:46Z</time>
      </trkpt>
      <trkpt lat="45.50987" lon="6.70232">
        <ele>2038</ele>
        <time>2010-07-24T10:38:52Z</time>
      </trkpt>
      <trkpt lat="45.51" lon="6.70214">
        <ele>2035.4</ele>
        <time>2010-07-24T10:38:57Z</time>
      </trkpt>
      <trkpt lat="45.5101" lon="6.702">
        <ele>2033.2</ele>
        <time>2010-07-24T10:39:01Z</time>
      </trkpt>
      <trkpt lat="45.51015" lon="6.70193">
        <ele>2032.2</ele>
        <time>2010-07-24T10:39:03Z</time>
      </trkpt>
      <trkpt lat="45.5102" lon="6.70188">
        <ele>2031.2</ele>
        <time>2010-07-24T10:39:05Z</time>
      </trkpt>
      <trkpt lat="45.51027" lon="6.70172">
        <ele>2029</ele>
        <time>2010-07-24T10:39:09Z</time>
      </trkpt>
      <trkpt lat="45.51042" lon="6.7015">
        <ele>2026</ele>
        <time>2010-07-24T10:39:15Z</time>
      </trkpt>
      <trkpt lat="45.51056" lon="6.70127">
        <ele>2022.8</ele>
        <time>2010-07-24T10:39:21Z</time>
      </trkpt>
      <trkpt lat="45.5107" lon="6.7011">
        <ele>2020.2</ele>
        <time>2010-07-24T10:39:26Z</time>
      </trkpt>
      <trkpt lat="45.51083" lon="6.70092">
        <ele>2017.6</ele>
        <time>2010-07-24T10:39:31Z</time>
      </trkpt>
      <trkpt lat="45.51091" lon="6.70068">
        <ele>2014.6</ele>
        <time>2010-07-24T10:39:37Z</time>
      </trkpt>
      <trkpt lat="45.51096" lon="6.70053">
        <ele>2013</ele>
        <time>2010-07-24T10:39:40Z</time>
      </trkpt>
      <trkpt lat="45.51098" lon="6.70044">
        <ele>2012</ele>
        <time>2010-07-24T10:39:42Z</time>
      </trkpt>
      <trkpt lat="45.51103" lon="6.7002">
        <ele>2009.4</ele>
        <time>2010-07-24T10:39:47Z</time>
      </trkpt>
      <trkpt lat="45.51115" lon="6.69997">
        <ele>2006.2</ele>
        <time>2010-07-24T10:39:53Z</time>
      </trkpt>
      <trkpt lat="45.5113" lon="6.69975">
        <ele>2003.2</ele>
        <time>2010-07-24T10:39:59Z</time>
      </trkpt>
      <trkpt lat="45.51132" lon="6.69971">
        <ele>2002.8</ele>
        <time>2010-07-24T10:40:00Z</time>
      </trkpt>
      <trkpt lat="45.51144" lon="6.69951">
        <ele>2000.2</ele>
        <time>2010-07-24T10:40:05Z</time>
      </trkpt>
      <trkpt lat="45.51156" lon="6.69931">
        <ele>1997.8</ele>
        <time>2010-07-24T10:40:10Z</time>
      </trkpt>
      <trkpt lat="45.51162" lon="6.69917">
        <ele>1996.4</ele>
        <time>2010-07-24T10:40:13Z</time>
      </trkpt>
      <trkpt lat="45.51165" lon="6.69908">
        <ele>1995.4</ele>
        <time>2010-07-24T10:40:15Z</time>
      </trkpt>
      <trkpt lat="45.51176" lon="6.69886">
        <ele>1992.4</ele>
        <time>2010-07-24T10:40:21Z</time>
      </trkpt>
      <trkpt lat="45.51177" lon="6.69881">
        <ele>1991.8</ele>
        <time>2010-07-24T10:40:22Z</time>
      </trkpt>
      <trkpt lat="45.51184" lon="6.69862">
        <ele>1990</ele>
        <time>2010-07-24T10:40:26Z</time>
      </trkpt>
      <trkpt lat="45.51186" lon="6.69858">
        <ele>1989.4</ele>
        <time>2010-07-24T10:40:27Z</time>
      </trkpt>
      <trkpt lat="45.51197" lon="6.69843">
        <ele>1987.6</ele>
        <time>2010-07-24T10:40:31Z</time>
      </trkpt>
      <trkpt lat="45.51209" lon="6.69822">
        <ele>1984.4</ele>
        <time>2010-07-24T10:40:38Z</time>
      </trkpt>
      <trkpt lat="45.51226" lon="6.6981">
        <ele>1981.2</ele>
        <time>2010-07-24T10:40:45Z</time>
      </trkpt>
      <trkpt lat="45.51244" lon="6.69796">
        <ele>1978.4</ele>
        <time>2010-07-24T10:40:51Z</time>
      </trkpt>
      <trkpt lat="45.51259" lon="6.6978">
        <ele>1976.2</ele>
        <time>2010-07-24T10:40:56Z</time>
      </trkpt>
      <trkpt lat="45.5127" lon="6.69759">
        <ele>1973.4</ele>
        <time>2010-07-24T10:41:02Z</time>
      </trkpt>
      <trkpt lat="45.5129" lon="6.69746">
        <ele>1962.4</ele>
        <time>2010-07-24T10:41:29Z</time>
      </trkpt>
      <trkpt lat="45.5131" lon="6.69749">
        <ele>1960.6</ele>
        <time>2010-07-24T10:41:36Z</time>
      </trkpt>
      <trkpt lat="45.51328" lon="6.69758">
        <ele>1959.4</ele>
        <time>2010-07-24T10:41:42Z</time>
      </trkpt>
      <trkpt lat="45.51346" lon="6.69773">
        <ele>1958.4</ele>
        <time>2010-07-24T10:41:48Z</time>
      </trkpt>
      <trkpt lat="45.51364" lon="6.69784">
        <ele>1957.6</ele>
        <time>2010-07-24T10:41:55Z</time>
      </trkpt>
      <trkpt lat="45.51383" lon="6.69785">
        <ele>1957</ele>
        <time>2010-07-24T10:42:02Z</time>
      </trkpt>
      <trkpt lat="45.51396" lon="6.69777">
        <ele>1956.8</ele>
        <time>2010-07-24T10:42:08Z</time>
      </trkpt>
      <trkpt lat="45.51403" lon="6.69775">
        <ele>1956.8</ele>
        <time>2010-07-24T10:42:11Z</time>
      </trkpt>
      <trkpt lat="45.51421" lon="6.69778">
        <ele>1957.8</ele>
        <time>2010-07-24T10:42:15Z</time>
      </trkpt>
      <trkpt lat="45.51432" lon="6.69777">
        <ele>1958.2</ele>
        <time>2010-07-24T10:42:18Z</time>
      </trkpt>
      <trkpt lat="45.51434" lon="6.69764">
        <ele>1957.8</ele>
        <time>2010-07-24T10:42:20Z</time>
      </trkpt>
      <trkpt lat="45.51451" lon="6.69759">
        <ele>1957.6</ele>
        <time>2010-07-24T10:42:28Z</time>
      </trkpt>
      <trkpt lat="45.51469" lon="6.6977">
        <ele>1956.6</ele>
        <time>2010-07-24T10:42:35Z</time>
      </trkpt>
      <trkpt lat="45.51487" lon="6.69775">
        <ele>1955.6</ele>
        <time>2010-07-24T10:42:41Z</time>
      </trkpt>
      <trkpt lat="45.51492" lon="6.69774">
        <ele>1955.2</ele>
        <time>2010-07-24T10:42:43Z</time>
      </trkpt>
      <trkpt lat="45.51503" lon="6.69765">
        <ele>1954.4</ele>
        <time>2010-07-24T10:42:47Z</time>
      </trkpt>
      <trkpt lat="45.51519" lon="6.6975">
        <ele>1953.2</ele>
        <time>2010-07-24T10:42:53Z</time>
      </trkpt>
      <trkpt lat="45.51534" lon="6.69732">
        <ele>1951.8</ele>
        <time>2010-07-24T10:42:59Z</time>
      </trkpt>
      <trkpt lat="45.51547" lon="6.69708">
        <ele>1950.6</ele>
        <time>2010-07-24T10:43:05Z</time>
      </trkpt>
      <trkpt lat="45.51548" lon="6.69683">
        <ele>1950</ele>
        <time>2010-07-24T10:43:09Z</time>
      </trkpt>
      <trkpt lat="45.51547" lon="6.69677">
        <ele>1949.8</ele>
        <time>2010-07-24T10:43:10Z</time>
      </trkpt>
      <trkpt lat="45.51554" lon="6.69649">
        <ele>1948.6</ele>
        <time>2010-07-24T10:43:16Z</time>
      </trkpt>
      <trkpt lat="45.51561" lon="6.69625">
        <ele>1947.6</ele>
        <time>2010-07-24T10:43:21Z</time>
      </trkpt>
      <trkpt lat="45.51564" lon="6.69599">
        <ele>1946.6</ele>
        <time>2010-07-24T10:43:26Z</time>
      </trkpt>
      <trkpt lat="45.51568" lon="6.6957">
        <ele>1945.2</ele>
        <time>2010-07-24T10:43:32Z</time>
      </trkpt>
      <trkpt lat="45.5157" lon="6.69541">
        <ele>1943.4</ele>
        <time>2010-07-24T10:43:38Z</time>
      </trkpt>
      <trkpt lat="45.51572" lon="6.69538">
        <ele>1943.2</ele>
        <time>2010-07-24T10:43:39Z</time>
      </trkpt>
      <trkpt lat="45.51578" lon="6.69516">
        <ele>1941.8</ele>
        <time>2010-07-24T10:43:44Z</time>
      </trkpt>
      <trkpt lat="45.51576" lon="6.69489">
        <ele>1940.6</ele>
        <time>2010-07-24T10:43:49Z</time>
      </trkpt>
      <trkpt lat="45.51571" lon="6.6946">
        <ele>1939.2</ele>
        <time>2010-07-24T10:43:56Z</time>
      </trkpt>
      <trkpt lat="45.51569" lon="6.69458">
        <ele>1939</ele>
        <time>2010-07-24T10:43:57Z</time>
      </trkpt>
      <trkpt lat="45.51554" lon="6.69451">
        <ele>1938.2</ele>
        <time>2010-07-24T10:44:01Z</time>
      </trkpt>
      <trkpt lat="45.51535" lon="6.69447">
        <ele>1937.2</ele>
        <time>2010-07-24T10:44:05Z</time>
      </trkpt>
      <trkpt lat="45.51516" lon="6.69448">
        <ele>1936</ele>
        <time>2010-07-24T10:44:10Z</time>
      </trkpt>
      <trkpt lat="45.51513" lon="6.69451">
        <ele>1935.8</ele>
        <time>2010-07-24T10:44:11Z</time>
      </trkpt>
      <trkpt lat="45.51503" lon="6.69448">
        <ele>1934</ele>
        <time>2010-07-24T10:44:18Z</time>
      </trkpt>
      <trkpt lat="45.51511" lon="6.69422">
        <ele>1931.8</ele>
        <time>2010-07-24T10:44:24Z</time>
      </trkpt>
      <trkpt lat="45.51525" lon="6.69412">
        <ele>1930</ele>
        <time>2010-07-24T10:44:29Z</time>
      </trkpt>
      <trkpt lat="45.51528" lon="6.6941">
        <ele>1929.6</ele>
        <time>2010-07-24T10:44:30Z</time>
      </trkpt>
      <trkpt lat="45.51547" lon="6.69405">
        <ele>1927.6</ele>
        <time>2010-07-24T10:44:35Z</time>
      </trkpt>
      <trkpt lat="45.51566" lon="6.69398">
        <ele>1925.4</ele>
        <time>2010-07-24T10:44:40Z</time>
      </trkpt>
      <trkpt lat="45.51583" lon="6.69386">
        <ele>1923.4</ele>
        <time>2010-07-24T10:44:45Z</time>
      </trkpt>
      <trkpt lat="45.51601" lon="6.69376">
        <ele>1921.2</ele>
        <time>2010-07-24T10:44:50Z</time>
      </trkpt>
      <trkpt lat="45.5162" lon="6.69362">
        <ele>1918.6</ele>
        <time>2010-07-24T10:44:56Z</time>
      </trkpt>
      <trkpt lat="45.51638" lon="6.69355">
        <ele>1916.8</ele>
        <time>2010-07-24T10:45:00Z</time>
      </trkpt>
      <trkpt lat="45.51642" lon="6.69353">
        <ele>1916.4</ele>
        <time>2010-07-24T10:45:01Z</time>
      </trkpt>
      <trkpt lat="45.51646" lon="6.69349">
        <ele>1915.4</ele>
        <time>2010-07-24T10:45:03Z</time>
      </trkpt>
      <trkpt lat="45.51655" lon="6.69345">
        <ele>1914.2</ele>
        <time>2010-07-24T10:45:06Z</time>
      </trkpt>
      <trkpt lat="45.51658" lon="6.69343">
        <ele>1913.8</ele>
        <time>2010-07-24T10:45:07Z</time>
      </trkpt>
      <trkpt lat="45.51673" lon="6.69338">
        <ele>1912.2</ele>
        <time>2010-07-24T10:45:11Z</time>
      </trkpt>
      <trkpt lat="45.5169" lon="6.6933">
        <ele>1910.4</ele>
        <time>2010-07-24T10:45:16Z</time>
      </trkpt>
      <trkpt lat="45.51708" lon="6.69321">
        <ele>1908.8</ele>
        <time>2010-07-24T10:45:21Z</time>
      </trkpt>
      <trkpt lat="45.51716" lon="6.69314">
        <ele>1907.8</ele>
        <time>2010-07-24T10:45:24Z</time>
      </trkpt>
      <trkpt lat="45.51725" lon="6.69306">
        <ele>1906.8</ele>
        <time>2010-07-24T10:45:27Z</time>
      </trkpt>
      <trkpt lat="45.51733" lon="6.69303">
        <ele>1906.2</ele>
        <time>2010-07-24T10:45:29Z</time>
      </trkpt>
      <trkpt lat="45.51745" lon="6.69298">
        <ele>1905.2</ele>
        <time>2010-07-24T10:45:32Z</time>
      </trkpt>
      <trkpt lat="45.51765" lon="6.69294">
        <ele>1904</ele>
        <time>2010-07-24T10:45:36Z</time>
      </trkpt>
      <trkpt lat="45.51784" lon="6.69282">
        <ele>1902</ele>
        <time>2010-07-24T10:45:42Z</time>
      </trkpt>
      <trkpt lat="45.51802" lon="6.6927">
        <ele>1900.2</ele>
        <time>2010-07-24T10:45:47Z</time>
      </trkpt>
      <trkpt lat="45.51821" lon="6.69255">
        <ele>1898</ele>
        <time>2010-07-24T10:45:53Z</time>
      </trkpt>
      <trkpt lat="45.51838" lon="6.6924">
        <ele>1895.6</ele>
        <time>2010-07-24T10:46:00Z</time>
      </trkpt>
      <trkpt lat="45.51852" lon="6.69223">
        <ele>1893</ele>
        <time>2010-07-24T10:46:07Z</time>
      </trkpt>
      <trkpt lat="45.51863" lon="6.69204">
        <ele>1890.8</ele>
        <time>2010-07-24T10:46:14Z</time>
      </trkpt>
      <trkpt lat="45.51868" lon="6.69196">
        <ele>1889.8</ele>
        <time>2010-07-24T10:46:17Z</time>
      </trkpt>
      <trkpt lat="45.51871" lon="6.69192">
        <ele>1889.2</ele>
        <time>2010-07-24T10:46:19Z</time>
      </trkpt>
      <trkpt lat="45.51878" lon="6.69188">
        <ele>1888.2</ele>
        <time>2010-07-24T10:46:23Z</time>
      </trkpt>
      <trkpt lat="45.51884" lon="6.69187">
        <ele>1887.4</ele>
        <time>2010-07-24T10:46:26Z</time>
      </trkpt>
      <trkpt lat="45.51885" lon="6.69185">
        <ele>1887.2</ele>
        <time>2010-07-24T10:46:27Z</time>
      </trkpt>
      <trkpt lat="45.51893" lon="6.69182">
        <ele>1886</ele>
        <time>2010-07-24T10:46:32Z</time>
      </trkpt>
      <trkpt lat="45.51897" lon="6.69181">
        <ele>1885.6</ele>
        <time>2010-07-24T10:46:34Z</time>
      </trkpt>
      <trkpt lat="45.51914" lon="6.69181">
        <ele>1884</ele>
        <time>2010-07-24T10:46:42Z</time>
      </trkpt>
      <trkpt lat="45.51932" lon="6.69176">
        <ele>1881.6</ele>
        <time>2010-07-24T10:46:54Z</time>
      </trkpt>
      <trkpt lat="45.51938" lon="6.69168">
        <ele>1880.6</ele>
        <time>2010-07-24T10:46:59Z</time>
      </trkpt>
      <trkpt lat="45.51941" lon="6.69158">
        <ele>1880.2</ele>
        <time>2010-07-24T10:47:04Z</time>
      </trkpt>
      <trkpt lat="45.51944" lon="6.69158">
        <ele>1879.8</ele>
        <time>2010-07-24T10:47:06Z</time>
      </trkpt>
      <trkpt lat="45.5195" lon="6.69157">
        <ele>1879.4</ele>
        <time>2010-07-24T10:47:11Z</time>
      </trkpt>
      <trkpt lat="45.51961" lon="6.69154">
        <ele>1878.8</ele>
        <time>2010-07-24T10:47:18Z</time>
      </trkpt>
      <trkpt lat="45.51962" lon="6.69154">
        <ele>1878.8</ele>
        <time>2010-07-24T10:47:19Z</time>
      </trkpt>
      <trkpt lat="45.51971" lon="6.69142">
        <ele>1878</ele>
        <time>2010-07-24T10:47:28Z</time>
      </trkpt>
      <trkpt lat="45.51975" lon="6.69136">
        <ele>1877.8</ele>
        <time>2010-07-24T10:47:32Z</time>
      </trkpt>
      <trkpt lat="45.5198" lon="6.69125">
        <ele>1877.6</ele>
        <time>2010-07-24T10:47:37Z</time>
      </trkpt>
      <trkpt lat="45.51983" lon="6.69115">
        <ele>1877.4</ele>
        <time>2010-07-24T10:47:42Z</time>
      </trkpt>
      <trkpt lat="45.51999" lon="6.69099">
        <ele>1877.2</ele>
        <time>2010-07-24T10:47:51Z</time>
      </trkpt>
      <trkpt lat="45.52015" lon="6.69081">
        <ele>1877.2</ele>
        <time>2010-07-24T10:47:59Z</time>
      </trkpt>
      <trkpt lat="45.52018" lon="6.69075">
        <ele>1877.4</ele>
        <time>2010-07-24T10:48:01Z</time>
      </trkpt>
      <trkpt lat="45.52025" lon="6.6906">
        <ele>1878</ele>
        <time>2010-07-24T10:48:05Z</time>
      </trkpt>
      <trkpt lat="45.52031" lon="6.69033">
        <ele>1880</ele>
        <time>2010-07-24T10:48:10Z</time>
      </trkpt>
      <trkpt lat="45.5204" lon="6.6901">
        <ele>1882</ele>
        <time>2010-07-24T10:48:16Z</time>
      </trkpt>
      <trkpt lat="45.52057" lon="6.68996">
        <ele>1884.4</ele>
        <time>2010-07-24T10:48:24Z</time>
      </trkpt>
      <trkpt lat="45.52077" lon="6.6899">
        <ele>1886</ele>
        <time>2010-07-24T10:48:32Z</time>
      </trkpt>
      <trkpt lat="45.52096" lon="6.68987">
        <ele>1887</ele>
        <time>2010-07-24T10:48:39Z</time>
      </trkpt>
      <trkpt lat="45.52103" lon="6.68982">
        <ele>1886.8</ele>
        <time>2010-07-24T10:48:42Z</time>
      </trkpt>
      <trkpt lat="45.5211" lon="6.6897">
        <ele>1886.8</ele>
        <time>2010-07-24T10:48:47Z</time>
      </trkpt>
      <trkpt lat="45.52118" lon="6.68946">
        <ele>1886.6</ele>
        <time>2010-07-24T10:48:56Z</time>
      </trkpt>
      <trkpt lat="45.52121" lon="6.68942">
        <ele>1886.4</ele>
        <time>2010-07-24T10:48:58Z</time>
      </trkpt>
      <trkpt lat="45.52134" lon="6.68932">
        <ele>1886</ele>
        <time>2010-07-24T10:49:05Z</time>
      </trkpt>
      <trkpt lat="45.52148" lon="6.68915">
        <ele>1885.4</ele>
        <time>2010-07-24T10:49:13Z</time>
      </trkpt>
      <trkpt lat="45.52158" lon="6.68892">
        <ele>1885.2</ele>
        <time>2010-07-24T10:49:21Z</time>
      </trkpt>
      <trkpt lat="45.52163" lon="6.68867">
        <ele>1885</ele>
        <time>2010-07-24T10:49:28Z</time>
      </trkpt>
      <trkpt lat="45.52173" lon="6.68846">
        <ele>1885.8</ele>
        <time>2010-07-24T10:49:36Z</time>
      </trkpt>
      <trkpt lat="45.52192" lon="6.6884">
        <ele>1887.2</ele>
        <time>2010-07-24T10:49:45Z</time>
      </trkpt>
      <trkpt lat="45.52212" lon="6.68834">
        <ele>1889.2</ele>
        <time>2010-07-24T10:49:54Z</time>
      </trkpt>
      <trkpt lat="45.52217" lon="6.68829">
        <ele>1890</ele>
        <time>2010-07-24T10:49:57Z</time>
      </trkpt>
      <trkpt lat="45.52227" lon="6.68815">
        <ele>1891.6</ele>
        <time>2010-07-24T10:50:02Z</time>
      </trkpt>
      <trkpt lat="45.52245" lon="6.68804">
        <ele>1894</ele>
        <time>2010-07-24T10:50:09Z</time>
      </trkpt>
      <trkpt lat="45.52257" lon="6.68801">
        <ele>1895</ele>
        <time>2010-07-24T10:50:13Z</time>
      </trkpt>
      <trkpt lat="45.52264" lon="6.688">
        <ele>1895.4</ele>
        <time>2010-07-24T10:50:15Z</time>
      </trkpt>
      <trkpt lat="45.52275" lon="6.68781">
        <ele>1896.2</ele>
        <time>2010-07-24T10:50:22Z</time>
      </trkpt>
      <trkpt lat="45.52283" lon="6.68766">
        <ele>1896.8</ele>
        <time>2010-07-24T10:50:27Z</time>
      </trkpt>
      <trkpt lat="45.52287" lon="6.68758">
        <ele>1897</ele>
        <time>2010-07-24T10:50:29Z</time>
      </trkpt>
      <trkpt lat="45.52297" lon="6.68737">
        <ele>1897.4</ele>
        <time>2010-07-24T10:50:35Z</time>
      </trkpt>
      <trkpt lat="45.52312" lon="6.68719">
        <ele>1898</ele>
        <time>2010-07-24T10:50:42Z</time>
      </trkpt>
      <trkpt lat="45.52321" lon="6.68695">
        <ele>1898.4</ele>
        <time>2010-07-24T10:50:48Z</time>
      </trkpt>
      <trkpt lat="45.52325" lon="6.68668">
        <ele>1898.8</ele>
        <time>2010-07-24T10:50:54Z</time>
      </trkpt>
      <trkpt lat="45.52336" lon="6.68643">
        <ele>1899.2</ele>
        <time>2010-07-24T10:51:01Z</time>
      </trkpt>
      <trkpt lat="45.52349" lon="6.68625">
        <ele>1899.6</ele>
        <time>2010-07-24T10:51:07Z</time>
      </trkpt>
      <trkpt lat="45.52368" lon="6.6861">
        <ele>1899.4</ele>
        <time>2010-07-24T10:51:14Z</time>
      </trkpt>
      <trkpt lat="45.5238" lon="6.68589">
        <ele>1899.4</ele>
        <time>2010-07-24T10:51:20Z</time>
      </trkpt>
      <trkpt lat="45.52396" lon="6.68576">
        <ele>1899.2</ele>
        <time>2010-07-24T10:51:27Z</time>
      </trkpt>
      <trkpt lat="45.52406" lon="6.68557">
        <ele>1899.2</ele>
        <time>2010-07-24T10:51:32Z</time>
      </trkpt>
      <trkpt lat="45.52419" lon="6.68537">
        <ele>1899.2</ele>
        <time>2010-07-24T10:51:38Z</time>
      </trkpt>
      <trkpt lat="45.52435" lon="6.68524">
        <ele>1899</ele>
        <time>2010-07-24T10:51:44Z</time>
      </trkpt>
      <trkpt lat="45.52452" lon="6.68512">
        <ele>1899</ele>
        <time>2010-07-24T10:51:49Z</time>
      </trkpt>
      <trkpt lat="45.52467" lon="6.68497">
        <ele>1898.8</ele>
        <time>2010-07-24T10:51:54Z</time>
      </trkpt>
      <trkpt lat="45.52483" lon="6.68482">
        <ele>1898.8</ele>
        <time>2010-07-24T10:51:59Z</time>
      </trkpt>
      <trkpt lat="45.52495" lon="6.68477">
        <ele>1898.6</ele>
        <time>2010-07-24T10:52:03Z</time>
      </trkpt>
      <trkpt lat="45.52501" lon="6.68477">
        <ele>1898.6</ele>
        <time>2010-07-24T10:52:05Z</time>
      </trkpt>
      <trkpt lat="45.5251" lon="6.68479">
        <ele>1898.6</ele>
        <time>2010-07-24T10:52:08Z</time>
      </trkpt>
      <trkpt lat="45.52513" lon="6.68479">
        <ele>1898.6</ele>
        <time>2010-07-24T10:52:09Z</time>
      </trkpt>
      <trkpt lat="45.52519" lon="6.68478">
        <ele>1898.6</ele>
        <time>2010-07-24T10:52:11Z</time>
      </trkpt>
      <trkpt lat="45.52539" lon="6.68471">
        <ele>1898.4</ele>
        <time>2010-07-24T10:52:17Z</time>
      </trkpt>
      <trkpt lat="45.52554" lon="6.68456">
        <ele>1898.4</ele>
        <time>2010-07-24T10:52:23Z</time>
      </trkpt>
      <trkpt lat="45.52567" lon="6.68437">
        <ele>1898.4</ele>
        <time>2010-07-24T10:52:29Z</time>
      </trkpt>
      <trkpt lat="45.52584" lon="6.68421">
        <ele>1898.2</ele>
        <time>2010-07-24T10:52:36Z</time>
      </trkpt>
      <trkpt lat="45.52602" lon="6.68418">
        <ele>1898</ele>
        <time>2010-07-24T10:52:41Z</time>
      </trkpt>
      <trkpt lat="45.52623" lon="6.68419">
        <ele>1898</ele>
        <time>2010-07-24T10:52:46Z</time>
      </trkpt>
      <trkpt lat="45.52639" lon="6.68424">
        <ele>1897.8</ele>
        <time>2010-07-24T10:52:50Z</time>
      </trkpt>
      <trkpt lat="45.52643" lon="6.68424">
        <ele>1897.6</ele>
        <time>2010-07-24T10:52:51Z</time>
      </trkpt>
      <trkpt lat="45.52661" lon="6.68436">
        <ele>1897.2</ele>
        <time>2010-07-24T10:52:56Z</time>
      </trkpt>
      <trkpt lat="45.52675" lon="6.68451">
        <ele>1896.8</ele>
        <time>2010-07-24T10:53:01Z</time>
      </trkpt>
      <trkpt lat="45.52691" lon="6.68471">
        <ele>1896</ele>
        <time>2010-07-24T10:53:07Z</time>
      </trkpt>
      <trkpt lat="45.52694" lon="6.68499">
        <ele>1895</ele>
        <time>2010-07-24T10:53:13Z</time>
      </trkpt>
      <trkpt lat="45.52687" lon="6.68524">
        <ele>1894</ele>
        <time>2010-07-24T10:53:18Z</time>
      </trkpt>
      <trkpt lat="45.52686" lon="6.68552">
        <ele>1893.2</ele>
        <time>2010-07-24T10:53:23Z</time>
      </trkpt>
      <trkpt lat="45.52695" lon="6.68579">
        <ele>1892.2</ele>
        <time>2010-07-24T10:53:29Z</time>
      </trkpt>
      <trkpt lat="45.52702" lon="6.68605">
        <ele>1891.4</ele>
        <time>2010-07-24T10:53:35Z</time>
      </trkpt>
      <trkpt lat="45.5271" lon="6.68632">
        <ele>1890.6</ele>
        <time>2010-07-24T10:53:41Z</time>
      </trkpt>
      <trkpt lat="45.52725" lon="6.6865">
        <ele>1890</ele>
        <time>2010-07-24T10:53:47Z</time>
      </trkpt>
      <trkpt lat="45.5274" lon="6.68665">
        <ele>1889.4</ele>
        <time>2010-07-24T10:53:53Z</time>
      </trkpt>
      <trkpt lat="45.52754" lon="6.68683">
        <ele>1888.8</ele>
        <time>2010-07-24T10:53:59Z</time>
      </trkpt>
      <trkpt lat="45.52769" lon="6.687">
        <ele>1888.4</ele>
        <time>2010-07-24T10:54:05Z</time>
      </trkpt>
      <trkpt lat="45.52786" lon="6.68715">
        <ele>1887.8</ele>
        <time>2010-07-24T10:54:11Z</time>
      </trkpt>
      <trkpt lat="45.528" lon="6.68731">
        <ele>1887.4</ele>
        <time>2010-07-24T10:54:16Z</time>
      </trkpt>
      <trkpt lat="45.52807" lon="6.68757">
        <ele>1886.8</ele>
        <time>2010-07-24T10:54:21Z</time>
      </trkpt>
      <trkpt lat="45.5281" lon="6.68782">
        <ele>1886</ele>
        <time>2010-07-24T10:54:26Z</time>
      </trkpt>
      <trkpt lat="45.52811" lon="6.68812">
        <ele>1885.2</ele>
        <time>2010-07-24T10:54:32Z</time>
      </trkpt>
      <trkpt lat="45.52807" lon="6.68841">
        <ele>1884.4</ele>
        <time>2010-07-24T10:54:38Z</time>
      </trkpt>
      <trkpt lat="45.52801" lon="6.68868">
        <ele>1883.6</ele>
        <time>2010-07-24T10:54:43Z</time>
      </trkpt>
      <trkpt lat="45.52797" lon="6.68894">
        <ele>1883</ele>
        <time>2010-07-24T10:54:48Z</time>
      </trkpt>
      <trkpt lat="45.528" lon="6.6892">
        <ele>1882</ele>
        <time>2010-07-24T10:54:54Z</time>
      </trkpt>
      <trkpt lat="45.52801" lon="6.68947">
        <ele>1881.2</ele>
        <time>2010-07-24T10:55:00Z</time>
      </trkpt>
      <trkpt lat="45.528" lon="6.68977">
        <ele>1880.4</ele>
        <time>2010-07-24T10:55:06Z</time>
      </trkpt>
      <trkpt lat="45.52796" lon="6.69003">
        <ele>1879.6</ele>
        <time>2010-07-24T10:55:12Z</time>
      </trkpt>
      <trkpt lat="45.52792" lon="6.69029">
        <ele>1878.2</ele>
        <time>2010-07-24T10:55:21Z</time>
      </trkpt>
      <trkpt lat="45.52791" lon="6.69031">
        <ele>1878</ele>
        <time>2010-07-24T10:55:22Z</time>
      </trkpt>
      <trkpt lat="45.52787" lon="6.6904">
        <ele>1877.4</ele>
        <time>2010-07-24T10:55:28Z</time>
      </trkpt>
      <trkpt lat="45.52784" lon="6.69052">
        <ele>1876.4</ele>
        <time>2010-07-24T10:55:34Z</time>
      </trkpt>
      <trkpt lat="45.52782" lon="6.69054">
        <ele>1876.2</ele>
        <time>2010-07-24T10:55:35Z</time>
      </trkpt>
      <trkpt lat="45.5278" lon="6.69057">
        <ele>1875.8</ele>
        <time>2010-07-24T10:55:37Z</time>
      </trkpt>
      <trkpt lat="45.52782" lon="6.69077">
        <ele>1874.6</ele>
        <time>2010-07-24T10:55:46Z</time>
      </trkpt>
      <trkpt lat="45.52796" lon="6.69096">
        <ele>1874.2</ele>
        <time>2010-07-24T10:55:56Z</time>
      </trkpt>
      <trkpt lat="45.52806" lon="6.69119">
        <ele>1873.8</ele>
        <time>2010-07-24T10:56:08Z</time>
      </trkpt>
      <trkpt lat="45.52814" lon="6.69129">
        <ele>1873.8</ele>
        <time>2010-07-24T10:56:14Z</time>
      </trkpt>
      <trkpt lat="45.52819" lon="6.69139">
        <ele>1873.8</ele>
        <time>2010-07-24T10:56:18Z</time>
      </trkpt>
      <trkpt lat="45.52828" lon="6.69161">
        <ele>1873.8</ele>
        <time>2010-07-24T10:56:25Z</time>
      </trkpt>
      <trkpt lat="45.52842" lon="6.69178">
        <ele>1873.8</ele>
        <time>2010-07-24T10:56:32Z</time>
      </trkpt>
      <trkpt lat="45.52859" lon="6.69195">
        <ele>1873.8</ele>
        <time>2010-07-24T10:56:39Z</time>
      </trkpt>
      <trkpt lat="45.52875" lon="6.69206">
        <ele>1873.8</ele>
        <time>2010-07-24T10:56:44Z</time>
      </trkpt>
      <trkpt lat="45.52892" lon="6.69218">
        <ele>1873.8</ele>
        <time>2010-07-24T10:56:49Z</time>
      </trkpt>
      <trkpt lat="45.52909" lon="6.69232">
        <ele>1873.6</ele>
        <time>2010-07-24T10:56:55Z</time>
      </trkpt>
      <trkpt lat="45.52925" lon="6.69245">
        <ele>1873.4</ele>
        <time>2010-07-24T10:57:00Z</time>
      </trkpt>
      <trkpt lat="45.52941" lon="6.69258">
        <ele>1872.8</ele>
        <time>2010-07-24T10:57:05Z</time>
      </trkpt>
      <trkpt lat="45.52957" lon="6.69274">
        <ele>1872.2</ele>
        <time>2010-07-24T10:57:11Z</time>
      </trkpt>
      <trkpt lat="45.52974" lon="6.69289">
        <ele>1871.4</ele>
        <time>2010-07-24T10:57:17Z</time>
      </trkpt>
      <trkpt lat="45.52992" lon="6.69301">
        <ele>1870.6</ele>
        <time>2010-07-24T10:57:22Z</time>
      </trkpt>
      <trkpt lat="45.53009" lon="6.69311">
        <ele>1869.8</ele>
        <time>2010-07-24T10:57:27Z</time>
      </trkpt>
      <trkpt lat="45.53026" lon="6.69324">
        <ele>1869</ele>
        <time>2010-07-24T10:57:32Z</time>
      </trkpt>
      <trkpt lat="45.53044" lon="6.69332">
        <ele>1867.8</ele>
        <time>2010-07-24T10:57:38Z</time>
      </trkpt>
      <trkpt lat="45.5306" lon="6.69345">
        <ele>1866.6</ele>
        <time>2010-07-24T10:57:43Z</time>
      </trkpt>
      <trkpt lat="45.53068" lon="6.69368">
        <ele>1865.4</ele>
        <time>2010-07-24T10:57:48Z</time>
      </trkpt>
      <trkpt lat="45.53078" lon="6.69393">
        <ele>1863.8</ele>
        <time>2010-07-24T10:57:54Z</time>
      </trkpt>
      <trkpt lat="45.5308" lon="6.69421">
        <ele>1862.2</ele>
        <time>2010-07-24T10:58:01Z</time>
      </trkpt>
      <trkpt lat="45.5308" lon="6.69427">
        <ele>1861.6</ele>
        <time>2010-07-24T10:58:03Z</time>
      </trkpt>
      <trkpt lat="45.53085" lon="6.69441">
        <ele>1861</ele>
        <time>2010-07-24T10:58:07Z</time>
      </trkpt>
      <trkpt lat="45.53087" lon="6.69443">
        <ele>1860.8</ele>
        <time>2010-07-24T10:58:08Z</time>
      </trkpt>
      <trkpt lat="45.53104" lon="6.69459">
        <ele>1859.4</ele>
        <time>2010-07-24T10:58:15Z</time>
      </trkpt>
      <trkpt lat="45.53119" lon="6.69472">
        <ele>1858.8</ele>
        <time>2010-07-24T10:58:20Z</time>
      </trkpt>
      <trkpt lat="45.53137" lon="6.69482">
        <ele>1858</ele>
        <time>2010-07-24T10:58:26Z</time>
      </trkpt>
      <trkpt lat="45.53154" lon="6.69493">
        <ele>1857.2</ele>
        <time>2010-07-24T10:58:33Z</time>
      </trkpt>
      <trkpt lat="45.53172" lon="6.69508">
        <ele>1856.2</ele>
        <time>2010-07-24T10:58:40Z</time>
      </trkpt>
      <trkpt lat="45.53188" lon="6.69523">
        <ele>1855.6</ele>
        <time>2010-07-24T10:58:46Z</time>
      </trkpt>
      <trkpt lat="45.53201" lon="6.69541">
        <ele>1855</ele>
        <time>2010-07-24T10:58:51Z</time>
      </trkpt>
      <trkpt lat="45.5322" lon="6.69553">
        <ele>1854.6</ele>
        <time>2010-07-24T10:58:57Z</time>
      </trkpt>
      <trkpt lat="45.53238" lon="6.69566">
        <ele>1854</ele>
        <time>2010-07-24T10:59:02Z</time>
      </trkpt>
      <trkpt lat="45.53254" lon="6.69579">
        <ele>1853.6</ele>
        <time>2010-07-24T10:59:07Z</time>
      </trkpt>
      <trkpt lat="45.5327" lon="6.69592">
        <ele>1853.2</ele>
        <time>2010-07-24T10:59:12Z</time>
      </trkpt>
      <trkpt lat="45.53291" lon="6.69596">
        <ele>1852.6</ele>
        <time>2010-07-24T10:59:18Z</time>
      </trkpt>
      <trkpt lat="45.53307" lon="6.69604">
        <ele>1852</ele>
        <time>2010-07-24T10:59:22Z</time>
      </trkpt>
      <trkpt lat="45.53324" lon="6.69616">
        <ele>1851.4</ele>
        <time>2010-07-24T10:59:26Z</time>
      </trkpt>
      <trkpt lat="45.53339" lon="6.69636">
        <ele>1850.4</ele>
        <time>2010-07-24T10:59:32Z</time>
      </trkpt>
      <trkpt lat="45.53352" lon="6.69661">
        <ele>1849</ele>
        <time>2010-07-24T10:59:38Z</time>
      </trkpt>
      <trkpt lat="45.5337" lon="6.69674">
        <ele>1846.8</ele>
        <time>2010-07-24T10:59:46Z</time>
      </trkpt>
      <trkpt lat="45.53387" lon="6.69685">
        <ele>1844.6</ele>
        <time>2010-07-24T10:59:53Z</time>
      </trkpt>
      <trkpt lat="45.53394" lon="6.69686">
        <ele>1844</ele>
        <time>2010-07-24T10:59:55Z</time>
      </trkpt>
      <trkpt lat="45.53404" lon="6.69694">
        <ele>1842.6</ele>
        <time>2010-07-24T10:59:59Z</time>
      </trkpt>
      <trkpt lat="45.53413" lon="6.69702">
        <ele>1841.4</ele>
        <time>2010-07-24T11:00:03Z</time>
      </trkpt>
      <trkpt lat="45.53419" lon="6.69707">
        <ele>1840.6</ele>
        <time>2010-07-24T11:00:05Z</time>
      </trkpt>
      <trkpt lat="45.53436" lon="6.69723">
        <ele>1838.4</ele>
        <time>2010-07-24T11:00:11Z</time>
      </trkpt>
      <trkpt lat="45.53445" lon="6.69735">
        <ele>1837</ele>
        <time>2010-07-24T11:00:15Z</time>
      </trkpt>
      <trkpt lat="45.5345" lon="6.69739">
        <ele>1836</ele>
        <time>2010-07-24T11:00:17Z</time>
      </trkpt>
      <trkpt lat="45.53466" lon="6.69749">
        <ele>1834.6</ele>
        <time>2010-07-24T11:00:21Z</time>
      </trkpt>
      <trkpt lat="45.53485" lon="6.69755">
        <ele>1832.8</ele>
        <time>2010-07-24T11:00:25Z</time>
      </trkpt>
      <trkpt lat="45.53488" lon="6.69757">
        <ele>1832.4</ele>
        <time>2010-07-24T11:00:26Z</time>
      </trkpt>
      <trkpt lat="45.53504" lon="6.69761">
        <ele>1830.8</ele>
        <time>2010-07-24T11:00:30Z</time>
      </trkpt>
      <trkpt lat="45.53508" lon="6.69762">
        <ele>1830.4</ele>
        <time>2010-07-24T11:00:31Z</time>
      </trkpt>
      <trkpt lat="45.53513" lon="6.69766">
        <ele>1829.8</ele>
        <time>2010-07-24T11:00:33Z</time>
      </trkpt>
      <trkpt lat="45.53522" lon="6.69778">
        <ele>1828.2</ele>
        <time>2010-07-24T11:00:37Z</time>
      </trkpt>
      <trkpt lat="45.53525" lon="6.69792">
        <ele>1827</ele>
        <time>2010-07-24T11:00:40Z</time>
      </trkpt>
      <trkpt lat="45.53527" lon="6.69797">
        <ele>1826.4</ele>
        <time>2010-07-24T11:00:42Z</time>
      </trkpt>
      <trkpt lat="45.53533" lon="6.69798">
        <ele>1825.2</ele>
        <time>2010-07-24T11:00:45Z</time>
      </trkpt>
      <trkpt lat="45.53548" lon="6.69813">
        <ele>1822.6</ele>
        <time>2010-07-24T11:00:51Z</time>
      </trkpt>
      <trkpt lat="45.53564" lon="6.69824">
        <ele>1819.8</ele>
        <time>2010-07-24T11:00:57Z</time>
      </trkpt>
      <trkpt lat="45.53567" lon="6.69826">
        <ele>1819.4</ele>
        <time>2010-07-24T11:00:58Z</time>
      </trkpt>
      <trkpt lat="45.5358" lon="6.69836">
        <ele>1817.6</ele>
        <time>2010-07-24T11:01:02Z</time>
      </trkpt>
      <trkpt lat="45.53594" lon="6.69851">
        <ele>1815.2</ele>
        <time>2010-07-24T11:01:07Z</time>
      </trkpt>
      <trkpt lat="45.53611" lon="6.6987">
        <ele>1811.8</ele>
        <time>2010-07-24T11:01:14Z</time>
      </trkpt>
      <trkpt lat="45.53628" lon="6.69879">
        <ele>1809.2</ele>
        <time>2010-07-24T11:01:19Z</time>
      </trkpt>
      <trkpt lat="45.53641" lon="6.69899">
        <ele>1805.8</ele>
        <time>2010-07-24T11:01:25Z</time>
      </trkpt>
      <trkpt lat="45.53647" lon="6.69926">
        <ele>1802.8</ele>
        <time>2010-07-24T11:01:30Z</time>
      </trkpt>
      <trkpt lat="45.53651" lon="6.69951">
        <ele>1800</ele>
        <time>2010-07-24T11:01:35Z</time>
      </trkpt>
      <trkpt lat="45.53662" lon="6.69971">
        <ele>1796.6</ele>
        <time>2010-07-24T11:01:41Z</time>
      </trkpt>
      <trkpt lat="45.53665" lon="6.69973">
        <ele>1796.2</ele>
        <time>2010-07-24T11:01:42Z</time>
      </trkpt>
      <trkpt lat="45.53674" lon="6.69989">
        <ele>1794</ele>
        <time>2010-07-24T11:01:46Z</time>
      </trkpt>
      <trkpt lat="45.53676" lon="6.69994">
        <ele>1793.4</ele>
        <time>2010-07-24T11:01:47Z</time>
      </trkpt>
      <trkpt lat="45.53679" lon="6.70021">
        <ele>1790.4</ele>
        <time>2010-07-24T11:01:53Z</time>
      </trkpt>
      <trkpt lat="45.53681" lon="6.70051">
        <ele>1786.8</ele>
        <time>2010-07-24T11:02:00Z</time>
      </trkpt>
      <trkpt lat="45.5369" lon="6.70075">
        <ele>1783.4</ele>
        <time>2010-07-24T11:02:07Z</time>
      </trkpt>
      <trkpt lat="45.53695" lon="6.70088">
        <ele>1781.6</ele>
        <time>2010-07-24T11:02:11Z</time>
      </trkpt>
      <trkpt lat="45.53701" lon="6.70094">
        <ele>1780.2</ele>
        <time>2010-07-24T11:02:14Z</time>
      </trkpt>
      <trkpt lat="45.53713" lon="6.70101">
        <ele>1778</ele>
        <time>2010-07-24T11:02:19Z</time>
      </trkpt>
      <trkpt lat="45.53719" lon="6.70105">
        <ele>1776.8</ele>
        <time>2010-07-24T11:02:22Z</time>
      </trkpt>
      <trkpt lat="45.53728" lon="6.70104">
        <ele>1775.2</ele>
        <time>2010-07-24T11:02:26Z</time>
      </trkpt>
      <trkpt lat="45.53737" lon="6.70102">
        <ele>1774</ele>
        <time>2010-07-24T11:02:29Z</time>
      </trkpt>
      <trkpt lat="45.53755" lon="6.701">
        <ele>1771.8</ele>
        <time>2010-07-24T11:02:34Z</time>
      </trkpt>
      <trkpt lat="45.53773" lon="6.70106">
        <ele>1769.4</ele>
        <time>2010-07-24T11:02:40Z</time>
      </trkpt>
      <trkpt lat="45.53792" lon="6.70118">
        <ele>1767</ele>
        <time>2010-07-24T11:02:46Z</time>
      </trkpt>
      <trkpt lat="45.53812" lon="6.70131">
        <ele>1764.6</ele>
        <time>2010-07-24T11:02:52Z</time>
      </trkpt>
      <trkpt lat="45.5383" lon="6.70138">
        <ele>1762.4</ele>
        <time>2010-07-24T11:02:57Z</time>
      </trkpt>
      <trkpt lat="45.53842" lon="6.70119">
        <ele>1759.8</ele>
        <time>2010-07-24T11:03:03Z</time>
      </trkpt>
      <trkpt lat="45.53856" lon="6.70129">
        <ele>1757</ele>
        <time>2010-07-24T11:03:09Z</time>
      </trkpt>
      <trkpt lat="45.53858" lon="6.70133">
        <ele>1756.4</ele>
        <time>2010-07-24T11:03:10Z</time>
      </trkpt>
      <trkpt lat="45.5387" lon="6.70147">
        <ele>1753.8</ele>
        <time>2010-07-24T11:03:15Z</time>
      </trkpt>
      <trkpt lat="45.53882" lon="6.70169">
        <ele>1750.6</ele>
        <time>2010-07-24T11:03:21Z</time>
      </trkpt>
      <trkpt lat="45.53884" lon="6.70179">
        <ele>1749.4</ele>
        <time>2010-07-24T11:03:23Z</time>
      </trkpt>
      <trkpt lat="45.53882" lon="6.70196">
        <ele>1747</ele>
        <time>2010-07-24T11:03:27Z</time>
      </trkpt>
      <trkpt lat="45.53877" lon="6.70224">
        <ele>1743.2</ele>
        <time>2010-07-24T11:03:33Z</time>
      </trkpt>
      <trkpt lat="45.53872" lon="6.70251">
        <ele>1740.2</ele>
        <time>2010-07-24T11:03:38Z</time>
      </trkpt>
      <trkpt lat="45.53867" lon="6.70281">
        <ele>1737.4</ele>
        <time>2010-07-24T11:03:43Z</time>
      </trkpt>
      <trkpt lat="45.53865" lon="6.70286">
        <ele>1736.8</ele>
        <time>2010-07-24T11:03:44Z</time>
      </trkpt>
      <trkpt lat="45.53858" lon="6.70305">
        <ele>1734.6</ele>
        <time>2010-07-24T11:03:48Z</time>
      </trkpt>
      <trkpt lat="45.53856" lon="6.70309">
        <ele>1734.2</ele>
        <time>2010-07-24T11:03:49Z</time>
      </trkpt>
      <trkpt lat="45.53848" lon="6.70331">
        <ele>1731.4</ele>
        <time>2010-07-24T11:03:54Z</time>
      </trkpt>
      <trkpt lat="45.53839" lon="6.70354">
        <ele>1728.8</ele>
        <time>2010-07-24T11:03:59Z</time>
      </trkpt>
      <trkpt lat="45.53827" lon="6.70375">
        <ele>1726.2</ele>
        <time>2010-07-24T11:04:04Z</time>
      </trkpt>
      <trkpt lat="45.5382" lon="6.704">
        <ele>1723.6</ele>
        <time>2010-07-24T11:04:09Z</time>
      </trkpt>
      <trkpt lat="45.53814" lon="6.70425">
        <ele>1721</ele>
        <time>2010-07-24T11:04:14Z</time>
      </trkpt>
      <trkpt lat="45.53812" lon="6.70455">
        <ele>1717.8</ele>
        <time>2010-07-24T11:04:20Z</time>
      </trkpt>
      <trkpt lat="45.53807" lon="6.70482">
        <ele>1714.4</ele>
        <time>2010-07-24T11:04:26Z</time>
      </trkpt>
      <trkpt lat="45.538" lon="6.70508">
        <ele>1711.4</ele>
        <time>2010-07-24T11:04:32Z</time>
      </trkpt>
      <trkpt lat="45.53796" lon="6.70524">
        <ele>1709</ele>
        <time>2010-07-24T11:04:37Z</time>
      </trkpt>
      <trkpt lat="45.53804" lon="6.70521">
        <ele>1707.6</ele>
        <time>2010-07-24T11:04:40Z</time>
      </trkpt>
      <trkpt lat="45.53823" lon="6.70516">
        <ele>1705.4</ele>
        <time>2010-07-24T11:04:45Z</time>
      </trkpt>
      <trkpt lat="45.53842" lon="6.70523">
        <ele>1702.8</ele>
        <time>2010-07-24T11:04:51Z</time>
      </trkpt>
      <trkpt lat="45.53864" lon="6.70523">
        <ele>1700.4</ele>
        <time>2010-07-24T11:04:57Z</time>
      </trkpt>
      <trkpt lat="45.53883" lon="6.70523">
        <ele>1698.2</ele>
        <time>2010-07-24T11:05:02Z</time>
      </trkpt>
      <trkpt lat="45.53901" lon="6.70524">
        <ele>1695.8</ele>
        <time>2010-07-24T11:05:07Z</time>
      </trkpt>
      <trkpt lat="45.5392" lon="6.70532">
        <ele>1693.6</ele>
        <time>2010-07-24T11:05:12Z</time>
      </trkpt>
      <trkpt lat="45.5394" lon="6.70538">
        <ele>1691.2</ele>
        <time>2010-07-24T11:05:17Z</time>
      </trkpt>
      <trkpt lat="45.53958" lon="6.70543">
        <ele>1688.8</ele>
        <time>2010-07-24T11:05:22Z</time>
      </trkpt>
      <trkpt lat="45.53976" lon="6.70548">
        <ele>1686.6</ele>
        <time>2010-07-24T11:05:27Z</time>
      </trkpt>
      <trkpt lat="45.53997" lon="6.70556">
        <ele>1684.2</ele>
        <time>2010-07-24T11:05:32Z</time>
      </trkpt>
      <trkpt lat="45.54004" lon="6.70557">
        <ele>1683.4</ele>
        <time>2010-07-24T11:05:34Z</time>
      </trkpt>
      <trkpt lat="45.54014" lon="6.70567">
        <ele>1681.8</ele>
        <time>2010-07-24T11:05:37Z</time>
      </trkpt>
      <trkpt lat="45.5402" lon="6.70575">
        <ele>1680.4</ele>
        <time>2010-07-24T11:05:40Z</time>
      </trkpt>
      <trkpt lat="45.54023" lon="6.70591">
        <ele>1678.4</ele>
        <time>2010-07-24T11:05:44Z</time>
      </trkpt>
      <trkpt lat="45.54029" lon="6.706">
        <ele>1676.8</ele>
        <time>2010-07-24T11:05:47Z</time>
      </trkpt>
      <trkpt lat="45.54039" lon="6.70601">
        <ele>1675.4</ele>
        <time>2010-07-24T11:05:50Z</time>
      </trkpt>
      <trkpt lat="45.54057" lon="6.70599">
        <ele>1673</ele>
        <time>2010-07-24T11:05:55Z</time>
      </trkpt>
      <trkpt lat="45.54076" lon="6.70599">
        <ele>1670.4</ele>
        <time>2010-07-24T11:06:00Z</time>
      </trkpt>
      <trkpt lat="45.54083" lon="6.70605">
        <ele>1669.4</ele>
        <time>2010-07-24T11:06:02Z</time>
      </trkpt>
      <trkpt lat="45.5409" lon="6.70619">
        <ele>1667.2</ele>
        <time>2010-07-24T11:06:06Z</time>
      </trkpt>
      <trkpt lat="45.54093" lon="6.70623">
        <ele>1666.6</ele>
        <time>2010-07-24T11:06:07Z</time>
      </trkpt>
      <trkpt lat="45.54106" lon="6.7064">
        <ele>1663.8</ele>
        <time>2010-07-24T11:06:12Z</time>
      </trkpt>
      <trkpt lat="45.54124" lon="6.70657">
        <ele>1660.6</ele>
        <time>2010-07-24T11:06:18Z</time>
      </trkpt>
      <trkpt lat="45.54143" lon="6.70674">
        <ele>1657.2</ele>
        <time>2010-07-24T11:06:24Z</time>
      </trkpt>
      <trkpt lat="45.54159" lon="6.70691">
        <ele>1654.4</ele>
        <time>2010-07-24T11:06:29Z</time>
      </trkpt>
      <trkpt lat="45.54171" lon="6.70697">
        <ele>1652.2</ele>
        <time>2010-07-24T11:06:33Z</time>
      </trkpt>
      <trkpt lat="45.54174" lon="6.70691">
        <ele>1651.2</ele>
        <time>2010-07-24T11:06:35Z</time>
      </trkpt>
      <trkpt lat="45.54161" lon="6.70668">
        <ele>1647.6</ele>
        <time>2010-07-24T11:06:41Z</time>
      </trkpt>
      <trkpt lat="45.54152" lon="6.70643">
        <ele>1644.4</ele>
        <time>2010-07-24T11:06:47Z</time>
      </trkpt>
      <trkpt lat="45.54153" lon="6.70638">
        <ele>1643.2</ele>
        <time>2010-07-24T11:06:49Z</time>
      </trkpt>
      <trkpt lat="45.54166" lon="6.70639">
        <ele>1641</ele>
        <time>2010-07-24T11:06:53Z</time>
      </trkpt>
      <trkpt lat="45.54186" lon="6.70645">
        <ele>1637.4</ele>
        <time>2010-07-24T11:06:59Z</time>
      </trkpt>
      <trkpt lat="45.5419" lon="6.70646">
        <ele>1636.8</ele>
        <time>2010-07-24T11:07:00Z</time>
      </trkpt>
      <trkpt lat="45.54205" lon="6.70649">
        <ele>1635.2</ele>
        <time>2010-07-24T11:07:03Z</time>
      </trkpt>
      <trkpt lat="45.54222" lon="6.70665">
        <ele>1632</ele>
        <time>2010-07-24T11:07:09Z</time>
      </trkpt>
      <trkpt lat="45.54223" lon="6.70678">
        <ele>1630.2</ele>
        <time>2010-07-24T11:07:12Z</time>
      </trkpt>
      <trkpt lat="45.54223" lon="6.70693">
        <ele>1628.4</ele>
        <time>2010-07-24T11:07:15Z</time>
      </trkpt>
      <trkpt lat="45.54221" lon="6.70704">
        <ele>1627.2</ele>
        <time>2010-07-24T11:07:17Z</time>
      </trkpt>
      <trkpt lat="45.54222" lon="6.70719">
        <ele>1625.6</ele>
        <time>2010-07-24T11:07:20Z</time>
      </trkpt>
      <trkpt lat="45.54223" lon="6.70748">
        <ele>1622.8</ele>
        <time>2010-07-24T11:07:25Z</time>
      </trkpt>
      <trkpt lat="45.54218" lon="6.70776">
        <ele>1620</ele>
        <time>2010-07-24T11:07:30Z</time>
      </trkpt>
      <trkpt lat="45.54219" lon="6.70781">
        <ele>1619.4</ele>
        <time>2010-07-24T11:07:31Z</time>
      </trkpt>
      <trkpt lat="45.54223" lon="6.70803">
        <ele>1617.2</ele>
        <time>2010-07-24T11:07:35Z</time>
      </trkpt>
      <trkpt lat="45.54227" lon="6.70817">
        <ele>1615.4</ele>
        <time>2010-07-24T11:07:38Z</time>
      </trkpt>
      <trkpt lat="45.54232" lon="6.7083">
        <ele>1613.8</ele>
        <time>2010-07-24T11:07:41Z</time>
      </trkpt>
      <trkpt lat="45.54237" lon="6.70855">
        <ele>1610.4</ele>
        <time>2010-07-24T11:07:47Z</time>
      </trkpt>
      <trkpt lat="45.54235" lon="6.7086">
        <ele>1610</ele>
        <time>2010-07-24T11:07:48Z</time>
      </trkpt>
      <trkpt lat="45.54221" lon="6.70874">
        <ele>1607</ele>
        <time>2010-07-24T11:07:53Z</time>
      </trkpt>
      <trkpt lat="45.54211" lon="6.70899">
        <ele>1603.6</ele>
        <time>2010-07-24T11:07:59Z</time>
      </trkpt>
      <trkpt lat="45.54209" lon="6.70906">
        <ele>1601.4</ele>
        <time>2010-07-24T11:08:03Z</time>
      </trkpt>
      <trkpt lat="45.5422" lon="6.70901">
        <ele>1598.6</ele>
        <time>2010-07-24T11:08:08Z</time>
      </trkpt>
      <trkpt lat="45.54222" lon="6.709">
        <ele>1598</ele>
        <time>2010-07-24T11:08:09Z</time>
      </trkpt>
      <trkpt lat="45.54223" lon="6.70897">
        <ele>1597</ele>
        <time>2010-07-24T11:08:11Z</time>
      </trkpt>
      <trkpt lat="45.54237" lon="6.70893">
        <ele>1594.6</ele>
        <time>2010-07-24T11:08:16Z</time>
      </trkpt>
      <trkpt lat="45.54253" lon="6.70895">
        <ele>1591.8</ele>
        <time>2010-07-24T11:08:22Z</time>
      </trkpt>
      <trkpt lat="45.54257" lon="6.70897">
        <ele>1590.8</ele>
        <time>2010-07-24T11:08:24Z</time>
      </trkpt>
      <trkpt lat="45.5426" lon="6.70897">
        <ele>1590.4</ele>
        <time>2010-07-24T11:08:25Z</time>
      </trkpt>
      <trkpt lat="45.54277" lon="6.70891">
        <ele>1587.4</ele>
        <time>2010-07-24T11:08:31Z</time>
      </trkpt>
      <trkpt lat="45.54294" lon="6.70885">
        <ele>1585.4</ele>
        <time>2010-07-24T11:08:36Z</time>
      </trkpt>
      <trkpt lat="45.54312" lon="6.70881">
        <ele>1583</ele>
        <time>2010-07-24T11:08:42Z</time>
      </trkpt>
      <trkpt lat="45.54314" lon="6.70881">
        <ele>1582.8</ele>
        <time>2010-07-24T11:08:43Z</time>
      </trkpt>
      <trkpt lat="45.54332" lon="6.70887">
        <ele>1580.2</ele>
        <time>2010-07-24T11:08:51Z</time>
      </trkpt>
      <trkpt lat="45.5435" lon="6.709">
        <ele>1577.4</ele>
        <time>2010-07-24T11:09:00Z</time>
      </trkpt>
      <trkpt lat="45.54351" lon="6.70902">
        <ele>1577.2</ele>
        <time>2010-07-24T11:09:01Z</time>
      </trkpt>
      <trkpt lat="45.54358" lon="6.70923">
        <ele>1575.2</ele>
        <time>2010-07-24T11:09:06Z</time>
      </trkpt>
      <trkpt lat="45.54365" lon="6.70949">
        <ele>1572.6</ele>
        <time>2010-07-24T11:09:13Z</time>
      </trkpt>
      <trkpt lat="45.54371" lon="6.70964">
        <ele>1569.8</ele>
        <time>2010-07-24T11:09:21Z</time>
      </trkpt>
      <trkpt lat="45.54377" lon="6.70964">
        <ele>1569.2</ele>
        <time>2010-07-24T11:09:23Z</time>
      </trkpt>
      <trkpt lat="45.54383" lon="6.70963">
        <ele>1568.6</ele>
        <time>2010-07-24T11:09:25Z</time>
      </trkpt>
      <trkpt lat="45.54396" lon="6.7096">
        <ele>1567.4</ele>
        <time>2010-07-24T11:09:29Z</time>
      </trkpt>
      <trkpt lat="45.54415" lon="6.70955">
        <ele>1565.2</ele>
        <time>2010-07-24T11:09:37Z</time>
      </trkpt>
      <trkpt lat="45.54434" lon="6.70945">
        <ele>1563.6</ele>
        <time>2010-07-24T11:09:44Z</time>
      </trkpt>
      <trkpt lat="45.54454" lon="6.70945">
        <ele>1562.6</ele>
        <time>2010-07-24T11:09:50Z</time>
      </trkpt>
      <trkpt lat="45.54472" lon="6.70952">
        <ele>1561.4</ele>
        <time>2010-07-24T11:09:56Z</time>
      </trkpt>
      <trkpt lat="45.54488" lon="6.70957">
        <ele>1560.2</ele>
        <time>2010-07-24T11:10:02Z</time>
      </trkpt>
      <trkpt lat="45.5449" lon="6.7096">
        <ele>1560</ele>
        <time>2010-07-24T11:10:03Z</time>
      </trkpt>
      <trkpt lat="45.54507" lon="6.70971">
        <ele>1558.6</ele>
        <time>2010-07-24T11:10:09Z</time>
      </trkpt>
      <trkpt lat="45.54523" lon="6.70989">
        <ele>1557.2</ele>
        <time>2010-07-24T11:10:15Z</time>
      </trkpt>
      <trkpt lat="45.54541" lon="6.70994">
        <ele>1555.4</ele>
        <time>2010-07-24T11:10:22Z</time>
      </trkpt>
      <trkpt lat="45.54554" lon="6.70979">
        <ele>1548.6</ele>
        <time>2010-07-24T11:10:50Z</time>
      </trkpt>
      <trkpt lat="45.54553" lon="6.70954">
        <ele>1547</ele>
        <time>2010-07-24T11:10:57Z</time>
      </trkpt>
      <trkpt lat="45.54554" lon="6.7095">
        <ele>1546.8</ele>
        <time>2010-07-24T11:10:58Z</time>
      </trkpt>
      <trkpt lat="45.5457" lon="6.70941">
        <ele>1545.4</ele>
        <time>2010-07-24T11:11:04Z</time>
      </trkpt>
      <trkpt lat="45.54573" lon="6.70941">
        <ele>1545.2</ele>
        <time>2010-07-24T11:11:05Z</time>
      </trkpt>
      <trkpt lat="45.54588" lon="6.70944">
        <ele>1544.2</ele>
        <time>2010-07-24T11:11:10Z</time>
      </trkpt>
      <trkpt lat="45.54605" lon="6.70949">
        <ele>1543</ele>
        <time>2010-07-24T11:11:15Z</time>
      </trkpt>
      <trkpt lat="45.54623" lon="6.70956">
        <ele>1542</ele>
        <time>2010-07-24T11:11:20Z</time>
      </trkpt>
      <trkpt lat="45.5464" lon="6.70968">
        <ele>1540.8</ele>
        <time>2010-07-24T11:11:25Z</time>
      </trkpt>
      <trkpt lat="45.54652" lon="6.70988">
        <ele>1539.8</ele>
        <time>2010-07-24T11:11:30Z</time>
      </trkpt>
      <trkpt lat="45.54653" lon="6.71008">
        <ele>1538.8</ele>
        <time>2010-07-24T11:11:34Z</time>
      </trkpt>
      <trkpt lat="45.54651" lon="6.71014">
        <ele>1538.6</ele>
        <time>2010-07-24T11:11:35Z</time>
      </trkpt>
      <trkpt lat="45.54638" lon="6.71036">
        <ele>1537.4</ele>
        <time>2010-07-24T11:11:40Z</time>
      </trkpt>
      <trkpt lat="45.54631" lon="6.71059">
        <ele>1535.8</ele>
        <time>2010-07-24T11:11:47Z</time>
      </trkpt>
      <trkpt lat="45.54644" lon="6.71062">
        <ele>1535</ele>
        <time>2010-07-24T11:11:51Z</time>
      </trkpt>
      <trkpt lat="45.5465" lon="6.71064">
        <ele>1534.6</ele>
        <time>2010-07-24T11:11:53Z</time>
      </trkpt>
      <trkpt lat="45.5467" lon="6.71064">
        <ele>1533.2</ele>
        <time>2010-07-24T11:11:59Z</time>
      </trkpt>
      <trkpt lat="45.54681" lon="6.71061">
        <ele>1532.4</ele>
        <time>2010-07-24T11:12:02Z</time>
      </trkpt>
      <trkpt lat="45.54689" lon="6.71065">
        <ele>1531.8</ele>
        <time>2010-07-24T11:12:04Z</time>
      </trkpt>
      <trkpt lat="45.54699" lon="6.71076">
        <ele>1530.8</ele>
        <time>2010-07-24T11:12:07Z</time>
      </trkpt>
      <trkpt lat="45.54704" lon="6.71084">
        <ele>1530.2</ele>
        <time>2010-07-24T11:12:09Z</time>
      </trkpt>
      <trkpt lat="45.54707" lon="6.71093">
        <ele>1529.6</ele>
        <time>2010-07-24T11:12:11Z</time>
      </trkpt>
      <trkpt lat="45.54707" lon="6.7111">
        <ele>1528.2</ele>
        <time>2010-07-24T11:12:15Z</time>
      </trkpt>
      <trkpt lat="45.54707" lon="6.71115">
        <ele>1528</ele>
        <time>2010-07-24T11:12:16Z</time>
      </trkpt>
      <trkpt lat="45.54707" lon="6.71136">
        <ele>1526.6</ele>
        <time>2010-07-24T11:12:21Z</time>
      </trkpt>
      <trkpt lat="45.54708" lon="6.71162">
        <ele>1524.8</ele>
        <time>2010-07-24T11:12:27Z</time>
      </trkpt>
      <trkpt lat="45.54713" lon="6.71188">
        <ele>1523.2</ele>
        <time>2010-07-24T11:12:33Z</time>
      </trkpt>
      <trkpt lat="45.54718" lon="6.71214">
        <ele>1521.8</ele>
        <time>2010-07-24T11:12:39Z</time>
      </trkpt>
      <trkpt lat="45.54706" lon="6.71233">
        <ele>1520.4</ele>
        <time>2010-07-24T11:12:44Z</time>
      </trkpt>
      <trkpt lat="45.54696" lon="6.71255">
        <ele>1519.2</ele>
        <time>2010-07-24T11:12:49Z</time>
      </trkpt>
      <trkpt lat="45.54699" lon="6.71284">
        <ele>1517.6</ele>
        <time>2010-07-24T11:12:56Z</time>
      </trkpt>
      <trkpt lat="45.54718" lon="6.71296">
        <ele>1516</ele>
        <time>2010-07-24T11:13:05Z</time>
      </trkpt>
      <trkpt lat="45.54737" lon="6.71306">
        <ele>1515.2</ele>
        <time>2010-07-24T11:13:13Z</time>
      </trkpt>
      <trkpt lat="45.54754" lon="6.71316">
        <ele>1514.8</ele>
        <time>2010-07-24T11:13:19Z</time>
      </trkpt>
      <trkpt lat="45.54768" lon="6.71337">
        <ele>1514.4</ele>
        <time>2010-07-24T11:13:27Z</time>
      </trkpt>
      <trkpt lat="45.54783" lon="6.71357">
        <ele>1514</ele>
        <time>2010-07-24T11:13:37Z</time>
      </trkpt>
      <trkpt lat="45.54796" lon="6.71375">
        <ele>1513.8</ele>
        <time>2010-07-24T11:13:43Z</time>
      </trkpt>
      <trkpt lat="45.54808" lon="6.71396">
        <ele>1512.8</ele>
        <time>2010-07-24T11:13:49Z</time>
      </trkpt>
      <trkpt lat="45.54815" lon="6.71403">
        <ele>1512.2</ele>
        <time>2010-07-24T11:13:52Z</time>
      </trkpt>
      <trkpt lat="45.54817" lon="6.71419">
        <ele>1511.6</ele>
        <time>2010-07-24T11:13:56Z</time>
      </trkpt>
      <trkpt lat="45.54814" lon="6.71445">
        <ele>1510.6</ele>
        <time>2010-07-24T11:14:02Z</time>
      </trkpt>
      <trkpt lat="45.54812" lon="6.71472">
        <ele>1509.6</ele>
        <time>2010-07-24T11:14:09Z</time>
      </trkpt>
      <trkpt lat="45.54817" lon="6.71483">
        <ele>1509.2</ele>
        <time>2010-07-24T11:14:13Z</time>
      </trkpt>
      <trkpt lat="45.54827" lon="6.71489">
        <ele>1509</ele>
        <time>2010-07-24T11:14:17Z</time>
      </trkpt>
      <trkpt lat="45.54832" lon="6.71493">
        <ele>1509</ele>
        <time>2010-07-24T11:14:19Z</time>
      </trkpt>
      <trkpt lat="45.54834" lon="6.71499">
        <ele>1509</ele>
        <time>2010-07-24T11:14:22Z</time>
      </trkpt>
      <trkpt lat="45.54844" lon="6.71507">
        <ele>1508.8</ele>
        <time>2010-07-24T11:14:26Z</time>
      </trkpt>
      <trkpt lat="45.5486" lon="6.71525">
        <ele>1508.6</ele>
        <time>2010-07-24T11:14:32Z</time>
      </trkpt>
      <trkpt lat="45.54873" lon="6.71548">
        <ele>1508.2</ele>
        <time>2010-07-24T11:14:37Z</time>
      </trkpt>
      <trkpt lat="45.5489" lon="6.71559">
        <ele>1507.8</ele>
        <time>2010-07-24T11:14:42Z</time>
      </trkpt>
      <trkpt lat="45.54911" lon="6.71566">
        <ele>1507.4</ele>
        <time>2010-07-24T11:14:49Z</time>
      </trkpt>
      <trkpt lat="45.54929" lon="6.71576">
        <ele>1506.6</ele>
        <time>2010-07-24T11:14:57Z</time>
      </trkpt>
      <trkpt lat="45.54945" lon="6.7159">
        <ele>1505.8</ele>
        <time>2010-07-24T11:15:05Z</time>
      </trkpt>
      <trkpt lat="45.5495" lon="6.71606">
        <ele>1505.4</ele>
        <time>2010-07-24T11:15:11Z</time>
      </trkpt>
      <trkpt lat="45.54951" lon="6.71615">
        <ele>1505.2</ele>
        <time>2010-07-24T11:15:14Z</time>
      </trkpt>
      <trkpt lat="45.54951" lon="6.71628">
        <ele>1504.8</ele>
        <time>2010-07-24T11:15:18Z</time>
      </trkpt>
      <trkpt lat="45.54952" lon="6.71642">
        <ele>1504.8</ele>
        <time>2010-07-24T11:15:22Z</time>
      </trkpt>
      <trkpt lat="45.54953" lon="6.71649">
        <ele>1504.6</ele>
        <time>2010-07-24T11:15:24Z</time>
      </trkpt>
      <trkpt lat="45.54958" lon="6.71666">
        <ele>1504.6</ele>
        <time>2010-07-24T11:15:29Z</time>
      </trkpt>
      <trkpt lat="45.54967" lon="6.71687">
        <ele>1504.4</ele>
        <time>2010-07-24T11:15:35Z</time>
      </trkpt>
      <trkpt lat="45.5498" lon="6.7171">
        <ele>1504.2</ele>
        <time>2010-07-24T11:15:42Z</time>
      </trkpt>
      <trkpt lat="45.54993" lon="6.7173">
        <ele>1504.2</ele>
        <time>2010-07-24T11:15:50Z</time>
      </trkpt>
      <trkpt lat="45.54995" lon="6.71756">
        <ele>1504</ele>
        <time>2010-07-24T11:16:06Z</time>
      </trkpt>
      <trkpt lat="45.54993" lon="6.71766">
        <ele>1504</ele>
        <time>2010-07-24T11:16:12Z</time>
      </trkpt>
      <trkpt lat="45.54994" lon="6.71782">
        <ele>1504.2</ele>
        <time>2010-07-24T11:16:18Z</time>
      </trkpt>
      <trkpt lat="45.54994" lon="6.71786">
        <ele>1504.2</ele>
        <time>2010-07-24T11:16:19Z</time>
      </trkpt>
      <trkpt lat="45.54999" lon="6.71807">
        <ele>1504.4</ele>
        <time>2010-07-24T11:16:24Z</time>
      </trkpt>
      <trkpt lat="45.5501" lon="6.71831">
        <ele>1505</ele>
        <time>2010-07-24T11:16:31Z</time>
      </trkpt>
      <trkpt lat="45.55019" lon="6.71852">
        <ele>1505.6</ele>
        <time>2010-07-24T11:16:37Z</time>
      </trkpt>
      <trkpt lat="45.55023" lon="6.71879">
        <ele>1506</ele>
        <time>2010-07-24T11:16:43Z</time>
      </trkpt>
      <trkpt lat="45.5502" lon="6.71907">
        <ele>1506.2</ele>
        <time>2010-07-24T11:16:49Z</time>
      </trkpt>
      <trkpt lat="45.5502" lon="6.71936">
        <ele>1506.2</ele>
        <time>2010-07-24T11:16:56Z</time>
      </trkpt>
      <trkpt lat="45.55019" lon="6.71965">
        <ele>1506</ele>
        <time>2010-07-24T11:17:03Z</time>
      </trkpt>
      <trkpt lat="45.55011" lon="6.71992">
        <ele>1505.8</ele>
        <time>2010-07-24T11:17:10Z</time>
      </trkpt>
      <trkpt lat="45.55012" lon="6.71997">
        <ele>1505.8</ele>
        <time>2010-07-24T11:17:11Z</time>
      </trkpt>
      <trkpt lat="45.55024" lon="6.7201">
        <ele>1505.6</ele>
        <time>2010-07-24T11:17:17Z</time>
      </trkpt>
      <trkpt lat="45.55039" lon="6.72027">
        <ele>1505.6</ele>
        <time>2010-07-24T11:17:24Z</time>
      </trkpt>
      <trkpt lat="45.55049" lon="6.72049">
        <ele>1505.4</ele>
        <time>2010-07-24T11:17:31Z</time>
      </trkpt>
      <trkpt lat="45.55058" lon="6.72075">
        <ele>1504.8</ele>
        <time>2010-07-24T11:17:38Z</time>
      </trkpt>
      <trkpt lat="45.55063" lon="6.72087">
        <ele>1504.6</ele>
        <time>2010-07-24T11:17:42Z</time>
      </trkpt>
      <trkpt lat="45.55066" lon="6.72078">
        <ele>1504.2</ele>
        <time>2010-07-24T11:17:46Z</time>
      </trkpt>
      <trkpt lat="45.55064" lon="6.72062">
        <ele>1503.8</ele>
        <time>2010-07-24T11:17:50Z</time>
      </trkpt>
      <trkpt lat="45.55063" lon="6.72057">
        <ele>1503.8</ele>
        <time>2010-07-24T11:17:51Z</time>
      </trkpt>
      <trkpt lat="45.55062" lon="6.72054">
        <ele>1503.6</ele>
        <time>2010-07-24T11:17:52Z</time>
      </trkpt>
      <trkpt lat="45.55062" lon="6.72047">
        <ele>1503.4</ele>
        <time>2010-07-24T11:17:54Z</time>
      </trkpt>
      <trkpt lat="45.55073" lon="6.72044">
        <ele>1502.8</ele>
        <time>2010-07-24T11:17:58Z</time>
      </trkpt>
      <trkpt lat="45.55081" lon="6.72052">
        <ele>1502.4</ele>
        <time>2010-07-24T11:18:01Z</time>
      </trkpt>
      <trkpt lat="45.55086" lon="6.72057">
        <ele>1502</ele>
        <time>2010-07-24T11:18:03Z</time>
      </trkpt>
      <trkpt lat="45.55088" lon="6.72061">
        <ele>1501.8</ele>
        <time>2010-07-24T11:18:04Z</time>
      </trkpt>
      <trkpt lat="45.55098" lon="6.72082">
        <ele>1501</ele>
        <time>2010-07-24T11:18:10Z</time>
      </trkpt>
      <trkpt lat="45.55105" lon="6.72109">
        <ele>1500</ele>
        <time>2010-07-24T11:18:16Z</time>
      </trkpt>
      <trkpt lat="45.55112" lon="6.72136">
        <ele>1499</ele>
        <time>2010-07-24T11:18:22Z</time>
      </trkpt>
      <trkpt lat="45.55117" lon="6.72162">
        <ele>1498.2</ele>
        <time>2010-07-24T11:18:27Z</time>
      </trkpt>
      <trkpt lat="45.55123" lon="6.72189">
        <ele>1497.4</ele>
        <time>2010-07-24T11:18:33Z</time>
      </trkpt>
      <trkpt lat="45.55136" lon="6.72211">
        <ele>1496.4</ele>
        <time>2010-07-24T11:18:41Z</time>
      </trkpt>
      <trkpt lat="45.55148" lon="6.72231">
        <ele>1495.4</ele>
        <time>2010-07-24T11:18:47Z</time>
      </trkpt>
      <trkpt lat="45.55157" lon="6.72255">
        <ele>1494.4</ele>
        <time>2010-07-24T11:18:54Z</time>
      </trkpt>
      <trkpt lat="45.55165" lon="6.7228">
        <ele>1493.2</ele>
        <time>2010-07-24T11:19:01Z</time>
      </trkpt>
      <trkpt lat="45.55171" lon="6.72305">
        <ele>1492</ele>
        <time>2010-07-24T11:19:07Z</time>
      </trkpt>
      <trkpt lat="45.55179" lon="6.72327">
        <ele>1491.2</ele>
        <time>2010-07-24T11:19:12Z</time>
      </trkpt>
      <trkpt lat="45.55186" lon="6.72353">
        <ele>1490.4</ele>
        <time>2010-07-24T11:19:17Z</time>
      </trkpt>
      <trkpt lat="45.55195" lon="6.72379">
        <ele>1489.4</ele>
        <time>2010-07-24T11:19:23Z</time>
      </trkpt>
      <trkpt lat="45.55203" lon="6.72407">
        <ele>1488.6</ele>
        <time>2010-07-24T11:19:29Z</time>
      </trkpt>
      <trkpt lat="45.55211" lon="6.72433">
        <ele>1487.6</ele>
        <time>2010-07-24T11:19:35Z</time>
      </trkpt>
      <trkpt lat="45.55213" lon="6.7246">
        <ele>1486.6</ele>
        <time>2010-07-24T11:19:41Z</time>
      </trkpt>
      <trkpt lat="45.5521" lon="6.72487">
        <ele>1485.6</ele>
        <time>2010-07-24T11:19:47Z</time>
      </trkpt>
      <trkpt lat="45.55218" lon="6.7251">
        <ele>1484.8</ele>
        <time>2010-07-24T11:19:52Z</time>
      </trkpt>
      <trkpt lat="45.55228" lon="6.72535">
        <ele>1483.6</ele>
        <time>2010-07-24T11:19:58Z</time>
      </trkpt>
      <trkpt lat="45.55237" lon="6.72562">
        <ele>1482.6</ele>
        <time>2010-07-24T11:20:04Z</time>
      </trkpt>
      <trkpt lat="45.55239" lon="6.72566">
        <ele>1482.4</ele>
        <time>2010-07-24T11:20:05Z</time>
      </trkpt>
      <trkpt lat="45.55244" lon="6.72586">
        <ele>1481.2</ele>
        <time>2010-07-24T11:20:11Z</time>
      </trkpt>
      <trkpt lat="45.55245" lon="6.72602">
        <ele>1480</ele>
        <time>2010-07-24T11:20:16Z</time>
      </trkpt>
      <trkpt lat="45.55251" lon="6.72594">
        <ele>1479</ele>
        <time>2010-07-24T11:20:20Z</time>
      </trkpt>
      <trkpt lat="45.55267" lon="6.72577">
        <ele>1477.4</ele>
        <time>2010-07-24T11:20:26Z</time>
      </trkpt>
      <trkpt lat="45.55283" lon="6.72584">
        <ele>1475.8</ele>
        <time>2010-07-24T11:20:31Z</time>
      </trkpt>
      <trkpt lat="45.55286" lon="6.72586">
        <ele>1475.4</ele>
        <time>2010-07-24T11:20:32Z</time>
      </trkpt>
      <trkpt lat="45.55302" lon="6.72597">
        <ele>1473.8</ele>
        <time>2010-07-24T11:20:37Z</time>
      </trkpt>
      <trkpt lat="45.5532" lon="6.72607">
        <ele>1471</ele>
        <time>2010-07-24T11:20:44Z</time>
      </trkpt>
      <trkpt lat="45.55324" lon="6.72611">
        <ele>1470.2</ele>
        <time>2010-07-24T11:20:46Z</time>
      </trkpt>
      <trkpt lat="45.55339" lon="6.72616">
        <ele>1467.6</ele>
        <time>2010-07-24T11:20:52Z</time>
      </trkpt>
      <trkpt lat="45.55353" lon="6.72629">
        <ele>1464.6</ele>
        <time>2010-07-24T11:20:58Z</time>
      </trkpt>
      <trkpt lat="45.55356" lon="6.72641">
        <ele>1463.2</ele>
        <time>2010-07-24T11:21:01Z</time>
      </trkpt>
      <trkpt lat="45.55352" lon="6.72654">
        <ele>1461.8</ele>
        <time>2010-07-24T11:21:04Z</time>
      </trkpt>
      <trkpt lat="45.55353" lon="6.72671">
        <ele>1459.8</ele>
        <time>2010-07-24T11:21:08Z</time>
      </trkpt>
      <trkpt lat="45.55358" lon="6.72675">
        <ele>1458.8</ele>
        <time>2010-07-24T11:21:10Z</time>
      </trkpt>
      <trkpt lat="45.55364" lon="6.72678">
        <ele>1458</ele>
        <time>2010-07-24T11:21:12Z</time>
      </trkpt>
      <trkpt lat="45.55367" lon="6.72683">
        <ele>1456.4</ele>
        <time>2010-07-24T11:21:15Z</time>
      </trkpt>
      <trkpt lat="45.5537" lon="6.72696">
        <ele>1454.6</ele>
        <time>2010-07-24T11:21:19Z</time>
      </trkpt>
      <trkpt lat="45.55376" lon="6.72718">
        <ele>1451</ele>
        <time>2010-07-24T11:21:26Z</time>
      </trkpt>
      <trkpt lat="45.55377" lon="6.72721">
        <ele>1450.6</ele>
        <time>2010-07-24T11:21:27Z</time>
      </trkpt>
      <trkpt lat="45.55386" lon="6.7273">
        <ele>1448</ele>
        <time>2010-07-24T11:21:32Z</time>
      </trkpt>
      <trkpt lat="45.55391" lon="6.72741">
        <ele>1445.8</ele>
        <time>2010-07-24T11:21:36Z</time>
      </trkpt>
      <trkpt lat="45.55396" lon="6.72765">
        <ele>1442.4</ele>
        <time>2010-07-24T11:21:42Z</time>
      </trkpt>
      <trkpt lat="45.55395" lon="6.72791">
        <ele>1439.6</ele>
        <time>2010-07-24T11:21:47Z</time>
      </trkpt>
      <trkpt lat="45.55397" lon="6.7282">
        <ele>1436.4</ele>
        <time>2010-07-24T11:21:53Z</time>
      </trkpt>
      <trkpt lat="45.554" lon="6.72847">
        <ele>1433.2</ele>
        <time>2010-07-24T11:21:59Z</time>
      </trkpt>
      <trkpt lat="45.55405" lon="6.72876">
        <ele>1430.2</ele>
        <time>2010-07-24T11:22:05Z</time>
      </trkpt>
      <trkpt lat="45.55409" lon="6.72902">
        <ele>1427.4</ele>
        <time>2010-07-24T11:22:11Z</time>
      </trkpt>
      <trkpt lat="45.55425" lon="6.72913">
        <ele>1424.8</ele>
        <time>2010-07-24T11:22:17Z</time>
      </trkpt>
      <trkpt lat="45.55438" lon="6.72926">
        <ele>1423.2</ele>
        <time>2010-07-24T11:22:21Z</time>
      </trkpt>
      <trkpt lat="45.5544" lon="6.72929">
        <ele>1422.8</ele>
        <time>2010-07-24T11:22:22Z</time>
      </trkpt>
      <trkpt lat="45.55453" lon="6.72948">
        <ele>1420.8</ele>
        <time>2010-07-24T11:22:27Z</time>
      </trkpt>
      <trkpt lat="45.55462" lon="6.72962">
        <ele>1419.4</ele>
        <time>2010-07-24T11:22:31Z</time>
      </trkpt>
      <trkpt lat="45.55468" lon="6.72966">
        <ele>1418.4</ele>
        <time>2010-07-24T11:22:33Z</time>
      </trkpt>
      <trkpt lat="45.55478" lon="6.72968">
        <ele>1417.4</ele>
        <time>2010-07-24T11:22:36Z</time>
      </trkpt>
      <trkpt lat="45.55488" lon="6.72968">
        <ele>1416.2</ele>
        <time>2010-07-24T11:22:39Z</time>
      </trkpt>
      <trkpt lat="45.55506" lon="6.72971">
        <ele>1414.4</ele>
        <time>2010-07-24T11:22:44Z</time>
      </trkpt>
      <trkpt lat="45.55526" lon="6.72976">
        <ele>1412</ele>
        <time>2010-07-24T11:22:50Z</time>
      </trkpt>
      <trkpt lat="45.55545" lon="6.72981">
        <ele>1409.6</ele>
        <time>2010-07-24T11:22:56Z</time>
      </trkpt>
      <trkpt lat="45.55566" lon="6.72986">
        <ele>1407.2</ele>
        <time>2010-07-24T11:23:02Z</time>
      </trkpt>
      <trkpt lat="45.55578" lon="6.72987">
        <ele>1405.2</ele>
        <time>2010-07-24T11:23:07Z</time>
      </trkpt>
      <trkpt lat="45.55585" lon="6.72988">
        <ele>1404.4</ele>
        <time>2010-07-24T11:23:09Z</time>
      </trkpt>
      <trkpt lat="45.55593" lon="6.72993">
        <ele>1403.8</ele>
        <time>2010-07-24T11:23:11Z</time>
      </trkpt>
      <trkpt lat="45.55601" lon="6.73006">
        <ele>1402.8</ele>
        <time>2010-07-24T11:23:14Z</time>
      </trkpt>
      <trkpt lat="45.55611" lon="6.7303">
        <ele>1401</ele>
        <time>2010-07-24T11:23:19Z</time>
      </trkpt>
      <trkpt lat="45.55612" lon="6.73035">
        <ele>1400.8</ele>
        <time>2010-07-24T11:23:20Z</time>
      </trkpt>
      <trkpt lat="45.55612" lon="6.7306">
        <ele>1399.2</ele>
        <time>2010-07-24T11:23:25Z</time>
      </trkpt>
      <trkpt lat="45.55608" lon="6.7309">
        <ele>1397.4</ele>
        <time>2010-07-24T11:23:31Z</time>
      </trkpt>
      <trkpt lat="45.55604" lon="6.73116">
        <ele>1396</ele>
        <time>2010-07-24T11:23:36Z</time>
      </trkpt>
      <trkpt lat="45.556" lon="6.73146">
        <ele>1394.2</ele>
        <time>2010-07-24T11:23:42Z</time>
      </trkpt>
      <trkpt lat="45.55602" lon="6.73174">
        <ele>1392.4</ele>
        <time>2010-07-24T11:23:48Z</time>
      </trkpt>
      <trkpt lat="45.55602" lon="6.73204">
        <ele>1390.4</ele>
        <time>2010-07-24T11:23:54Z</time>
      </trkpt>
      <trkpt lat="45.55605" lon="6.73233">
        <ele>1388.6</ele>
        <time>2010-07-24T11:24:00Z</time>
      </trkpt>
      <trkpt lat="45.55611" lon="6.73259">
        <ele>1386.4</ele>
        <time>2010-07-24T11:24:06Z</time>
      </trkpt>
      <trkpt lat="45.55616" lon="6.73284">
        <ele>1384.8</ele>
        <time>2010-07-24T11:24:11Z</time>
      </trkpt>
      <trkpt lat="45.55619" lon="6.73309">
        <ele>1383.2</ele>
        <time>2010-07-24T11:24:16Z</time>
      </trkpt>
      <trkpt lat="45.55626" lon="6.73338">
        <ele>1381.2</ele>
        <time>2010-07-24T11:24:22Z</time>
      </trkpt>
      <trkpt lat="45.55635" lon="6.73364">
        <ele>1379.2</ele>
        <time>2010-07-24T11:24:28Z</time>
      </trkpt>
      <trkpt lat="45.5564" lon="6.73394">
        <ele>1377.4</ele>
        <time>2010-07-24T11:24:34Z</time>
      </trkpt>
      <trkpt lat="45.55641" lon="6.73423">
        <ele>1375.4</ele>
        <time>2010-07-24T11:24:40Z</time>
      </trkpt>
      <trkpt lat="45.55642" lon="6.73453">
        <ele>1373.6</ele>
        <time>2010-07-24T11:24:46Z</time>
      </trkpt>
      <trkpt lat="45.55643" lon="6.73484">
        <ele>1371.8</ele>
        <time>2010-07-24T11:24:52Z</time>
      </trkpt>
      <trkpt lat="45.55641" lon="6.7351">
        <ele>1370.4</ele>
        <time>2010-07-24T11:24:57Z</time>
      </trkpt>
      <trkpt lat="45.55637" lon="6.73537">
        <ele>1368.6</ele>
        <time>2010-07-24T11:25:03Z</time>
      </trkpt>
      <trkpt lat="45.55631" lon="6.7356">
        <ele>1367</ele>
        <time>2010-07-24T11:25:08Z</time>
      </trkpt>
      <trkpt lat="45.55625" lon="6.73589">
        <ele>1365.4</ele>
        <time>2010-07-24T11:25:14Z</time>
      </trkpt>
      <trkpt lat="45.55617" lon="6.73617">
        <ele>1363.6</ele>
        <time>2010-07-24T11:25:20Z</time>
      </trkpt>
      <trkpt lat="45.55612" lon="6.73643">
        <ele>1361.8</ele>
        <time>2010-07-24T11:25:26Z</time>
      </trkpt>
      <trkpt lat="45.55612" lon="6.73646">
        <ele>1361.4</ele>
        <time>2010-07-24T11:25:27Z</time>
      </trkpt>
      <trkpt lat="45.55627" lon="6.7364">
        <ele>1359.2</ele>
        <time>2010-07-24T11:25:33Z</time>
      </trkpt>
      <trkpt lat="45.55644" lon="6.73626">
        <ele>1356.8</ele>
        <time>2010-07-24T11:25:39Z</time>
      </trkpt>
      <trkpt lat="45.55659" lon="6.73609">
        <ele>1354</ele>
        <time>2010-07-24T11:25:45Z</time>
      </trkpt>
      <trkpt lat="45.55677" lon="6.73597">
        <ele>1351.4</ele>
        <time>2010-07-24T11:25:51Z</time>
      </trkpt>
      <trkpt lat="45.55682" lon="6.73593">
        <ele>1350.6</ele>
        <time>2010-07-24T11:25:53Z</time>
      </trkpt>
      <trkpt lat="45.55695" lon="6.73587">
        <ele>1348.6</ele>
        <time>2010-07-24T11:25:57Z</time>
      </trkpt>
      <trkpt lat="45.55714" lon="6.73575">
        <ele>1346</ele>
        <time>2010-07-24T11:26:03Z</time>
      </trkpt>
      <trkpt lat="45.55728" lon="6.73559">
        <ele>1342.6</ele>
        <time>2010-07-24T11:26:10Z</time>
      </trkpt>
      <trkpt lat="45.55744" lon="6.73539">
        <ele>1339.4</ele>
        <time>2010-07-24T11:26:16Z</time>
      </trkpt>
      <trkpt lat="45.5576" lon="6.7352">
        <ele>1336.2</ele>
        <time>2010-07-24T11:26:22Z</time>
      </trkpt>
      <trkpt lat="45.55775" lon="6.73505">
        <ele>1332.8</ele>
        <time>2010-07-24T11:26:28Z</time>
      </trkpt>
      <trkpt lat="45.55793" lon="6.73493">
        <ele>1329.6</ele>
        <time>2010-07-24T11:26:34Z</time>
      </trkpt>
      <trkpt lat="45.55796" lon="6.73492">
        <ele>1329.2</ele>
        <time>2010-07-24T11:26:35Z</time>
      </trkpt>
      <trkpt lat="45.5581" lon="6.73483">
        <ele>1326.4</ele>
        <time>2010-07-24T11:26:40Z</time>
      </trkpt>
      <trkpt lat="45.55813" lon="6.73483">
        <ele>1326</ele>
        <time>2010-07-24T11:26:41Z</time>
      </trkpt>
      <trkpt lat="45.55822" lon="6.73486">
        <ele>1324.2</ele>
        <time>2010-07-24T11:26:44Z</time>
      </trkpt>
      <trkpt lat="45.5583" lon="6.73484">
        <ele>1322.6</ele>
        <time>2010-07-24T11:26:47Z</time>
      </trkpt>
      <trkpt lat="45.5584" lon="6.73475">
        <ele>1319.6</ele>
        <time>2010-07-24T11:26:52Z</time>
      </trkpt>
      <trkpt lat="45.55842" lon="6.73475">
        <ele>1318.8</ele>
        <time>2010-07-24T11:26:53Z</time>
      </trkpt>
      <trkpt lat="45.55846" lon="6.73478">
        <ele>1317.6</ele>
        <time>2010-07-24T11:26:55Z</time>
      </trkpt>
      <trkpt lat="45.55854" lon="6.73482">
        <ele>1315.8</ele>
        <time>2010-07-24T11:26:58Z</time>
      </trkpt>
      <trkpt lat="45.55855" lon="6.73467">
        <ele>1312.6</ele>
        <time>2010-07-24T11:27:03Z</time>
      </trkpt>
      <trkpt lat="45.55858" lon="6.7346">
        <ele>1311.4</ele>
        <time>2010-07-24T11:27:05Z</time>
      </trkpt>
      <trkpt lat="45.55862" lon="6.73458">
        <ele>1310</ele>
        <time>2010-07-24T11:27:07Z</time>
      </trkpt>
      <trkpt lat="45.55868" lon="6.73467">
        <ele>1308.2</ele>
        <time>2010-07-24T11:27:10Z</time>
      </trkpt>
      <trkpt lat="45.55869" lon="6.73469">
        <ele>1307.4</ele>
        <time>2010-07-24T11:27:11Z</time>
      </trkpt>
      <trkpt lat="45.55875" lon="6.73482">
        <ele>1304.8</ele>
        <time>2010-07-24T11:27:15Z</time>
      </trkpt>
      <trkpt lat="45.55878" lon="6.73489">
        <ele>1303.6</ele>
        <time>2010-07-24T11:27:17Z</time>
      </trkpt>
      <trkpt lat="45.5589" lon="6.73508">
        <ele>1299.6</ele>
        <time>2010-07-24T11:27:23Z</time>
      </trkpt>
      <trkpt lat="45.55906" lon="6.73521">
        <ele>1296.4</ele>
        <time>2010-07-24T11:27:28Z</time>
      </trkpt>
      <trkpt lat="45.55922" lon="6.73535">
        <ele>1292.6</ele>
        <time>2010-07-24T11:27:34Z</time>
      </trkpt>
      <trkpt lat="45.55937" lon="6.73552">
        <ele>1289</ele>
        <time>2010-07-24T11:27:40Z</time>
      </trkpt>
      <trkpt lat="45.55954" lon="6.73561">
        <ele>1285.8</ele>
        <time>2010-07-24T11:27:45Z</time>
      </trkpt>
      <trkpt lat="45.55968" lon="6.73572">
        <ele>1282.2</ele>
        <time>2010-07-24T11:27:51Z</time>
      </trkpt>
      <trkpt lat="45.5597" lon="6.73575">
        <ele>1281.6</ele>
        <time>2010-07-24T11:27:52Z</time>
      </trkpt>
      <trkpt lat="45.55984" lon="6.73597">
        <ele>1277.4</ele>
        <time>2010-07-24T11:27:59Z</time>
      </trkpt>
      <trkpt lat="45.55987" lon="6.73598">
        <ele>1276.8</ele>
        <time>2010-07-24T11:28:00Z</time>
      </trkpt>
      <trkpt lat="45.55998" lon="6.73608">
        <ele>1274.2</ele>
        <time>2010-07-24T11:28:04Z</time>
      </trkpt>
      <trkpt lat="45.56" lon="6.73611">
        <ele>1273.6</ele>
        <time>2010-07-24T11:28:05Z</time>
      </trkpt>
      <trkpt lat="45.56018" lon="6.73617">
        <ele>1270.2</ele>
        <time>2010-07-24T11:28:11Z</time>
      </trkpt>
      <trkpt lat="45.56038" lon="6.73612">
        <ele>1267.4</ele>
        <time>2010-07-24T11:28:16Z</time>
      </trkpt>
      <trkpt lat="45.56042" lon="6.73606">
        <ele>1266.4</ele>
        <time>2010-07-24T11:28:18Z</time>
      </trkpt>
      <trkpt lat="45.56028" lon="6.73593">
        <ele>1263</ele>
        <time>2010-07-24T11:28:24Z</time>
      </trkpt>
      <trkpt lat="45.56016" lon="6.73577">
        <ele>1259.6</ele>
        <time>2010-07-24T11:28:31Z</time>
      </trkpt>
      <trkpt lat="45.56013" lon="6.73563">
        <ele>1252.2</ele>
        <time>2010-07-24T11:28:48Z</time>
      </trkpt>
      <trkpt lat="45.56009" lon="6.73537">
        <ele>1250.4</ele>
        <time>2010-07-24T11:28:53Z</time>
      </trkpt>
      <trkpt lat="45.5601" lon="6.73508">
        <ele>1248.2</ele>
        <time>2010-07-24T11:28:59Z</time>
      </trkpt>
      <trkpt lat="45.56011" lon="6.73477">
        <ele>1246</ele>
        <time>2010-07-24T11:29:05Z</time>
      </trkpt>
      <trkpt lat="45.56013" lon="6.73447">
        <ele>1243.6</ele>
        <time>2010-07-24T11:29:11Z</time>
      </trkpt>
      <trkpt lat="45.56016" lon="6.73419">
        <ele>1241.8</ele>
        <time>2010-07-24T11:29:16Z</time>
      </trkpt>
      <trkpt lat="45.56017" lon="6.73391">
        <ele>1239.8</ele>
        <time>2010-07-24T11:29:22Z</time>
      </trkpt>
      <trkpt lat="45.56012" lon="6.73367">
        <ele>1237.6</ele>
        <time>2010-07-24T11:29:28Z</time>
      </trkpt>
      <trkpt lat="45.56005" lon="6.73339">
        <ele>1235.2</ele>
        <time>2010-07-24T11:29:36Z</time>
      </trkpt>
      <trkpt lat="45.56001" lon="6.73314">
        <ele>1233.4</ele>
        <time>2010-07-24T11:29:43Z</time>
      </trkpt>
      <trkpt lat="45.56001" lon="6.73286">
        <ele>1231.8</ele>
        <time>2010-07-24T11:29:50Z</time>
      </trkpt>
      <trkpt lat="45.56001" lon="6.73261">
        <ele>1230.4</ele>
        <time>2010-07-24T11:29:56Z</time>
      </trkpt>
      <trkpt lat="45.55995" lon="6.73233">
        <ele>1228.8</ele>
        <time>2010-07-24T11:30:03Z</time>
      </trkpt>
      <trkpt lat="45.55989" lon="6.73206">
        <ele>1227.4</ele>
        <time>2010-07-24T11:30:09Z</time>
      </trkpt>
      <trkpt lat="45.55982" lon="6.73179">
        <ele>1225.6</ele>
        <time>2010-07-24T11:30:16Z</time>
      </trkpt>
      <trkpt lat="45.55976" lon="6.73155">
        <ele>1224.2</ele>
        <time>2010-07-24T11:30:22Z</time>
      </trkpt>
      <trkpt lat="45.55968" lon="6.73129">
        <ele>1222.8</ele>
        <time>2010-07-24T11:30:28Z</time>
      </trkpt>
      <trkpt lat="45.55957" lon="6.73106">
        <ele>1221.2</ele>
        <time>2010-07-24T11:30:35Z</time>
      </trkpt>
      <trkpt lat="45.55951" lon="6.73079">
        <ele>1219.6</ele>
        <time>2010-07-24T11:30:41Z</time>
      </trkpt>
      <trkpt lat="45.55949" lon="6.73049">
        <ele>1218.2</ele>
        <time>2010-07-24T11:30:47Z</time>
      </trkpt>
      <trkpt lat="45.5595" lon="6.7302">
        <ele>1217</ele>
        <time>2010-07-24T11:30:53Z</time>
      </trkpt>
      <trkpt lat="45.55953" lon="6.72991">
        <ele>1215.6</ele>
        <time>2010-07-24T11:30:59Z</time>
      </trkpt>
      <trkpt lat="45.55958" lon="6.72965">
        <ele>1214.2</ele>
        <time>2010-07-24T11:31:04Z</time>
      </trkpt>
      <trkpt lat="45.55956" lon="6.7294">
        <ele>1213</ele>
        <time>2010-07-24T11:31:09Z</time>
      </trkpt>
      <trkpt lat="45.55949" lon="6.72914">
        <ele>1211.4</ele>
        <time>2010-07-24T11:31:15Z</time>
      </trkpt>
      <trkpt lat="45.55941" lon="6.72887">
        <ele>1209.8</ele>
        <time>2010-07-24T11:31:22Z</time>
      </trkpt>
      <trkpt lat="45.55936" lon="6.72861">
        <ele>1208</ele>
        <time>2010-07-24T11:31:29Z</time>
      </trkpt>
      <trkpt lat="45.55934" lon="6.72835">
        <ele>1206.4</ele>
        <time>2010-07-24T11:31:35Z</time>
      </trkpt>
      <trkpt lat="45.55933" lon="6.72805">
        <ele>1205</ele>
        <time>2010-07-24T11:31:41Z</time>
      </trkpt>
      <trkpt lat="45.5593" lon="6.72775">
        <ele>1203.4</ele>
        <time>2010-07-24T11:31:47Z</time>
      </trkpt>
      <trkpt lat="45.55925" lon="6.72748">
        <ele>1201.8</ele>
        <time>2010-07-24T11:31:54Z</time>
      </trkpt>
      <trkpt lat="45.55917" lon="6.72721">
        <ele>1200.2</ele>
        <time>2010-07-24T11:32:01Z</time>
      </trkpt>
      <trkpt lat="45.55905" lon="6.727">
        <ele>1199</ele>
        <time>2010-07-24T11:32:07Z</time>
      </trkpt>
      <trkpt lat="45.55894" lon="6.72676">
        <ele>1198</ele>
        <time>2010-07-24T11:32:13Z</time>
      </trkpt>
      <trkpt lat="45.55886" lon="6.72653">
        <ele>1197.2</ele>
        <time>2010-07-24T11:32:18Z</time>
      </trkpt>
      <trkpt lat="45.5588" lon="6.72627">
        <ele>1196.2</ele>
        <time>2010-07-24T11:32:24Z</time>
      </trkpt>
      <trkpt lat="45.55879" lon="6.72624">
        <ele>1196</ele>
        <time>2010-07-24T11:32:25Z</time>
      </trkpt>
      <trkpt lat="45.55875" lon="6.72609">
        <ele>1195.2</ele>
        <time>2010-07-24T11:32:29Z</time>
      </trkpt>
      <trkpt lat="45.55873" lon="6.726">
        <ele>1195</ele>
        <time>2010-07-24T11:32:31Z</time>
      </trkpt>
      <trkpt lat="45.55866" lon="6.72573">
        <ele>1193.6</ele>
        <time>2010-07-24T11:32:38Z</time>
      </trkpt>
      <trkpt lat="45.55861" lon="6.72543">
        <ele>1192.6</ele>
        <time>2010-07-24T11:32:44Z</time>
      </trkpt>
      <trkpt lat="45.55854" lon="6.72513">
        <ele>1191.6</ele>
        <time>2010-07-24T11:32:50Z</time>
      </trkpt>
      <trkpt lat="45.55845" lon="6.72488">
        <ele>1190.4</ele>
        <time>2010-07-24T11:32:57Z</time>
      </trkpt>
      <trkpt lat="45.55837" lon="6.72462">
        <ele>1189.2</ele>
        <time>2010-07-24T11:33:04Z</time>
      </trkpt>
      <trkpt lat="45.55828" lon="6.72437">
        <ele>1188.2</ele>
        <time>2010-07-24T11:33:10Z</time>
      </trkpt>
      <trkpt lat="45.5582" lon="6.7241">
        <ele>1187</ele>
        <time>2010-07-24T11:33:17Z</time>
      </trkpt>
      <trkpt lat="45.55811" lon="6.72386">
        <ele>1186</ele>
        <time>2010-07-24T11:33:24Z</time>
      </trkpt>
      <trkpt lat="45.55802" lon="6.72362">
        <ele>1185.4</ele>
        <time>2010-07-24T11:33:30Z</time>
      </trkpt>
      <trkpt lat="45.55795" lon="6.72354">
        <ele>1185</ele>
        <time>2010-07-24T11:33:34Z</time>
      </trkpt>
      <trkpt lat="45.55789" lon="6.72344">
        <ele>1184.6</ele>
        <time>2010-07-24T11:33:39Z</time>
      </trkpt>
      <trkpt lat="45.55788" lon="6.72342">
        <ele>1184.6</ele>
        <time>2010-07-24T11:33:40Z</time>
      </trkpt>
      <trkpt lat="45.55777" lon="6.72325">
        <ele>1183.8</ele>
        <time>2010-07-24T11:33:48Z</time>
      </trkpt>
      <trkpt lat="45.55774" lon="6.7232">
        <ele>1183.6</ele>
        <time>2010-07-24T11:33:51Z</time>
      </trkpt>
      <trkpt lat="45.55768" lon="6.72315">
        <ele>1182.8</ele>
        <time>2010-07-24T11:33:57Z</time>
      </trkpt>
      <trkpt lat="45.55767" lon="6.72302">
        <ele>1182.2</ele>
        <time>2010-07-24T11:34:05Z</time>
      </trkpt>
      <trkpt lat="45.55761" lon="6.72296">
        <ele>1182</ele>
        <time>2010-07-24T11:34:09Z</time>
      </trkpt>
      <trkpt lat="45.55753" lon="6.72288">
        <ele>1181.8</ele>
        <time>2010-07-24T11:34:16Z</time>
      </trkpt>
      <trkpt lat="45.55743" lon="6.7228">
        <ele>1182.2</ele>
        <time>2010-07-24T11:34:23Z</time>
      </trkpt>
      <trkpt lat="45.55746" lon="6.72281">
        <ele>1182.6</ele>
        <time>2010-07-24T11:34:27Z</time>
      </trkpt>
      <trkpt lat="45.55746" lon="6.7228">
        <ele>1183.4</ele>
        <time>2010-07-24T11:34:30Z</time>
      </trkpt>
      <trkpt lat="45.55733" lon="6.72262">
        <ele>1184</ele>
        <time>2010-07-24T11:34:36Z</time>
      </trkpt>
      <trkpt lat="45.55729" lon="6.72257">
        <ele>1183.8</ele>
        <time>2010-07-24T11:34:38Z</time>
      </trkpt>
      <trkpt lat="45.55722" lon="6.7224">
        <ele>1184.2</ele>
        <time>2010-07-24T11:34:43Z</time>
      </trkpt>
      <trkpt lat="45.5571" lon="6.72219">
        <ele>1186</ele>
        <time>2010-07-24T11:34:53Z</time>
      </trkpt>
      <trkpt lat="45.55702" lon="6.72206">
        <ele>1188</ele>
        <time>2010-07-24T11:35:01Z</time>
      </trkpt>
      <trkpt lat="45.55699" lon="6.72202">
        <ele>1188.4</ele>
        <time>2010-07-24T11:35:05Z</time>
      </trkpt>
      <trkpt lat="45.55698" lon="6.722">
        <ele>1188.4</ele>
        <time>2010-07-24T11:35:06Z</time>
      </trkpt>
      <trkpt lat="45.55693" lon="6.72192">
        <ele>1188.2</ele>
        <time>2010-07-24T11:35:12Z</time>
      </trkpt>
      <trkpt lat="45.55685" lon="6.72181">
        <ele>1187.6</ele>
        <time>2010-07-24T11:35:19Z</time>
      </trkpt>
      <trkpt lat="45.55676" lon="6.72159">
        <ele>1186.2</ele>
        <time>2010-07-24T11:35:30Z</time>
      </trkpt>
      <trkpt lat="45.55675" lon="6.72156">
        <ele>1186.2</ele>
        <time>2010-07-24T11:35:31Z</time>
      </trkpt>
      <trkpt lat="45.55664" lon="6.72139">
        <ele>1185.8</ele>
        <time>2010-07-24T11:35:38Z</time>
      </trkpt>
      <trkpt lat="45.55662" lon="6.72139">
        <ele>1185.8</ele>
        <time>2010-07-24T11:35:39Z</time>
      </trkpt>
      <trkpt lat="45.55646" lon="6.72145">
        <ele>1186.2</ele>
        <time>2010-07-24T11:35:46Z</time>
      </trkpt>
      <trkpt lat="45.55629" lon="6.72148">
        <ele>1189.2</ele>
        <time>2010-07-24T11:35:53Z</time>
      </trkpt>
      <trkpt lat="45.55626" lon="6.72148">
        <ele>1189.8</ele>
        <time>2010-07-24T11:35:54Z</time>
      </trkpt>
      <trkpt lat="45.55616" lon="6.72148">
        <ele>1192.4</ele>
        <time>2010-07-24T11:35:58Z</time>
      </trkpt>
      <trkpt lat="45.55607" lon="6.72142">
        <ele>1194.6</ele>
        <time>2010-07-24T11:36:01Z</time>
      </trkpt>
      <trkpt lat="45.55606" lon="6.72138">
        <ele>1194.8</ele>
        <time>2010-07-24T11:36:02Z</time>
      </trkpt>
      <trkpt lat="45.55605" lon="6.72114">
        <ele>1196.4</ele>
        <time>2010-07-24T11:36:06Z</time>
      </trkpt>
      <trkpt lat="45.55605" lon="6.7211">
        <ele>1196.8</ele>
        <time>2010-07-24T11:36:07Z</time>
      </trkpt>
      <trkpt lat="45.55604" lon="6.72086">
        <ele>1199.4</ele>
        <time>2010-07-24T11:36:12Z</time>
      </trkpt>
      <trkpt lat="45.55603" lon="6.72059">
        <ele>1201.8</ele>
        <time>2010-07-24T11:36:20Z</time>
      </trkpt>
      <trkpt lat="45.55603" lon="6.72041">
        <ele>1203</ele>
        <time>2010-07-24T11:36:27Z</time>
      </trkpt>
      <trkpt lat="45.55604" lon="6.72032">
        <ele>1203.2</ele>
        <time>2010-07-24T11:36:30Z</time>
      </trkpt>
      <trkpt lat="45.55604" lon="6.72023">
        <ele>1203.2</ele>
        <time>2010-07-24T11:36:33Z</time>
      </trkpt>
      <trkpt lat="45.55603" lon="6.72006">
        <ele>1203.2</ele>
        <time>2010-07-24T11:36:38Z</time>
      </trkpt>
      <trkpt lat="45.55601" lon="6.71979">
        <ele>1203.2</ele>
        <time>2010-07-24T11:36:46Z</time>
      </trkpt>
      <trkpt lat="45.55601" lon="6.71968">
        <ele>1203.2</ele>
        <time>2010-07-24T11:36:51Z</time>
      </trkpt>
      <trkpt lat="45.55607" lon="6.71974">
        <ele>1203</ele>
        <time>2010-07-24T11:36:56Z</time>
      </trkpt>
      <trkpt lat="45.55608" lon="6.71972">
        <ele>1203</ele>
        <time>2010-07-24T11:36:57Z</time>
      </trkpt>
      <trkpt lat="45.5561" lon="6.71961">
        <ele>1202.2</ele>
        <time>2010-07-24T11:37:02Z</time>
      </trkpt>
      <trkpt lat="45.55615" lon="6.71949">
        <ele>1201.8</ele>
        <time>2010-07-24T11:37:05Z</time>
      </trkpt>
      <trkpt lat="45.55616" lon="6.71939">
        <ele>1201.6</ele>
        <time>2010-07-24T11:37:07Z</time>
      </trkpt>
      <trkpt lat="45.55611" lon="6.71924">
        <ele>1200.8</ele>
        <time>2010-07-24T11:37:11Z</time>
      </trkpt>
      <trkpt lat="45.5561" lon="6.71914">
        <ele>1200.6</ele>
        <time>2010-07-24T11:37:13Z</time>
      </trkpt>
      <trkpt lat="45.55607" lon="6.71901">
        <ele>1200.2</ele>
        <time>2010-07-24T11:37:16Z</time>
      </trkpt>
      <trkpt lat="45.55604" lon="6.71898">
        <ele>1200.2</ele>
        <time>2010-07-24T11:37:17Z</time>
      </trkpt>
      <trkpt lat="45.55598" lon="6.71887">
        <ele>1199.8</ele>
        <time>2010-07-24T11:37:21Z</time>
      </trkpt>
      <trkpt lat="45.55598" lon="6.71884">
        <ele>1199.6</ele>
        <time>2010-07-24T11:37:22Z</time>
      </trkpt>
      <trkpt lat="45.556" lon="6.71876">
        <ele>1199.4</ele>
        <time>2010-07-24T11:37:24Z</time>
      </trkpt>
      <trkpt lat="45.55611" lon="6.71855">
        <ele>1198.6</ele>
        <time>2010-07-24T11:37:30Z</time>
      </trkpt>
      <trkpt lat="45.55613" lon="6.71839">
        <ele>1198.4</ele>
        <time>2010-07-24T11:37:33Z</time>
      </trkpt>
      <trkpt lat="45.55613" lon="6.71828">
        <ele>1198.2</ele>
        <time>2010-07-24T11:37:35Z</time>
      </trkpt>
      <trkpt lat="45.55619" lon="6.71807">
        <ele>1197.6</ele>
        <time>2010-07-24T11:37:39Z</time>
      </trkpt>
      <trkpt lat="45.55621" lon="6.71802">
        <ele>1197.6</ele>
        <time>2010-07-24T11:37:40Z</time>
      </trkpt>
      <trkpt lat="45.55627" lon="6.71785">
        <ele>1197</ele>
        <time>2010-07-24T11:37:44Z</time>
      </trkpt>
      <trkpt lat="45.55628" lon="6.71778">
        <ele>1196.6</ele>
        <time>2010-07-24T11:37:46Z</time>
      </trkpt>
      <trkpt lat="45.55629" lon="6.71777">
        <ele>1196.2</ele>
        <time>2010-07-24T11:37:49Z</time>
      </trkpt>
      <trkpt lat="45.55633" lon="6.71797">
        <ele>1195.2</ele>
        <time>2010-07-24T11:37:54Z</time>
      </trkpt>
      <trkpt lat="45.55634" lon="6.71801">
        <ele>1194.6</ele>
        <time>2010-07-24T11:37:56Z</time>
      </trkpt>
      <trkpt lat="45.55636" lon="6.71781">
        <ele>1193</ele>
        <time>2010-07-24T11:38:03Z</time>
      </trkpt>
      <trkpt lat="45.55638" lon="6.71757">
        <ele>1191.4</ele>
        <time>2010-07-24T11:38:09Z</time>
      </trkpt>
      <trkpt lat="45.5564" lon="6.71754">
        <ele>1191</ele>
        <time>2010-07-24T11:38:10Z</time>
      </trkpt>
      <trkpt lat="45.55645" lon="6.71729">
        <ele>1189.4</ele>
        <time>2010-07-24T11:38:15Z</time>
      </trkpt>
      <trkpt lat="45.55644" lon="6.71701">
        <ele>1188.2</ele>
        <time>2010-07-24T11:38:19Z</time>
      </trkpt>
      <trkpt lat="45.55651" lon="6.71689">
        <ele>1187.4</ele>
        <time>2010-07-24T11:38:22Z</time>
      </trkpt>
      <trkpt lat="45.55654" lon="6.7168">
        <ele>1186.8</ele>
        <time>2010-07-24T11:38:24Z</time>
      </trkpt>
      <trkpt lat="45.55658" lon="6.71669">
        <ele>1186.2</ele>
        <time>2010-07-24T11:38:27Z</time>
      </trkpt>
      <trkpt lat="45.5566" lon="6.71664">
        <ele>1185.8</ele>
        <time>2010-07-24T11:38:29Z</time>
      </trkpt>
      <trkpt lat="45.55667" lon="6.71657">
        <ele>1185</ele>
        <time>2010-07-24T11:38:32Z</time>
      </trkpt>
      <trkpt lat="45.55669" lon="6.71656">
        <ele>1184.8</ele>
        <time>2010-07-24T11:38:33Z</time>
      </trkpt>
      <trkpt lat="45.55673" lon="6.71656">
        <ele>1184.2</ele>
        <time>2010-07-24T11:38:35Z</time>
      </trkpt>
      <trkpt lat="45.55685" lon="6.71653">
        <ele>1182.8</ele>
        <time>2010-07-24T11:38:41Z</time>
      </trkpt>
      <trkpt lat="45.55699" lon="6.71633">
        <ele>1180.8</ele>
        <time>2010-07-24T11:38:48Z</time>
      </trkpt>
      <trkpt lat="45.55697" lon="6.71606">
        <ele>1179</ele>
        <time>2010-07-24T11:38:55Z</time>
      </trkpt>
      <trkpt lat="45.55697" lon="6.71592">
        <ele>1177.6</ele>
        <time>2010-07-24T11:39:00Z</time>
      </trkpt>
      <trkpt lat="45.55703" lon="6.71585">
        <ele>1176.8</ele>
        <time>2010-07-24T11:39:04Z</time>
      </trkpt>
      <trkpt lat="45.55711" lon="6.71566">
        <ele>1176</ele>
        <time>2010-07-24T11:39:09Z</time>
      </trkpt>
      <trkpt lat="45.55713" lon="6.71563">
        <ele>1175.8</ele>
        <time>2010-07-24T11:39:10Z</time>
      </trkpt>
      <trkpt lat="45.55722" lon="6.7154">
        <ele>1174.8</ele>
        <time>2010-07-24T11:39:15Z</time>
      </trkpt>
      <trkpt lat="45.55731" lon="6.71514">
        <ele>1173.8</ele>
        <time>2010-07-24T11:39:20Z</time>
      </trkpt>
      <trkpt lat="45.5574" lon="6.71491">
        <ele>1172</ele>
        <time>2010-07-24T11:39:26Z</time>
      </trkpt>
      <trkpt lat="45.55736" lon="6.71466">
        <ele>1170</ele>
        <time>2010-07-24T11:39:32Z</time>
      </trkpt>
      <trkpt lat="45.5573" lon="6.71448">
        <ele>1168.4</ele>
        <time>2010-07-24T11:39:37Z</time>
      </trkpt>
      <trkpt lat="45.55735" lon="6.71451">
        <ele>1167.6</ele>
        <time>2010-07-24T11:39:40Z</time>
      </trkpt>
      <trkpt lat="45.5574" lon="6.71464">
        <ele>1166.6</ele>
        <time>2010-07-24T11:39:43Z</time>
      </trkpt>
      <trkpt lat="45.55744" lon="6.71471">
        <ele>1166</ele>
        <time>2010-07-24T11:39:45Z</time>
      </trkpt>
      <trkpt lat="45.55758" lon="6.71493">
        <ele>1164.6</ele>
        <time>2010-07-24T11:39:50Z</time>
      </trkpt>
      <trkpt lat="45.55759" lon="6.71497">
        <ele>1164.2</ele>
        <time>2010-07-24T11:39:51Z</time>
      </trkpt>
      <trkpt lat="45.55762" lon="6.71518">
        <ele>1163</ele>
        <time>2010-07-24T11:39:55Z</time>
      </trkpt>
      <trkpt lat="45.55764" lon="6.71546">
        <ele>1161.2</ele>
        <time>2010-07-24T11:40:01Z</time>
      </trkpt>
      <trkpt lat="45.55765" lon="6.71553">
        <ele>1160.4</ele>
        <time>2010-07-24T11:40:04Z</time>
      </trkpt>
      <trkpt lat="45.55767" lon="6.71537">
        <ele>1159.4</ele>
        <time>2010-07-24T11:40:08Z</time>
      </trkpt>
      <trkpt lat="45.55771" lon="6.71514">
        <ele>1158.2</ele>
        <time>2010-07-24T11:40:12Z</time>
      </trkpt>
      <trkpt lat="45.55773" lon="6.7151">
        <ele>1158</ele>
        <time>2010-07-24T11:40:13Z</time>
      </trkpt>
      <trkpt lat="45.55779" lon="6.71482">
        <ele>1156</ele>
        <time>2010-07-24T11:40:19Z</time>
      </trkpt>
      <trkpt lat="45.55776" lon="6.71455">
        <ele>1154.4</ele>
        <time>2010-07-24T11:40:24Z</time>
      </trkpt>
      <trkpt lat="45.55773" lon="6.71425">
        <ele>1152.4</ele>
        <time>2010-07-24T11:40:30Z</time>
      </trkpt>
      <trkpt lat="45.55763" lon="6.714">
        <ele>1150.2</ele>
        <time>2010-07-24T11:40:36Z</time>
      </trkpt>
      <trkpt lat="45.55752" lon="6.71379">
        <ele>1148.4</ele>
        <time>2010-07-24T11:40:41Z</time>
      </trkpt>
      <trkpt lat="45.55738" lon="6.71364">
        <ele>1146.4</ele>
        <time>2010-07-24T11:40:46Z</time>
      </trkpt>
      <trkpt lat="45.55724" lon="6.71343">
        <ele>1144.4</ele>
        <time>2010-07-24T11:40:52Z</time>
      </trkpt>
      <trkpt lat="45.55718" lon="6.71331">
        <ele>1142.8</ele>
        <time>2010-07-24T11:40:56Z</time>
      </trkpt>
      <trkpt lat="45.55724" lon="6.71327">
        <ele>1141.2</ele>
        <time>2010-07-24T11:41:00Z</time>
      </trkpt>
      <trkpt lat="45.55741" lon="6.71336">
        <ele>1139.4</ele>
        <time>2010-07-24T11:41:05Z</time>
      </trkpt>
      <trkpt lat="45.55743" lon="6.71337">
        <ele>1139</ele>
        <time>2010-07-24T11:41:06Z</time>
      </trkpt>
      <trkpt lat="45.55762" lon="6.71348">
        <ele>1136.8</ele>
        <time>2010-07-24T11:41:12Z</time>
      </trkpt>
      <trkpt lat="45.55777" lon="6.71367">
        <ele>1134.4</ele>
        <time>2010-07-24T11:41:19Z</time>
      </trkpt>
      <trkpt lat="45.55779" lon="6.71369">
        <ele>1134.2</ele>
        <time>2010-07-24T11:41:20Z</time>
      </trkpt>
      <trkpt lat="45.55792" lon="6.71374">
        <ele>1133</ele>
        <time>2010-07-24T11:41:24Z</time>
      </trkpt>
      <trkpt lat="45.55809" lon="6.71389">
        <ele>1131.2</ele>
        <time>2010-07-24T11:41:29Z</time>
      </trkpt>
      <trkpt lat="45.5582" lon="6.71408">
        <ele>1129.8</ele>
        <time>2010-07-24T11:41:33Z</time>
      </trkpt>
      <trkpt lat="45.55821" lon="6.71413">
        <ele>1129.4</ele>
        <time>2010-07-24T11:41:34Z</time>
      </trkpt>
      <trkpt lat="45.55831" lon="6.71432">
        <ele>1127.6</ele>
        <time>2010-07-24T11:41:39Z</time>
      </trkpt>
      <trkpt lat="45.55834" lon="6.71435">
        <ele>1127.2</ele>
        <time>2010-07-24T11:41:40Z</time>
      </trkpt>
      <trkpt lat="45.55847" lon="6.71448">
        <ele>1125.4</ele>
        <time>2010-07-24T11:41:45Z</time>
      </trkpt>
      <trkpt lat="45.55854" lon="6.7146">
        <ele>1124.2</ele>
        <time>2010-07-24T11:41:48Z</time>
      </trkpt>
      <trkpt lat="45.55855" lon="6.71471">
        <ele>1123.4</ele>
        <time>2010-07-24T11:41:50Z</time>
      </trkpt>
      <trkpt lat="45.55854" lon="6.71501">
        <ele>1121.2</ele>
        <time>2010-07-24T11:41:56Z</time>
      </trkpt>
      <trkpt lat="45.55851" lon="6.71528">
        <ele>1118.8</ele>
        <time>2010-07-24T11:42:02Z</time>
      </trkpt>
      <trkpt lat="45.55851" lon="6.71557">
        <ele>1116.4</ele>
        <time>2010-07-24T11:42:08Z</time>
      </trkpt>
      <trkpt lat="45.55857" lon="6.71583">
        <ele>1114.2</ele>
        <time>2010-07-24T11:42:13Z</time>
      </trkpt>
      <trkpt lat="45.55859" lon="6.71594">
        <ele>1113</ele>
        <time>2010-07-24T11:42:16Z</time>
      </trkpt>
      <trkpt lat="45.55859" lon="6.71576">
        <ele>1110.8</ele>
        <time>2010-07-24T11:42:21Z</time>
      </trkpt>
      <trkpt lat="45.55861" lon="6.71547">
        <ele>1108.6</ele>
        <time>2010-07-24T11:42:26Z</time>
      </trkpt>
      <trkpt lat="45.55864" lon="6.71517">
        <ele>1106</ele>
        <time>2010-07-24T11:42:32Z</time>
      </trkpt>
      <trkpt lat="45.55873" lon="6.71489">
        <ele>1103.6</ele>
        <time>2010-07-24T11:42:38Z</time>
      </trkpt>
      <trkpt lat="45.55874" lon="6.71459">
        <ele>1101.6</ele>
        <time>2010-07-24T11:42:43Z</time>
      </trkpt>
      <trkpt lat="45.55875" lon="6.71437">
        <ele>1099.8</ele>
        <time>2010-07-24T11:42:47Z</time>
      </trkpt>
      <trkpt lat="45.55875" lon="6.71432">
        <ele>1099.4</ele>
        <time>2010-07-24T11:42:48Z</time>
      </trkpt>
      <trkpt lat="45.55866" lon="6.71405">
        <ele>1096.6</ele>
        <time>2010-07-24T11:42:54Z</time>
      </trkpt>
      <trkpt lat="45.55865" lon="6.714">
        <ele>1096.2</ele>
        <time>2010-07-24T11:42:55Z</time>
      </trkpt>
      <trkpt lat="45.55862" lon="6.71377">
        <ele>1094.4</ele>
        <time>2010-07-24T11:42:59Z</time>
      </trkpt>
      <trkpt lat="45.55857" lon="6.71353">
        <ele>1092.2</ele>
        <time>2010-07-24T11:43:04Z</time>
      </trkpt>
      <trkpt lat="45.55849" lon="6.71326">
        <ele>1089.4</ele>
        <time>2010-07-24T11:43:10Z</time>
      </trkpt>
      <trkpt lat="45.55847" lon="6.713">
        <ele>1086</ele>
        <time>2010-07-24T11:43:17Z</time>
      </trkpt>
      <trkpt lat="45.55848" lon="6.71296">
        <ele>1085.4</ele>
        <time>2010-07-24T11:43:18Z</time>
      </trkpt>
      <trkpt lat="45.55847" lon="6.71276">
        <ele>1084</ele>
        <time>2010-07-24T11:43:21Z</time>
      </trkpt>
      <trkpt lat="45.55846" lon="6.71247">
        <ele>1081.8</ele>
        <time>2010-07-24T11:43:26Z</time>
      </trkpt>
      <trkpt lat="45.55841" lon="6.7122">
        <ele>1078.4</ele>
        <time>2010-07-24T11:43:33Z</time>
      </trkpt>
      <trkpt lat="45.55839" lon="6.7121">
        <ele>1077</ele>
        <time>2010-07-24T11:43:36Z</time>
      </trkpt>
      <trkpt lat="45.55846" lon="6.71217">
        <ele>1075.6</ele>
        <time>2010-07-24T11:43:39Z</time>
      </trkpt>
      <trkpt lat="45.55854" lon="6.71232">
        <ele>1073.4</ele>
        <time>2010-07-24T11:43:43Z</time>
      </trkpt>
      <trkpt lat="45.55856" lon="6.71235">
        <ele>1073</ele>
        <time>2010-07-24T11:43:44Z</time>
      </trkpt>
      <trkpt lat="45.55858" lon="6.71239">
        <ele>1072.4</ele>
        <time>2010-07-24T11:43:45Z</time>
      </trkpt>
      <trkpt lat="45.55868" lon="6.71263">
        <ele>1069.4</ele>
        <time>2010-07-24T11:43:51Z</time>
      </trkpt>
      <trkpt lat="45.55878" lon="6.71285">
        <ele>1067</ele>
        <time>2010-07-24T11:43:56Z</time>
      </trkpt>
      <trkpt lat="45.55891" lon="6.71306">
        <ele>1064</ele>
        <time>2010-07-24T11:44:02Z</time>
      </trkpt>
      <trkpt lat="45.55906" lon="6.71324">
        <ele>1061.4</ele>
        <time>2010-07-24T11:44:07Z</time>
      </trkpt>
      <trkpt lat="45.55918" lon="6.71342">
        <ele>1059.2</ele>
        <time>2010-07-24T11:44:12Z</time>
      </trkpt>
      <trkpt lat="45.55932" lon="6.71364">
        <ele>1057</ele>
        <time>2010-07-24T11:44:17Z</time>
      </trkpt>
      <trkpt lat="45.55937" lon="6.71388">
        <ele>1054.8</ele>
        <time>2010-07-24T11:44:22Z</time>
      </trkpt>
      <trkpt lat="45.55944" lon="6.71416">
        <ele>1052</ele>
        <time>2010-07-24T11:44:28Z</time>
      </trkpt>
      <trkpt lat="45.55949" lon="6.71441">
        <ele>1049.8</ele>
        <time>2010-07-24T11:44:33Z</time>
      </trkpt>
      <trkpt lat="45.55952" lon="6.71467">
        <ele>1047.8</ele>
        <time>2010-07-24T11:44:38Z</time>
      </trkpt>
      <trkpt lat="45.55962" lon="6.71493">
        <ele>1045.2</ele>
        <time>2010-07-24T11:44:44Z</time>
      </trkpt>
      <trkpt lat="45.55976" lon="6.71509">
        <ele>1043</ele>
        <time>2010-07-24T11:44:49Z</time>
      </trkpt>
      <trkpt lat="45.55991" lon="6.71526">
        <ele>1040.6</ele>
        <time>2010-07-24T11:44:54Z</time>
      </trkpt>
      <trkpt lat="45.56009" lon="6.71537">
        <ele>1038.2</ele>
        <time>2010-07-24T11:44:59Z</time>
      </trkpt>
      <trkpt lat="45.56021" lon="6.71552">
        <ele>1035.8</ele>
        <time>2010-07-24T11:45:04Z</time>
      </trkpt>
      <trkpt lat="45.56021" lon="6.71557">
        <ele>1035.2</ele>
        <time>2010-07-24T11:45:05Z</time>
      </trkpt>
      <trkpt lat="45.56014" lon="6.71585">
        <ele>1032.8</ele>
        <time>2010-07-24T11:45:10Z</time>
      </trkpt>
      <trkpt lat="45.56006" lon="6.7161">
        <ele>1030.4</ele>
        <time>2010-07-24T11:45:15Z</time>
      </trkpt>
      <trkpt lat="45.55993" lon="6.71633">
        <ele>1027.6</ele>
        <time>2010-07-24T11:45:21Z</time>
      </trkpt>
      <trkpt lat="45.55976" lon="6.71651">
        <ele>1025</ele>
        <time>2010-07-24T11:45:26Z</time>
      </trkpt>
      <trkpt lat="45.5596" lon="6.71666">
        <ele>1022.2</ele>
        <time>2010-07-24T11:45:32Z</time>
      </trkpt>
      <trkpt lat="45.55947" lon="6.71685">
        <ele>1019.6</ele>
        <time>2010-07-24T11:45:38Z</time>
      </trkpt>
      <trkpt lat="45.55945" lon="6.71706">
        <ele>1017.6</ele>
        <time>2010-07-24T11:45:44Z</time>
      </trkpt>
      <trkpt lat="45.55949" lon="6.7171">
        <ele>1016.8</ele>
        <time>2010-07-24T11:45:47Z</time>
      </trkpt>
      <trkpt lat="45.55949" lon="6.71709">
        <ele>1016</ele>
        <time>2010-07-24T11:45:49Z</time>
      </trkpt>
      <trkpt lat="45.55953" lon="6.71711">
        <ele>1015.2</ele>
        <time>2010-07-24T11:45:51Z</time>
      </trkpt>
      <trkpt lat="45.55966" lon="6.7172">
        <ele>1013.6</ele>
        <time>2010-07-24T11:45:55Z</time>
      </trkpt>
      <trkpt lat="45.55972" lon="6.71729">
        <ele>1012.6</ele>
        <time>2010-07-24T11:45:57Z</time>
      </trkpt>
      <trkpt lat="45.55978" lon="6.71741">
        <ele>1011</ele>
        <time>2010-07-24T11:46:00Z</time>
      </trkpt>
      <trkpt lat="45.55992" lon="6.71761">
        <ele>1007.8</ele>
        <time>2010-07-24T11:46:06Z</time>
      </trkpt>
      <trkpt lat="45.56008" lon="6.71775">
        <ele>1005</ele>
        <time>2010-07-24T11:46:11Z</time>
      </trkpt>
      <trkpt lat="45.56024" lon="6.71787">
        <ele>1002.8</ele>
        <time>2010-07-24T11:46:15Z</time>
      </trkpt>
      <trkpt lat="45.56041" lon="6.71804">
        <ele>999.2</ele>
        <time>2010-07-24T11:46:21Z</time>
      </trkpt>
      <trkpt lat="45.56059" lon="6.71808">
        <ele>995.6</ele>
        <time>2010-07-24T11:46:27Z</time>
      </trkpt>
      <trkpt lat="45.5608" lon="6.71812">
        <ele>992</ele>
        <time>2010-07-24T11:46:33Z</time>
      </trkpt>
      <trkpt lat="45.56097" lon="6.71828">
        <ele>988.6</ele>
        <time>2010-07-24T11:46:39Z</time>
      </trkpt>
      <trkpt lat="45.56097" lon="6.71827">
        <ele>988</ele>
        <time>2010-07-24T11:46:40Z</time>
      </trkpt>
      <trkpt lat="45.5609" lon="6.71808">
        <ele>985.4</ele>
        <time>2010-07-24T11:46:45Z</time>
      </trkpt>
      <trkpt lat="45.56082" lon="6.71802">
        <ele>983.8</ele>
        <time>2010-07-24T11:46:48Z</time>
      </trkpt>
      <trkpt lat="45.56073" lon="6.71795">
        <ele>982.2</ele>
        <time>2010-07-24T11:46:51Z</time>
      </trkpt>
      <trkpt lat="45.56055" lon="6.71787">
        <ele>979.2</ele>
        <time>2010-07-24T11:46:57Z</time>
      </trkpt>
      <trkpt lat="45.56046" lon="6.71763">
        <ele>976</ele>
        <time>2010-07-24T11:47:03Z</time>
      </trkpt>
      <trkpt lat="45.56045" lon="6.71743">
        <ele>974.2</ele>
        <time>2010-07-24T11:47:07Z</time>
      </trkpt>
      <trkpt lat="45.56042" lon="6.71735">
        <ele>973.4</ele>
        <time>2010-07-24T11:47:09Z</time>
      </trkpt>
      <trkpt lat="45.56037" lon="6.7171">
        <ele>971</ele>
        <time>2010-07-24T11:47:15Z</time>
      </trkpt>
      <trkpt lat="45.56037" lon="6.7169">
        <ele>969.2</ele>
        <time>2010-07-24T11:47:20Z</time>
      </trkpt>
      <trkpt lat="45.56041" lon="6.71684">
        <ele>968.6</ele>
        <time>2010-07-24T11:47:22Z</time>
      </trkpt>
      <trkpt lat="45.56062" lon="6.71681">
        <ele>967</ele>
        <time>2010-07-24T11:47:27Z</time>
      </trkpt>
      <trkpt lat="45.56068" lon="6.71674">
        <ele>966.2</ele>
        <time>2010-07-24T11:47:29Z</time>
      </trkpt>
      <trkpt lat="45.56075" lon="6.71662">
        <ele>965</ele>
        <time>2010-07-24T11:47:32Z</time>
      </trkpt>
      <trkpt lat="45.56087" lon="6.7164">
        <ele>962.6</ele>
        <time>2010-07-24T11:47:38Z</time>
      </trkpt>
      <trkpt lat="45.56089" lon="6.71636">
        <ele>962.2</ele>
        <time>2010-07-24T11:47:39Z</time>
      </trkpt>
      <trkpt lat="45.56098" lon="6.71613">
        <ele>960.2</ele>
        <time>2010-07-24T11:47:44Z</time>
      </trkpt>
      <trkpt lat="45.56112" lon="6.71593">
        <ele>958.2</ele>
        <time>2010-07-24T11:47:49Z</time>
      </trkpt>
      <trkpt lat="45.56124" lon="6.71571">
        <ele>956</ele>
        <time>2010-07-24T11:47:54Z</time>
      </trkpt>
      <trkpt lat="45.56133" lon="6.71545">
        <ele>953.2</ele>
        <time>2010-07-24T11:48:00Z</time>
      </trkpt>
      <trkpt lat="45.56133" lon="6.71541">
        <ele>952.8</ele>
        <time>2010-07-24T11:48:01Z</time>
      </trkpt>
      <trkpt lat="45.56129" lon="6.71521">
        <ele>950.8</ele>
        <time>2010-07-24T11:48:05Z</time>
      </trkpt>
      <trkpt lat="45.56124" lon="6.71494">
        <ele>948.2</ele>
        <time>2010-07-24T11:48:11Z</time>
      </trkpt>
      <trkpt lat="45.56122" lon="6.71469">
        <ele>943.6</ele>
        <time>2010-07-24T11:48:22Z</time>
      </trkpt>
      <trkpt lat="45.56122" lon="6.71467">
        <ele>943.2</ele>
        <time>2010-07-24T11:48:23Z</time>
      </trkpt>
      <trkpt lat="45.56123" lon="6.71462">
        <ele>942.2</ele>
        <time>2010-07-24T11:48:26Z</time>
      </trkpt>
      <trkpt lat="45.56123" lon="6.71442">
        <ele>939.2</ele>
        <time>2010-07-24T11:48:35Z</time>
      </trkpt>
      <trkpt lat="45.56126" lon="6.71415">
        <ele>935</ele>
        <time>2010-07-24T11:48:49Z</time>
      </trkpt>
      <trkpt lat="45.56128" lon="6.71391">
        <ele>933.2</ele>
        <time>2010-07-24T11:48:58Z</time>
      </trkpt>
      <trkpt lat="45.56127" lon="6.71383">
        <ele>932.8</ele>
        <time>2010-07-24T11:49:00Z</time>
      </trkpt>
      <trkpt lat="45.56124" lon="6.71364">
        <ele>932</ele>
        <time>2010-07-24T11:49:05Z</time>
      </trkpt>
      <trkpt lat="45.56116" lon="6.71339">
        <ele>931</ele>
        <time>2010-07-24T11:49:12Z</time>
      </trkpt>
      <trkpt lat="45.56108" lon="6.71313">
        <ele>930.6</ele>
        <time>2010-07-24T11:49:18Z</time>
      </trkpt>
      <trkpt lat="45.56103" lon="6.71287">
        <ele>930.2</ele>
        <time>2010-07-24T11:49:24Z</time>
      </trkpt>
      <trkpt lat="45.56095" lon="6.71263">
        <ele>929.8</ele>
        <time>2010-07-24T11:49:30Z</time>
      </trkpt>
      <trkpt lat="45.56086" lon="6.71239">
        <ele>929.2</ele>
        <time>2010-07-24T11:49:37Z</time>
      </trkpt>
      <trkpt lat="45.56083" lon="6.71232">
        <ele>929.2</ele>
        <time>2010-07-24T11:49:38Z</time>
      </trkpt>
      <trkpt lat="45.56083" lon="6.71224">
        <ele>928.8</ele>
        <time>2010-07-24T11:49:41Z</time>
      </trkpt>
      <trkpt lat="45.56086" lon="6.71215">
        <ele>928.6</ele>
        <time>2010-07-24T11:49:43Z</time>
      </trkpt>
      <trkpt lat="45.56088" lon="6.71188">
        <ele>928.2</ele>
        <time>2010-07-24T11:49:49Z</time>
      </trkpt>
      <trkpt lat="45.56082" lon="6.71164">
        <ele>927.6</ele>
        <time>2010-07-24T11:49:55Z</time>
      </trkpt>
      <trkpt lat="45.56082" lon="6.71139">
        <ele>927</ele>
        <time>2010-07-24T11:50:01Z</time>
      </trkpt>
      <trkpt lat="45.56083" lon="6.71135">
        <ele>926.8</ele>
        <time>2010-07-24T11:50:02Z</time>
      </trkpt>
      <trkpt lat="45.56074" lon="6.71118">
        <ele>926.2</ele>
        <time>2010-07-24T11:50:07Z</time>
      </trkpt>
      <trkpt lat="45.56068" lon="6.71113">
        <ele>926</ele>
        <time>2010-07-24T11:50:09Z</time>
      </trkpt>
      <trkpt lat="45.56058" lon="6.71101">
        <ele>925.4</ele>
        <time>2010-07-24T11:50:13Z</time>
      </trkpt>
      <trkpt lat="45.56042" lon="6.71083">
        <ele>924.6</ele>
        <time>2010-07-24T11:50:19Z</time>
      </trkpt>
      <trkpt lat="45.56025" lon="6.71067">
        <ele>923.6</ele>
        <time>2010-07-24T11:50:26Z</time>
      </trkpt>
      <trkpt lat="45.56017" lon="6.71059">
        <ele>923.6</ele>
        <time>2010-07-24T11:50:28Z</time>
      </trkpt>
      <trkpt lat="45.56014" lon="6.71057">
        <ele>923.6</ele>
        <time>2010-07-24T11:50:30Z</time>
      </trkpt>
      <trkpt lat="45.56006" lon="6.71052">
        <ele>923.8</ele>
        <time>2010-07-24T11:50:32Z</time>
      </trkpt>
      <trkpt lat="45.5599" lon="6.71034">
        <ele>923.6</ele>
        <time>2010-07-24T11:50:38Z</time>
      </trkpt>
      <trkpt lat="45.55976" lon="6.7101">
        <ele>924</ele>
        <time>2010-07-24T11:50:44Z</time>
      </trkpt>
      <trkpt lat="45.55977" lon="6.71006">
        <ele>924</ele>
        <time>2010-07-24T11:50:46Z</time>
      </trkpt>
      <trkpt lat="45.55985" lon="6.71011">
        <ele>923.6</ele>
        <time>2010-07-24T11:50:50Z</time>
      </trkpt>
      <trkpt lat="45.55991" lon="6.71012">
        <ele>923.6</ele>
        <time>2010-07-24T11:50:52Z</time>
      </trkpt>
      <trkpt lat="45.56004" lon="6.71008">
        <ele>923.4</ele>
        <time>2010-07-24T11:50:56Z</time>
      </trkpt>
      <trkpt lat="45.56009" lon="6.71008">
        <ele>923.2</ele>
        <time>2010-07-24T11:50:57Z</time>
      </trkpt>
      <trkpt lat="45.56029" lon="6.71006">
        <ele>923</ele>
        <time>2010-07-24T11:51:02Z</time>
      </trkpt>
      <trkpt lat="45.56049" lon="6.70993">
        <ele>922</ele>
        <time>2010-07-24T11:51:07Z</time>
      </trkpt>
      <trkpt lat="45.56059" lon="6.70986">
        <ele>921.6</ele>
        <time>2010-07-24T11:51:10Z</time>
      </trkpt>
      <trkpt lat="45.56068" lon="6.70983">
        <ele>921.2</ele>
        <time>2010-07-24T11:51:12Z</time>
      </trkpt>
      <trkpt lat="45.56082" lon="6.70976">
        <ele>920.6</ele>
        <time>2010-07-24T11:51:16Z</time>
      </trkpt>
      <trkpt lat="45.56085" lon="6.70975">
        <ele>920.4</ele>
        <time>2010-07-24T11:51:17Z</time>
      </trkpt>
      <trkpt lat="45.56102" lon="6.70963">
        <ele>919.2</ele>
        <time>2010-07-24T11:51:23Z</time>
      </trkpt>
      <trkpt lat="45.56101" lon="6.70958">
        <ele>919</ele>
        <time>2010-07-24T11:51:24Z</time>
      </trkpt>
      <trkpt lat="45.56092" lon="6.70937">
        <ele>918.2</ele>
        <time>2010-07-24T11:51:28Z</time>
      </trkpt>
      <trkpt lat="45.56092" lon="6.70937">
        <ele>918</ele>
        <time>2010-07-24T11:51:29Z</time>
      </trkpt>
      <trkpt lat="45.56081" lon="6.70918">
        <ele>917</ele>
        <time>2010-07-24T11:51:34Z</time>
      </trkpt>
      <trkpt lat="45.56069" lon="6.70897">
        <ele>916.2</ele>
        <time>2010-07-24T11:51:39Z</time>
      </trkpt>
      <trkpt lat="45.56057" lon="6.70875">
        <ele>915.6</ele>
        <time>2010-07-24T11:51:46Z</time>
      </trkpt>
      <trkpt lat="45.56056" lon="6.70871">
        <ele>915.4</ele>
        <time>2010-07-24T11:51:47Z</time>
      </trkpt>
      <trkpt lat="45.56067" lon="6.70858">
        <ele>915</ele>
        <time>2010-07-24T11:51:52Z</time>
      </trkpt>
      <trkpt lat="45.56086" lon="6.70854">
        <ele>914.4</ele>
        <time>2010-07-24T11:51:57Z</time>
      </trkpt>
      <trkpt lat="45.56093" lon="6.7085">
        <ele>914</ele>
        <time>2010-07-24T11:51:59Z</time>
      </trkpt>
      <trkpt lat="45.56103" lon="6.70846">
        <ele>913.4</ele>
        <time>2010-07-24T11:52:02Z</time>
      </trkpt>
      <trkpt lat="45.56118" lon="6.70822">
        <ele>912.2</ele>
        <time>2010-07-24T11:52:08Z</time>
      </trkpt>
      <trkpt lat="45.56119" lon="6.70818">
        <ele>911.6</ele>
        <time>2010-07-24T11:52:10Z</time>
      </trkpt>
      <trkpt lat="45.56122" lon="6.708">
        <ele>910.8</ele>
        <time>2010-07-24T11:52:14Z</time>
      </trkpt>
      <trkpt lat="45.56129" lon="6.70774">
        <ele>909.4</ele>
        <time>2010-07-24T11:52:20Z</time>
      </trkpt>
      <trkpt lat="45.56132" lon="6.70755">
        <ele>908.4</ele>
        <time>2010-07-24T11:52:25Z</time>
      </trkpt>
      <trkpt lat="45.56129" lon="6.70743">
        <ele>907.6</ele>
        <time>2010-07-24T11:52:28Z</time>
      </trkpt>
      <trkpt lat="45.56129" lon="6.70743">
        <ele>907.4</ele>
        <time>2010-07-24T11:52:29Z</time>
      </trkpt>
      <trkpt lat="45.56126" lon="6.7072">
        <ele>906.4</ele>
        <time>2010-07-24T11:52:35Z</time>
      </trkpt>
      <trkpt lat="45.5613" lon="6.70696">
        <ele>904.8</ele>
        <time>2010-07-24T11:52:44Z</time>
      </trkpt>
      <trkpt lat="45.56131" lon="6.70669">
        <ele>903.6</ele>
        <time>2010-07-24T11:52:51Z</time>
      </trkpt>
      <trkpt lat="45.56134" lon="6.70641">
        <ele>902.6</ele>
        <time>2010-07-24T11:52:58Z</time>
      </trkpt>
      <trkpt lat="45.56134" lon="6.70615">
        <ele>901.8</ele>
        <time>2010-07-24T11:53:04Z</time>
      </trkpt>
      <trkpt lat="45.56134" lon="6.70608">
        <ele>901.6</ele>
        <time>2010-07-24T11:53:06Z</time>
      </trkpt>
      <trkpt lat="45.56134" lon="6.70587">
        <ele>901</ele>
        <time>2010-07-24T11:53:15Z</time>
      </trkpt>
      <trkpt lat="45.5613" lon="6.70561">
        <ele>900.4</ele>
        <time>2010-07-24T11:53:26Z</time>
      </trkpt>
      <trkpt lat="45.56127" lon="6.7055">
        <ele>900.2</ele>
        <time>2010-07-24T11:53:28Z</time>
      </trkpt>
      <trkpt lat="45.5612" lon="6.70538">
        <ele>900</ele>
        <time>2010-07-24T11:53:33Z</time>
      </trkpt>
      <trkpt lat="45.56108" lon="6.70519">
        <ele>899.4</ele>
        <time>2010-07-24T11:53:41Z</time>
      </trkpt>
      <trkpt lat="45.56096" lon="6.70505">
        <ele>898.8</ele>
        <time>2010-07-24T11:53:48Z</time>
      </trkpt>
      <trkpt lat="45.56095" lon="6.70502">
        <ele>898.8</ele>
        <time>2010-07-24T11:53:50Z</time>
      </trkpt>
      <trkpt lat="45.56087" lon="6.70477">
        <ele>898.8</ele>
        <time>2010-07-24T11:53:58Z</time>
      </trkpt>
      <trkpt lat="45.56082" lon="6.70469">
        <ele>899.2</ele>
        <time>2010-07-24T11:54:02Z</time>
      </trkpt>
      <trkpt lat="45.56074" lon="6.70451">
        <ele>899.8</ele>
        <time>2010-07-24T11:54:08Z</time>
      </trkpt>
      <trkpt lat="45.56073" lon="6.70435">
        <ele>900.4</ele>
        <time>2010-07-24T11:54:14Z</time>
      </trkpt>
      <trkpt lat="45.56072" lon="6.70424">
        <ele>901.4</ele>
        <time>2010-07-24T11:54:18Z</time>
      </trkpt>
      <trkpt lat="45.56073" lon="6.70418">
        <ele>902</ele>
        <time>2010-07-24T11:54:20Z</time>
      </trkpt>
      <trkpt lat="45.56074" lon="6.70414">
        <ele>902.6</ele>
        <time>2010-07-24T11:54:22Z</time>
      </trkpt>
      <trkpt lat="45.56071" lon="6.70404">
        <ele>903.8</ele>
        <time>2010-07-24T11:54:27Z</time>
      </trkpt>
      <trkpt lat="45.56069" lon="6.70399">
        <ele>904</ele>
        <time>2010-07-24T11:54:28Z</time>
      </trkpt>
      <trkpt lat="45.5606" lon="6.70381">
        <ele>905.2</ele>
        <time>2010-07-24T11:54:35Z</time>
      </trkpt>
      <trkpt lat="45.56051" lon="6.70351">
        <ele>905.8</ele>
        <time>2010-07-24T11:54:44Z</time>
      </trkpt>
      <trkpt lat="45.5605" lon="6.70345">
        <ele>905.8</ele>
        <time>2010-07-24T11:54:46Z</time>
      </trkpt>
      <trkpt lat="45.56056" lon="6.70332">
        <ele>905.4</ele>
        <time>2010-07-24T11:54:51Z</time>
      </trkpt>
      <trkpt lat="45.56058" lon="6.70326">
        <ele>905.4</ele>
        <time>2010-07-24T11:54:53Z</time>
      </trkpt>
      <trkpt lat="45.56057" lon="6.70307">
        <ele>904.8</ele>
        <time>2010-07-24T11:54:58Z</time>
      </trkpt>
      <trkpt lat="45.56044" lon="6.70288">
        <ele>904.4</ele>
        <time>2010-07-24T11:55:03Z</time>
      </trkpt>
      <trkpt lat="45.56036" lon="6.70279">
        <ele>903.8</ele>
        <time>2010-07-24T11:55:07Z</time>
      </trkpt>
      <trkpt lat="45.5603" lon="6.70265">
        <ele>903.4</ele>
        <time>2010-07-24T11:55:10Z</time>
      </trkpt>
      <trkpt lat="45.56018" lon="6.70256">
        <ele>902.8</ele>
        <time>2010-07-24T11:55:16Z</time>
      </trkpt>
      <trkpt lat="45.56014" lon="6.70251">
        <ele>902.8</ele>
        <time>2010-07-24T11:55:18Z</time>
      </trkpt>
      <trkpt lat="45.56013" lon="6.70248">
        <ele>902.8</ele>
        <time>2010-07-24T11:55:19Z</time>
      </trkpt>
      <trkpt lat="45.56021" lon="6.70225">
        <ele>902.2</ele>
        <time>2010-07-24T11:55:28Z</time>
      </trkpt>
      <trkpt lat="45.5603" lon="6.70216">
        <ele>901.8</ele>
        <time>2010-07-24T11:55:33Z</time>
      </trkpt>
      <trkpt lat="45.56032" lon="6.70214">
        <ele>901.6</ele>
        <time>2010-07-24T11:55:34Z</time>
      </trkpt>
      <trkpt lat="45.56037" lon="6.70208">
        <ele>901.2</ele>
        <time>2010-07-24T11:55:39Z</time>
      </trkpt>
      <trkpt lat="45.56043" lon="6.70202">
        <ele>900.8</ele>
        <time>2010-07-24T11:55:43Z</time>
      </trkpt>
      <trkpt lat="45.56043" lon="6.70197">
        <ele>900.6</ele>
        <time>2010-07-24T11:55:45Z</time>
      </trkpt>
      <trkpt lat="45.56042" lon="6.70185">
        <ele>900</ele>
        <time>2010-07-24T11:55:49Z</time>
      </trkpt>
      <trkpt lat="45.5604" lon="6.7016">
        <ele>899.4</ele>
        <time>2010-07-24T11:55:55Z</time>
      </trkpt>
      <trkpt lat="45.5604" lon="6.70156">
        <ele>899.4</ele>
        <time>2010-07-24T11:55:56Z</time>
      </trkpt>
      <trkpt lat="45.56041" lon="6.70126">
        <ele>899</ele>
        <time>2010-07-24T11:56:02Z</time>
      </trkpt>
      <trkpt lat="45.56041" lon="6.70126">
        <ele>899</ele>
        <time>2010-07-24T11:56:03Z</time>
      </trkpt>
      <trkpt lat="45.56036" lon="6.70097">
        <ele>898.6</ele>
        <time>2010-07-24T11:56:10Z</time>
      </trkpt>
      <trkpt lat="45.56037" lon="6.70068">
        <ele>898.4</ele>
        <time>2010-07-24T11:56:16Z</time>
      </trkpt>
      <trkpt lat="45.56044" lon="6.70042">
        <ele>898.2</ele>
        <time>2010-07-24T11:56:22Z</time>
      </trkpt>
      <trkpt lat="45.56045" lon="6.70029">
        <ele>897.6</ele>
        <time>2010-07-24T11:56:26Z</time>
      </trkpt>
      <trkpt lat="45.56043" lon="6.70016">
        <ele>897</ele>
        <time>2010-07-24T11:56:30Z</time>
      </trkpt>
      <trkpt lat="45.56039" lon="6.69997">
        <ele>895.8</ele>
        <time>2010-07-24T11:56:37Z</time>
      </trkpt>
      <trkpt lat="45.56037" lon="6.69991">
        <ele>895.6</ele>
        <time>2010-07-24T11:56:39Z</time>
      </trkpt>
      <trkpt lat="45.56034" lon="6.69972">
        <ele>895</ele>
        <time>2010-07-24T11:56:45Z</time>
      </trkpt>
      <trkpt lat="45.5603" lon="6.69963">
        <ele>894.8</ele>
        <time>2010-07-24T11:56:48Z</time>
      </trkpt>
      <trkpt lat="45.56027" lon="6.69942">
        <ele>894.4</ele>
        <time>2010-07-24T11:56:53Z</time>
      </trkpt>
      <trkpt lat="45.56029" lon="6.69934">
        <ele>894.2</ele>
        <time>2010-07-24T11:56:55Z</time>
      </trkpt>
      <trkpt lat="45.5603" lon="6.69929">
        <ele>894</ele>
        <time>2010-07-24T11:56:57Z</time>
      </trkpt>
      <trkpt lat="45.56031" lon="6.69927">
        <ele>893.8</ele>
        <time>2010-07-24T11:56:58Z</time>
      </trkpt>
      <trkpt lat="45.56029" lon="6.69915">
        <ele>893.2</ele>
        <time>2010-07-24T11:57:04Z</time>
      </trkpt>
      <trkpt lat="45.56026" lon="6.6991">
        <ele>892.8</ele>
        <time>2010-07-24T11:57:07Z</time>
      </trkpt>
      <trkpt lat="45.56028" lon="6.699">
        <ele>892.4</ele>
        <time>2010-07-24T11:57:11Z</time>
      </trkpt>
      <trkpt lat="45.56029" lon="6.69893">
        <ele>892.2</ele>
        <time>2010-07-24T11:57:13Z</time>
      </trkpt>
      <trkpt lat="45.5603" lon="6.69885">
        <ele>892</ele>
        <time>2010-07-24T11:57:15Z</time>
      </trkpt>
      <trkpt lat="45.5603" lon="6.69857">
        <ele>891.2</ele>
        <time>2010-07-24T11:57:21Z</time>
      </trkpt>
      <trkpt lat="45.56022" lon="6.69833">
        <ele>890.6</ele>
        <time>2010-07-24T11:57:26Z</time>
      </trkpt>
      <trkpt lat="45.56018" lon="6.69822">
        <ele>890.4</ele>
        <time>2010-07-24T11:57:29Z</time>
      </trkpt>
      <trkpt lat="45.56013" lon="6.69806">
        <ele>890</ele>
        <time>2010-07-24T11:57:34Z</time>
      </trkpt>
      <trkpt lat="45.56011" lon="6.69785">
        <ele>889.8</ele>
        <time>2010-07-24T11:57:39Z</time>
      </trkpt>
      <trkpt lat="45.56008" lon="6.69781">
        <ele>889.6</ele>
        <time>2010-07-24T11:57:40Z</time>
      </trkpt>
      <trkpt lat="45.56001" lon="6.69758">
        <ele>889.4</ele>
        <time>2010-07-24T11:57:46Z</time>
      </trkpt>
      <trkpt lat="45.55999" lon="6.69733">
        <ele>889</ele>
        <time>2010-07-24T11:57:55Z</time>
      </trkpt>
      <trkpt lat="45.56005" lon="6.69719">
        <ele>888.8</ele>
        <time>2010-07-24T11:58:01Z</time>
      </trkpt>
      <trkpt lat="45.56006" lon="6.69707">
        <ele>888.8</ele>
        <time>2010-07-24T11:58:05Z</time>
      </trkpt>
      <trkpt lat="45.56002" lon="6.69681">
        <ele>888.6</ele>
        <time>2010-07-24T11:58:12Z</time>
      </trkpt>
      <trkpt lat="45.55999" lon="6.69665">
        <ele>888.8</ele>
        <time>2010-07-24T11:58:16Z</time>
      </trkpt>
      <trkpt lat="45.56003" lon="6.69657">
        <ele>888.6</ele>
        <time>2010-07-24T11:58:20Z</time>
      </trkpt>
      <trkpt lat="45.56012" lon="6.69632">
        <ele>888</ele>
        <time>2010-07-24T11:58:29Z</time>
      </trkpt>
      <trkpt lat="45.56016" lon="6.69624">
        <ele>887.4</ele>
        <time>2010-07-24T11:58:33Z</time>
      </trkpt>
      <trkpt lat="45.56025" lon="6.6961">
        <ele>886.8</ele>
        <time>2010-07-24T11:58:37Z</time>
      </trkpt>
      <trkpt lat="45.56029" lon="6.69604">
        <ele>886.6</ele>
        <time>2010-07-24T11:58:39Z</time>
      </trkpt>
      <trkpt lat="45.56033" lon="6.69586">
        <ele>885.8</ele>
        <time>2010-07-24T11:58:45Z</time>
      </trkpt>
      <trkpt lat="45.56032" lon="6.69578">
        <ele>885.6</ele>
        <time>2010-07-24T11:58:47Z</time>
      </trkpt>
      <trkpt lat="45.56035" lon="6.6956">
        <ele>885</ele>
        <time>2010-07-24T11:58:52Z</time>
      </trkpt>
      <trkpt lat="45.56037" lon="6.69532">
        <ele>884.2</ele>
        <time>2010-07-24T11:58:59Z</time>
      </trkpt>
      <trkpt lat="45.56034" lon="6.69503">
        <ele>883.2</ele>
        <time>2010-07-24T11:59:06Z</time>
      </trkpt>
      <trkpt lat="45.56022" lon="6.69481">
        <ele>882.4</ele>
        <time>2010-07-24T11:59:13Z</time>
      </trkpt>
      <trkpt lat="45.56021" lon="6.69458">
        <ele>881.6</ele>
        <time>2010-07-24T11:59:20Z</time>
      </trkpt>
      <trkpt lat="45.56021" lon="6.69456">
        <ele>881.4</ele>
        <time>2010-07-24T11:59:21Z</time>
      </trkpt>
      <trkpt lat="45.56025" lon="6.69428">
        <ele>880.6</ele>
        <time>2010-07-24T11:59:29Z</time>
      </trkpt>
      <trkpt lat="45.56026" lon="6.69413">
        <ele>880</ele>
        <time>2010-07-24T11:59:33Z</time>
      </trkpt>
      <trkpt lat="45.56029" lon="6.69404">
        <ele>879.8</ele>
        <time>2010-07-24T11:59:34Z</time>
      </trkpt>
      <trkpt lat="45.5603" lon="6.69402">
        <ele>879.8</ele>
        <time>2010-07-24T11:59:35Z</time>
      </trkpt>
      <trkpt lat="45.56034" lon="6.69374">
        <ele>878</ele>
        <time>2010-07-24T11:59:45Z</time>
      </trkpt>
      <trkpt lat="45.56028" lon="6.6935">
        <ele>877</ele>
        <time>2010-07-24T11:59:51Z</time>
      </trkpt>
      <trkpt lat="45.56026" lon="6.69347">
        <ele>876.8</ele>
        <time>2010-07-24T11:59:52Z</time>
      </trkpt>
      <trkpt lat="45.56018" lon="6.69329">
        <ele>875.8</ele>
        <time>2010-07-24T11:59:57Z</time>
      </trkpt>
      <trkpt lat="45.56015" lon="6.69305">
        <ele>874.8</ele>
        <time>2010-07-24T12:00:02Z</time>
      </trkpt>
      <trkpt lat="45.56016" lon="6.69301">
        <ele>874.6</ele>
        <time>2010-07-24T12:00:03Z</time>
      </trkpt>
      <trkpt lat="45.5602" lon="6.69286">
        <ele>874</ele>
        <time>2010-07-24T12:00:06Z</time>
      </trkpt>
      <trkpt lat="45.5602" lon="6.69274">
        <ele>873.4</ele>
        <time>2010-07-24T12:00:10Z</time>
      </trkpt>
      <trkpt lat="45.5602" lon="6.69269">
        <ele>873.2</ele>
        <time>2010-07-24T12:00:12Z</time>
      </trkpt>
      <trkpt lat="45.56015" lon="6.69259">
        <ele>872.4</ele>
        <time>2010-07-24T12:00:16Z</time>
      </trkpt>
      <trkpt lat="45.56013" lon="6.6925">
        <ele>871.8</ele>
        <time>2010-07-24T12:00:19Z</time>
      </trkpt>
      <trkpt lat="45.5601" lon="6.69222">
        <ele>871</ele>
        <time>2010-07-24T12:00:25Z</time>
      </trkpt>
      <trkpt lat="45.55997" lon="6.692">
        <ele>869.8</ele>
        <time>2010-07-24T12:00:32Z</time>
      </trkpt>
      <trkpt lat="45.55989" lon="6.69175">
        <ele>868.8</ele>
        <time>2010-07-24T12:00:38Z</time>
      </trkpt>
      <trkpt lat="45.55984" lon="6.69145">
        <ele>867.8</ele>
        <time>2010-07-24T12:00:44Z</time>
      </trkpt>
      <trkpt lat="45.55977" lon="6.69123">
        <ele>866.8</ele>
        <time>2010-07-24T12:00:49Z</time>
      </trkpt>
      <trkpt lat="45.55977" lon="6.69119">
        <ele>866.6</ele>
        <time>2010-07-24T12:00:50Z</time>
      </trkpt>
      <trkpt lat="45.55974" lon="6.69094">
        <ele>865.4</ele>
        <time>2010-07-24T12:00:55Z</time>
      </trkpt>
      <trkpt lat="45.55976" lon="6.69079">
        <ele>864.8</ele>
        <time>2010-07-24T12:00:58Z</time>
      </trkpt>
      <trkpt lat="45.55975" lon="6.69068">
        <ele>864</ele>
        <time>2010-07-24T12:01:01Z</time>
      </trkpt>
      <trkpt lat="45.55976" lon="6.69065">
        <ele>863.8</ele>
        <time>2010-07-24T12:01:02Z</time>
      </trkpt>
      <trkpt lat="45.55985" lon="6.69045">
        <ele>862</ele>
        <time>2010-07-24T12:01:09Z</time>
      </trkpt>
      <trkpt lat="45.55983" lon="6.69027">
        <ele>860.8</ele>
        <time>2010-07-24T12:01:14Z</time>
      </trkpt>
      <trkpt lat="45.55981" lon="6.69019">
        <ele>860.2</ele>
        <time>2010-07-24T12:01:16Z</time>
      </trkpt>
      <trkpt lat="45.55973" lon="6.68996">
        <ele>859</ele>
        <time>2010-07-24T12:01:21Z</time>
      </trkpt>
      <trkpt lat="45.55964" lon="6.68981">
        <ele>857.8</ele>
        <time>2010-07-24T12:01:26Z</time>
      </trkpt>
      <trkpt lat="45.5596" lon="6.68975">
        <ele>857.6</ele>
        <time>2010-07-24T12:01:28Z</time>
      </trkpt>
      <trkpt lat="45.55953" lon="6.68949">
        <ele>856.6</ele>
        <time>2010-07-24T12:01:34Z</time>
      </trkpt>
      <trkpt lat="45.55949" lon="6.68935">
        <ele>856.2</ele>
        <time>2010-07-24T12:01:37Z</time>
      </trkpt>
      <trkpt lat="45.55943" lon="6.68923">
        <ele>855.8</ele>
        <time>2010-07-24T12:01:40Z</time>
      </trkpt>
      <trkpt lat="45.5593" lon="6.68901">
        <ele>855</ele>
        <time>2010-07-24T12:01:46Z</time>
      </trkpt>
      <trkpt lat="45.5592" lon="6.68879">
        <ele>854.4</ele>
        <time>2010-07-24T12:01:51Z</time>
      </trkpt>
      <trkpt lat="45.55909" lon="6.68857">
        <ele>854.2</ele>
        <time>2010-07-24T12:01:57Z</time>
      </trkpt>
      <trkpt lat="45.55896" lon="6.68839">
        <ele>853.8</ele>
        <time>2010-07-24T12:02:04Z</time>
      </trkpt>
      <trkpt lat="45.55888" lon="6.68831">
        <ele>853.2</ele>
        <time>2010-07-24T12:02:09Z</time>
      </trkpt>
      <trkpt lat="45.55884" lon="6.6882">
        <ele>852.8</ele>
        <time>2010-07-24T12:02:12Z</time>
      </trkpt>
      <trkpt lat="45.5588" lon="6.68812">
        <ele>852.6</ele>
        <time>2010-07-24T12:02:14Z</time>
      </trkpt>
      <trkpt lat="45.55871" lon="6.68802">
        <ele>852</ele>
        <time>2010-07-24T12:02:19Z</time>
      </trkpt>
      <trkpt lat="45.5587" lon="6.68796">
        <ele>851.8</ele>
        <time>2010-07-24T12:02:21Z</time>
      </trkpt>
      <trkpt lat="45.55861" lon="6.68779">
        <ele>850.8</ele>
        <time>2010-07-24T12:02:26Z</time>
      </trkpt>
      <trkpt lat="45.5585" lon="6.68754">
        <ele>850</ele>
        <time>2010-07-24T12:02:32Z</time>
      </trkpt>
      <trkpt lat="45.55844" lon="6.6873">
        <ele>849.2</ele>
        <time>2010-07-24T12:02:37Z</time>
      </trkpt>
      <trkpt lat="45.55833" lon="6.68706">
        <ele>848.2</ele>
        <time>2010-07-24T12:02:42Z</time>
      </trkpt>
      <trkpt lat="45.5582" lon="6.68686">
        <ele>847.2</ele>
        <time>2010-07-24T12:02:48Z</time>
      </trkpt>
      <trkpt lat="45.55813" lon="6.6867">
        <ele>846.2</ele>
        <time>2010-07-24T12:02:53Z</time>
      </trkpt>
      <trkpt lat="45.55808" lon="6.68665">
        <ele>845.6</ele>
        <time>2010-07-24T12:02:55Z</time>
      </trkpt>
      <trkpt lat="45.55796" lon="6.68641">
        <ele>844.4</ele>
        <time>2010-07-24T12:03:01Z</time>
      </trkpt>
      <trkpt lat="45.55787" lon="6.68617">
        <ele>843.2</ele>
        <time>2010-07-24T12:03:07Z</time>
      </trkpt>
      <trkpt lat="45.55777" lon="6.68592">
        <ele>841.6</ele>
        <time>2010-07-24T12:03:13Z</time>
      </trkpt>
      <trkpt lat="45.55766" lon="6.68572">
        <ele>840</ele>
        <time>2010-07-24T12:03:19Z</time>
      </trkpt>
      <trkpt lat="45.55764" lon="6.68557">
        <ele>838.8</ele>
        <time>2010-07-24T12:03:23Z</time>
      </trkpt>
      <trkpt lat="45.55763" lon="6.68548">
        <ele>838.2</ele>
        <time>2010-07-24T12:03:25Z</time>
      </trkpt>
      <trkpt lat="45.55756" lon="6.68534">
        <ele>836.6</ele>
        <time>2010-07-24T12:03:30Z</time>
      </trkpt>
      <trkpt lat="45.55756" lon="6.68526">
        <ele>836</ele>
        <time>2010-07-24T12:03:32Z</time>
      </trkpt>
      <trkpt lat="45.55754" lon="6.68515">
        <ele>835.2</ele>
        <time>2010-07-24T12:03:35Z</time>
      </trkpt>
      <trkpt lat="45.55751" lon="6.68498">
        <ele>833.8</ele>
        <time>2010-07-24T12:03:40Z</time>
      </trkpt>
      <trkpt lat="45.55742" lon="6.68472">
        <ele>831.6</ele>
        <time>2010-07-24T12:03:48Z</time>
      </trkpt>
      <trkpt lat="45.55731" lon="6.68449">
        <ele>830</ele>
        <time>2010-07-24T12:03:55Z</time>
      </trkpt>
      <trkpt lat="45.55724" lon="6.6843">
        <ele>828.8</ele>
        <time>2010-07-24T12:04:01Z</time>
      </trkpt>
      <trkpt lat="45.55727" lon="6.68426">
        <ele>828.4</ele>
        <time>2010-07-24T12:04:03Z</time>
      </trkpt>
      <trkpt lat="45.55746" lon="6.68423">
        <ele>827.4</ele>
        <time>2010-07-24T12:04:08Z</time>
      </trkpt>
      <trkpt lat="45.55767" lon="6.68427">
        <ele>826.2</ele>
        <time>2010-07-24T12:04:13Z</time>
      </trkpt>
      <trkpt lat="45.55784" lon="6.68439">
        <ele>824.6</ele>
        <time>2010-07-24T12:04:19Z</time>
      </trkpt>
      <trkpt lat="45.55792" lon="6.68447">
        <ele>823.8</ele>
        <time>2010-07-24T12:04:22Z</time>
      </trkpt>
      <trkpt lat="45.55802" lon="6.68453">
        <ele>823</ele>
        <time>2010-07-24T12:04:25Z</time>
      </trkpt>
      <trkpt lat="45.55811" lon="6.6846">
        <ele>822</ele>
        <time>2010-07-24T12:04:28Z</time>
      </trkpt>
      <trkpt lat="45.55819" lon="6.68465">
        <ele>821</ele>
        <time>2010-07-24T12:04:31Z</time>
      </trkpt>
      <trkpt lat="45.55825" lon="6.68465">
        <ele>820.4</ele>
        <time>2010-07-24T12:04:33Z</time>
      </trkpt>
      <trkpt lat="45.55836" lon="6.68456">
        <ele>819.2</ele>
        <time>2010-07-24T12:04:37Z</time>
      </trkpt>
      <trkpt lat="45.55851" lon="6.68436">
        <ele>817.2</ele>
        <time>2010-07-24T12:04:43Z</time>
      </trkpt>
      <trkpt lat="45.5587" lon="6.68427">
        <ele>815</ele>
        <time>2010-07-24T12:04:49Z</time>
      </trkpt>
      <trkpt lat="45.55888" lon="6.68417">
        <ele>812.8</ele>
        <time>2010-07-24T12:04:55Z</time>
      </trkpt>
      <trkpt lat="45.55908" lon="6.68408">
        <ele>810.6</ele>
        <time>2010-07-24T12:05:01Z</time>
      </trkpt>
      <trkpt lat="45.55928" lon="6.68401">
        <ele>808.4</ele>
        <time>2010-07-24T12:05:07Z</time>
      </trkpt>
      <trkpt lat="45.55948" lon="6.68405">
        <ele>806</ele>
        <time>2010-07-24T12:05:14Z</time>
      </trkpt>
      <trkpt lat="45.55964" lon="6.6841">
        <ele>803.8</ele>
        <time>2010-07-24T12:05:20Z</time>
      </trkpt>
      <trkpt lat="45.55967" lon="6.6841">
        <ele>803.4</ele>
        <time>2010-07-24T12:05:21Z</time>
      </trkpt>
      <trkpt lat="45.55987" lon="6.68412">
        <ele>801.2</ele>
        <time>2010-07-24T12:05:27Z</time>
      </trkpt>
      <trkpt lat="45.55991" lon="6.68413">
        <ele>800.8</ele>
        <time>2010-07-24T12:05:28Z</time>
      </trkpt>
      <trkpt lat="45.56006" lon="6.68418">
        <ele>798.8</ele>
        <time>2010-07-24T12:05:33Z</time>
      </trkpt>
      <trkpt lat="45.56025" lon="6.68413">
        <ele>796.6</ele>
        <time>2010-07-24T12:05:39Z</time>
      </trkpt>
      <trkpt lat="45.56039" lon="6.68393">
        <ele>794.2</ele>
        <time>2010-07-24T12:05:45Z</time>
      </trkpt>
      <trkpt lat="45.56039" lon="6.68367">
        <ele>791.8</ele>
        <time>2010-07-24T12:05:51Z</time>
      </trkpt>
      <trkpt lat="45.56049" lon="6.68342">
        <ele>789.2</ele>
        <time>2010-07-24T12:05:57Z</time>
      </trkpt>
      <trkpt lat="45.56061" lon="6.6832">
        <ele>786.6</ele>
        <time>2010-07-24T12:06:03Z</time>
      </trkpt>
      <trkpt lat="45.56061" lon="6.68291">
        <ele>783.8</ele>
        <time>2010-07-24T12:06:09Z</time>
      </trkpt>
      <trkpt lat="45.56061" lon="6.68277">
        <ele>782.4</ele>
        <time>2010-07-24T12:06:12Z</time>
      </trkpt>
      <trkpt lat="45.56066" lon="6.68266">
        <ele>781.2</ele>
        <time>2010-07-24T12:06:15Z</time>
      </trkpt>
      <trkpt lat="45.56068" lon="6.68262">
        <ele>780.6</ele>
        <time>2010-07-24T12:06:16Z</time>
      </trkpt>
      <trkpt lat="45.56076" lon="6.68239">
        <ele>778.4</ele>
        <time>2010-07-24T12:06:21Z</time>
      </trkpt>
      <trkpt lat="45.56093" lon="6.68221">
        <ele>776</ele>
        <time>2010-07-24T12:06:27Z</time>
      </trkpt>
      <trkpt lat="45.56109" lon="6.68205">
        <ele>773.8</ele>
        <time>2010-07-24T12:06:33Z</time>
      </trkpt>
      <trkpt lat="45.56117" lon="6.68181">
        <ele>771.4</ele>
        <time>2010-07-24T12:06:39Z</time>
      </trkpt>
      <trkpt lat="45.56124" lon="6.68156">
        <ele>769</ele>
        <time>2010-07-24T12:06:45Z</time>
      </trkpt>
      <trkpt lat="45.56139" lon="6.68137">
        <ele>766.2</ele>
        <time>2010-07-24T12:06:52Z</time>
      </trkpt>
      <trkpt lat="45.56154" lon="6.68119">
        <ele>763.6</ele>
        <time>2010-07-24T12:06:58Z</time>
      </trkpt>
      <trkpt lat="45.56168" lon="6.68101">
        <ele>761</ele>
        <time>2010-07-24T12:07:04Z</time>
      </trkpt>
      <trkpt lat="45.5618" lon="6.6808">
        <ele>758.4</ele>
        <time>2010-07-24T12:07:10Z</time>
      </trkpt>
      <trkpt lat="45.56182" lon="6.68053">
        <ele>755.6</ele>
        <time>2010-07-24T12:07:16Z</time>
      </trkpt>
      <trkpt lat="45.56182" lon="6.68026">
        <ele>753.4</ele>
        <time>2010-07-24T12:07:21Z</time>
      </trkpt>
      <trkpt lat="45.56187" lon="6.67999">
        <ele>750.6</ele>
        <time>2010-07-24T12:07:27Z</time>
      </trkpt>
      <trkpt lat="45.56188" lon="6.67986">
        <ele>749.2</ele>
        <time>2010-07-24T12:07:30Z</time>
      </trkpt>
      <trkpt lat="45.56193" lon="6.67975">
        <ele>747.8</ele>
        <time>2010-07-24T12:07:33Z</time>
      </trkpt>
      <trkpt lat="45.56203" lon="6.67966">
        <ele>745.8</ele>
        <time>2010-07-24T12:07:37Z</time>
      </trkpt>
      <trkpt lat="45.56208" lon="6.67959">
        <ele>744.8</ele>
        <time>2010-07-24T12:07:39Z</time>
      </trkpt>
      <trkpt lat="45.56225" lon="6.67942">
        <ele>742.4</ele>
        <time>2010-07-24T12:07:45Z</time>
      </trkpt>
      <trkpt lat="45.5624" lon="6.67926">
        <ele>739.4</ele>
        <time>2010-07-24T12:07:52Z</time>
      </trkpt>
      <trkpt lat="45.56239" lon="6.67919">
        <ele>738.6</ele>
        <time>2010-07-24T12:07:54Z</time>
      </trkpt>
      <trkpt lat="45.56235" lon="6.679">
        <ele>736.4</ele>
        <time>2010-07-24T12:07:59Z</time>
      </trkpt>
      <trkpt lat="45.56234" lon="6.67889">
        <ele>735.6</ele>
        <time>2010-07-24T12:08:01Z</time>
      </trkpt>
      <trkpt lat="45.5624" lon="6.67876">
        <ele>734.4</ele>
        <time>2010-07-24T12:08:04Z</time>
      </trkpt>
      <trkpt lat="45.56245" lon="6.67869">
        <ele>733.4</ele>
        <time>2010-07-24T12:08:06Z</time>
      </trkpt>
      <trkpt lat="45.56251" lon="6.67852">
        <ele>731.8</ele>
        <time>2010-07-24T12:08:10Z</time>
      </trkpt>
      <trkpt lat="45.56257" lon="6.67825">
        <ele>729</ele>
        <time>2010-07-24T12:08:16Z</time>
      </trkpt>
      <trkpt lat="45.56264" lon="6.67799">
        <ele>726.8</ele>
        <time>2010-07-24T12:08:22Z</time>
      </trkpt>
      <trkpt lat="45.56264" lon="6.67795">
        <ele>726.6</ele>
        <time>2010-07-24T12:08:23Z</time>
      </trkpt>
      <trkpt lat="45.56257" lon="6.67775">
        <ele>724.6</ele>
        <time>2010-07-24T12:08:28Z</time>
      </trkpt>
      <trkpt lat="45.56247" lon="6.6775">
        <ele>722.8</ele>
        <time>2010-07-24T12:08:34Z</time>
      </trkpt>
      <trkpt lat="45.56236" lon="6.67726">
        <ele>721</ele>
        <time>2010-07-24T12:08:40Z</time>
      </trkpt>
      <trkpt lat="45.56226" lon="6.67699">
        <ele>719.4</ele>
        <time>2010-07-24T12:08:46Z</time>
      </trkpt>
      <trkpt lat="45.56212" lon="6.67681">
        <ele>717.8</ele>
        <time>2010-07-24T12:08:52Z</time>
      </trkpt>
      <trkpt lat="45.56198" lon="6.67665">
        <ele>716.2</ele>
        <time>2010-07-24T12:08:58Z</time>
      </trkpt>
      <trkpt lat="45.56182" lon="6.67648">
        <ele>714.8</ele>
        <time>2010-07-24T12:09:04Z</time>
      </trkpt>
      <trkpt lat="45.56166" lon="6.67632">
        <ele>713.4</ele>
        <time>2010-07-24T12:09:10Z</time>
      </trkpt>
      <trkpt lat="45.56151" lon="6.67612">
        <ele>712</ele>
        <time>2010-07-24T12:09:17Z</time>
      </trkpt>
      <trkpt lat="45.56136" lon="6.67593">
        <ele>710.6</ele>
        <time>2010-07-24T12:09:24Z</time>
      </trkpt>
      <trkpt lat="45.56124" lon="6.6757">
        <ele>709.4</ele>
        <time>2010-07-24T12:09:30Z</time>
      </trkpt>
      <trkpt lat="45.56112" lon="6.67551">
        <ele>708.4</ele>
        <time>2010-07-24T12:09:35Z</time>
      </trkpt>
      <trkpt lat="45.56101" lon="6.67526">
        <ele>707</ele>
        <time>2010-07-24T12:09:41Z</time>
      </trkpt>
      <trkpt lat="45.56091" lon="6.67502">
        <ele>705.6</ele>
        <time>2010-07-24T12:09:47Z</time>
      </trkpt>
      <trkpt lat="45.56082" lon="6.67475">
        <ele>704.4</ele>
        <time>2010-07-24T12:09:53Z</time>
      </trkpt>
      <trkpt lat="45.56073" lon="6.67448">
        <ele>703</ele>
        <time>2010-07-24T12:09:59Z</time>
      </trkpt>
      <trkpt lat="45.56062" lon="6.67422">
        <ele>701.8</ele>
        <time>2010-07-24T12:10:05Z</time>
      </trkpt>
      <trkpt lat="45.56054" lon="6.67394">
        <ele>700.6</ele>
        <time>2010-07-24T12:10:11Z</time>
      </trkpt>
      <trkpt lat="45.56048" lon="6.6737">
        <ele>699.8</ele>
        <time>2010-07-24T12:10:16Z</time>
      </trkpt>
      <trkpt lat="45.56043" lon="6.67342">
        <ele>698.8</ele>
        <time>2010-07-24T12:10:22Z</time>
      </trkpt>
      <trkpt lat="45.56037" lon="6.67313">
        <ele>697.6</ele>
        <time>2010-07-24T12:10:28Z</time>
      </trkpt>
      <trkpt lat="45.56031" lon="6.67284">
        <ele>696.6</ele>
        <time>2010-07-24T12:10:34Z</time>
      </trkpt>
      <trkpt lat="45.56028" lon="6.67254">
        <ele>695.8</ele>
        <time>2010-07-24T12:10:40Z</time>
      </trkpt>
      <trkpt lat="45.56025" lon="6.67228">
        <ele>695</ele>
        <time>2010-07-24T12:10:45Z</time>
      </trkpt>
      <trkpt lat="45.56025" lon="6.67201">
        <ele>694.6</ele>
        <time>2010-07-24T12:10:50Z</time>
      </trkpt>
      <trkpt lat="45.5603" lon="6.67173">
        <ele>694.2</ele>
        <time>2010-07-24T12:10:56Z</time>
      </trkpt>
      <trkpt lat="45.56037" lon="6.67145">
        <ele>693.6</ele>
        <time>2010-07-24T12:11:02Z</time>
      </trkpt>
      <trkpt lat="45.56034" lon="6.67117">
        <ele>693</ele>
        <time>2010-07-24T12:11:08Z</time>
      </trkpt>
      <trkpt lat="45.56025" lon="6.6709">
        <ele>692.4</ele>
        <time>2010-07-24T12:11:14Z</time>
      </trkpt>
      <trkpt lat="45.56016" lon="6.67065">
        <ele>692</ele>
        <time>2010-07-24T12:11:20Z</time>
      </trkpt>
      <trkpt lat="45.56007" lon="6.6704">
        <ele>691.2</ele>
        <time>2010-07-24T12:11:27Z</time>
      </trkpt>
      <trkpt lat="45.55999" lon="6.67016">
        <ele>690.6</ele>
        <time>2010-07-24T12:11:33Z</time>
      </trkpt>
      <trkpt lat="45.5599" lon="6.66989">
        <ele>690</ele>
        <time>2010-07-24T12:11:39Z</time>
      </trkpt>
      <trkpt lat="45.55982" lon="6.66963">
        <ele>689.4</ele>
        <time>2010-07-24T12:11:45Z</time>
      </trkpt>
      <trkpt lat="45.55971" lon="6.6694">
        <ele>689</ele>
        <time>2010-07-24T12:11:51Z</time>
      </trkpt>
      <trkpt lat="45.5596" lon="6.66917">
        <ele>688.4</ele>
        <time>2010-07-24T12:11:57Z</time>
      </trkpt>
      <trkpt lat="45.55949" lon="6.66894">
        <ele>687.8</ele>
        <time>2010-07-24T12:12:03Z</time>
      </trkpt>
      <trkpt lat="45.5594" lon="6.66869">
        <ele>686.8</ele>
        <time>2010-07-24T12:12:10Z</time>
      </trkpt>
      <trkpt lat="45.55934" lon="6.66843">
        <ele>685.8</ele>
        <time>2010-07-24T12:12:17Z</time>
      </trkpt>
      <trkpt lat="45.55925" lon="6.66817">
        <ele>685.2</ele>
        <time>2010-07-24T12:12:24Z</time>
      </trkpt>
      <trkpt lat="45.55919" lon="6.66789">
        <ele>684.6</ele>
        <time>2010-07-24T12:12:30Z</time>
      </trkpt>
      <trkpt lat="45.55915" lon="6.66762">
        <ele>684</ele>
        <time>2010-07-24T12:12:36Z</time>
      </trkpt>
      <trkpt lat="45.55909" lon="6.66735">
        <ele>683.4</ele>
        <time>2010-07-24T12:12:42Z</time>
      </trkpt>
      <trkpt lat="45.55902" lon="6.66707">
        <ele>682.8</ele>
        <time>2010-07-24T12:12:48Z</time>
      </trkpt>
      <trkpt lat="45.55895" lon="6.66681">
        <ele>682.4</ele>
        <time>2010-07-24T12:12:54Z</time>
      </trkpt>
      <trkpt lat="45.55883" lon="6.6666">
        <ele>682</ele>
        <time>2010-07-24T12:13:00Z</time>
      </trkpt>
      <trkpt lat="45.55869" lon="6.66642">
        <ele>681.4</ele>
        <time>2010-07-24T12:13:06Z</time>
      </trkpt>
      <trkpt lat="45.55853" lon="6.66624">
        <ele>681</ele>
        <time>2010-07-24T12:13:12Z</time>
      </trkpt>
      <trkpt lat="45.55838" lon="6.66607">
        <ele>680.4</ele>
        <time>2010-07-24T12:13:18Z</time>
      </trkpt>
      <trkpt lat="45.55822" lon="6.66591">
        <ele>680</ele>
        <time>2010-07-24T12:13:25Z</time>
      </trkpt>
      <trkpt lat="45.55808" lon="6.6657">
        <ele>679.6</ele>
        <time>2010-07-24T12:13:31Z</time>
      </trkpt>
      <trkpt lat="45.55795" lon="6.66548">
        <ele>679.2</ele>
        <time>2010-07-24T12:13:37Z</time>
      </trkpt>
      <trkpt lat="45.55781" lon="6.66528">
        <ele>678.8</ele>
        <time>2010-07-24T12:13:43Z</time>
      </trkpt>
      <trkpt lat="45.55769" lon="6.66506">
        <ele>678.2</ele>
        <time>2010-07-24T12:13:49Z</time>
      </trkpt>
      <trkpt lat="45.55757" lon="6.66486">
        <ele>677.8</ele>
        <time>2010-07-24T12:13:55Z</time>
      </trkpt>
      <trkpt lat="45.55744" lon="6.66465">
        <ele>677.2</ele>
        <time>2010-07-24T12:14:01Z</time>
      </trkpt>
      <trkpt lat="45.55731" lon="6.66445">
        <ele>676.6</ele>
        <time>2010-07-24T12:14:07Z</time>
      </trkpt>
      <trkpt lat="45.5572" lon="6.66423">
        <ele>676.2</ele>
        <time>2010-07-24T12:14:13Z</time>
      </trkpt>
      <trkpt lat="45.5571" lon="6.66399">
        <ele>675.8</ele>
        <time>2010-07-24T12:14:19Z</time>
      </trkpt>
      <trkpt lat="45.55712" lon="6.66386">
        <ele>675.6</ele>
        <time>2010-07-24T12:14:22Z</time>
      </trkpt>
      <trkpt lat="45.5572" lon="6.6638">
        <ele>675.6</ele>
        <time>2010-07-24T12:14:25Z</time>
      </trkpt>
      <trkpt lat="45.55737" lon="6.66367">
        <ele>675.2</ele>
        <time>2010-07-24T12:14:32Z</time>
      </trkpt>
      <trkpt lat="45.55736" lon="6.66357">
        <ele>675</ele>
        <time>2010-07-24T12:14:35Z</time>
      </trkpt>
      <trkpt lat="45.55731" lon="6.66342">
        <ele>674.8</ele>
        <time>2010-07-24T12:14:39Z</time>
      </trkpt>
      <trkpt lat="45.55722" lon="6.66318">
        <ele>674.6</ele>
        <time>2010-07-24T12:14:45Z</time>
      </trkpt>
      <trkpt lat="45.55712" lon="6.66292">
        <ele>674.4</ele>
        <time>2010-07-24T12:14:51Z</time>
      </trkpt>
      <trkpt lat="45.55705" lon="6.66267">
        <ele>674.2</ele>
        <time>2010-07-24T12:14:57Z</time>
      </trkpt>
      <trkpt lat="45.55697" lon="6.66242">
        <ele>674</ele>
        <time>2010-07-24T12:15:03Z</time>
      </trkpt>
      <trkpt lat="45.5569" lon="6.66215">
        <ele>674</ele>
        <time>2010-07-24T12:15:09Z</time>
      </trkpt>
      <trkpt lat="45.55687" lon="6.66189">
        <ele>673.8</ele>
        <time>2010-07-24T12:15:15Z</time>
      </trkpt>
      <trkpt lat="45.55684" lon="6.66161">
        <ele>673.6</ele>
        <time>2010-07-24T12:15:22Z</time>
      </trkpt>
      <trkpt lat="45.55675" lon="6.66137">
        <ele>673.6</ele>
        <time>2010-07-24T12:15:28Z</time>
      </trkpt>
      <trkpt lat="45.55666" lon="6.66111">
        <ele>673.6</ele>
        <time>2010-07-24T12:15:34Z</time>
      </trkpt>
      <trkpt lat="45.5566" lon="6.66083">
        <ele>673.4</ele>
        <time>2010-07-24T12:15:41Z</time>
      </trkpt>
      <trkpt lat="45.55655" lon="6.66055">
        <ele>673.4</ele>
        <time>2010-07-24T12:15:48Z</time>
      </trkpt>
      <trkpt lat="45.55652" lon="6.66025">
        <ele>673.8</ele>
        <time>2010-07-24T12:15:55Z</time>
      </trkpt>
      <trkpt lat="45.5565" lon="6.65996">
        <ele>674.2</ele>
        <time>2010-07-24T12:16:02Z</time>
      </trkpt>
      <trkpt lat="45.5566" lon="6.65975">
        <ele>674.4</ele>
        <time>2010-07-24T12:16:09Z</time>
      </trkpt>
      <trkpt lat="45.55662" lon="6.65949">
        <ele>674.6</ele>
        <time>2010-07-24T12:16:16Z</time>
      </trkpt>
      <trkpt lat="45.55659" lon="6.6592">
        <ele>675</ele>
        <time>2010-07-24T12:16:23Z</time>
      </trkpt>
      <trkpt lat="45.55658" lon="6.65891">
        <ele>675.8</ele>
        <time>2010-07-24T12:16:30Z</time>
      </trkpt>
      <trkpt lat="45.55658" lon="6.65887">
        <ele>675.8</ele>
        <time>2010-07-24T12:16:31Z</time>
      </trkpt>
      <trkpt lat="45.55658" lon="6.65864">
        <ele>676.6</ele>
        <time>2010-07-24T12:16:37Z</time>
      </trkpt>
      <trkpt lat="45.55657" lon="6.65837">
        <ele>677.4</ele>
        <time>2010-07-24T12:16:44Z</time>
      </trkpt>
      <trkpt lat="45.55657" lon="6.65808">
        <ele>678.2</ele>
        <time>2010-07-24T12:16:51Z</time>
      </trkpt>
      <trkpt lat="45.55661" lon="6.65782">
        <ele>678.8</ele>
        <time>2010-07-24T12:16:58Z</time>
      </trkpt>
      <trkpt lat="45.5567" lon="6.65759">
        <ele>679.2</ele>
        <time>2010-07-24T12:17:05Z</time>
      </trkpt>
      <trkpt lat="45.55674" lon="6.65731">
        <ele>679.6</ele>
        <time>2010-07-24T12:17:13Z</time>
      </trkpt>
      <trkpt lat="45.55676" lon="6.65705">
        <ele>680.6</ele>
        <time>2010-07-24T12:17:21Z</time>
      </trkpt>
      <trkpt lat="45.5568" lon="6.6568">
        <ele>682</ele>
        <time>2010-07-24T12:17:28Z</time>
      </trkpt>
      <trkpt lat="45.55682" lon="6.65677">
        <ele>682.2</ele>
        <time>2010-07-24T12:17:29Z</time>
      </trkpt>
      <trkpt lat="45.55692" lon="6.65669">
        <ele>683.8</ele>
        <time>2010-07-24T12:17:34Z</time>
      </trkpt>
      <trkpt lat="45.55699" lon="6.65674">
        <ele>685</ele>
        <time>2010-07-24T12:17:37Z</time>
      </trkpt>
      <trkpt lat="45.55699" lon="6.65675">
        <ele>685.2</ele>
        <time>2010-07-24T12:17:38Z</time>
      </trkpt>
      <trkpt lat="45.55708" lon="6.6566">
        <ele>687.2</ele>
        <time>2010-07-24T12:17:44Z</time>
      </trkpt>
      <trkpt lat="45.55709" lon="6.65656">
        <ele>687.6</ele>
        <time>2010-07-24T12:17:45Z</time>
      </trkpt>
      <trkpt lat="45.5572" lon="6.65634">
        <ele>689.4</ele>
        <time>2010-07-24T12:17:52Z</time>
      </trkpt>
      <trkpt lat="45.55728" lon="6.65608">
        <ele>690.4</ele>
        <time>2010-07-24T12:17:59Z</time>
      </trkpt>
      <trkpt lat="45.55735" lon="6.65582">
        <ele>691</ele>
        <time>2010-07-24T12:18:06Z</time>
      </trkpt>
      <trkpt lat="45.5574" lon="6.65557">
        <ele>691.4</ele>
        <time>2010-07-24T12:18:12Z</time>
      </trkpt>
      <trkpt lat="45.55744" lon="6.65532">
        <ele>691.6</ele>
        <time>2010-07-24T12:18:18Z</time>
      </trkpt>
      <trkpt lat="45.55745" lon="6.65506">
        <ele>692</ele>
        <time>2010-07-24T12:18:24Z</time>
      </trkpt>
      <trkpt lat="45.55745" lon="6.65478">
        <ele>692.4</ele>
        <time>2010-07-24T12:18:31Z</time>
      </trkpt>
      <trkpt lat="45.55743" lon="6.6545">
        <ele>692.8</ele>
        <time>2010-07-24T12:18:38Z</time>
      </trkpt>
      <trkpt lat="45.55737" lon="6.65422">
        <ele>693.2</ele>
        <time>2010-07-24T12:18:45Z</time>
      </trkpt>
      <trkpt lat="45.5573" lon="6.65397">
        <ele>694</ele>
        <time>2010-07-24T12:18:51Z</time>
      </trkpt>
      <trkpt lat="45.55721" lon="6.65374">
        <ele>695</ele>
        <time>2010-07-24T12:18:57Z</time>
      </trkpt>
      <trkpt lat="45.5571" lon="6.6535">
        <ele>696.4</ele>
        <time>2010-07-24T12:19:04Z</time>
      </trkpt>
      <trkpt lat="45.55701" lon="6.65324">
        <ele>696.8</ele>
        <time>2010-07-24T12:19:12Z</time>
      </trkpt>
      <trkpt lat="45.55702" lon="6.65306">
        <ele>697</ele>
        <time>2010-07-24T12:19:17Z</time>
      </trkpt>
      <trkpt lat="45.55703" lon="6.65298">
        <ele>697</ele>
        <time>2010-07-24T12:19:19Z</time>
      </trkpt>
      <trkpt lat="45.55704" lon="6.65271">
        <ele>697.4</ele>
        <time>2010-07-24T12:19:26Z</time>
      </trkpt>
      <trkpt lat="45.55701" lon="6.65244">
        <ele>697.8</ele>
        <time>2010-07-24T12:19:32Z</time>
      </trkpt>
      <trkpt lat="45.55702" lon="6.65215">
        <ele>699.4</ele>
        <time>2010-07-24T12:19:38Z</time>
      </trkpt>
      <trkpt lat="45.55702" lon="6.65188">
        <ele>700.8</ele>
        <time>2010-07-24T12:19:44Z</time>
      </trkpt>
      <trkpt lat="45.55705" lon="6.65159">
        <ele>702</ele>
        <time>2010-07-24T12:19:50Z</time>
      </trkpt>
      <trkpt lat="45.55702" lon="6.65131">
        <ele>702.2</ele>
        <time>2010-07-24T12:19:57Z</time>
      </trkpt>
      <trkpt lat="45.55692" lon="6.65108">
        <ele>702.6</ele>
        <time>2010-07-24T12:20:02Z</time>
      </trkpt>
      <trkpt lat="45.55691" lon="6.65081">
        <ele>703</ele>
        <time>2010-07-24T12:20:08Z</time>
      </trkpt>
      <trkpt lat="45.55687" lon="6.65052">
        <ele>703.6</ele>
        <time>2010-07-24T12:20:14Z</time>
      </trkpt>
      <trkpt lat="45.55681" lon="6.65025">
        <ele>703.8</ele>
        <time>2010-07-24T12:20:20Z</time>
      </trkpt>
      <trkpt lat="45.55675" lon="6.65019">
        <ele>703.6</ele>
        <time>2010-07-24T12:20:23Z</time>
      </trkpt>
      <trkpt lat="45.55663" lon="6.65022">
        <ele>703.4</ele>
        <time>2010-07-24T12:20:27Z</time>
      </trkpt>
      <trkpt lat="45.55645" lon="6.65028">
        <ele>703</ele>
        <time>2010-07-24T12:20:32Z</time>
      </trkpt>
      <trkpt lat="45.55627" lon="6.65028">
        <ele>702.6</ele>
        <time>2010-07-24T12:20:38Z</time>
      </trkpt>
      <trkpt lat="45.5562" lon="6.65001">
        <ele>702</ele>
        <time>2010-07-24T12:20:44Z</time>
      </trkpt>
      <trkpt lat="45.55614" lon="6.64973">
        <ele>701.4</ele>
        <time>2010-07-24T12:20:50Z</time>
      </trkpt>
      <trkpt lat="45.55606" lon="6.64961">
        <ele>700.8</ele>
        <time>2010-07-24T12:20:54Z</time>
      </trkpt>
      <trkpt lat="45.55601" lon="6.64962">
        <ele>700.6</ele>
        <time>2010-07-24T12:20:56Z</time>
      </trkpt>
      <trkpt lat="45.55583" lon="6.64977">
        <ele>699.6</ele>
        <time>2010-07-24T12:21:02Z</time>
      </trkpt>
      <trkpt lat="45.5558" lon="6.6498">
        <ele>699.4</ele>
        <time>2010-07-24T12:21:03Z</time>
      </trkpt>
      <trkpt lat="45.55575" lon="6.64984">
        <ele>699</ele>
        <time>2010-07-24T12:21:05Z</time>
      </trkpt>
      <trkpt lat="45.55574" lon="6.65">
        <ele>698.4</ele>
        <time>2010-07-24T12:21:08Z</time>
      </trkpt>
      <trkpt lat="45.55573" lon="6.65012">
        <ele>698</ele>
        <time>2010-07-24T12:21:10Z</time>
      </trkpt>
      <trkpt lat="45.55573" lon="6.65031">
        <ele>697.4</ele>
        <time>2010-07-24T12:21:13Z</time>
      </trkpt>
      <trkpt lat="45.55576" lon="6.65058">
        <ele>696.4</ele>
        <time>2010-07-24T12:21:18Z</time>
      </trkpt>
      <trkpt lat="45.55581" lon="6.65086">
        <ele>695.6</ele>
        <time>2010-07-24T12:21:23Z</time>
      </trkpt>
    </trkseg>
  </trk>
</gpx>